<?xml version="1.0" encoding="UTF-8" standalone="no" ?>
<gpx xmlns="http://www.topografix.com/GPX/1/1" xmlns:xsi="http://www.w3.org/2001/XMLSchema-instance" xsi:schemaLocation="http://www.topografix.com/GPX/1/1 http://www.topografix.com/GPX/1/1/gpx.xsd" version="1.1" creator="VisuGPX - https://www.visugpx.com">
  <metadata>
    <name>chaux du dombief 2024</name>
    <desc><![CDATA[assez difficile]]></desc>
  </metadata>
  <trk>
    <name><![CDATA[2024-06-09 13:13:57]]></name>
    <trkseg>
      <trkpt lat="46.605" lon="5.90517">
        <ele>878.21</ele>
        <time>2024-06-09T06:53:45Z</time>
      </trkpt>
      <trkpt lat="46.605" lon="5.90518">
        <ele>874.21</ele>
        <time>2024-06-09T06:53:54Z</time>
      </trkpt>
      <trkpt lat="46.605" lon="5.90518">
        <ele>879.41</ele>
        <time>2024-06-09T06:53:55Z</time>
      </trkpt>
      <trkpt lat="46.605" lon="5.90518">
        <ele>879.41</ele>
        <time>2024-06-09T06:53:56Z</time>
      </trkpt>
      <trkpt lat="46.60501" lon="5.90516">
        <ele>879.36</ele>
        <time>2024-06-09T06:54:00Z</time>
      </trkpt>
      <trkpt lat="46.60502" lon="5.90502">
        <ele>879.43</ele>
        <time>2024-06-09T06:54:09Z</time>
      </trkpt>
      <trkpt lat="46.60499" lon="5.90498">
        <ele>879.38</ele>
        <time>2024-06-09T06:54:13Z</time>
      </trkpt>
      <trkpt lat="46.6049" lon="5.90485">
        <ele>880.68</ele>
        <time>2024-06-09T06:54:21Z</time>
      </trkpt>
      <trkpt lat="46.60479" lon="5.90465">
        <ele>881.76</ele>
        <time>2024-06-09T06:54:34Z</time>
      </trkpt>
      <trkpt lat="46.60486" lon="5.90444">
        <ele>884.36</ele>
        <time>2024-06-09T06:54:50Z</time>
      </trkpt>
      <trkpt lat="46.60495" lon="5.90426">
        <ele>886.17</ele>
        <time>2024-06-09T06:55:01Z</time>
      </trkpt>
      <trkpt lat="46.60506" lon="5.90427">
        <ele>886.98</ele>
        <time>2024-06-09T06:55:13Z</time>
      </trkpt>
      <trkpt lat="46.60507" lon="5.90428">
        <ele>886.98</ele>
        <time>2024-06-09T06:55:14Z</time>
      </trkpt>
      <trkpt lat="46.60514" lon="5.90431">
        <ele>886.85</ele>
        <time>2024-06-09T06:55:19Z</time>
      </trkpt>
      <trkpt lat="46.60516" lon="5.90432">
        <ele>884.07</ele>
        <time>2024-06-09T06:55:22Z</time>
      </trkpt>
      <trkpt lat="46.60532" lon="5.90415">
        <ele>886.29</ele>
        <time>2024-06-09T06:55:34Z</time>
      </trkpt>
      <trkpt lat="46.60535" lon="5.90411">
        <ele>886.25</ele>
        <time>2024-06-09T06:55:37Z</time>
      </trkpt>
      <trkpt lat="46.60542" lon="5.90406">
        <ele>886.22</ele>
        <time>2024-06-09T06:55:41Z</time>
      </trkpt>
      <trkpt lat="46.60559" lon="5.90396">
        <ele>886.91</ele>
        <time>2024-06-09T06:55:54Z</time>
      </trkpt>
      <trkpt lat="46.60569" lon="5.90395">
        <ele>886.98</ele>
        <time>2024-06-09T06:56:00Z</time>
      </trkpt>
      <trkpt lat="46.60592" lon="5.90394">
        <ele>887.59</ele>
        <time>2024-06-09T06:56:14Z</time>
      </trkpt>
      <trkpt lat="46.60613" lon="5.9039">
        <ele>887.23</ele>
        <time>2024-06-09T06:56:27Z</time>
      </trkpt>
      <trkpt lat="46.60629" lon="5.90389">
        <ele>889.12</ele>
        <time>2024-06-09T06:56:38Z</time>
      </trkpt>
      <trkpt lat="46.60632" lon="5.90385">
        <ele>889.1</ele>
        <time>2024-06-09T06:56:41Z</time>
      </trkpt>
      <trkpt lat="46.60636" lon="5.90383">
        <ele>889.9</ele>
        <time>2024-06-09T06:56:45Z</time>
      </trkpt>
      <trkpt lat="46.60651" lon="5.9039">
        <ele>889.53</ele>
        <time>2024-06-09T06:56:56Z</time>
      </trkpt>
      <trkpt lat="46.60667" lon="5.90396">
        <ele>890.09</ele>
        <time>2024-06-09T06:57:08Z</time>
      </trkpt>
      <trkpt lat="46.6068" lon="5.90416">
        <ele>889.91</ele>
        <time>2024-06-09T06:57:22Z</time>
      </trkpt>
      <trkpt lat="46.60682" lon="5.9042">
        <ele>887.42</ele>
        <time>2024-06-09T06:57:27Z</time>
      </trkpt>
      <trkpt lat="46.60689" lon="5.90448">
        <ele>886.66</ele>
        <time>2024-06-09T06:57:42Z</time>
      </trkpt>
      <trkpt lat="46.60703" lon="5.90469">
        <ele>886.39</ele>
        <time>2024-06-09T06:57:57Z</time>
      </trkpt>
      <trkpt lat="46.60706" lon="5.90474">
        <ele>889.19</ele>
        <time>2024-06-09T06:58:00Z</time>
      </trkpt>
      <trkpt lat="46.60725" lon="5.90488">
        <ele>889.11</ele>
        <time>2024-06-09T06:58:14Z</time>
      </trkpt>
      <trkpt lat="46.60744" lon="5.90493">
        <ele>889.13</ele>
        <time>2024-06-09T06:58:27Z</time>
      </trkpt>
      <trkpt lat="46.60762" lon="5.9049">
        <ele>889.73</ele>
        <time>2024-06-09T06:58:43Z</time>
      </trkpt>
      <trkpt lat="46.60771" lon="5.90486">
        <ele>892.45</ele>
        <time>2024-06-09T06:58:52Z</time>
      </trkpt>
      <trkpt lat="46.60791" lon="5.90472">
        <ele>893.35</ele>
        <time>2024-06-09T06:59:08Z</time>
      </trkpt>
      <trkpt lat="46.60806" lon="5.90464">
        <ele>893.18</ele>
        <time>2024-06-09T06:59:20Z</time>
      </trkpt>
      <trkpt lat="46.60807" lon="5.90463">
        <ele>893.16</ele>
        <time>2024-06-09T06:59:21Z</time>
      </trkpt>
      <trkpt lat="46.60819" lon="5.90459">
        <ele>893.11</ele>
        <time>2024-06-09T06:59:30Z</time>
      </trkpt>
      <trkpt lat="46.60824" lon="5.90442">
        <ele>896.31</ele>
        <time>2024-06-09T06:59:44Z</time>
      </trkpt>
      <trkpt lat="46.60825" lon="5.90441">
        <ele>896.3</ele>
        <time>2024-06-09T06:59:45Z</time>
      </trkpt>
      <trkpt lat="46.60824" lon="5.90428">
        <ele>898.1</ele>
        <time>2024-06-09T06:59:53Z</time>
      </trkpt>
      <trkpt lat="46.60814" lon="5.90418">
        <ele>899.21</ele>
        <time>2024-06-09T07:00:16Z</time>
      </trkpt>
      <trkpt lat="46.6081" lon="5.90422">
        <ele>901.5</ele>
        <time>2024-06-09T07:00:29Z</time>
      </trkpt>
      <trkpt lat="46.60805" lon="5.9042">
        <ele>901.61</ele>
        <time>2024-06-09T07:00:36Z</time>
      </trkpt>
      <trkpt lat="46.60796" lon="5.90421">
        <ele>901.37</ele>
        <time>2024-06-09T07:00:44Z</time>
      </trkpt>
      <trkpt lat="46.6079" lon="5.9043">
        <ele>903.19</ele>
        <time>2024-06-09T07:00:51Z</time>
      </trkpt>
      <trkpt lat="46.60778" lon="5.9044">
        <ele>900.63</ele>
        <time>2024-06-09T07:01:04Z</time>
      </trkpt>
      <trkpt lat="46.60774" lon="5.90442">
        <ele>899.08</ele>
        <time>2024-06-09T07:01:09Z</time>
      </trkpt>
      <trkpt lat="46.60773" lon="5.90443">
        <ele>896.97</ele>
        <time>2024-06-09T07:01:17Z</time>
      </trkpt>
      <trkpt lat="46.60777" lon="5.90434">
        <ele>894.9</ele>
        <time>2024-06-09T07:01:30Z</time>
      </trkpt>
      <trkpt lat="46.60781" lon="5.90422">
        <ele>892.94</ele>
        <time>2024-06-09T07:01:37Z</time>
      </trkpt>
      <trkpt lat="46.60784" lon="5.90415">
        <ele>892.12</ele>
        <time>2024-06-09T07:01:42Z</time>
      </trkpt>
      <trkpt lat="46.60785" lon="5.90412">
        <ele>890.39</ele>
        <time>2024-06-09T07:01:44Z</time>
      </trkpt>
      <trkpt lat="46.60789" lon="5.90405">
        <ele>889.25</ele>
        <time>2024-06-09T07:01:54Z</time>
      </trkpt>
      <trkpt lat="46.60793" lon="5.90405">
        <ele>887.77</ele>
        <time>2024-06-09T07:01:58Z</time>
      </trkpt>
      <trkpt lat="46.60796" lon="5.90402">
        <ele>886.17</ele>
        <time>2024-06-09T07:02:01Z</time>
      </trkpt>
      <trkpt lat="46.60808" lon="5.90398">
        <ele>886.03</ele>
        <time>2024-06-09T07:02:09Z</time>
      </trkpt>
      <trkpt lat="46.60831" lon="5.90387">
        <ele>886.13</ele>
        <time>2024-06-09T07:02:24Z</time>
      </trkpt>
      <trkpt lat="46.60841" lon="5.90383">
        <ele>888.51</ele>
        <time>2024-06-09T07:02:31Z</time>
      </trkpt>
      <trkpt lat="46.60845" lon="5.90381">
        <ele>888.51</ele>
        <time>2024-06-09T07:02:34Z</time>
      </trkpt>
      <trkpt lat="46.60865" lon="5.90369">
        <ele>888.32</ele>
        <time>2024-06-09T07:02:47Z</time>
      </trkpt>
      <trkpt lat="46.60884" lon="5.9037">
        <ele>889.27</ele>
        <time>2024-06-09T07:03:01Z</time>
      </trkpt>
      <trkpt lat="46.60888" lon="5.9037">
        <ele>889.08</ele>
        <time>2024-06-09T07:03:03Z</time>
      </trkpt>
      <trkpt lat="46.60901" lon="5.90362">
        <ele>891.82</ele>
        <time>2024-06-09T07:03:16Z</time>
      </trkpt>
      <trkpt lat="46.60905" lon="5.90353">
        <ele>895.42</ele>
        <time>2024-06-09T07:03:26Z</time>
      </trkpt>
      <trkpt lat="46.60907" lon="5.90346">
        <ele>893.75</ele>
        <time>2024-06-09T07:03:36Z</time>
      </trkpt>
      <trkpt lat="46.60914" lon="5.90332">
        <ele>890.94</ele>
        <time>2024-06-09T07:03:48Z</time>
      </trkpt>
      <trkpt lat="46.60919" lon="5.90321">
        <ele>888.08</ele>
        <time>2024-06-09T07:04:03Z</time>
      </trkpt>
      <trkpt lat="46.60918" lon="5.90314">
        <ele>884.47</ele>
        <time>2024-06-09T07:04:17Z</time>
      </trkpt>
      <trkpt lat="46.60922" lon="5.90304">
        <ele>881.93</ele>
        <time>2024-06-09T07:04:24Z</time>
      </trkpt>
      <trkpt lat="46.60925" lon="5.90298">
        <ele>880.55</ele>
        <time>2024-06-09T07:04:27Z</time>
      </trkpt>
      <trkpt lat="46.6093" lon="5.90292">
        <ele>879.34</ele>
        <time>2024-06-09T07:04:31Z</time>
      </trkpt>
      <trkpt lat="46.60942" lon="5.90275">
        <ele>878</ele>
        <time>2024-06-09T07:04:43Z</time>
      </trkpt>
      <trkpt lat="46.60954" lon="5.90267">
        <ele>876.03</ele>
        <time>2024-06-09T07:04:52Z</time>
      </trkpt>
      <trkpt lat="46.60958" lon="5.90263">
        <ele>874.68</ele>
        <time>2024-06-09T07:04:56Z</time>
      </trkpt>
      <trkpt lat="46.60966" lon="5.90255">
        <ele>873.12</ele>
        <time>2024-06-09T07:05:03Z</time>
      </trkpt>
      <trkpt lat="46.60975" lon="5.9024">
        <ele>872.21</ele>
        <time>2024-06-09T07:05:13Z</time>
      </trkpt>
      <trkpt lat="46.60977" lon="5.90238">
        <ele>870.32</ele>
        <time>2024-06-09T07:05:15Z</time>
      </trkpt>
      <trkpt lat="46.60981" lon="5.90239">
        <ele>870.33</ele>
        <time>2024-06-09T07:05:20Z</time>
      </trkpt>
      <trkpt lat="46.60983" lon="5.9024">
        <ele>870.31</ele>
        <time>2024-06-09T07:05:22Z</time>
      </trkpt>
      <trkpt lat="46.60989" lon="5.90242">
        <ele>870.23</ele>
        <time>2024-06-09T07:05:49Z</time>
      </trkpt>
      <trkpt lat="46.60992" lon="5.90237">
        <ele>870.15</ele>
        <time>2024-06-09T07:05:54Z</time>
      </trkpt>
      <trkpt lat="46.60997" lon="5.90231">
        <ele>868.88</ele>
        <time>2024-06-09T07:06:00Z</time>
      </trkpt>
      <trkpt lat="46.61016" lon="5.9021">
        <ele>865.19</ele>
        <time>2024-06-09T07:06:20Z</time>
      </trkpt>
      <trkpt lat="46.61017" lon="5.90209">
        <ele>865.19</ele>
        <time>2024-06-09T07:06:21Z</time>
      </trkpt>
      <trkpt lat="46.61041" lon="5.90195">
        <ele>863.36</ele>
        <time>2024-06-09T07:06:36Z</time>
      </trkpt>
      <trkpt lat="46.61059" lon="5.9018">
        <ele>861.44</ele>
        <time>2024-06-09T07:06:47Z</time>
      </trkpt>
      <trkpt lat="46.61071" lon="5.90171">
        <ele>859.44</ele>
        <time>2024-06-09T07:06:56Z</time>
      </trkpt>
      <trkpt lat="46.61077" lon="5.90167">
        <ele>858.56</ele>
        <time>2024-06-09T07:07:01Z</time>
      </trkpt>
      <trkpt lat="46.61094" lon="5.90171">
        <ele>858.64</ele>
        <time>2024-06-09T07:07:16Z</time>
      </trkpt>
      <trkpt lat="46.61103" lon="5.90167">
        <ele>861.18</ele>
        <time>2024-06-09T07:07:22Z</time>
      </trkpt>
      <trkpt lat="46.61114" lon="5.90161">
        <ele>861.88</ele>
        <time>2024-06-09T07:07:37Z</time>
      </trkpt>
      <trkpt lat="46.6113" lon="5.90155">
        <ele>862.57</ele>
        <time>2024-06-09T07:07:51Z</time>
      </trkpt>
      <trkpt lat="46.61132" lon="5.90154">
        <ele>862.52</ele>
        <time>2024-06-09T07:07:55Z</time>
      </trkpt>
      <trkpt lat="46.61135" lon="5.90153">
        <ele>862.47</ele>
        <time>2024-06-09T07:07:58Z</time>
      </trkpt>
      <trkpt lat="46.61146" lon="5.90148">
        <ele>862.24</ele>
        <time>2024-06-09T07:08:10Z</time>
      </trkpt>
      <trkpt lat="46.61149" lon="5.90145">
        <ele>864.47</ele>
        <time>2024-06-09T07:08:19Z</time>
      </trkpt>
      <trkpt lat="46.61153" lon="5.90147">
        <ele>864.23</ele>
        <time>2024-06-09T07:08:23Z</time>
      </trkpt>
      <trkpt lat="46.61159" lon="5.90147">
        <ele>864.96</ele>
        <time>2024-06-09T07:08:31Z</time>
      </trkpt>
      <trkpt lat="46.61168" lon="5.90139">
        <ele>868</ele>
        <time>2024-06-09T07:08:49Z</time>
      </trkpt>
      <trkpt lat="46.6117" lon="5.9014">
        <ele>867.87</ele>
        <time>2024-06-09T07:08:53Z</time>
      </trkpt>
      <trkpt lat="46.61176" lon="5.90137">
        <ele>870.03</ele>
        <time>2024-06-09T07:09:02Z</time>
      </trkpt>
      <trkpt lat="46.61179" lon="5.9014">
        <ele>869.76</ele>
        <time>2024-06-09T07:09:07Z</time>
      </trkpt>
      <trkpt lat="46.61189" lon="5.90135">
        <ele>873.18</ele>
        <time>2024-06-09T07:09:27Z</time>
      </trkpt>
      <trkpt lat="46.61199" lon="5.90128">
        <ele>876.42</ele>
        <time>2024-06-09T07:09:41Z</time>
      </trkpt>
      <trkpt lat="46.61208" lon="5.90134">
        <ele>878.39</ele>
        <time>2024-06-09T07:09:59Z</time>
      </trkpt>
      <trkpt lat="46.61209" lon="5.90135">
        <ele>878.32</ele>
        <time>2024-06-09T07:10:05Z</time>
      </trkpt>
      <trkpt lat="46.61207" lon="5.90146">
        <ele>880.78</ele>
        <time>2024-06-09T07:10:23Z</time>
      </trkpt>
      <trkpt lat="46.61212" lon="5.90165">
        <ele>883.17</ele>
        <time>2024-06-09T07:10:44Z</time>
      </trkpt>
      <trkpt lat="46.61216" lon="5.90164">
        <ele>885.44</ele>
        <time>2024-06-09T07:10:54Z</time>
      </trkpt>
      <trkpt lat="46.61216" lon="5.90164">
        <ele>885.36</ele>
        <time>2024-06-09T07:10:58Z</time>
      </trkpt>
      <trkpt lat="46.61217" lon="5.90168">
        <ele>886.58</ele>
        <time>2024-06-09T07:11:01Z</time>
      </trkpt>
      <trkpt lat="46.61217" lon="5.90169">
        <ele>886.62</ele>
        <time>2024-06-09T07:11:03Z</time>
      </trkpt>
      <trkpt lat="46.61218" lon="5.90175">
        <ele>887.47</ele>
        <time>2024-06-09T07:11:13Z</time>
      </trkpt>
      <trkpt lat="46.61221" lon="5.90176">
        <ele>888.89</ele>
        <time>2024-06-09T07:11:16Z</time>
      </trkpt>
      <trkpt lat="46.61223" lon="5.90176">
        <ele>888.83</ele>
        <time>2024-06-09T07:11:19Z</time>
      </trkpt>
      <trkpt lat="46.61227" lon="5.90178">
        <ele>889.58</ele>
        <time>2024-06-09T07:11:26Z</time>
      </trkpt>
      <trkpt lat="46.61238" lon="5.9018">
        <ele>891.66</ele>
        <time>2024-06-09T07:11:43Z</time>
      </trkpt>
      <trkpt lat="46.61245" lon="5.90184">
        <ele>893.3</ele>
        <time>2024-06-09T07:12:00Z</time>
      </trkpt>
      <trkpt lat="46.61251" lon="5.90177">
        <ele>895.18</ele>
        <time>2024-06-09T07:12:18Z</time>
      </trkpt>
      <trkpt lat="46.61255" lon="5.90177">
        <ele>896.58</ele>
        <time>2024-06-09T07:12:24Z</time>
      </trkpt>
      <trkpt lat="46.61259" lon="5.90175">
        <ele>897.37</ele>
        <time>2024-06-09T07:12:32Z</time>
      </trkpt>
      <trkpt lat="46.61264" lon="5.9017">
        <ele>898.61</ele>
        <time>2024-06-09T07:12:40Z</time>
      </trkpt>
      <trkpt lat="46.61273" lon="5.90162">
        <ele>900.08</ele>
        <time>2024-06-09T07:12:56Z</time>
      </trkpt>
      <trkpt lat="46.61283" lon="5.90159">
        <ele>901.55</ele>
        <time>2024-06-09T07:13:17Z</time>
      </trkpt>
      <trkpt lat="46.61288" lon="5.90155">
        <ele>903.43</ele>
        <time>2024-06-09T07:13:35Z</time>
      </trkpt>
      <trkpt lat="46.61292" lon="5.9016">
        <ele>906.78</ele>
        <time>2024-06-09T07:13:49Z</time>
      </trkpt>
      <trkpt lat="46.61292" lon="5.90161">
        <ele>906.76</ele>
        <time>2024-06-09T07:13:50Z</time>
      </trkpt>
      <trkpt lat="46.61294" lon="5.90164">
        <ele>907.35</ele>
        <time>2024-06-09T07:14:01Z</time>
      </trkpt>
      <trkpt lat="46.61294" lon="5.90165">
        <ele>908.61</ele>
        <time>2024-06-09T07:14:03Z</time>
      </trkpt>
      <trkpt lat="46.61296" lon="5.90167">
        <ele>909.67</ele>
        <time>2024-06-09T07:14:13Z</time>
      </trkpt>
      <trkpt lat="46.61294" lon="5.90172">
        <ele>909.72</ele>
        <time>2024-06-09T07:14:19Z</time>
      </trkpt>
      <trkpt lat="46.61298" lon="5.90182">
        <ele>909.36</ele>
        <time>2024-06-09T07:14:28Z</time>
      </trkpt>
      <trkpt lat="46.613" lon="5.90185">
        <ele>909.25</ele>
        <time>2024-06-09T07:14:31Z</time>
      </trkpt>
      <trkpt lat="46.61307" lon="5.90197">
        <ele>910.95</ele>
        <time>2024-06-09T07:14:47Z</time>
      </trkpt>
      <trkpt lat="46.61308" lon="5.90198">
        <ele>911.98</ele>
        <time>2024-06-09T07:14:51Z</time>
      </trkpt>
      <trkpt lat="46.61313" lon="5.90205">
        <ele>913.6</ele>
        <time>2024-06-09T07:15:01Z</time>
      </trkpt>
      <trkpt lat="46.61321" lon="5.90213">
        <ele>915.37</ele>
        <time>2024-06-09T07:15:11Z</time>
      </trkpt>
      <trkpt lat="46.61324" lon="5.90217">
        <ele>915.16</ele>
        <time>2024-06-09T07:15:15Z</time>
      </trkpt>
      <trkpt lat="46.61327" lon="5.90223">
        <ele>916.14</ele>
        <time>2024-06-09T07:15:21Z</time>
      </trkpt>
      <trkpt lat="46.61328" lon="5.90224">
        <ele>916.05</ele>
        <time>2024-06-09T07:15:23Z</time>
      </trkpt>
      <trkpt lat="46.61331" lon="5.90233">
        <ele>916.58</ele>
        <time>2024-06-09T07:15:28Z</time>
      </trkpt>
      <trkpt lat="46.61334" lon="5.90244">
        <ele>917.51</ele>
        <time>2024-06-09T07:15:37Z</time>
      </trkpt>
      <trkpt lat="46.61346" lon="5.90257">
        <ele>919.03</ele>
        <time>2024-06-09T07:15:52Z</time>
      </trkpt>
      <trkpt lat="46.61354" lon="5.90257">
        <ele>919.61</ele>
        <time>2024-06-09T07:16:00Z</time>
      </trkpt>
      <trkpt lat="46.61354" lon="5.90265">
        <ele>919.58</ele>
        <time>2024-06-09T07:16:04Z</time>
      </trkpt>
      <trkpt lat="46.61349" lon="5.90263">
        <ele>920.29</ele>
        <time>2024-06-09T07:16:11Z</time>
      </trkpt>
      <trkpt lat="46.61353" lon="5.90264">
        <ele>921.13</ele>
        <time>2024-06-09T07:16:14Z</time>
      </trkpt>
      <trkpt lat="46.61362" lon="5.90269">
        <ele>921.04</ele>
        <time>2024-06-09T07:16:25Z</time>
      </trkpt>
      <trkpt lat="46.61363" lon="5.90271">
        <ele>922.38</ele>
        <time>2024-06-09T07:16:27Z</time>
      </trkpt>
      <trkpt lat="46.61379" lon="5.90279">
        <ele>922.9</ele>
        <time>2024-06-09T07:16:43Z</time>
      </trkpt>
      <trkpt lat="46.61384" lon="5.90281">
        <ele>924.58</ele>
        <time>2024-06-09T07:16:50Z</time>
      </trkpt>
      <trkpt lat="46.61385" lon="5.90282">
        <ele>925.53</ele>
        <time>2024-06-09T07:16:52Z</time>
      </trkpt>
      <trkpt lat="46.6139" lon="5.90282">
        <ele>926.75</ele>
        <time>2024-06-09T07:16:57Z</time>
      </trkpt>
      <trkpt lat="46.61394" lon="5.90282">
        <ele>928.08</ele>
        <time>2024-06-09T07:17:01Z</time>
      </trkpt>
      <trkpt lat="46.61395" lon="5.90282">
        <ele>928.14</ele>
        <time>2024-06-09T07:17:02Z</time>
      </trkpt>
      <trkpt lat="46.61404" lon="5.9028">
        <ele>930</ele>
        <time>2024-06-09T07:17:10Z</time>
      </trkpt>
      <trkpt lat="46.61408" lon="5.90278">
        <ele>933.37</ele>
        <time>2024-06-09T07:17:21Z</time>
      </trkpt>
      <trkpt lat="46.61408" lon="5.90277">
        <ele>933.36</ele>
        <time>2024-06-09T07:17:22Z</time>
      </trkpt>
      <trkpt lat="46.61414" lon="5.9028">
        <ele>936.95</ele>
        <time>2024-06-09T07:17:35Z</time>
      </trkpt>
      <trkpt lat="46.61419" lon="5.9028">
        <ele>939.08</ele>
        <time>2024-06-09T07:17:41Z</time>
      </trkpt>
      <trkpt lat="46.61425" lon="5.90278">
        <ele>940.97</ele>
        <time>2024-06-09T07:17:50Z</time>
      </trkpt>
      <trkpt lat="46.61429" lon="5.90278">
        <ele>942.24</ele>
        <time>2024-06-09T07:17:54Z</time>
      </trkpt>
      <trkpt lat="46.61432" lon="5.90272">
        <ele>944.73</ele>
        <time>2024-06-09T07:18:09Z</time>
      </trkpt>
      <trkpt lat="46.61433" lon="5.90265">
        <ele>947.56</ele>
        <time>2024-06-09T07:18:25Z</time>
      </trkpt>
      <trkpt lat="46.61435" lon="5.90259">
        <ele>948.98</ele>
        <time>2024-06-09T07:18:33Z</time>
      </trkpt>
      <trkpt lat="46.61443" lon="5.90252">
        <ele>952.19</ele>
        <time>2024-06-09T07:18:46Z</time>
      </trkpt>
      <trkpt lat="46.61443" lon="5.90251">
        <ele>952.19</ele>
        <time>2024-06-09T07:18:47Z</time>
      </trkpt>
      <trkpt lat="46.61454" lon="5.90244">
        <ele>956.04</ele>
        <time>2024-06-09T07:19:02Z</time>
      </trkpt>
      <trkpt lat="46.61457" lon="5.90241">
        <ele>957.55</ele>
        <time>2024-06-09T07:19:09Z</time>
      </trkpt>
      <trkpt lat="46.6146" lon="5.90238">
        <ele>958.79</ele>
        <time>2024-06-09T07:19:14Z</time>
      </trkpt>
      <trkpt lat="46.61461" lon="5.90237">
        <ele>958.75</ele>
        <time>2024-06-09T07:19:16Z</time>
      </trkpt>
      <trkpt lat="46.61464" lon="5.90234">
        <ele>961.37</ele>
        <time>2024-06-09T07:19:35Z</time>
      </trkpt>
      <trkpt lat="46.61466" lon="5.90233">
        <ele>963.57</ele>
        <time>2024-06-09T07:19:52Z</time>
      </trkpt>
      <trkpt lat="46.61468" lon="5.90221">
        <ele>965.27</ele>
        <time>2024-06-09T07:20:12Z</time>
      </trkpt>
      <trkpt lat="46.61465" lon="5.90214">
        <ele>965.78</ele>
        <time>2024-06-09T07:20:35Z</time>
      </trkpt>
      <trkpt lat="46.61465" lon="5.90206">
        <ele>965.83</ele>
        <time>2024-06-09T07:21:06Z</time>
      </trkpt>
      <trkpt lat="46.61465" lon="5.90208">
        <ele>965.99</ele>
        <time>2024-06-09T07:21:33Z</time>
      </trkpt>
      <trkpt lat="46.61465" lon="5.90206">
        <ele>966</ele>
        <time>2024-06-09T07:21:51Z</time>
      </trkpt>
      <trkpt lat="46.61472" lon="5.90211">
        <ele>966.11</ele>
        <time>2024-06-09T07:22:09Z</time>
      </trkpt>
      <trkpt lat="46.6148" lon="5.90217">
        <ele>968.6</ele>
        <time>2024-06-09T07:22:21Z</time>
      </trkpt>
      <trkpt lat="46.61482" lon="5.90227">
        <ele>971.54</ele>
        <time>2024-06-09T07:22:41Z</time>
      </trkpt>
      <trkpt lat="46.61481" lon="5.90228">
        <ele>972.81</ele>
        <time>2024-06-09T07:22:44Z</time>
      </trkpt>
      <trkpt lat="46.61477" lon="5.9023">
        <ele>973.74</ele>
        <time>2024-06-09T07:23:08Z</time>
      </trkpt>
      <trkpt lat="46.61477" lon="5.90233">
        <ele>974.01</ele>
        <time>2024-06-09T07:23:39Z</time>
      </trkpt>
      <trkpt lat="46.61477" lon="5.90233">
        <ele>974.29</ele>
        <time>2024-06-09T07:24:11Z</time>
      </trkpt>
      <trkpt lat="46.61479" lon="5.90234">
        <ele>974.29</ele>
        <time>2024-06-09T07:24:16Z</time>
      </trkpt>
      <trkpt lat="46.61492" lon="5.90245">
        <ele>974.46</ele>
        <time>2024-06-09T07:24:32Z</time>
      </trkpt>
      <trkpt lat="46.61495" lon="5.90248">
        <ele>975.81</ele>
        <time>2024-06-09T07:24:37Z</time>
      </trkpt>
      <trkpt lat="46.61504" lon="5.90261">
        <ele>976.86</ele>
        <time>2024-06-09T07:24:53Z</time>
      </trkpt>
      <trkpt lat="46.61507" lon="5.90267">
        <ele>974.47</ele>
        <time>2024-06-09T07:24:57Z</time>
      </trkpt>
      <trkpt lat="46.6151" lon="5.90268">
        <ele>973.05</ele>
        <time>2024-06-09T07:25:03Z</time>
      </trkpt>
      <trkpt lat="46.6152" lon="5.9028">
        <ele>975.01</ele>
        <time>2024-06-09T07:25:17Z</time>
      </trkpt>
      <trkpt lat="46.61529" lon="5.90291">
        <ele>978.08</ele>
        <time>2024-06-09T07:25:28Z</time>
      </trkpt>
      <trkpt lat="46.61531" lon="5.90294">
        <ele>978.07</ele>
        <time>2024-06-09T07:25:30Z</time>
      </trkpt>
      <trkpt lat="46.6154" lon="5.90313">
        <ele>977.99</ele>
        <time>2024-06-09T07:25:43Z</time>
      </trkpt>
      <trkpt lat="46.61543" lon="5.90319">
        <ele>977.93</ele>
        <time>2024-06-09T07:25:47Z</time>
      </trkpt>
      <trkpt lat="46.61544" lon="5.90322">
        <ele>975.57</ele>
        <time>2024-06-09T07:25:49Z</time>
      </trkpt>
      <trkpt lat="46.61545" lon="5.90325">
        <ele>975.53</ele>
        <time>2024-06-09T07:25:51Z</time>
      </trkpt>
      <trkpt lat="46.61549" lon="5.90328">
        <ele>973.97</ele>
        <time>2024-06-09T07:25:54Z</time>
      </trkpt>
      <trkpt lat="46.61559" lon="5.90341">
        <ele>971.2</ele>
        <time>2024-06-09T07:26:08Z</time>
      </trkpt>
      <trkpt lat="46.61579" lon="5.90369">
        <ele>969.67</ele>
        <time>2024-06-09T07:26:29Z</time>
      </trkpt>
      <trkpt lat="46.61602" lon="5.90403">
        <ele>966.49</ele>
        <time>2024-06-09T07:26:52Z</time>
      </trkpt>
      <trkpt lat="46.61621" lon="5.90424">
        <ele>963.62</ele>
        <time>2024-06-09T07:27:13Z</time>
      </trkpt>
      <trkpt lat="46.61639" lon="5.90438">
        <ele>961.55</ele>
        <time>2024-06-09T07:27:27Z</time>
      </trkpt>
      <trkpt lat="46.61648" lon="5.90442">
        <ele>963.91</ele>
        <time>2024-06-09T07:27:34Z</time>
      </trkpt>
      <trkpt lat="46.61661" lon="5.9045">
        <ele>963.74</ele>
        <time>2024-06-09T07:27:48Z</time>
      </trkpt>
      <trkpt lat="46.61681" lon="5.90449">
        <ele>961.2</ele>
        <time>2024-06-09T07:27:59Z</time>
      </trkpt>
      <trkpt lat="46.61694" lon="5.90444">
        <ele>958.06</ele>
        <time>2024-06-09T07:28:10Z</time>
      </trkpt>
      <trkpt lat="46.61706" lon="5.90437">
        <ele>956.32</ele>
        <time>2024-06-09T07:28:19Z</time>
      </trkpt>
      <trkpt lat="46.61721" lon="5.9042">
        <ele>952.72</ele>
        <time>2024-06-09T07:28:35Z</time>
      </trkpt>
      <trkpt lat="46.61721" lon="5.9042">
        <ele>952.72</ele>
        <time>2024-06-09T07:28:36Z</time>
      </trkpt>
      <trkpt lat="46.61733" lon="5.90413">
        <ele>951.81</ele>
        <time>2024-06-09T07:28:54Z</time>
      </trkpt>
      <trkpt lat="46.61738" lon="5.90415">
        <ele>954.09</ele>
        <time>2024-06-09T07:28:59Z</time>
      </trkpt>
      <trkpt lat="46.61739" lon="5.90416">
        <ele>954.03</ele>
        <time>2024-06-09T07:29:01Z</time>
      </trkpt>
      <trkpt lat="46.61766" lon="5.9043">
        <ele>956.29</ele>
        <time>2024-06-09T07:29:23Z</time>
      </trkpt>
      <trkpt lat="46.61787" lon="5.90437">
        <ele>956.81</ele>
        <time>2024-06-09T07:29:45Z</time>
      </trkpt>
      <trkpt lat="46.61803" lon="5.90447">
        <ele>957.56</ele>
        <time>2024-06-09T07:30:00Z</time>
      </trkpt>
      <trkpt lat="46.61819" lon="5.90462">
        <ele>954.52</ele>
        <time>2024-06-09T07:30:14Z</time>
      </trkpt>
      <trkpt lat="46.61821" lon="5.90463">
        <ele>954.51</ele>
        <time>2024-06-09T07:30:15Z</time>
      </trkpt>
      <trkpt lat="46.61834" lon="5.90478">
        <ele>951.46</ele>
        <time>2024-06-09T07:30:27Z</time>
      </trkpt>
      <trkpt lat="46.61842" lon="5.90491">
        <ele>947.81</ele>
        <time>2024-06-09T07:30:39Z</time>
      </trkpt>
      <trkpt lat="46.61843" lon="5.90492">
        <ele>947.83</ele>
        <time>2024-06-09T07:30:40Z</time>
      </trkpt>
      <trkpt lat="46.61846" lon="5.905">
        <ele>946.54</ele>
        <time>2024-06-09T07:30:46Z</time>
      </trkpt>
      <trkpt lat="46.61851" lon="5.90517">
        <ele>942.11</ele>
        <time>2024-06-09T07:30:59Z</time>
      </trkpt>
      <trkpt lat="46.61851" lon="5.9052">
        <ele>942.11</ele>
        <time>2024-06-09T07:31:00Z</time>
      </trkpt>
      <trkpt lat="46.61876" lon="5.9054">
        <ele>940.92</ele>
        <time>2024-06-09T07:31:23Z</time>
      </trkpt>
      <trkpt lat="46.61892" lon="5.9056">
        <ele>940.83</ele>
        <time>2024-06-09T07:31:40Z</time>
      </trkpt>
      <trkpt lat="46.61911" lon="5.90583">
        <ele>943.73</ele>
        <time>2024-06-09T07:31:57Z</time>
      </trkpt>
      <trkpt lat="46.6193" lon="5.90608">
        <ele>943.48</ele>
        <time>2024-06-09T07:32:14Z</time>
      </trkpt>
      <trkpt lat="46.61942" lon="5.90626">
        <ele>943.33</ele>
        <time>2024-06-09T07:32:27Z</time>
      </trkpt>
      <trkpt lat="46.61947" lon="5.90634">
        <ele>940.93</ele>
        <time>2024-06-09T07:32:31Z</time>
      </trkpt>
      <trkpt lat="46.61951" lon="5.9064">
        <ele>939.68</ele>
        <time>2024-06-09T07:32:34Z</time>
      </trkpt>
      <trkpt lat="46.61957" lon="5.90644">
        <ele>939.67</ele>
        <time>2024-06-09T07:32:38Z</time>
      </trkpt>
      <trkpt lat="46.61959" lon="5.90647">
        <ele>939.67</ele>
        <time>2024-06-09T07:32:40Z</time>
      </trkpt>
      <trkpt lat="46.61965" lon="5.90654">
        <ele>936.62</ele>
        <time>2024-06-09T07:32:47Z</time>
      </trkpt>
      <trkpt lat="46.61966" lon="5.90655">
        <ele>936.63</ele>
        <time>2024-06-09T07:32:48Z</time>
      </trkpt>
      <trkpt lat="46.61967" lon="5.90656">
        <ele>936.7</ele>
        <time>2024-06-09T07:32:49Z</time>
      </trkpt>
      <trkpt lat="46.61975" lon="5.90664">
        <ele>935.62</ele>
        <time>2024-06-09T07:33:01Z</time>
      </trkpt>
      <trkpt lat="46.61977" lon="5.90666">
        <ele>935.58</ele>
        <time>2024-06-09T07:33:04Z</time>
      </trkpt>
      <trkpt lat="46.61997" lon="5.90674">
        <ele>935.55</ele>
        <time>2024-06-09T07:33:15Z</time>
      </trkpt>
      <trkpt lat="46.62014" lon="5.90681">
        <ele>938.29</ele>
        <time>2024-06-09T07:33:31Z</time>
      </trkpt>
      <trkpt lat="46.6203" lon="5.907">
        <ele>939.05</ele>
        <time>2024-06-09T07:33:52Z</time>
      </trkpt>
      <trkpt lat="46.62042" lon="5.90734">
        <ele>935.98</ele>
        <time>2024-06-09T07:34:10Z</time>
      </trkpt>
      <trkpt lat="46.62043" lon="5.90735">
        <ele>935.98</ele>
        <time>2024-06-09T07:34:11Z</time>
      </trkpt>
      <trkpt lat="46.62047" lon="5.90743">
        <ele>935.94</ele>
        <time>2024-06-09T07:34:15Z</time>
      </trkpt>
      <trkpt lat="46.62048" lon="5.90759">
        <ele>935.89</ele>
        <time>2024-06-09T07:34:23Z</time>
      </trkpt>
      <trkpt lat="46.62048" lon="5.90763">
        <ele>935.87</ele>
        <time>2024-06-09T07:34:26Z</time>
      </trkpt>
      <trkpt lat="46.62046" lon="5.90778">
        <ele>934.29</ele>
        <time>2024-06-09T07:34:37Z</time>
      </trkpt>
      <trkpt lat="46.6204" lon="5.90801">
        <ele>931.05</ele>
        <time>2024-06-09T07:34:50Z</time>
      </trkpt>
      <trkpt lat="46.6204" lon="5.90805">
        <ele>929.76</ele>
        <time>2024-06-09T07:34:53Z</time>
      </trkpt>
      <trkpt lat="46.62039" lon="5.90811">
        <ele>927.89</ele>
        <time>2024-06-09T07:34:58Z</time>
      </trkpt>
      <trkpt lat="46.62034" lon="5.90825">
        <ele>926.64</ele>
        <time>2024-06-09T07:35:05Z</time>
      </trkpt>
      <trkpt lat="46.62033" lon="5.90832">
        <ele>925.41</ele>
        <time>2024-06-09T07:35:10Z</time>
      </trkpt>
      <trkpt lat="46.62028" lon="5.90846">
        <ele>925.4</ele>
        <time>2024-06-09T07:35:21Z</time>
      </trkpt>
      <trkpt lat="46.62027" lon="5.90849">
        <ele>925.34</ele>
        <time>2024-06-09T07:35:23Z</time>
      </trkpt>
      <trkpt lat="46.62019" lon="5.90859">
        <ele>925.19</ele>
        <time>2024-06-09T07:35:34Z</time>
      </trkpt>
      <trkpt lat="46.62013" lon="5.90863">
        <ele>925.12</ele>
        <time>2024-06-09T07:35:39Z</time>
      </trkpt>
      <trkpt lat="46.61995" lon="5.9089">
        <ele>921.77</ele>
        <time>2024-06-09T07:35:56Z</time>
      </trkpt>
      <trkpt lat="46.61994" lon="5.90891">
        <ele>921.73</ele>
        <time>2024-06-09T07:35:58Z</time>
      </trkpt>
      <trkpt lat="46.61988" lon="5.90897">
        <ele>919.93</ele>
        <time>2024-06-09T07:36:04Z</time>
      </trkpt>
      <trkpt lat="46.61983" lon="5.90901">
        <ele>918.91</ele>
        <time>2024-06-09T07:36:10Z</time>
      </trkpt>
      <trkpt lat="46.61979" lon="5.9091">
        <ele>918.84</ele>
        <time>2024-06-09T07:36:14Z</time>
      </trkpt>
      <trkpt lat="46.61977" lon="5.9092">
        <ele>916.91</ele>
        <time>2024-06-09T07:36:17Z</time>
      </trkpt>
      <trkpt lat="46.61975" lon="5.90933">
        <ele>915.42</ele>
        <time>2024-06-09T07:36:23Z</time>
      </trkpt>
      <trkpt lat="46.61979" lon="5.90948">
        <ele>915.33</ele>
        <time>2024-06-09T07:36:28Z</time>
      </trkpt>
      <trkpt lat="46.61982" lon="5.90958">
        <ele>914.27</ele>
        <time>2024-06-09T07:36:35Z</time>
      </trkpt>
      <trkpt lat="46.61989" lon="5.90965">
        <ele>913.2</ele>
        <time>2024-06-09T07:36:47Z</time>
      </trkpt>
      <trkpt lat="46.61989" lon="5.90965">
        <ele>911.32</ele>
        <time>2024-06-09T07:36:50Z</time>
      </trkpt>
      <trkpt lat="46.62001" lon="5.90975">
        <ele>910.35</ele>
        <time>2024-06-09T07:37:01Z</time>
      </trkpt>
      <trkpt lat="46.62014" lon="5.90974">
        <ele>912.9</ele>
        <time>2024-06-09T07:37:10Z</time>
      </trkpt>
      <trkpt lat="46.6202" lon="5.90973">
        <ele>912.81</ele>
        <time>2024-06-09T07:37:13Z</time>
      </trkpt>
      <trkpt lat="46.62041" lon="5.90971">
        <ele>910.36</ele>
        <time>2024-06-09T07:37:26Z</time>
      </trkpt>
      <trkpt lat="46.62043" lon="5.9097">
        <ele>910.34</ele>
        <time>2024-06-09T07:37:27Z</time>
      </trkpt>
      <trkpt lat="46.62069" lon="5.90965">
        <ele>910.09</ele>
        <time>2024-06-09T07:37:41Z</time>
      </trkpt>
      <trkpt lat="46.62075" lon="5.90963">
        <ele>910.02</ele>
        <time>2024-06-09T07:37:45Z</time>
      </trkpt>
      <trkpt lat="46.62078" lon="5.90961">
        <ele>908.22</ele>
        <time>2024-06-09T07:37:47Z</time>
      </trkpt>
      <trkpt lat="46.62088" lon="5.90955">
        <ele>908.11</ele>
        <time>2024-06-09T07:37:53Z</time>
      </trkpt>
      <trkpt lat="46.62097" lon="5.90951">
        <ele>906.04</ele>
        <time>2024-06-09T07:37:59Z</time>
      </trkpt>
      <trkpt lat="46.62099" lon="5.9095">
        <ele>906.05</ele>
        <time>2024-06-09T07:38:00Z</time>
      </trkpt>
      <trkpt lat="46.62104" lon="5.90943">
        <ele>905.2</ele>
        <time>2024-06-09T07:38:06Z</time>
      </trkpt>
      <trkpt lat="46.62112" lon="5.9093">
        <ele>904.06</ele>
        <time>2024-06-09T07:38:16Z</time>
      </trkpt>
      <trkpt lat="46.62123" lon="5.90924">
        <ele>901.9</ele>
        <time>2024-06-09T07:38:27Z</time>
      </trkpt>
      <trkpt lat="46.62128" lon="5.90914">
        <ele>900.8</ele>
        <time>2024-06-09T07:38:33Z</time>
      </trkpt>
      <trkpt lat="46.6214" lon="5.90902">
        <ele>898.73</ele>
        <time>2024-06-09T07:38:41Z</time>
      </trkpt>
      <trkpt lat="46.62144" lon="5.909">
        <ele>898.68</ele>
        <time>2024-06-09T07:38:47Z</time>
      </trkpt>
      <trkpt lat="46.62147" lon="5.90899">
        <ele>897.45</ele>
        <time>2024-06-09T07:38:49Z</time>
      </trkpt>
      <trkpt lat="46.62148" lon="5.90896">
        <ele>897.43</ele>
        <time>2024-06-09T07:38:51Z</time>
      </trkpt>
      <trkpt lat="46.62153" lon="5.90898">
        <ele>896.51</ele>
        <time>2024-06-09T07:38:56Z</time>
      </trkpt>
      <trkpt lat="46.62158" lon="5.90902">
        <ele>895.54</ele>
        <time>2024-06-09T07:39:02Z</time>
      </trkpt>
      <trkpt lat="46.62162" lon="5.90902">
        <ele>895.55</ele>
        <time>2024-06-09T07:39:05Z</time>
      </trkpt>
      <trkpt lat="46.62167" lon="5.90903">
        <ele>895.55</ele>
        <time>2024-06-09T07:39:08Z</time>
      </trkpt>
      <trkpt lat="46.62174" lon="5.90903">
        <ele>895.53</ele>
        <time>2024-06-09T07:39:12Z</time>
      </trkpt>
      <trkpt lat="46.62177" lon="5.90901">
        <ele>897.81</ele>
        <time>2024-06-09T07:39:14Z</time>
      </trkpt>
      <trkpt lat="46.62186" lon="5.90903">
        <ele>897.77</ele>
        <time>2024-06-09T07:39:18Z</time>
      </trkpt>
      <trkpt lat="46.62199" lon="5.90901">
        <ele>898.54</ele>
        <time>2024-06-09T07:39:27Z</time>
      </trkpt>
      <trkpt lat="46.62205" lon="5.909">
        <ele>898.5</ele>
        <time>2024-06-09T07:39:34Z</time>
      </trkpt>
      <trkpt lat="46.62211" lon="5.90899">
        <ele>899.35</ele>
        <time>2024-06-09T07:39:40Z</time>
      </trkpt>
      <trkpt lat="46.62214" lon="5.9091">
        <ele>899.28</ele>
        <time>2024-06-09T07:39:52Z</time>
      </trkpt>
      <trkpt lat="46.62216" lon="5.90927">
        <ele>899.23</ele>
        <time>2024-06-09T07:40:01Z</time>
      </trkpt>
      <trkpt lat="46.62232" lon="5.9096">
        <ele>901.3</ele>
        <time>2024-06-09T07:40:19Z</time>
      </trkpt>
      <trkpt lat="46.62242" lon="5.90961">
        <ele>904.38</ele>
        <time>2024-06-09T07:40:29Z</time>
      </trkpt>
      <trkpt lat="46.62259" lon="5.90966">
        <ele>905.13</ele>
        <time>2024-06-09T07:40:42Z</time>
      </trkpt>
      <trkpt lat="46.62273" lon="5.90979">
        <ele>905.72</ele>
        <time>2024-06-09T07:40:59Z</time>
      </trkpt>
      <trkpt lat="46.62277" lon="5.90975">
        <ele>902.86</ele>
        <time>2024-06-09T07:41:05Z</time>
      </trkpt>
      <trkpt lat="46.62302" lon="5.90994">
        <ele>905.15</ele>
        <time>2024-06-09T07:41:28Z</time>
      </trkpt>
      <trkpt lat="46.62315" lon="5.90998">
        <ele>907.01</ele>
        <time>2024-06-09T07:41:41Z</time>
      </trkpt>
      <trkpt lat="46.62349" lon="5.91004">
        <ele>908.45</ele>
        <time>2024-06-09T07:42:05Z</time>
      </trkpt>
      <trkpt lat="46.6235" lon="5.91005">
        <ele>905.44</ele>
        <time>2024-06-09T07:42:06Z</time>
      </trkpt>
      <trkpt lat="46.62352" lon="5.91006">
        <ele>905.43</ele>
        <time>2024-06-09T07:42:07Z</time>
      </trkpt>
      <trkpt lat="46.62359" lon="5.91006">
        <ele>903.88</ele>
        <time>2024-06-09T07:42:16Z</time>
      </trkpt>
      <trkpt lat="46.6236" lon="5.91011">
        <ele>903.8</ele>
        <time>2024-06-09T07:42:23Z</time>
      </trkpt>
      <trkpt lat="46.62371" lon="5.91031">
        <ele>901.91</ele>
        <time>2024-06-09T07:42:40Z</time>
      </trkpt>
      <trkpt lat="46.62387" lon="5.91043">
        <ele>901.78</ele>
        <time>2024-06-09T07:42:53Z</time>
      </trkpt>
      <trkpt lat="46.62391" lon="5.91049">
        <ele>901.76</ele>
        <time>2024-06-09T07:42:55Z</time>
      </trkpt>
      <trkpt lat="46.62399" lon="5.91062">
        <ele>901.58</ele>
        <time>2024-06-09T07:43:09Z</time>
      </trkpt>
      <trkpt lat="46.62406" lon="5.91067">
        <ele>904.2</ele>
        <time>2024-06-09T07:43:13Z</time>
      </trkpt>
      <trkpt lat="46.62418" lon="5.91076">
        <ele>905.44</ele>
        <time>2024-06-09T07:43:29Z</time>
      </trkpt>
      <trkpt lat="46.62438" lon="5.91082">
        <ele>902.8</ele>
        <time>2024-06-09T07:43:46Z</time>
      </trkpt>
      <trkpt lat="46.62443" lon="5.9109">
        <ele>900.39</ele>
        <time>2024-06-09T07:44:04Z</time>
      </trkpt>
      <trkpt lat="46.62443" lon="5.91089">
        <ele>900.38</ele>
        <time>2024-06-09T07:44:05Z</time>
      </trkpt>
      <trkpt lat="46.62443" lon="5.91102">
        <ele>898.13</ele>
        <time>2024-06-09T07:44:29Z</time>
      </trkpt>
      <trkpt lat="46.6245" lon="5.91121">
        <ele>896.05</ele>
        <time>2024-06-09T07:44:49Z</time>
      </trkpt>
      <trkpt lat="46.62462" lon="5.91135">
        <ele>893.36</ele>
        <time>2024-06-09T07:45:06Z</time>
      </trkpt>
      <trkpt lat="46.62463" lon="5.91137">
        <ele>893.35</ele>
        <time>2024-06-09T07:45:07Z</time>
      </trkpt>
      <trkpt lat="46.62478" lon="5.91155">
        <ele>892.04</ele>
        <time>2024-06-09T07:45:22Z</time>
      </trkpt>
      <trkpt lat="46.62491" lon="5.91169">
        <ele>891.83</ele>
        <time>2024-06-09T07:45:36Z</time>
      </trkpt>
      <trkpt lat="46.62492" lon="5.9117">
        <ele>891.91</ele>
        <time>2024-06-09T07:45:40Z</time>
      </trkpt>
      <trkpt lat="46.625" lon="5.91175">
        <ele>894.92</ele>
        <time>2024-06-09T07:45:45Z</time>
      </trkpt>
      <trkpt lat="46.62501" lon="5.91175">
        <ele>895.07</ele>
        <time>2024-06-09T07:45:46Z</time>
      </trkpt>
      <trkpt lat="46.62507" lon="5.91183">
        <ele>894.81</ele>
        <time>2024-06-09T07:45:53Z</time>
      </trkpt>
      <trkpt lat="46.62514" lon="5.91197">
        <ele>892.08</ele>
        <time>2024-06-09T07:46:06Z</time>
      </trkpt>
      <trkpt lat="46.62514" lon="5.91198">
        <ele>890.74</ele>
        <time>2024-06-09T07:46:10Z</time>
      </trkpt>
      <trkpt lat="46.62514" lon="5.91205">
        <ele>890.73</ele>
        <time>2024-06-09T07:46:18Z</time>
      </trkpt>
      <trkpt lat="46.62512" lon="5.91208">
        <ele>889.56</ele>
        <time>2024-06-09T07:46:23Z</time>
      </trkpt>
      <trkpt lat="46.62512" lon="5.91209">
        <ele>889.67</ele>
        <time>2024-06-09T07:46:26Z</time>
      </trkpt>
      <trkpt lat="46.62521" lon="5.91226">
        <ele>886.23</ele>
        <time>2024-06-09T07:46:40Z</time>
      </trkpt>
      <trkpt lat="46.62537" lon="5.91236">
        <ele>884.71</ele>
        <time>2024-06-09T07:46:51Z</time>
      </trkpt>
      <trkpt lat="46.62541" lon="5.91242">
        <ele>883.28</ele>
        <time>2024-06-09T07:46:56Z</time>
      </trkpt>
      <trkpt lat="46.62543" lon="5.91244">
        <ele>883.27</ele>
        <time>2024-06-09T07:46:58Z</time>
      </trkpt>
      <trkpt lat="46.62552" lon="5.91258">
        <ele>880.98</ele>
        <time>2024-06-09T07:47:10Z</time>
      </trkpt>
      <trkpt lat="46.62552" lon="5.91259">
        <ele>881.1</ele>
        <time>2024-06-09T07:47:11Z</time>
      </trkpt>
      <trkpt lat="46.62561" lon="5.91277">
        <ele>879.03</ele>
        <time>2024-06-09T07:47:24Z</time>
      </trkpt>
      <trkpt lat="46.62565" lon="5.91281">
        <ele>879.14</ele>
        <time>2024-06-09T07:47:30Z</time>
      </trkpt>
      <trkpt lat="46.62571" lon="5.91286">
        <ele>881.41</ele>
        <time>2024-06-09T07:47:36Z</time>
      </trkpt>
      <trkpt lat="46.62586" lon="5.913">
        <ele>881.46</ele>
        <time>2024-06-09T07:47:49Z</time>
      </trkpt>
      <trkpt lat="46.62594" lon="5.91305">
        <ele>883.16</ele>
        <time>2024-06-09T07:47:58Z</time>
      </trkpt>
      <trkpt lat="46.62598" lon="5.91311">
        <ele>883.22</ele>
        <time>2024-06-09T07:48:05Z</time>
      </trkpt>
      <trkpt lat="46.62605" lon="5.91316">
        <ele>886.36</ele>
        <time>2024-06-09T07:48:19Z</time>
      </trkpt>
      <trkpt lat="46.62607" lon="5.91313">
        <ele>887.86</ele>
        <time>2024-06-09T07:48:23Z</time>
      </trkpt>
      <trkpt lat="46.62606" lon="5.91314">
        <ele>889.78</ele>
        <time>2024-06-09T07:48:33Z</time>
      </trkpt>
      <trkpt lat="46.62605" lon="5.91314">
        <ele>890.06</ele>
        <time>2024-06-09T07:48:38Z</time>
      </trkpt>
      <trkpt lat="46.62603" lon="5.91314">
        <ele>891.31</ele>
        <time>2024-06-09T07:48:40Z</time>
      </trkpt>
      <trkpt lat="46.62603" lon="5.91322">
        <ele>893.35</ele>
        <time>2024-06-09T07:48:51Z</time>
      </trkpt>
      <trkpt lat="46.62605" lon="5.91322">
        <ele>894.19</ele>
        <time>2024-06-09T07:48:56Z</time>
      </trkpt>
      <trkpt lat="46.62599" lon="5.91335">
        <ele>896.14</ele>
        <time>2024-06-09T07:49:05Z</time>
      </trkpt>
      <trkpt lat="46.62602" lon="5.91361">
        <ele>896.74</ele>
        <time>2024-06-09T07:49:22Z</time>
      </trkpt>
      <trkpt lat="46.62605" lon="5.91373">
        <ele>894.35</ele>
        <time>2024-06-09T07:49:31Z</time>
      </trkpt>
      <trkpt lat="46.62605" lon="5.91395">
        <ele>893.41</ele>
        <time>2024-06-09T07:49:44Z</time>
      </trkpt>
      <trkpt lat="46.62605" lon="5.91406">
        <ele>893.41</ele>
        <time>2024-06-09T07:49:54Z</time>
      </trkpt>
      <trkpt lat="46.62603" lon="5.91416">
        <ele>896.84</ele>
        <time>2024-06-09T07:50:01Z</time>
      </trkpt>
      <trkpt lat="46.62601" lon="5.91427">
        <ele>897.57</ele>
        <time>2024-06-09T07:50:08Z</time>
      </trkpt>
      <trkpt lat="46.62604" lon="5.91436">
        <ele>898.62</ele>
        <time>2024-06-09T07:50:13Z</time>
      </trkpt>
      <trkpt lat="46.62605" lon="5.91438">
        <ele>898.77</ele>
        <time>2024-06-09T07:50:15Z</time>
      </trkpt>
      <trkpt lat="46.62607" lon="5.91441">
        <ele>900.01</ele>
        <time>2024-06-09T07:50:17Z</time>
      </trkpt>
      <trkpt lat="46.6261" lon="5.91445">
        <ele>899.92</ele>
        <time>2024-06-09T07:50:20Z</time>
      </trkpt>
      <trkpt lat="46.62625" lon="5.91459">
        <ele>901.42</ele>
        <time>2024-06-09T07:50:35Z</time>
      </trkpt>
      <trkpt lat="46.62633" lon="5.91466">
        <ele>904.57</ele>
        <time>2024-06-09T07:50:43Z</time>
      </trkpt>
      <trkpt lat="46.62647" lon="5.91477">
        <ele>905.38</ele>
        <time>2024-06-09T07:50:57Z</time>
      </trkpt>
      <trkpt lat="46.6265" lon="5.9148">
        <ele>906.49</ele>
        <time>2024-06-09T07:51:01Z</time>
      </trkpt>
      <trkpt lat="46.62663" lon="5.91491">
        <ele>909.65</ele>
        <time>2024-06-09T07:51:16Z</time>
      </trkpt>
      <trkpt lat="46.62678" lon="5.91505">
        <ele>912.37</ele>
        <time>2024-06-09T07:51:32Z</time>
      </trkpt>
      <trkpt lat="46.62679" lon="5.91506">
        <ele>912.26</ele>
        <time>2024-06-09T07:51:33Z</time>
      </trkpt>
      <trkpt lat="46.62688" lon="5.91512">
        <ele>911.92</ele>
        <time>2024-06-09T07:51:42Z</time>
      </trkpt>
      <trkpt lat="46.62695" lon="5.91525">
        <ele>909.41</ele>
        <time>2024-06-09T07:51:57Z</time>
      </trkpt>
      <trkpt lat="46.62698" lon="5.91528">
        <ele>909.38</ele>
        <time>2024-06-09T07:51:59Z</time>
      </trkpt>
      <trkpt lat="46.62709" lon="5.91533">
        <ele>908.47</ele>
        <time>2024-06-09T07:52:10Z</time>
      </trkpt>
      <trkpt lat="46.6272" lon="5.91532">
        <ele>906.35</ele>
        <time>2024-06-09T07:52:25Z</time>
      </trkpt>
      <trkpt lat="46.62721" lon="5.91532">
        <ele>904.31</ele>
        <time>2024-06-09T07:52:27Z</time>
      </trkpt>
      <trkpt lat="46.62726" lon="5.91532">
        <ele>903.44</ele>
        <time>2024-06-09T07:52:35Z</time>
      </trkpt>
      <trkpt lat="46.62734" lon="5.91534">
        <ele>900.55</ele>
        <time>2024-06-09T07:52:48Z</time>
      </trkpt>
      <trkpt lat="46.62741" lon="5.91532">
        <ele>899.52</ele>
        <time>2024-06-09T07:52:55Z</time>
      </trkpt>
      <trkpt lat="46.62747" lon="5.91529">
        <ele>897.48</ele>
        <time>2024-06-09T07:53:04Z</time>
      </trkpt>
      <trkpt lat="46.62754" lon="5.91527">
        <ele>897.56</ele>
        <time>2024-06-09T07:53:08Z</time>
      </trkpt>
      <trkpt lat="46.62761" lon="5.91526">
        <ele>896.67</ele>
        <time>2024-06-09T07:53:19Z</time>
      </trkpt>
      <trkpt lat="46.62764" lon="5.91528">
        <ele>894.74</ele>
        <time>2024-06-09T07:53:25Z</time>
      </trkpt>
      <trkpt lat="46.62769" lon="5.91526">
        <ele>892.9</ele>
        <time>2024-06-09T07:53:36Z</time>
      </trkpt>
      <trkpt lat="46.62776" lon="5.9153">
        <ele>891.05</ele>
        <time>2024-06-09T07:53:49Z</time>
      </trkpt>
      <trkpt lat="46.62772" lon="5.91526">
        <ele>888.89</ele>
        <time>2024-06-09T07:53:58Z</time>
      </trkpt>
      <trkpt lat="46.62771" lon="5.91529">
        <ele>888.1</ele>
        <time>2024-06-09T07:54:09Z</time>
      </trkpt>
      <trkpt lat="46.62772" lon="5.91531">
        <ele>887.34</ele>
        <time>2024-06-09T07:54:11Z</time>
      </trkpt>
      <trkpt lat="46.62777" lon="5.91536">
        <ele>887.54</ele>
        <time>2024-06-09T07:54:17Z</time>
      </trkpt>
      <trkpt lat="46.6278" lon="5.91538">
        <ele>887.67</ele>
        <time>2024-06-09T07:54:20Z</time>
      </trkpt>
      <trkpt lat="46.62788" lon="5.91541">
        <ele>887.82</ele>
        <time>2024-06-09T07:54:31Z</time>
      </trkpt>
      <trkpt lat="46.6279" lon="5.91543">
        <ele>890.21</ele>
        <time>2024-06-09T07:54:34Z</time>
      </trkpt>
      <trkpt lat="46.628" lon="5.91553">
        <ele>890.24</ele>
        <time>2024-06-09T07:54:44Z</time>
      </trkpt>
      <trkpt lat="46.62801" lon="5.91554">
        <ele>890.27</ele>
        <time>2024-06-09T07:54:45Z</time>
      </trkpt>
      <trkpt lat="46.62802" lon="5.91556">
        <ele>890.29</ele>
        <time>2024-06-09T07:54:47Z</time>
      </trkpt>
      <trkpt lat="46.62807" lon="5.91574">
        <ele>890.26</ele>
        <time>2024-06-09T07:55:00Z</time>
      </trkpt>
      <trkpt lat="46.6281" lon="5.9158">
        <ele>890.33</ele>
        <time>2024-06-09T07:55:05Z</time>
      </trkpt>
      <trkpt lat="46.62825" lon="5.91602">
        <ele>890.57</ele>
        <time>2024-06-09T07:55:25Z</time>
      </trkpt>
      <trkpt lat="46.62827" lon="5.91603">
        <ele>890.57</ele>
        <time>2024-06-09T07:55:27Z</time>
      </trkpt>
      <trkpt lat="46.62834" lon="5.91612">
        <ele>892.81</ele>
        <time>2024-06-09T07:55:35Z</time>
      </trkpt>
      <trkpt lat="46.62838" lon="5.91619">
        <ele>893.9</ele>
        <time>2024-06-09T07:55:41Z</time>
      </trkpt>
      <trkpt lat="46.62843" lon="5.91631">
        <ele>894.69</ele>
        <time>2024-06-09T07:55:51Z</time>
      </trkpt>
      <trkpt lat="46.62855" lon="5.91659">
        <ele>895.61</ele>
        <time>2024-06-09T07:56:11Z</time>
      </trkpt>
      <trkpt lat="46.62866" lon="5.91668">
        <ele>895.55</ele>
        <time>2024-06-09T07:56:23Z</time>
      </trkpt>
      <trkpt lat="46.6287" lon="5.91674">
        <ele>893.17</ele>
        <time>2024-06-09T07:56:30Z</time>
      </trkpt>
      <trkpt lat="46.62882" lon="5.91684">
        <ele>891.42</ele>
        <time>2024-06-09T07:56:40Z</time>
      </trkpt>
      <trkpt lat="46.62899" lon="5.91696">
        <ele>889.62</ele>
        <time>2024-06-09T07:56:58Z</time>
      </trkpt>
      <trkpt lat="46.62909" lon="5.91705">
        <ele>889.74</ele>
        <time>2024-06-09T07:57:08Z</time>
      </trkpt>
      <trkpt lat="46.62924" lon="5.91725">
        <ele>889.82</ele>
        <time>2024-06-09T07:57:23Z</time>
      </trkpt>
      <trkpt lat="46.62931" lon="5.91738">
        <ele>888.81</ele>
        <time>2024-06-09T07:57:32Z</time>
      </trkpt>
      <trkpt lat="46.62936" lon="5.91748">
        <ele>888.84</ele>
        <time>2024-06-09T07:57:38Z</time>
      </trkpt>
      <trkpt lat="46.62939" lon="5.91754">
        <ele>888.79</ele>
        <time>2024-06-09T07:57:42Z</time>
      </trkpt>
      <trkpt lat="46.62946" lon="5.91763">
        <ele>888.89</ele>
        <time>2024-06-09T07:57:49Z</time>
      </trkpt>
      <trkpt lat="46.62952" lon="5.91775">
        <ele>888.99</ele>
        <time>2024-06-09T07:57:56Z</time>
      </trkpt>
      <trkpt lat="46.62966" lon="5.91797">
        <ele>888.14</ele>
        <time>2024-06-09T07:58:11Z</time>
      </trkpt>
      <trkpt lat="46.6297" lon="5.91803">
        <ele>890.57</ele>
        <time>2024-06-09T07:58:15Z</time>
      </trkpt>
      <trkpt lat="46.62985" lon="5.91833">
        <ele>890.42</ele>
        <time>2024-06-09T07:58:35Z</time>
      </trkpt>
      <trkpt lat="46.62997" lon="5.91847">
        <ele>887.17</ele>
        <time>2024-06-09T07:58:47Z</time>
      </trkpt>
      <trkpt lat="46.62997" lon="5.91848">
        <ele>887.18</ele>
        <time>2024-06-09T07:58:48Z</time>
      </trkpt>
      <trkpt lat="46.63011" lon="5.91877">
        <ele>885.39</ele>
        <time>2024-06-09T07:59:08Z</time>
      </trkpt>
      <trkpt lat="46.63013" lon="5.9188">
        <ele>884.49</ele>
        <time>2024-06-09T07:59:10Z</time>
      </trkpt>
      <trkpt lat="46.63018" lon="5.91889">
        <ele>882.73</ele>
        <time>2024-06-09T07:59:22Z</time>
      </trkpt>
      <trkpt lat="46.63017" lon="5.91891">
        <ele>882.75</ele>
        <time>2024-06-09T07:59:28Z</time>
      </trkpt>
      <trkpt lat="46.63018" lon="5.91894">
        <ele>882.78</ele>
        <time>2024-06-09T07:59:30Z</time>
      </trkpt>
      <trkpt lat="46.6302" lon="5.919">
        <ele>879.63</ele>
        <time>2024-06-09T07:59:40Z</time>
      </trkpt>
      <trkpt lat="46.6302" lon="5.919">
        <ele>879.63</ele>
        <time>2024-06-09T07:59:41Z</time>
      </trkpt>
      <trkpt lat="46.63019" lon="5.919">
        <ele>879.65</ele>
        <time>2024-06-09T07:59:47Z</time>
      </trkpt>
      <trkpt lat="46.63021" lon="5.91905">
        <ele>882.21</ele>
        <time>2024-06-09T07:59:50Z</time>
      </trkpt>
      <trkpt lat="46.63023" lon="5.91902">
        <ele>883.6</ele>
        <time>2024-06-09T07:59:59Z</time>
      </trkpt>
      <trkpt lat="46.63019" lon="5.91904">
        <ele>881.91</ele>
        <time>2024-06-09T08:00:17Z</time>
      </trkpt>
      <trkpt lat="46.6302" lon="5.91904">
        <ele>880.58</ele>
        <time>2024-06-09T08:00:24Z</time>
      </trkpt>
      <trkpt lat="46.63025" lon="5.91909">
        <ele>879.13</ele>
        <time>2024-06-09T08:00:40Z</time>
      </trkpt>
      <trkpt lat="46.63028" lon="5.91914">
        <ele>878.46</ele>
        <time>2024-06-09T08:00:52Z</time>
      </trkpt>
      <trkpt lat="46.63028" lon="5.91919">
        <ele>878.51</ele>
        <time>2024-06-09T08:00:57Z</time>
      </trkpt>
      <trkpt lat="46.63035" lon="5.9193">
        <ele>878.66</ele>
        <time>2024-06-09T08:01:11Z</time>
      </trkpt>
      <trkpt lat="46.63036" lon="5.91934">
        <ele>878.7</ele>
        <time>2024-06-09T08:01:14Z</time>
      </trkpt>
      <trkpt lat="46.63036" lon="5.9194">
        <ele>880.99</ele>
        <time>2024-06-09T08:01:19Z</time>
      </trkpt>
      <trkpt lat="46.63039" lon="5.91947">
        <ele>877.92</ele>
        <time>2024-06-09T08:01:27Z</time>
      </trkpt>
      <trkpt lat="46.63039" lon="5.91948">
        <ele>878.08</ele>
        <time>2024-06-09T08:01:28Z</time>
      </trkpt>
      <trkpt lat="46.63045" lon="5.9195">
        <ele>878.12</ele>
        <time>2024-06-09T08:01:42Z</time>
      </trkpt>
      <trkpt lat="46.63046" lon="5.91952">
        <ele>876.98</ele>
        <time>2024-06-09T08:01:52Z</time>
      </trkpt>
      <trkpt lat="46.63048" lon="5.91954">
        <ele>875.67</ele>
        <time>2024-06-09T08:01:54Z</time>
      </trkpt>
      <trkpt lat="46.6305" lon="5.91954">
        <ele>874.92</ele>
        <time>2024-06-09T08:01:56Z</time>
      </trkpt>
      <trkpt lat="46.63054" lon="5.91954">
        <ele>873.83</ele>
        <time>2024-06-09T08:02:02Z</time>
      </trkpt>
      <trkpt lat="46.63054" lon="5.91957">
        <ele>873.83</ele>
        <time>2024-06-09T08:02:07Z</time>
      </trkpt>
      <trkpt lat="46.63056" lon="5.91959">
        <ele>873.83</ele>
        <time>2024-06-09T08:02:11Z</time>
      </trkpt>
      <trkpt lat="46.63057" lon="5.91961">
        <ele>873.86</ele>
        <time>2024-06-09T08:02:13Z</time>
      </trkpt>
      <trkpt lat="46.63062" lon="5.91963">
        <ele>872.6</ele>
        <time>2024-06-09T08:02:19Z</time>
      </trkpt>
      <trkpt lat="46.63067" lon="5.91958">
        <ele>871.66</ele>
        <time>2024-06-09T08:02:28Z</time>
      </trkpt>
      <trkpt lat="46.63073" lon="5.91963">
        <ele>871.91</ele>
        <time>2024-06-09T08:02:42Z</time>
      </trkpt>
      <trkpt lat="46.63076" lon="5.91963">
        <ele>874.42</ele>
        <time>2024-06-09T08:02:44Z</time>
      </trkpt>
      <trkpt lat="46.63086" lon="5.91979">
        <ele>874.55</ele>
        <time>2024-06-09T08:03:02Z</time>
      </trkpt>
      <trkpt lat="46.63092" lon="5.91983">
        <ele>872.28</ele>
        <time>2024-06-09T08:03:12Z</time>
      </trkpt>
      <trkpt lat="46.63095" lon="5.91984">
        <ele>872.31</ele>
        <time>2024-06-09T08:03:15Z</time>
      </trkpt>
      <trkpt lat="46.63102" lon="5.92001">
        <ele>871.58</ele>
        <time>2024-06-09T08:03:28Z</time>
      </trkpt>
      <trkpt lat="46.63106" lon="5.92013">
        <ele>870.79</ele>
        <time>2024-06-09T08:03:40Z</time>
      </trkpt>
      <trkpt lat="46.63113" lon="5.9203">
        <ele>868.4</ele>
        <time>2024-06-09T08:03:53Z</time>
      </trkpt>
      <trkpt lat="46.63121" lon="5.92042">
        <ele>868.5</ele>
        <time>2024-06-09T08:04:04Z</time>
      </trkpt>
      <trkpt lat="46.63123" lon="5.92049">
        <ele>867.49</ele>
        <time>2024-06-09T08:04:10Z</time>
      </trkpt>
      <trkpt lat="46.63129" lon="5.92061">
        <ele>869.16</ele>
        <time>2024-06-09T08:04:21Z</time>
      </trkpt>
      <trkpt lat="46.63142" lon="5.92067">
        <ele>869.31</ele>
        <time>2024-06-09T08:04:35Z</time>
      </trkpt>
      <trkpt lat="46.63143" lon="5.92068">
        <ele>869.35</ele>
        <time>2024-06-09T08:04:36Z</time>
      </trkpt>
      <trkpt lat="46.63153" lon="5.92075">
        <ele>870.32</ele>
        <time>2024-06-09T08:04:52Z</time>
      </trkpt>
      <trkpt lat="46.63164" lon="5.92084">
        <ele>871.43</ele>
        <time>2024-06-09T08:05:04Z</time>
      </trkpt>
      <trkpt lat="46.6317" lon="5.92098">
        <ele>871.43</ele>
        <time>2024-06-09T08:05:16Z</time>
      </trkpt>
      <trkpt lat="46.63179" lon="5.92119">
        <ele>871.56</ele>
        <time>2024-06-09T08:05:36Z</time>
      </trkpt>
      <trkpt lat="46.63179" lon="5.92119">
        <ele>871.6</ele>
        <time>2024-06-09T08:05:37Z</time>
      </trkpt>
      <trkpt lat="46.63181" lon="5.92124">
        <ele>869.35</ele>
        <time>2024-06-09T08:05:42Z</time>
      </trkpt>
      <trkpt lat="46.63184" lon="5.92139">
        <ele>867.35</ele>
        <time>2024-06-09T08:05:56Z</time>
      </trkpt>
      <trkpt lat="46.6319" lon="5.92154">
        <ele>865.72</ele>
        <time>2024-06-09T08:06:09Z</time>
      </trkpt>
      <trkpt lat="46.63191" lon="5.92169">
        <ele>863.76</ele>
        <time>2024-06-09T08:06:32Z</time>
      </trkpt>
      <trkpt lat="46.6319" lon="5.92172">
        <ele>862.27</ele>
        <time>2024-06-09T08:06:34Z</time>
      </trkpt>
      <trkpt lat="46.63196" lon="5.92186">
        <ele>862.37</ele>
        <time>2024-06-09T08:06:45Z</time>
      </trkpt>
      <trkpt lat="46.632" lon="5.92191">
        <ele>864.86</ele>
        <time>2024-06-09T08:06:52Z</time>
      </trkpt>
      <trkpt lat="46.63206" lon="5.92198">
        <ele>867.06</ele>
        <time>2024-06-09T08:07:01Z</time>
      </trkpt>
      <trkpt lat="46.63212" lon="5.92208">
        <ele>869</ele>
        <time>2024-06-09T08:07:16Z</time>
      </trkpt>
      <trkpt lat="46.63223" lon="5.92222">
        <ele>869.82</ele>
        <time>2024-06-09T08:07:34Z</time>
      </trkpt>
      <trkpt lat="46.63227" lon="5.92226">
        <ele>867.49</ele>
        <time>2024-06-09T08:07:38Z</time>
      </trkpt>
      <trkpt lat="46.63244" lon="5.92234">
        <ele>865.52</ele>
        <time>2024-06-09T08:07:54Z</time>
      </trkpt>
      <trkpt lat="46.63252" lon="5.92244">
        <ele>864.02</ele>
        <time>2024-06-09T08:08:06Z</time>
      </trkpt>
      <trkpt lat="46.63256" lon="5.92252">
        <ele>862.19</ele>
        <time>2024-06-09T08:08:20Z</time>
      </trkpt>
      <trkpt lat="46.63256" lon="5.92255">
        <ele>860.06</ele>
        <time>2024-06-09T08:08:28Z</time>
      </trkpt>
      <trkpt lat="46.63266" lon="5.92261">
        <ele>857.16</ele>
        <time>2024-06-09T08:08:41Z</time>
      </trkpt>
      <trkpt lat="46.63269" lon="5.92265">
        <ele>854.76</ele>
        <time>2024-06-09T08:08:48Z</time>
      </trkpt>
      <trkpt lat="46.63274" lon="5.92268">
        <ele>853.11</ele>
        <time>2024-06-09T08:08:52Z</time>
      </trkpt>
      <trkpt lat="46.63283" lon="5.92282">
        <ele>851.49</ele>
        <time>2024-06-09T08:09:02Z</time>
      </trkpt>
      <trkpt lat="46.63287" lon="5.92287">
        <ele>851.47</ele>
        <time>2024-06-09T08:09:05Z</time>
      </trkpt>
      <trkpt lat="46.63291" lon="5.92294">
        <ele>850.5</ele>
        <time>2024-06-09T08:09:09Z</time>
      </trkpt>
      <trkpt lat="46.63295" lon="5.92302">
        <ele>850.63</ele>
        <time>2024-06-09T08:09:19Z</time>
      </trkpt>
      <trkpt lat="46.63299" lon="5.92314">
        <ele>849.51</ele>
        <time>2024-06-09T08:09:31Z</time>
      </trkpt>
      <trkpt lat="46.633" lon="5.92319">
        <ele>849.5</ele>
        <time>2024-06-09T08:09:34Z</time>
      </trkpt>
      <trkpt lat="46.63309" lon="5.92331">
        <ele>848.84</ele>
        <time>2024-06-09T08:09:51Z</time>
      </trkpt>
      <trkpt lat="46.63311" lon="5.92333">
        <ele>848.92</ele>
        <time>2024-06-09T08:09:56Z</time>
      </trkpt>
      <trkpt lat="46.63315" lon="5.92336">
        <ele>847.72</ele>
        <time>2024-06-09T08:10:06Z</time>
      </trkpt>
      <trkpt lat="46.63314" lon="5.92333">
        <ele>846.69</ele>
        <time>2024-06-09T08:10:10Z</time>
      </trkpt>
      <trkpt lat="46.63314" lon="5.92321">
        <ele>844.86</ele>
        <time>2024-06-09T08:10:23Z</time>
      </trkpt>
      <trkpt lat="46.63316" lon="5.92316">
        <ele>841.97</ele>
        <time>2024-06-09T08:10:35Z</time>
      </trkpt>
      <trkpt lat="46.63323" lon="5.92308">
        <ele>837.29</ele>
        <time>2024-06-09T08:10:50Z</time>
      </trkpt>
      <trkpt lat="46.63324" lon="5.92307">
        <ele>837.38</ele>
        <time>2024-06-09T08:10:51Z</time>
      </trkpt>
      <trkpt lat="46.63325" lon="5.92306">
        <ele>837.33</ele>
        <time>2024-06-09T08:10:53Z</time>
      </trkpt>
      <trkpt lat="46.63327" lon="5.923">
        <ele>834.31</ele>
        <time>2024-06-09T08:11:01Z</time>
      </trkpt>
      <trkpt lat="46.63334" lon="5.923">
        <ele>832.89</ele>
        <time>2024-06-09T08:11:07Z</time>
      </trkpt>
      <trkpt lat="46.63334" lon="5.923">
        <ele>832.76</ele>
        <time>2024-06-09T08:11:08Z</time>
      </trkpt>
      <trkpt lat="46.63338" lon="5.923">
        <ele>830.61</ele>
        <time>2024-06-09T08:11:12Z</time>
      </trkpt>
      <trkpt lat="46.63342" lon="5.92302">
        <ele>829.13</ele>
        <time>2024-06-09T08:11:17Z</time>
      </trkpt>
      <trkpt lat="46.6335" lon="5.92309">
        <ele>825.53</ele>
        <time>2024-06-09T08:11:27Z</time>
      </trkpt>
      <trkpt lat="46.63351" lon="5.9231">
        <ele>825.55</ele>
        <time>2024-06-09T08:11:28Z</time>
      </trkpt>
      <trkpt lat="46.63353" lon="5.92311">
        <ele>825.6</ele>
        <time>2024-06-09T08:11:30Z</time>
      </trkpt>
      <trkpt lat="46.63356" lon="5.9231">
        <ele>824.31</ele>
        <time>2024-06-09T08:11:33Z</time>
      </trkpt>
      <trkpt lat="46.63361" lon="5.92308">
        <ele>821.24</ele>
        <time>2024-06-09T08:11:42Z</time>
      </trkpt>
      <trkpt lat="46.63362" lon="5.9231">
        <ele>821.3</ele>
        <time>2024-06-09T08:11:45Z</time>
      </trkpt>
      <trkpt lat="46.63363" lon="5.92309">
        <ele>820.03</ele>
        <time>2024-06-09T08:11:47Z</time>
      </trkpt>
      <trkpt lat="46.63362" lon="5.92317">
        <ele>818.86</ele>
        <time>2024-06-09T08:11:55Z</time>
      </trkpt>
      <trkpt lat="46.6337" lon="5.92325">
        <ele>815.78</ele>
        <time>2024-06-09T08:12:09Z</time>
      </trkpt>
      <trkpt lat="46.63374" lon="5.92322">
        <ele>813.15</ele>
        <time>2024-06-09T08:12:24Z</time>
      </trkpt>
      <trkpt lat="46.63379" lon="5.92325">
        <ele>812.55</ele>
        <time>2024-06-09T08:12:29Z</time>
      </trkpt>
      <trkpt lat="46.63381" lon="5.92327">
        <ele>811.54</ele>
        <time>2024-06-09T08:12:32Z</time>
      </trkpt>
      <trkpt lat="46.63386" lon="5.92329">
        <ele>811.64</ele>
        <time>2024-06-09T08:12:37Z</time>
      </trkpt>
      <trkpt lat="46.63389" lon="5.92329">
        <ele>809.93</ele>
        <time>2024-06-09T08:12:41Z</time>
      </trkpt>
      <trkpt lat="46.63393" lon="5.92328">
        <ele>808.44</ele>
        <time>2024-06-09T08:12:44Z</time>
      </trkpt>
      <trkpt lat="46.63394" lon="5.92331">
        <ele>807.62</ele>
        <time>2024-06-09T08:12:52Z</time>
      </trkpt>
      <trkpt lat="46.63396" lon="5.92332">
        <ele>806.46</ele>
        <time>2024-06-09T08:12:56Z</time>
      </trkpt>
      <trkpt lat="46.63397" lon="5.92334">
        <ele>806.6</ele>
        <time>2024-06-09T08:12:59Z</time>
      </trkpt>
      <trkpt lat="46.63398" lon="5.92335">
        <ele>805.79</ele>
        <time>2024-06-09T08:13:03Z</time>
      </trkpt>
      <trkpt lat="46.63401" lon="5.92331">
        <ele>803.41</ele>
        <time>2024-06-09T08:13:14Z</time>
      </trkpt>
      <trkpt lat="46.63401" lon="5.92329">
        <ele>802.61</ele>
        <time>2024-06-09T08:13:25Z</time>
      </trkpt>
      <trkpt lat="46.63401" lon="5.92327">
        <ele>801.3</ele>
        <time>2024-06-09T08:13:29Z</time>
      </trkpt>
      <trkpt lat="46.63403" lon="5.92326">
        <ele>801.38</ele>
        <time>2024-06-09T08:13:31Z</time>
      </trkpt>
      <trkpt lat="46.63403" lon="5.92332">
        <ele>799.63</ele>
        <time>2024-06-09T08:13:44Z</time>
      </trkpt>
      <trkpt lat="46.6341" lon="5.92334">
        <ele>799.79</ele>
        <time>2024-06-09T08:13:50Z</time>
      </trkpt>
      <trkpt lat="46.63417" lon="5.92334">
        <ele>798.54</ele>
        <time>2024-06-09T08:13:54Z</time>
      </trkpt>
      <trkpt lat="46.63422" lon="5.92331">
        <ele>797.02</ele>
        <time>2024-06-09T08:14:02Z</time>
      </trkpt>
      <trkpt lat="46.63423" lon="5.92332">
        <ele>794.99</ele>
        <time>2024-06-09T08:14:15Z</time>
      </trkpt>
      <trkpt lat="46.63425" lon="5.92321">
        <ele>793.43</ele>
        <time>2024-06-09T08:14:25Z</time>
      </trkpt>
      <trkpt lat="46.63424" lon="5.92305">
        <ele>789.68</ele>
        <time>2024-06-09T08:14:43Z</time>
      </trkpt>
      <trkpt lat="46.63427" lon="5.92301">
        <ele>786.16</ele>
        <time>2024-06-09T08:14:54Z</time>
      </trkpt>
      <trkpt lat="46.63432" lon="5.92305">
        <ele>783.14</ele>
        <time>2024-06-09T08:15:06Z</time>
      </trkpt>
      <trkpt lat="46.63433" lon="5.92305">
        <ele>783.16</ele>
        <time>2024-06-09T08:15:07Z</time>
      </trkpt>
      <trkpt lat="46.63434" lon="5.92305">
        <ele>783.22</ele>
        <time>2024-06-09T08:15:11Z</time>
      </trkpt>
      <trkpt lat="46.63429" lon="5.92298">
        <ele>782.3</ele>
        <time>2024-06-09T08:15:17Z</time>
      </trkpt>
      <trkpt lat="46.63428" lon="5.92295">
        <ele>782.33</ele>
        <time>2024-06-09T08:15:20Z</time>
      </trkpt>
      <trkpt lat="46.63426" lon="5.92288">
        <ele>781.58</ele>
        <time>2024-06-09T08:15:24Z</time>
      </trkpt>
      <trkpt lat="46.63421" lon="5.9227">
        <ele>781.03</ele>
        <time>2024-06-09T08:15:34Z</time>
      </trkpt>
      <trkpt lat="46.63423" lon="5.92269">
        <ele>778.89</ele>
        <time>2024-06-09T08:15:41Z</time>
      </trkpt>
      <trkpt lat="46.63423" lon="5.9227">
        <ele>778.87</ele>
        <time>2024-06-09T08:15:42Z</time>
      </trkpt>
      <trkpt lat="46.63426" lon="5.9227">
        <ele>777.56</ele>
        <time>2024-06-09T08:15:45Z</time>
      </trkpt>
      <trkpt lat="46.63429" lon="5.92272">
        <ele>776.71</ele>
        <time>2024-06-09T08:15:48Z</time>
      </trkpt>
      <trkpt lat="46.63434" lon="5.92271">
        <ele>774.92</ele>
        <time>2024-06-09T08:15:51Z</time>
      </trkpt>
      <trkpt lat="46.63442" lon="5.9227">
        <ele>773.32</ele>
        <time>2024-06-09T08:15:55Z</time>
      </trkpt>
      <trkpt lat="46.6345" lon="5.92271">
        <ele>772.48</ele>
        <time>2024-06-09T08:16:01Z</time>
      </trkpt>
      <trkpt lat="46.63457" lon="5.92275">
        <ele>771.85</ele>
        <time>2024-06-09T08:16:06Z</time>
      </trkpt>
      <trkpt lat="46.63458" lon="5.92275">
        <ele>771.84</ele>
        <time>2024-06-09T08:16:07Z</time>
      </trkpt>
      <trkpt lat="46.63464" lon="5.92277">
        <ele>769.26</ele>
        <time>2024-06-09T08:16:15Z</time>
      </trkpt>
      <trkpt lat="46.63473" lon="5.92268">
        <ele>767.32</ele>
        <time>2024-06-09T08:16:23Z</time>
      </trkpt>
      <trkpt lat="46.63477" lon="5.92265">
        <ele>766.08</ele>
        <time>2024-06-09T08:16:25Z</time>
      </trkpt>
      <trkpt lat="46.63484" lon="5.92257">
        <ele>762.42</ele>
        <time>2024-06-09T08:16:38Z</time>
      </trkpt>
      <trkpt lat="46.63484" lon="5.92254">
        <ele>762.45</ele>
        <time>2024-06-09T08:16:39Z</time>
      </trkpt>
      <trkpt lat="46.63482" lon="5.92248">
        <ele>762.53</ele>
        <time>2024-06-09T08:16:44Z</time>
      </trkpt>
      <trkpt lat="46.63476" lon="5.92242">
        <ele>762.65</ele>
        <time>2024-06-09T08:16:50Z</time>
      </trkpt>
      <trkpt lat="46.63472" lon="5.92239">
        <ele>762.67</ele>
        <time>2024-06-09T08:16:53Z</time>
      </trkpt>
      <trkpt lat="46.6347" lon="5.92239">
        <ele>762.71</ele>
        <time>2024-06-09T08:16:55Z</time>
      </trkpt>
      <trkpt lat="46.63466" lon="5.92231">
        <ele>762.77</ele>
        <time>2024-06-09T08:17:02Z</time>
      </trkpt>
      <trkpt lat="46.63465" lon="5.9223">
        <ele>762.78</ele>
        <time>2024-06-09T08:17:03Z</time>
      </trkpt>
      <trkpt lat="46.6346" lon="5.92229">
        <ele>762.81</ele>
        <time>2024-06-09T08:17:08Z</time>
      </trkpt>
      <trkpt lat="46.63457" lon="5.92227">
        <ele>765.23</ele>
        <time>2024-06-09T08:17:13Z</time>
      </trkpt>
      <trkpt lat="46.63449" lon="5.92226">
        <ele>765.22</ele>
        <time>2024-06-09T08:17:21Z</time>
      </trkpt>
      <trkpt lat="46.63448" lon="5.92217">
        <ele>765.27</ele>
        <time>2024-06-09T08:17:29Z</time>
      </trkpt>
      <trkpt lat="46.63438" lon="5.92209">
        <ele>765.29</ele>
        <time>2024-06-09T08:17:38Z</time>
      </trkpt>
      <trkpt lat="46.63435" lon="5.92209">
        <ele>765.3</ele>
        <time>2024-06-09T08:17:40Z</time>
      </trkpt>
      <trkpt lat="46.63432" lon="5.92208">
        <ele>766.06</ele>
        <time>2024-06-09T08:17:43Z</time>
      </trkpt>
      <trkpt lat="46.63426" lon="5.92208">
        <ele>766.06</ele>
        <time>2024-06-09T08:17:50Z</time>
      </trkpt>
      <trkpt lat="46.63422" lon="5.92207">
        <ele>766.05</ele>
        <time>2024-06-09T08:17:54Z</time>
      </trkpt>
      <trkpt lat="46.63416" lon="5.92204">
        <ele>766.03</ele>
        <time>2024-06-09T08:18:00Z</time>
      </trkpt>
      <trkpt lat="46.63409" lon="5.92198">
        <ele>766</ele>
        <time>2024-06-09T08:18:09Z</time>
      </trkpt>
      <trkpt lat="46.63408" lon="5.92176">
        <ele>765.9</ele>
        <time>2024-06-09T08:18:21Z</time>
      </trkpt>
      <trkpt lat="46.63408" lon="5.92172">
        <ele>762.69</ele>
        <time>2024-06-09T08:18:25Z</time>
      </trkpt>
      <trkpt lat="46.63408" lon="5.92171">
        <ele>762.69</ele>
        <time>2024-06-09T08:18:26Z</time>
      </trkpt>
      <trkpt lat="46.63406" lon="5.92156">
        <ele>762.68</ele>
        <time>2024-06-09T08:18:37Z</time>
      </trkpt>
      <trkpt lat="46.63393" lon="5.92135">
        <ele>762.62</ele>
        <time>2024-06-09T08:18:49Z</time>
      </trkpt>
      <trkpt lat="46.6339" lon="5.92118">
        <ele>762.49</ele>
        <time>2024-06-09T08:19:02Z</time>
      </trkpt>
      <trkpt lat="46.63392" lon="5.92109">
        <ele>762.44</ele>
        <time>2024-06-09T08:19:08Z</time>
      </trkpt>
      <trkpt lat="46.63391" lon="5.92106">
        <ele>762.44</ele>
        <time>2024-06-09T08:19:09Z</time>
      </trkpt>
      <trkpt lat="46.6339" lon="5.92103">
        <ele>762.43</ele>
        <time>2024-06-09T08:19:10Z</time>
      </trkpt>
      <trkpt lat="46.63385" lon="5.92074">
        <ele>762.27</ele>
        <time>2024-06-09T08:19:25Z</time>
      </trkpt>
      <trkpt lat="46.63383" lon="5.9207">
        <ele>762.22</ele>
        <time>2024-06-09T08:19:29Z</time>
      </trkpt>
      <trkpt lat="46.63382" lon="5.92068">
        <ele>762.22</ele>
        <time>2024-06-09T08:19:30Z</time>
      </trkpt>
      <trkpt lat="46.6338" lon="5.9206">
        <ele>762.15</ele>
        <time>2024-06-09T08:19:35Z</time>
      </trkpt>
      <trkpt lat="46.63378" lon="5.9206">
        <ele>764.6</ele>
        <time>2024-06-09T08:19:37Z</time>
      </trkpt>
      <trkpt lat="46.63371" lon="5.92044">
        <ele>766.23</ele>
        <time>2024-06-09T08:19:57Z</time>
      </trkpt>
      <trkpt lat="46.63368" lon="5.92029">
        <ele>768.3</ele>
        <time>2024-06-09T08:20:10Z</time>
      </trkpt>
      <trkpt lat="46.63368" lon="5.92027">
        <ele>768.29</ele>
        <time>2024-06-09T08:20:11Z</time>
      </trkpt>
      <trkpt lat="46.63367" lon="5.92022">
        <ele>768.21</ele>
        <time>2024-06-09T08:20:14Z</time>
      </trkpt>
      <trkpt lat="46.63368" lon="5.92012">
        <ele>769.03</ele>
        <time>2024-06-09T08:20:19Z</time>
      </trkpt>
      <trkpt lat="46.63368" lon="5.92007">
        <ele>768.97</ele>
        <time>2024-06-09T08:20:21Z</time>
      </trkpt>
      <trkpt lat="46.63368" lon="5.92005">
        <ele>768.98</ele>
        <time>2024-06-09T08:20:22Z</time>
      </trkpt>
      <trkpt lat="46.63369" lon="5.92001">
        <ele>768.91</ele>
        <time>2024-06-09T08:20:24Z</time>
      </trkpt>
      <trkpt lat="46.63369" lon="5.91999">
        <ele>768.91</ele>
        <time>2024-06-09T08:20:25Z</time>
      </trkpt>
      <trkpt lat="46.63363" lon="5.91973">
        <ele>768.67</ele>
        <time>2024-06-09T08:20:38Z</time>
      </trkpt>
      <trkpt lat="46.63362" lon="5.91971">
        <ele>768.63</ele>
        <time>2024-06-09T08:20:39Z</time>
      </trkpt>
      <trkpt lat="46.63362" lon="5.9197">
        <ele>768.63</ele>
        <time>2024-06-09T08:20:40Z</time>
      </trkpt>
      <trkpt lat="46.6336" lon="5.91969">
        <ele>768.61</ele>
        <time>2024-06-09T08:20:41Z</time>
      </trkpt>
      <trkpt lat="46.6336" lon="5.91967">
        <ele>768.6</ele>
        <time>2024-06-09T08:20:42Z</time>
      </trkpt>
      <trkpt lat="46.63347" lon="5.91953">
        <ele>768.4</ele>
        <time>2024-06-09T08:20:53Z</time>
      </trkpt>
      <trkpt lat="46.63347" lon="5.91951">
        <ele>768.39</ele>
        <time>2024-06-09T08:20:54Z</time>
      </trkpt>
      <trkpt lat="46.63346" lon="5.9195">
        <ele>768.37</ele>
        <time>2024-06-09T08:20:55Z</time>
      </trkpt>
      <trkpt lat="46.63337" lon="5.91941">
        <ele>765.44</ele>
        <time>2024-06-09T08:21:02Z</time>
      </trkpt>
      <trkpt lat="46.63336" lon="5.9194">
        <ele>765.42</ele>
        <time>2024-06-09T08:21:03Z</time>
      </trkpt>
      <trkpt lat="46.63335" lon="5.91938">
        <ele>765.41</ele>
        <time>2024-06-09T08:21:04Z</time>
      </trkpt>
      <trkpt lat="46.63332" lon="5.91926">
        <ele>765.23</ele>
        <time>2024-06-09T08:21:15Z</time>
      </trkpt>
      <trkpt lat="46.63331" lon="5.91924">
        <ele>764.02</ele>
        <time>2024-06-09T08:21:17Z</time>
      </trkpt>
      <trkpt lat="46.63329" lon="5.91923">
        <ele>764</ele>
        <time>2024-06-09T08:21:19Z</time>
      </trkpt>
      <trkpt lat="46.63324" lon="5.91914">
        <ele>763.92</ele>
        <time>2024-06-09T08:21:27Z</time>
      </trkpt>
      <trkpt lat="46.63323" lon="5.9191">
        <ele>763.82</ele>
        <time>2024-06-09T08:21:34Z</time>
      </trkpt>
      <trkpt lat="46.63321" lon="5.91901">
        <ele>763.66</ele>
        <time>2024-06-09T08:21:42Z</time>
      </trkpt>
      <trkpt lat="46.63319" lon="5.91895">
        <ele>763.31</ele>
        <time>2024-06-09T08:22:09Z</time>
      </trkpt>
      <trkpt lat="46.63321" lon="5.91891">
        <ele>762.94</ele>
        <time>2024-06-09T08:22:27Z</time>
      </trkpt>
      <trkpt lat="46.63321" lon="5.91892">
        <ele>762.64</ele>
        <time>2024-06-09T08:22:48Z</time>
      </trkpt>
      <trkpt lat="46.63318" lon="5.91894">
        <ele>762.38</ele>
        <time>2024-06-09T08:23:12Z</time>
      </trkpt>
      <trkpt lat="46.63312" lon="5.9189">
        <ele>762.16</ele>
        <time>2024-06-09T08:23:56Z</time>
      </trkpt>
      <trkpt lat="46.63309" lon="5.91893">
        <ele>762.15</ele>
        <time>2024-06-09T08:24:25Z</time>
      </trkpt>
      <trkpt lat="46.6331" lon="5.91885">
        <ele>762.26</ele>
        <time>2024-06-09T08:25:06Z</time>
      </trkpt>
      <trkpt lat="46.63312" lon="5.91884">
        <ele>762.38</ele>
        <time>2024-06-09T08:25:36Z</time>
      </trkpt>
      <trkpt lat="46.63311" lon="5.91883">
        <ele>762.49</ele>
        <time>2024-06-09T08:26:00Z</time>
      </trkpt>
      <trkpt lat="46.63311" lon="5.91883">
        <ele>762.51</ele>
        <time>2024-06-09T08:26:22Z</time>
      </trkpt>
      <trkpt lat="46.63315" lon="5.91879">
        <ele>762.76</ele>
        <time>2024-06-09T08:26:57Z</time>
      </trkpt>
      <trkpt lat="46.63314" lon="5.91881">
        <ele>762.97</ele>
        <time>2024-06-09T08:27:42Z</time>
      </trkpt>
      <trkpt lat="46.63311" lon="5.91882">
        <ele>763.15</ele>
        <time>2024-06-09T08:28:18Z</time>
      </trkpt>
      <trkpt lat="46.63311" lon="5.91879">
        <ele>763.25</ele>
        <time>2024-06-09T08:28:47Z</time>
      </trkpt>
      <trkpt lat="46.63312" lon="5.91878">
        <ele>763.52</ele>
        <time>2024-06-09T08:29:47Z</time>
      </trkpt>
      <trkpt lat="46.63312" lon="5.91874">
        <ele>763.58</ele>
        <time>2024-06-09T08:29:52Z</time>
      </trkpt>
      <trkpt lat="46.63312" lon="5.91872">
        <ele>763.59</ele>
        <time>2024-06-09T08:29:53Z</time>
      </trkpt>
      <trkpt lat="46.63309" lon="5.91857">
        <ele>764.74</ele>
        <time>2024-06-09T08:30:03Z</time>
      </trkpt>
      <trkpt lat="46.6331" lon="5.91856">
        <ele>764.73</ele>
        <time>2024-06-09T08:30:04Z</time>
      </trkpt>
      <trkpt lat="46.6331" lon="5.91848">
        <ele>764.7</ele>
        <time>2024-06-09T08:30:08Z</time>
      </trkpt>
      <trkpt lat="46.63312" lon="5.91843">
        <ele>758.55</ele>
        <time>2024-06-09T08:30:12Z</time>
      </trkpt>
      <trkpt lat="46.63312" lon="5.91842">
        <ele>758.56</ele>
        <time>2024-06-09T08:30:13Z</time>
      </trkpt>
      <trkpt lat="46.63312" lon="5.91841">
        <ele>763.8</ele>
        <time>2024-06-09T08:30:14Z</time>
      </trkpt>
      <trkpt lat="46.63313" lon="5.9184">
        <ele>763.72</ele>
        <time>2024-06-09T08:30:15Z</time>
      </trkpt>
      <trkpt lat="46.63313" lon="5.91839">
        <ele>763.81</ele>
        <time>2024-06-09T08:30:16Z</time>
      </trkpt>
      <trkpt lat="46.63313" lon="5.91837">
        <ele>763.91</ele>
        <time>2024-06-09T08:30:17Z</time>
      </trkpt>
      <trkpt lat="46.63314" lon="5.91834">
        <ele>766.97</ele>
        <time>2024-06-09T08:30:19Z</time>
      </trkpt>
      <trkpt lat="46.63315" lon="5.91833">
        <ele>766.95</ele>
        <time>2024-06-09T08:30:20Z</time>
      </trkpt>
      <trkpt lat="46.63317" lon="5.9183">
        <ele>763.55</ele>
        <time>2024-06-09T08:30:22Z</time>
      </trkpt>
      <trkpt lat="46.63317" lon="5.91829">
        <ele>763.52</ele>
        <time>2024-06-09T08:30:23Z</time>
      </trkpt>
      <trkpt lat="46.63323" lon="5.91823">
        <ele>762.75</ele>
        <time>2024-06-09T08:30:30Z</time>
      </trkpt>
      <trkpt lat="46.63324" lon="5.91821">
        <ele>762.81</ele>
        <time>2024-06-09T08:30:31Z</time>
      </trkpt>
      <trkpt lat="46.63325" lon="5.9182">
        <ele>762.81</ele>
        <time>2024-06-09T08:30:32Z</time>
      </trkpt>
      <trkpt lat="46.63326" lon="5.91818">
        <ele>762.8</ele>
        <time>2024-06-09T08:30:33Z</time>
      </trkpt>
      <trkpt lat="46.63327" lon="5.91817">
        <ele>762.8</ele>
        <time>2024-06-09T08:30:34Z</time>
      </trkpt>
      <trkpt lat="46.63328" lon="5.91817">
        <ele>762.8</ele>
        <time>2024-06-09T08:30:35Z</time>
      </trkpt>
      <trkpt lat="46.63329" lon="5.91815">
        <ele>762.83</ele>
        <time>2024-06-09T08:30:36Z</time>
      </trkpt>
      <trkpt lat="46.6333" lon="5.91814">
        <ele>762.89</ele>
        <time>2024-06-09T08:30:37Z</time>
      </trkpt>
      <trkpt lat="46.63332" lon="5.91813">
        <ele>762.86</ele>
        <time>2024-06-09T08:30:38Z</time>
      </trkpt>
      <trkpt lat="46.63345" lon="5.91801">
        <ele>763.01</ele>
        <time>2024-06-09T08:30:50Z</time>
      </trkpt>
      <trkpt lat="46.63353" lon="5.91797">
        <ele>763.11</ele>
        <time>2024-06-09T08:30:56Z</time>
      </trkpt>
      <trkpt lat="46.6337" lon="5.91799">
        <ele>765.94</ele>
        <time>2024-06-09T08:31:07Z</time>
      </trkpt>
      <trkpt lat="46.63376" lon="5.91796">
        <ele>765.96</ele>
        <time>2024-06-09T08:31:11Z</time>
      </trkpt>
      <trkpt lat="46.63377" lon="5.91795">
        <ele>765.96</ele>
        <time>2024-06-09T08:31:12Z</time>
      </trkpt>
      <trkpt lat="46.63379" lon="5.91793">
        <ele>765.96</ele>
        <time>2024-06-09T08:31:13Z</time>
      </trkpt>
      <trkpt lat="46.63392" lon="5.91765">
        <ele>765.84</ele>
        <time>2024-06-09T08:31:28Z</time>
      </trkpt>
      <trkpt lat="46.63397" lon="5.91756">
        <ele>763.23</ele>
        <time>2024-06-09T08:31:35Z</time>
      </trkpt>
      <trkpt lat="46.63403" lon="5.91741">
        <ele>763.27</ele>
        <time>2024-06-09T08:31:42Z</time>
      </trkpt>
      <trkpt lat="46.63403" lon="5.91738">
        <ele>763.31</ele>
        <time>2024-06-09T08:31:43Z</time>
      </trkpt>
      <trkpt lat="46.63404" lon="5.91736">
        <ele>763.33</ele>
        <time>2024-06-09T08:31:44Z</time>
      </trkpt>
      <trkpt lat="46.63405" lon="5.91734">
        <ele>763.37</ele>
        <time>2024-06-09T08:31:45Z</time>
      </trkpt>
      <trkpt lat="46.63405" lon="5.91731">
        <ele>763.44</ele>
        <time>2024-06-09T08:31:46Z</time>
      </trkpt>
      <trkpt lat="46.6341" lon="5.91726">
        <ele>763.5</ele>
        <time>2024-06-09T08:31:50Z</time>
      </trkpt>
      <trkpt lat="46.63411" lon="5.91725">
        <ele>766.27</ele>
        <time>2024-06-09T08:31:51Z</time>
      </trkpt>
      <trkpt lat="46.63412" lon="5.91724">
        <ele>766.27</ele>
        <time>2024-06-09T08:31:52Z</time>
      </trkpt>
      <trkpt lat="46.63415" lon="5.91718">
        <ele>766.24</ele>
        <time>2024-06-09T08:31:57Z</time>
      </trkpt>
      <trkpt lat="46.63415" lon="5.91716">
        <ele>767.13</ele>
        <time>2024-06-09T08:31:58Z</time>
      </trkpt>
      <trkpt lat="46.63416" lon="5.91714">
        <ele>767.22</ele>
        <time>2024-06-09T08:31:59Z</time>
      </trkpt>
      <trkpt lat="46.63434" lon="5.91693">
        <ele>768.28</ele>
        <time>2024-06-09T08:32:15Z</time>
      </trkpt>
      <trkpt lat="46.63445" lon="5.91669">
        <ele>769.34</ele>
        <time>2024-06-09T08:32:29Z</time>
      </trkpt>
      <trkpt lat="46.63462" lon="5.91645">
        <ele>769.35</ele>
        <time>2024-06-09T08:32:43Z</time>
      </trkpt>
      <trkpt lat="46.63463" lon="5.91643">
        <ele>769.35</ele>
        <time>2024-06-09T08:32:44Z</time>
      </trkpt>
      <trkpt lat="46.63464" lon="5.91641">
        <ele>769.35</ele>
        <time>2024-06-09T08:32:45Z</time>
      </trkpt>
      <trkpt lat="46.63464" lon="5.91639">
        <ele>769.34</ele>
        <time>2024-06-09T08:32:46Z</time>
      </trkpt>
      <trkpt lat="46.63465" lon="5.91637">
        <ele>769.36</ele>
        <time>2024-06-09T08:32:47Z</time>
      </trkpt>
      <trkpt lat="46.63467" lon="5.91635">
        <ele>769.33</ele>
        <time>2024-06-09T08:32:48Z</time>
      </trkpt>
      <trkpt lat="46.63468" lon="5.91633">
        <ele>769.33</ele>
        <time>2024-06-09T08:32:49Z</time>
      </trkpt>
      <trkpt lat="46.63487" lon="5.91602">
        <ele>770.08</ele>
        <time>2024-06-09T08:33:07Z</time>
      </trkpt>
      <trkpt lat="46.635" lon="5.91581">
        <ele>770.05</ele>
        <time>2024-06-09T08:33:21Z</time>
      </trkpt>
      <trkpt lat="46.63501" lon="5.91579">
        <ele>770.05</ele>
        <time>2024-06-09T08:33:22Z</time>
      </trkpt>
      <trkpt lat="46.63515" lon="5.91554">
        <ele>770.97</ele>
        <time>2024-06-09T08:33:38Z</time>
      </trkpt>
      <trkpt lat="46.63517" lon="5.91547">
        <ele>771.77</ele>
        <time>2024-06-09T08:33:42Z</time>
      </trkpt>
      <trkpt lat="46.63517" lon="5.91546">
        <ele>771.76</ele>
        <time>2024-06-09T08:33:43Z</time>
      </trkpt>
      <trkpt lat="46.63517" lon="5.91544">
        <ele>771.75</ele>
        <time>2024-06-09T08:33:44Z</time>
      </trkpt>
      <trkpt lat="46.63517" lon="5.91543">
        <ele>771.74</ele>
        <time>2024-06-09T08:33:45Z</time>
      </trkpt>
      <trkpt lat="46.63518" lon="5.91541">
        <ele>771.74</ele>
        <time>2024-06-09T08:33:46Z</time>
      </trkpt>
      <trkpt lat="46.63518" lon="5.9153">
        <ele>771.76</ele>
        <time>2024-06-09T08:33:51Z</time>
      </trkpt>
      <trkpt lat="46.63517" lon="5.91528">
        <ele>771.75</ele>
        <time>2024-06-09T08:33:52Z</time>
      </trkpt>
      <trkpt lat="46.63518" lon="5.91521">
        <ele>771.74</ele>
        <time>2024-06-09T08:33:55Z</time>
      </trkpt>
      <trkpt lat="46.63519" lon="5.91519">
        <ele>768.77</ele>
        <time>2024-06-09T08:33:56Z</time>
      </trkpt>
      <trkpt lat="46.63521" lon="5.91518">
        <ele>768.77</ele>
        <time>2024-06-09T08:33:57Z</time>
      </trkpt>
      <trkpt lat="46.63522" lon="5.91517">
        <ele>768.77</ele>
        <time>2024-06-09T08:33:58Z</time>
      </trkpt>
      <trkpt lat="46.63523" lon="5.91515">
        <ele>768.76</ele>
        <time>2024-06-09T08:33:59Z</time>
      </trkpt>
      <trkpt lat="46.63525" lon="5.91514">
        <ele>768.75</ele>
        <time>2024-06-09T08:34:00Z</time>
      </trkpt>
      <trkpt lat="46.63542" lon="5.91501">
        <ele>767.69</ele>
        <time>2024-06-09T08:34:12Z</time>
      </trkpt>
      <trkpt lat="46.63545" lon="5.91499">
        <ele>767.71</ele>
        <time>2024-06-09T08:34:14Z</time>
      </trkpt>
      <trkpt lat="46.63546" lon="5.91497">
        <ele>767.75</ele>
        <time>2024-06-09T08:34:15Z</time>
      </trkpt>
      <trkpt lat="46.63557" lon="5.91489">
        <ele>767.78</ele>
        <time>2024-06-09T08:34:24Z</time>
      </trkpt>
      <trkpt lat="46.63559" lon="5.91488">
        <ele>767.93</ele>
        <time>2024-06-09T08:34:25Z</time>
      </trkpt>
      <trkpt lat="46.63561" lon="5.91486">
        <ele>767.87</ele>
        <time>2024-06-09T08:34:26Z</time>
      </trkpt>
      <trkpt lat="46.63562" lon="5.91485">
        <ele>767.88</ele>
        <time>2024-06-09T08:34:27Z</time>
      </trkpt>
      <trkpt lat="46.63564" lon="5.91484">
        <ele>767.88</ele>
        <time>2024-06-09T08:34:28Z</time>
      </trkpt>
      <trkpt lat="46.63566" lon="5.91484">
        <ele>767.8</ele>
        <time>2024-06-09T08:34:29Z</time>
      </trkpt>
      <trkpt lat="46.63567" lon="5.91483">
        <ele>767.86</ele>
        <time>2024-06-09T08:34:30Z</time>
      </trkpt>
      <trkpt lat="46.63569" lon="5.91481">
        <ele>767.9</ele>
        <time>2024-06-09T08:34:31Z</time>
      </trkpt>
      <trkpt lat="46.63571" lon="5.91479">
        <ele>767.85</ele>
        <time>2024-06-09T08:34:32Z</time>
      </trkpt>
      <trkpt lat="46.63572" lon="5.91478">
        <ele>767.91</ele>
        <time>2024-06-09T08:34:33Z</time>
      </trkpt>
      <trkpt lat="46.63574" lon="5.91476">
        <ele>767.85</ele>
        <time>2024-06-09T08:34:34Z</time>
      </trkpt>
      <trkpt lat="46.63575" lon="5.91475">
        <ele>767.86</ele>
        <time>2024-06-09T08:34:35Z</time>
      </trkpt>
      <trkpt lat="46.63576" lon="5.91472">
        <ele>767.8</ele>
        <time>2024-06-09T08:34:36Z</time>
      </trkpt>
      <trkpt lat="46.63577" lon="5.9147">
        <ele>767.8</ele>
        <time>2024-06-09T08:34:37Z</time>
      </trkpt>
      <trkpt lat="46.63578" lon="5.91468">
        <ele>767.8</ele>
        <time>2024-06-09T08:34:38Z</time>
      </trkpt>
      <trkpt lat="46.63579" lon="5.91466">
        <ele>770.15</ele>
        <time>2024-06-09T08:34:39Z</time>
      </trkpt>
      <trkpt lat="46.6358" lon="5.91464">
        <ele>770.15</ele>
        <time>2024-06-09T08:34:40Z</time>
      </trkpt>
      <trkpt lat="46.63583" lon="5.91461">
        <ele>770.9</ele>
        <time>2024-06-09T08:34:42Z</time>
      </trkpt>
      <trkpt lat="46.63585" lon="5.91461">
        <ele>771.01</ele>
        <time>2024-06-09T08:34:43Z</time>
      </trkpt>
      <trkpt lat="46.63586" lon="5.9146">
        <ele>771.01</ele>
        <time>2024-06-09T08:34:44Z</time>
      </trkpt>
      <trkpt lat="46.63588" lon="5.91459">
        <ele>771.9</ele>
        <time>2024-06-09T08:34:45Z</time>
      </trkpt>
      <trkpt lat="46.63589" lon="5.91457">
        <ele>771.8</ele>
        <time>2024-06-09T08:34:46Z</time>
      </trkpt>
      <trkpt lat="46.6359" lon="5.91456">
        <ele>771.81</ele>
        <time>2024-06-09T08:34:47Z</time>
      </trkpt>
      <trkpt lat="46.636" lon="5.91449">
        <ele>773.75</ele>
        <time>2024-06-09T08:34:54Z</time>
      </trkpt>
      <trkpt lat="46.63601" lon="5.91448">
        <ele>773.79</ele>
        <time>2024-06-09T08:34:55Z</time>
      </trkpt>
      <trkpt lat="46.63603" lon="5.91448">
        <ele>773.73</ele>
        <time>2024-06-09T08:34:56Z</time>
      </trkpt>
      <trkpt lat="46.63605" lon="5.91449">
        <ele>773.69</ele>
        <time>2024-06-09T08:34:57Z</time>
      </trkpt>
      <trkpt lat="46.63606" lon="5.91449">
        <ele>773.59</ele>
        <time>2024-06-09T08:34:58Z</time>
      </trkpt>
      <trkpt lat="46.63623" lon="5.9145">
        <ele>774.35</ele>
        <time>2024-06-09T08:35:10Z</time>
      </trkpt>
      <trkpt lat="46.63644" lon="5.91462">
        <ele>774.2</ele>
        <time>2024-06-09T08:35:26Z</time>
      </trkpt>
      <trkpt lat="46.6366" lon="5.91484">
        <ele>774.91</ele>
        <time>2024-06-09T08:35:41Z</time>
      </trkpt>
      <trkpt lat="46.63664" lon="5.91515">
        <ele>775.57</ele>
        <time>2024-06-09T08:35:57Z</time>
      </trkpt>
      <trkpt lat="46.63656" lon="5.91538">
        <ele>775.38</ele>
        <time>2024-06-09T08:36:10Z</time>
      </trkpt>
      <trkpt lat="46.63648" lon="5.91556">
        <ele>776.1</ele>
        <time>2024-06-09T08:36:21Z</time>
      </trkpt>
      <trkpt lat="46.63647" lon="5.91558">
        <ele>776.09</ele>
        <time>2024-06-09T08:36:22Z</time>
      </trkpt>
      <trkpt lat="46.6364" lon="5.9157">
        <ele>776.07</ele>
        <time>2024-06-09T08:36:29Z</time>
      </trkpt>
      <trkpt lat="46.6364" lon="5.91572">
        <ele>776.06</ele>
        <time>2024-06-09T08:36:30Z</time>
      </trkpt>
      <trkpt lat="46.63639" lon="5.91574">
        <ele>776.05</ele>
        <time>2024-06-09T08:36:31Z</time>
      </trkpt>
      <trkpt lat="46.63638" lon="5.91576">
        <ele>776.04</ele>
        <time>2024-06-09T08:36:32Z</time>
      </trkpt>
      <trkpt lat="46.63637" lon="5.91578">
        <ele>776.08</ele>
        <time>2024-06-09T08:36:33Z</time>
      </trkpt>
      <trkpt lat="46.63636" lon="5.9158">
        <ele>776.09</ele>
        <time>2024-06-09T08:36:34Z</time>
      </trkpt>
      <trkpt lat="46.63626" lon="5.91606">
        <ele>775.92</ele>
        <time>2024-06-09T08:36:48Z</time>
      </trkpt>
      <trkpt lat="46.63619" lon="5.91634">
        <ele>775.84</ele>
        <time>2024-06-09T08:37:01Z</time>
      </trkpt>
      <trkpt lat="46.63615" lon="5.91666">
        <ele>776.6</ele>
        <time>2024-06-09T08:37:17Z</time>
      </trkpt>
      <trkpt lat="46.63609" lon="5.91686">
        <ele>776.52</ele>
        <time>2024-06-09T08:37:28Z</time>
      </trkpt>
      <trkpt lat="46.63609" lon="5.91687">
        <ele>776.53</ele>
        <time>2024-06-09T08:37:29Z</time>
      </trkpt>
      <trkpt lat="46.63609" lon="5.91689">
        <ele>776.53</ele>
        <time>2024-06-09T08:37:30Z</time>
      </trkpt>
      <trkpt lat="46.63604" lon="5.91698">
        <ele>777.24</ele>
        <time>2024-06-09T08:37:36Z</time>
      </trkpt>
      <trkpt lat="46.63603" lon="5.91699">
        <ele>777.23</ele>
        <time>2024-06-09T08:37:37Z</time>
      </trkpt>
      <trkpt lat="46.63603" lon="5.917">
        <ele>777.22</ele>
        <time>2024-06-09T08:37:38Z</time>
      </trkpt>
      <trkpt lat="46.63602" lon="5.91702">
        <ele>777.22</ele>
        <time>2024-06-09T08:37:39Z</time>
      </trkpt>
      <trkpt lat="46.63601" lon="5.91703">
        <ele>777.21</ele>
        <time>2024-06-09T08:37:40Z</time>
      </trkpt>
      <trkpt lat="46.636" lon="5.91704">
        <ele>777.22</ele>
        <time>2024-06-09T08:37:41Z</time>
      </trkpt>
      <trkpt lat="46.63599" lon="5.91705">
        <ele>777.2</ele>
        <time>2024-06-09T08:37:42Z</time>
      </trkpt>
      <trkpt lat="46.63598" lon="5.91706">
        <ele>777.2</ele>
        <time>2024-06-09T08:37:43Z</time>
      </trkpt>
      <trkpt lat="46.63593" lon="5.91711">
        <ele>778.08</ele>
        <time>2024-06-09T08:37:48Z</time>
      </trkpt>
      <trkpt lat="46.63592" lon="5.91715">
        <ele>778.1</ele>
        <time>2024-06-09T08:37:51Z</time>
      </trkpt>
      <trkpt lat="46.63586" lon="5.91724">
        <ele>778.89</ele>
        <time>2024-06-09T08:38:01Z</time>
      </trkpt>
      <trkpt lat="46.63577" lon="5.91729">
        <ele>778.82</ele>
        <time>2024-06-09T08:38:09Z</time>
      </trkpt>
      <trkpt lat="46.63575" lon="5.9173">
        <ele>778.8</ele>
        <time>2024-06-09T08:38:10Z</time>
      </trkpt>
      <trkpt lat="46.63573" lon="5.9173">
        <ele>779.71</ele>
        <time>2024-06-09T08:38:11Z</time>
      </trkpt>
      <trkpt lat="46.63563" lon="5.91736">
        <ele>779.55</ele>
        <time>2024-06-09T08:38:17Z</time>
      </trkpt>
      <trkpt lat="46.63563" lon="5.91737">
        <ele>779.52</ele>
        <time>2024-06-09T08:38:18Z</time>
      </trkpt>
      <trkpt lat="46.63558" lon="5.91746">
        <ele>779.47</ele>
        <time>2024-06-09T08:38:24Z</time>
      </trkpt>
      <trkpt lat="46.63557" lon="5.91748">
        <ele>779.42</ele>
        <time>2024-06-09T08:38:26Z</time>
      </trkpt>
      <trkpt lat="46.63555" lon="5.91749">
        <ele>779.45</ele>
        <time>2024-06-09T08:38:27Z</time>
      </trkpt>
      <trkpt lat="46.63546" lon="5.91755">
        <ele>779.3</ele>
        <time>2024-06-09T08:38:34Z</time>
      </trkpt>
      <trkpt lat="46.63531" lon="5.91769">
        <ele>779.18</ele>
        <time>2024-06-09T08:38:44Z</time>
      </trkpt>
      <trkpt lat="46.63525" lon="5.91778">
        <ele>779.11</ele>
        <time>2024-06-09T08:38:49Z</time>
      </trkpt>
      <trkpt lat="46.63523" lon="5.91779">
        <ele>779.1</ele>
        <time>2024-06-09T08:38:50Z</time>
      </trkpt>
      <trkpt lat="46.63522" lon="5.9178">
        <ele>779.09</ele>
        <time>2024-06-09T08:38:51Z</time>
      </trkpt>
      <trkpt lat="46.63519" lon="5.91783">
        <ele>776.77</ele>
        <time>2024-06-09T08:38:53Z</time>
      </trkpt>
      <trkpt lat="46.63517" lon="5.91785">
        <ele>776.67</ele>
        <time>2024-06-09T08:38:54Z</time>
      </trkpt>
      <trkpt lat="46.63516" lon="5.91787">
        <ele>776.68</ele>
        <time>2024-06-09T08:38:55Z</time>
      </trkpt>
      <trkpt lat="46.63515" lon="5.91789">
        <ele>776.71</ele>
        <time>2024-06-09T08:38:56Z</time>
      </trkpt>
      <trkpt lat="46.63513" lon="5.91791">
        <ele>776.69</ele>
        <time>2024-06-09T08:38:57Z</time>
      </trkpt>
      <trkpt lat="46.63509" lon="5.91796">
        <ele>776.65</ele>
        <time>2024-06-09T08:39:00Z</time>
      </trkpt>
      <trkpt lat="46.63508" lon="5.91798">
        <ele>776.63</ele>
        <time>2024-06-09T08:39:01Z</time>
      </trkpt>
      <trkpt lat="46.63508" lon="5.91801">
        <ele>776.62</ele>
        <time>2024-06-09T08:39:02Z</time>
      </trkpt>
      <trkpt lat="46.63506" lon="5.91803">
        <ele>776.63</ele>
        <time>2024-06-09T08:39:03Z</time>
      </trkpt>
      <trkpt lat="46.63505" lon="5.91804">
        <ele>776.64</ele>
        <time>2024-06-09T08:39:04Z</time>
      </trkpt>
      <trkpt lat="46.63504" lon="5.91806">
        <ele>776.62</ele>
        <time>2024-06-09T08:39:05Z</time>
      </trkpt>
      <trkpt lat="46.63502" lon="5.91808">
        <ele>776.57</ele>
        <time>2024-06-09T08:39:06Z</time>
      </trkpt>
      <trkpt lat="46.63501" lon="5.91809">
        <ele>776.59</ele>
        <time>2024-06-09T08:39:07Z</time>
      </trkpt>
      <trkpt lat="46.63499" lon="5.91811">
        <ele>776.53</ele>
        <time>2024-06-09T08:39:08Z</time>
      </trkpt>
      <trkpt lat="46.63498" lon="5.91813">
        <ele>775.57</ele>
        <time>2024-06-09T08:39:09Z</time>
      </trkpt>
      <trkpt lat="46.63498" lon="5.91815">
        <ele>775.56</ele>
        <time>2024-06-09T08:39:10Z</time>
      </trkpt>
      <trkpt lat="46.63498" lon="5.91817">
        <ele>775.6</ele>
        <time>2024-06-09T08:39:11Z</time>
      </trkpt>
      <trkpt lat="46.63489" lon="5.91837">
        <ele>775.42</ele>
        <time>2024-06-09T08:39:24Z</time>
      </trkpt>
      <trkpt lat="46.63488" lon="5.91839">
        <ele>775.41</ele>
        <time>2024-06-09T08:39:25Z</time>
      </trkpt>
      <trkpt lat="46.63487" lon="5.91841">
        <ele>775.37</ele>
        <time>2024-06-09T08:39:26Z</time>
      </trkpt>
      <trkpt lat="46.63486" lon="5.91842">
        <ele>775.39</ele>
        <time>2024-06-09T08:39:27Z</time>
      </trkpt>
      <trkpt lat="46.63485" lon="5.91844">
        <ele>775.37</ele>
        <time>2024-06-09T08:39:28Z</time>
      </trkpt>
      <trkpt lat="46.63478" lon="5.91854">
        <ele>775.24</ele>
        <time>2024-06-09T08:39:34Z</time>
      </trkpt>
      <trkpt lat="46.63475" lon="5.91868">
        <ele>774.24</ele>
        <time>2024-06-09T08:39:40Z</time>
      </trkpt>
      <trkpt lat="46.63475" lon="5.91871">
        <ele>774.21</ele>
        <time>2024-06-09T08:39:41Z</time>
      </trkpt>
      <trkpt lat="46.63474" lon="5.91873">
        <ele>774.2</ele>
        <time>2024-06-09T08:39:42Z</time>
      </trkpt>
      <trkpt lat="46.63474" lon="5.91875">
        <ele>774.18</ele>
        <time>2024-06-09T08:39:43Z</time>
      </trkpt>
      <trkpt lat="46.63474" lon="5.91876">
        <ele>774.19</ele>
        <time>2024-06-09T08:39:44Z</time>
      </trkpt>
      <trkpt lat="46.63472" lon="5.9188">
        <ele>773.15</ele>
        <time>2024-06-09T08:39:47Z</time>
      </trkpt>
      <trkpt lat="46.63469" lon="5.91885">
        <ele>772.29</ele>
        <time>2024-06-09T08:39:50Z</time>
      </trkpt>
      <trkpt lat="46.63467" lon="5.91894">
        <ele>771.08</ele>
        <time>2024-06-09T08:39:54Z</time>
      </trkpt>
      <trkpt lat="46.63465" lon="5.919">
        <ele>770.9</ele>
        <time>2024-06-09T08:39:57Z</time>
      </trkpt>
      <trkpt lat="46.63464" lon="5.91902">
        <ele>770.92</ele>
        <time>2024-06-09T08:39:58Z</time>
      </trkpt>
      <trkpt lat="46.63464" lon="5.91904">
        <ele>770.87</ele>
        <time>2024-06-09T08:39:59Z</time>
      </trkpt>
      <trkpt lat="46.63463" lon="5.91907">
        <ele>769.97</ele>
        <time>2024-06-09T08:40:00Z</time>
      </trkpt>
      <trkpt lat="46.63463" lon="5.91908">
        <ele>769.95</ele>
        <time>2024-06-09T08:40:01Z</time>
      </trkpt>
      <trkpt lat="46.63462" lon="5.91912">
        <ele>769.94</ele>
        <time>2024-06-09T08:40:02Z</time>
      </trkpt>
      <trkpt lat="46.63463" lon="5.91918">
        <ele>769.91</ele>
        <time>2024-06-09T08:40:05Z</time>
      </trkpt>
      <trkpt lat="46.6347" lon="5.91927">
        <ele>773.02</ele>
        <time>2024-06-09T08:40:12Z</time>
      </trkpt>
      <trkpt lat="46.63471" lon="5.91928">
        <ele>773</ele>
        <time>2024-06-09T08:40:13Z</time>
      </trkpt>
      <trkpt lat="46.63473" lon="5.91928">
        <ele>772.98</ele>
        <time>2024-06-09T08:40:14Z</time>
      </trkpt>
      <trkpt lat="46.63474" lon="5.91929">
        <ele>772.95</ele>
        <time>2024-06-09T08:40:15Z</time>
      </trkpt>
      <trkpt lat="46.63474" lon="5.9193">
        <ele>774.17</ele>
        <time>2024-06-09T08:40:16Z</time>
      </trkpt>
      <trkpt lat="46.63481" lon="5.91935">
        <ele>775.68</ele>
        <time>2024-06-09T08:40:23Z</time>
      </trkpt>
      <trkpt lat="46.63488" lon="5.91943">
        <ele>776.25</ele>
        <time>2024-06-09T08:40:29Z</time>
      </trkpt>
      <trkpt lat="46.6349" lon="5.91945">
        <ele>776.36</ele>
        <time>2024-06-09T08:40:30Z</time>
      </trkpt>
      <trkpt lat="46.63491" lon="5.91946">
        <ele>777.72</ele>
        <time>2024-06-09T08:40:31Z</time>
      </trkpt>
      <trkpt lat="46.63493" lon="5.91947">
        <ele>777.7</ele>
        <time>2024-06-09T08:40:32Z</time>
      </trkpt>
      <trkpt lat="46.63494" lon="5.91947">
        <ele>777.7</ele>
        <time>2024-06-09T08:40:33Z</time>
      </trkpt>
      <trkpt lat="46.63498" lon="5.91949">
        <ele>778.47</ele>
        <time>2024-06-09T08:40:36Z</time>
      </trkpt>
      <trkpt lat="46.63499" lon="5.91949">
        <ele>778.54</ele>
        <time>2024-06-09T08:40:37Z</time>
      </trkpt>
      <trkpt lat="46.63502" lon="5.9195">
        <ele>779.54</ele>
        <time>2024-06-09T08:40:40Z</time>
      </trkpt>
      <trkpt lat="46.63503" lon="5.91951">
        <ele>780.56</ele>
        <time>2024-06-09T08:40:41Z</time>
      </trkpt>
      <trkpt lat="46.63505" lon="5.91951">
        <ele>780.53</ele>
        <time>2024-06-09T08:40:42Z</time>
      </trkpt>
      <trkpt lat="46.63506" lon="5.91951">
        <ele>780.48</ele>
        <time>2024-06-09T08:40:43Z</time>
      </trkpt>
      <trkpt lat="46.63517" lon="5.91954">
        <ele>783.08</ele>
        <time>2024-06-09T08:40:54Z</time>
      </trkpt>
      <trkpt lat="46.63518" lon="5.91954">
        <ele>783.06</ele>
        <time>2024-06-09T08:40:55Z</time>
      </trkpt>
      <trkpt lat="46.63528" lon="5.91948">
        <ele>783.5</ele>
        <time>2024-06-09T08:41:06Z</time>
      </trkpt>
      <trkpt lat="46.63529" lon="5.91947">
        <ele>783.47</ele>
        <time>2024-06-09T08:41:07Z</time>
      </trkpt>
      <trkpt lat="46.63533" lon="5.91947">
        <ele>784.9</ele>
        <time>2024-06-09T08:41:10Z</time>
      </trkpt>
      <trkpt lat="46.63533" lon="5.91946">
        <ele>784.85</ele>
        <time>2024-06-09T08:41:11Z</time>
      </trkpt>
      <trkpt lat="46.63541" lon="5.91945">
        <ele>784.58</ele>
        <time>2024-06-09T08:41:17Z</time>
      </trkpt>
      <trkpt lat="46.63542" lon="5.91945">
        <ele>784.61</ele>
        <time>2024-06-09T08:41:18Z</time>
      </trkpt>
      <trkpt lat="46.63549" lon="5.91949">
        <ele>785.06</ele>
        <time>2024-06-09T08:41:26Z</time>
      </trkpt>
      <trkpt lat="46.63553" lon="5.91956">
        <ele>784.88</ele>
        <time>2024-06-09T08:41:31Z</time>
      </trkpt>
      <trkpt lat="46.63559" lon="5.91961">
        <ele>784.7</ele>
        <time>2024-06-09T08:41:35Z</time>
      </trkpt>
      <trkpt lat="46.63565" lon="5.91973">
        <ele>784.51</ele>
        <time>2024-06-09T08:41:42Z</time>
      </trkpt>
      <trkpt lat="46.63565" lon="5.91975">
        <ele>784.47</ele>
        <time>2024-06-09T08:41:43Z</time>
      </trkpt>
      <trkpt lat="46.63566" lon="5.91977">
        <ele>784.44</ele>
        <time>2024-06-09T08:41:44Z</time>
      </trkpt>
      <trkpt lat="46.63569" lon="5.91983">
        <ele>784.23</ele>
        <time>2024-06-09T08:41:48Z</time>
      </trkpt>
      <trkpt lat="46.63575" lon="5.91986">
        <ele>784.09</ele>
        <time>2024-06-09T08:41:52Z</time>
      </trkpt>
      <trkpt lat="46.63577" lon="5.91986">
        <ele>784.12</ele>
        <time>2024-06-09T08:41:53Z</time>
      </trkpt>
      <trkpt lat="46.63588" lon="5.91989">
        <ele>786.16</ele>
        <time>2024-06-09T08:42:02Z</time>
      </trkpt>
      <trkpt lat="46.6359" lon="5.9199">
        <ele>786.2</ele>
        <time>2024-06-09T08:42:04Z</time>
      </trkpt>
      <trkpt lat="46.636" lon="5.91995">
        <ele>788.94</ele>
        <time>2024-06-09T08:42:16Z</time>
      </trkpt>
      <trkpt lat="46.63608" lon="5.92013">
        <ele>790.22</ele>
        <time>2024-06-09T08:42:30Z</time>
      </trkpt>
      <trkpt lat="46.63616" lon="5.92026">
        <ele>790.95</ele>
        <time>2024-06-09T08:42:40Z</time>
      </trkpt>
      <trkpt lat="46.63622" lon="5.92031">
        <ele>791.69</ele>
        <time>2024-06-09T08:42:45Z</time>
      </trkpt>
      <trkpt lat="46.63623" lon="5.92032">
        <ele>792.51</ele>
        <time>2024-06-09T08:42:46Z</time>
      </trkpt>
      <trkpt lat="46.63626" lon="5.92033">
        <ele>792.35</ele>
        <time>2024-06-09T08:42:48Z</time>
      </trkpt>
      <trkpt lat="46.63627" lon="5.92033">
        <ele>792.36</ele>
        <time>2024-06-09T08:42:49Z</time>
      </trkpt>
      <trkpt lat="46.63637" lon="5.92038">
        <ele>793.5</ele>
        <time>2024-06-09T08:43:01Z</time>
      </trkpt>
      <trkpt lat="46.63648" lon="5.92041">
        <ele>796.85</ele>
        <time>2024-06-09T08:43:15Z</time>
      </trkpt>
      <trkpt lat="46.63655" lon="5.92041">
        <ele>797.52</ele>
        <time>2024-06-09T08:43:24Z</time>
      </trkpt>
      <trkpt lat="46.63669" lon="5.9204">
        <ele>798.79</ele>
        <time>2024-06-09T08:43:35Z</time>
      </trkpt>
      <trkpt lat="46.63671" lon="5.9204">
        <ele>798.7</ele>
        <time>2024-06-09T08:43:36Z</time>
      </trkpt>
      <trkpt lat="46.6368" lon="5.9204">
        <ele>799.23</ele>
        <time>2024-06-09T08:43:42Z</time>
      </trkpt>
      <trkpt lat="46.63681" lon="5.92039">
        <ele>800.08</ele>
        <time>2024-06-09T08:43:43Z</time>
      </trkpt>
      <trkpt lat="46.63686" lon="5.9204">
        <ele>799.8</ele>
        <time>2024-06-09T08:43:48Z</time>
      </trkpt>
      <trkpt lat="46.63688" lon="5.92042">
        <ele>799.61</ele>
        <time>2024-06-09T08:43:50Z</time>
      </trkpt>
      <trkpt lat="46.63691" lon="5.92046">
        <ele>801.2</ele>
        <time>2024-06-09T08:43:54Z</time>
      </trkpt>
      <trkpt lat="46.63705" lon="5.92056">
        <ele>802.32</ele>
        <time>2024-06-09T08:44:08Z</time>
      </trkpt>
      <trkpt lat="46.63695" lon="5.92064">
        <ele>803.39</ele>
        <time>2024-06-09T08:44:24Z</time>
      </trkpt>
      <trkpt lat="46.63693" lon="5.92066">
        <ele>803.28</ele>
        <time>2024-06-09T08:44:26Z</time>
      </trkpt>
      <trkpt lat="46.63691" lon="5.92066">
        <ele>803.25</ele>
        <time>2024-06-09T08:44:27Z</time>
      </trkpt>
      <trkpt lat="46.63664" lon="5.92088">
        <ele>802.25</ele>
        <time>2024-06-09T08:44:47Z</time>
      </trkpt>
      <trkpt lat="46.63663" lon="5.92089">
        <ele>802.24</ele>
        <time>2024-06-09T08:44:48Z</time>
      </trkpt>
      <trkpt lat="46.63662" lon="5.92091">
        <ele>802.2</ele>
        <time>2024-06-09T08:44:49Z</time>
      </trkpt>
      <trkpt lat="46.63651" lon="5.92103">
        <ele>801.83</ele>
        <time>2024-06-09T08:44:57Z</time>
      </trkpt>
      <trkpt lat="46.63651" lon="5.92105">
        <ele>802.62</ele>
        <time>2024-06-09T08:44:58Z</time>
      </trkpt>
      <trkpt lat="46.63652" lon="5.92108">
        <ele>802.55</ele>
        <time>2024-06-09T08:44:59Z</time>
      </trkpt>
      <trkpt lat="46.63651" lon="5.92111">
        <ele>802.5</ele>
        <time>2024-06-09T08:45:00Z</time>
      </trkpt>
      <trkpt lat="46.63652" lon="5.92113">
        <ele>802.46</ele>
        <time>2024-06-09T08:45:01Z</time>
      </trkpt>
      <trkpt lat="46.63653" lon="5.92116">
        <ele>802.42</ele>
        <time>2024-06-09T08:45:02Z</time>
      </trkpt>
      <trkpt lat="46.63654" lon="5.92135">
        <ele>802.19</ele>
        <time>2024-06-09T08:45:07Z</time>
      </trkpt>
      <trkpt lat="46.63655" lon="5.92139">
        <ele>802.16</ele>
        <time>2024-06-09T08:45:08Z</time>
      </trkpt>
      <trkpt lat="46.63654" lon="5.92145">
        <ele>802.99</ele>
        <time>2024-06-09T08:45:09Z</time>
      </trkpt>
      <trkpt lat="46.63654" lon="5.92149">
        <ele>802.94</ele>
        <time>2024-06-09T08:45:10Z</time>
      </trkpt>
      <trkpt lat="46.63655" lon="5.92151">
        <ele>802.91</ele>
        <time>2024-06-09T08:45:11Z</time>
      </trkpt>
      <trkpt lat="46.63656" lon="5.92154">
        <ele>802.88</ele>
        <time>2024-06-09T08:45:12Z</time>
      </trkpt>
      <trkpt lat="46.63657" lon="5.92156">
        <ele>802.85</ele>
        <time>2024-06-09T08:45:13Z</time>
      </trkpt>
      <trkpt lat="46.63659" lon="5.92158">
        <ele>802.84</ele>
        <time>2024-06-09T08:45:14Z</time>
      </trkpt>
      <trkpt lat="46.63662" lon="5.92161">
        <ele>802.73</ele>
        <time>2024-06-09T08:45:16Z</time>
      </trkpt>
      <trkpt lat="46.63662" lon="5.92164">
        <ele>802.71</ele>
        <time>2024-06-09T08:45:17Z</time>
      </trkpt>
      <trkpt lat="46.63662" lon="5.92166">
        <ele>802.7</ele>
        <time>2024-06-09T08:45:18Z</time>
      </trkpt>
      <trkpt lat="46.63663" lon="5.92168">
        <ele>803.69</ele>
        <time>2024-06-09T08:45:19Z</time>
      </trkpt>
      <trkpt lat="46.63665" lon="5.92171">
        <ele>803.55</ele>
        <time>2024-06-09T08:45:21Z</time>
      </trkpt>
      <trkpt lat="46.63667" lon="5.92172">
        <ele>803.59</ele>
        <time>2024-06-09T08:45:23Z</time>
      </trkpt>
      <trkpt lat="46.6368" lon="5.9218">
        <ele>805.04</ele>
        <time>2024-06-09T08:45:34Z</time>
      </trkpt>
      <trkpt lat="46.63689" lon="5.92187">
        <ele>806.41</ele>
        <time>2024-06-09T08:45:41Z</time>
      </trkpt>
      <trkpt lat="46.6369" lon="5.92189">
        <ele>806.48</ele>
        <time>2024-06-09T08:45:42Z</time>
      </trkpt>
      <trkpt lat="46.63693" lon="5.92191">
        <ele>806.35</ele>
        <time>2024-06-09T08:45:44Z</time>
      </trkpt>
      <trkpt lat="46.63694" lon="5.92192">
        <ele>806.43</ele>
        <time>2024-06-09T08:45:45Z</time>
      </trkpt>
      <trkpt lat="46.63695" lon="5.92193">
        <ele>806.39</ele>
        <time>2024-06-09T08:45:46Z</time>
      </trkpt>
      <trkpt lat="46.63696" lon="5.92194">
        <ele>807.14</ele>
        <time>2024-06-09T08:45:47Z</time>
      </trkpt>
      <trkpt lat="46.63697" lon="5.92194">
        <ele>807.1</ele>
        <time>2024-06-09T08:45:48Z</time>
      </trkpt>
      <trkpt lat="46.63699" lon="5.92194">
        <ele>807.09</ele>
        <time>2024-06-09T08:45:49Z</time>
      </trkpt>
      <trkpt lat="46.63701" lon="5.92197">
        <ele>806.98</ele>
        <time>2024-06-09T08:45:51Z</time>
      </trkpt>
      <trkpt lat="46.63704" lon="5.92202">
        <ele>807.76</ele>
        <time>2024-06-09T08:45:54Z</time>
      </trkpt>
      <trkpt lat="46.63705" lon="5.92203">
        <ele>807.73</ele>
        <time>2024-06-09T08:45:55Z</time>
      </trkpt>
      <trkpt lat="46.63706" lon="5.92203">
        <ele>807.72</ele>
        <time>2024-06-09T08:45:56Z</time>
      </trkpt>
      <trkpt lat="46.63707" lon="5.92204">
        <ele>807.7</ele>
        <time>2024-06-09T08:45:57Z</time>
      </trkpt>
      <trkpt lat="46.63708" lon="5.92206">
        <ele>807.66</ele>
        <time>2024-06-09T08:45:58Z</time>
      </trkpt>
      <trkpt lat="46.63708" lon="5.92208">
        <ele>807.65</ele>
        <time>2024-06-09T08:45:59Z</time>
      </trkpt>
      <trkpt lat="46.6371" lon="5.92208">
        <ele>807.61</ele>
        <time>2024-06-09T08:46:00Z</time>
      </trkpt>
      <trkpt lat="46.6371" lon="5.9221">
        <ele>807.62</ele>
        <time>2024-06-09T08:46:01Z</time>
      </trkpt>
      <trkpt lat="46.63711" lon="5.92211">
        <ele>807.59</ele>
        <time>2024-06-09T08:46:02Z</time>
      </trkpt>
      <trkpt lat="46.63712" lon="5.92212">
        <ele>807.63</ele>
        <time>2024-06-09T08:46:03Z</time>
      </trkpt>
      <trkpt lat="46.6373" lon="5.9222">
        <ele>808.11</ele>
        <time>2024-06-09T08:46:18Z</time>
      </trkpt>
      <trkpt lat="46.63747" lon="5.92222">
        <ele>808.03</ele>
        <time>2024-06-09T08:46:30Z</time>
      </trkpt>
      <trkpt lat="46.63761" lon="5.92229">
        <ele>807.95</ele>
        <time>2024-06-09T08:46:42Z</time>
      </trkpt>
      <trkpt lat="46.63772" lon="5.92238">
        <ele>808.74</ele>
        <time>2024-06-09T08:46:51Z</time>
      </trkpt>
      <trkpt lat="46.63774" lon="5.92239">
        <ele>808.76</ele>
        <time>2024-06-09T08:46:53Z</time>
      </trkpt>
      <trkpt lat="46.6379" lon="5.92251">
        <ele>809.58</ele>
        <time>2024-06-09T08:47:05Z</time>
      </trkpt>
      <trkpt lat="46.63794" lon="5.92253">
        <ele>810.38</ele>
        <time>2024-06-09T08:47:08Z</time>
      </trkpt>
      <trkpt lat="46.63802" lon="5.92257">
        <ele>810.38</ele>
        <time>2024-06-09T08:47:14Z</time>
      </trkpt>
      <trkpt lat="46.63803" lon="5.92258">
        <ele>810.4</ele>
        <time>2024-06-09T08:47:15Z</time>
      </trkpt>
      <trkpt lat="46.63806" lon="5.92259">
        <ele>811.41</ele>
        <time>2024-06-09T08:47:17Z</time>
      </trkpt>
      <trkpt lat="46.63807" lon="5.9226">
        <ele>811.45</ele>
        <time>2024-06-09T08:47:18Z</time>
      </trkpt>
      <trkpt lat="46.63808" lon="5.92261">
        <ele>811.45</ele>
        <time>2024-06-09T08:47:19Z</time>
      </trkpt>
      <trkpt lat="46.63809" lon="5.92262">
        <ele>811.46</ele>
        <time>2024-06-09T08:47:20Z</time>
      </trkpt>
      <trkpt lat="46.63811" lon="5.92263">
        <ele>811.48</ele>
        <time>2024-06-09T08:47:21Z</time>
      </trkpt>
      <trkpt lat="46.63812" lon="5.92264">
        <ele>812.93</ele>
        <time>2024-06-09T08:47:22Z</time>
      </trkpt>
      <trkpt lat="46.63813" lon="5.92265">
        <ele>812.96</ele>
        <time>2024-06-09T08:47:23Z</time>
      </trkpt>
      <trkpt lat="46.63817" lon="5.9227">
        <ele>812.89</ele>
        <time>2024-06-09T08:47:26Z</time>
      </trkpt>
      <trkpt lat="46.63819" lon="5.92272">
        <ele>812.99</ele>
        <time>2024-06-09T08:47:27Z</time>
      </trkpt>
      <trkpt lat="46.63828" lon="5.92278">
        <ele>814.8</ele>
        <time>2024-06-09T08:47:35Z</time>
      </trkpt>
      <trkpt lat="46.63831" lon="5.9228">
        <ele>814.73</ele>
        <time>2024-06-09T08:47:38Z</time>
      </trkpt>
      <trkpt lat="46.63833" lon="5.9228">
        <ele>814.82</ele>
        <time>2024-06-09T08:47:39Z</time>
      </trkpt>
      <trkpt lat="46.63851" lon="5.92279">
        <ele>816.42</ele>
        <time>2024-06-09T08:47:53Z</time>
      </trkpt>
      <trkpt lat="46.63853" lon="5.9228">
        <ele>816.44</ele>
        <time>2024-06-09T08:47:55Z</time>
      </trkpt>
      <trkpt lat="46.63855" lon="5.92281">
        <ele>816.44</ele>
        <time>2024-06-09T08:47:56Z</time>
      </trkpt>
      <trkpt lat="46.63856" lon="5.92281">
        <ele>816.46</ele>
        <time>2024-06-09T08:47:57Z</time>
      </trkpt>
      <trkpt lat="46.63861" lon="5.92281">
        <ele>817.33</ele>
        <time>2024-06-09T08:48:01Z</time>
      </trkpt>
      <trkpt lat="46.63862" lon="5.92281">
        <ele>817.32</ele>
        <time>2024-06-09T08:48:02Z</time>
      </trkpt>
      <trkpt lat="46.63864" lon="5.92281">
        <ele>817.34</ele>
        <time>2024-06-09T08:48:03Z</time>
      </trkpt>
      <trkpt lat="46.6387" lon="5.92283">
        <ele>818.38</ele>
        <time>2024-06-09T08:48:08Z</time>
      </trkpt>
      <trkpt lat="46.63874" lon="5.92284">
        <ele>819.21</ele>
        <time>2024-06-09T08:48:11Z</time>
      </trkpt>
      <trkpt lat="46.63891" lon="5.92283">
        <ele>820.19</ele>
        <time>2024-06-09T08:48:24Z</time>
      </trkpt>
      <trkpt lat="46.63905" lon="5.92287">
        <ele>820.24</ele>
        <time>2024-06-09T08:48:34Z</time>
      </trkpt>
      <trkpt lat="46.63906" lon="5.92286">
        <ele>821.35</ele>
        <time>2024-06-09T08:48:35Z</time>
      </trkpt>
      <trkpt lat="46.63922" lon="5.9229">
        <ele>823.27</ele>
        <time>2024-06-09T08:48:45Z</time>
      </trkpt>
      <trkpt lat="46.6393" lon="5.92296">
        <ele>823.26</ele>
        <time>2024-06-09T08:48:52Z</time>
      </trkpt>
      <trkpt lat="46.63933" lon="5.92298">
        <ele>824.57</ele>
        <time>2024-06-09T08:48:54Z</time>
      </trkpt>
      <trkpt lat="46.63934" lon="5.92299">
        <ele>824.64</ele>
        <time>2024-06-09T08:48:55Z</time>
      </trkpt>
      <trkpt lat="46.63936" lon="5.923">
        <ele>824.64</ele>
        <time>2024-06-09T08:48:56Z</time>
      </trkpt>
      <trkpt lat="46.63937" lon="5.92302">
        <ele>824.66</ele>
        <time>2024-06-09T08:48:57Z</time>
      </trkpt>
      <trkpt lat="46.6394" lon="5.92304">
        <ele>824.6</ele>
        <time>2024-06-09T08:48:59Z</time>
      </trkpt>
      <trkpt lat="46.63941" lon="5.92305">
        <ele>824.65</ele>
        <time>2024-06-09T08:49:00Z</time>
      </trkpt>
      <trkpt lat="46.63942" lon="5.92305">
        <ele>824.65</ele>
        <time>2024-06-09T08:49:01Z</time>
      </trkpt>
      <trkpt lat="46.63944" lon="5.92306">
        <ele>825.5</ele>
        <time>2024-06-09T08:49:02Z</time>
      </trkpt>
      <trkpt lat="46.63945" lon="5.92306">
        <ele>825.48</ele>
        <time>2024-06-09T08:49:03Z</time>
      </trkpt>
      <trkpt lat="46.63949" lon="5.92308">
        <ele>825.49</ele>
        <time>2024-06-09T08:49:06Z</time>
      </trkpt>
      <trkpt lat="46.63953" lon="5.92311">
        <ele>826.56</ele>
        <time>2024-06-09T08:49:09Z</time>
      </trkpt>
      <trkpt lat="46.63955" lon="5.92311">
        <ele>826.56</ele>
        <time>2024-06-09T08:49:10Z</time>
      </trkpt>
      <trkpt lat="46.63957" lon="5.92312">
        <ele>826.55</ele>
        <time>2024-06-09T08:49:11Z</time>
      </trkpt>
      <trkpt lat="46.63961" lon="5.92312">
        <ele>826.55</ele>
        <time>2024-06-09T08:49:13Z</time>
      </trkpt>
      <trkpt lat="46.63966" lon="5.92313">
        <ele>826.59</ele>
        <time>2024-06-09T08:49:16Z</time>
      </trkpt>
      <trkpt lat="46.63974" lon="5.92314">
        <ele>827.58</ele>
        <time>2024-06-09T08:49:20Z</time>
      </trkpt>
      <trkpt lat="46.63975" lon="5.92315">
        <ele>827.64</ele>
        <time>2024-06-09T08:49:21Z</time>
      </trkpt>
      <trkpt lat="46.63976" lon="5.92315">
        <ele>827.63</ele>
        <time>2024-06-09T08:49:22Z</time>
      </trkpt>
      <trkpt lat="46.63992" lon="5.92322">
        <ele>827.72</ele>
        <time>2024-06-09T08:49:32Z</time>
      </trkpt>
      <trkpt lat="46.64008" lon="5.92327">
        <ele>828.73</ele>
        <time>2024-06-09T08:49:41Z</time>
      </trkpt>
      <trkpt lat="46.64008" lon="5.92327">
        <ele>828.77</ele>
        <time>2024-06-09T08:49:42Z</time>
      </trkpt>
      <trkpt lat="46.6401" lon="5.92327">
        <ele>828.78</ele>
        <time>2024-06-09T08:49:43Z</time>
      </trkpt>
      <trkpt lat="46.64024" lon="5.92332">
        <ele>829.67</ele>
        <time>2024-06-09T08:49:54Z</time>
      </trkpt>
      <trkpt lat="46.6403" lon="5.92335">
        <ele>831.05</ele>
        <time>2024-06-09T08:49:58Z</time>
      </trkpt>
      <trkpt lat="46.64032" lon="5.92335">
        <ele>831.01</ele>
        <time>2024-06-09T08:49:59Z</time>
      </trkpt>
      <trkpt lat="46.64033" lon="5.92335">
        <ele>831.04</ele>
        <time>2024-06-09T08:50:00Z</time>
      </trkpt>
      <trkpt lat="46.64034" lon="5.92335">
        <ele>831.04</ele>
        <time>2024-06-09T08:50:01Z</time>
      </trkpt>
      <trkpt lat="46.64035" lon="5.92335">
        <ele>831.04</ele>
        <time>2024-06-09T08:50:02Z</time>
      </trkpt>
      <trkpt lat="46.64036" lon="5.92335">
        <ele>831.83</ele>
        <time>2024-06-09T08:50:03Z</time>
      </trkpt>
      <trkpt lat="46.64036" lon="5.92335">
        <ele>831.85</ele>
        <time>2024-06-09T08:50:04Z</time>
      </trkpt>
      <trkpt lat="46.64046" lon="5.92336">
        <ele>832.8</ele>
        <time>2024-06-09T08:50:12Z</time>
      </trkpt>
      <trkpt lat="46.64054" lon="5.9234">
        <ele>833.62</ele>
        <time>2024-06-09T08:50:17Z</time>
      </trkpt>
      <trkpt lat="46.64055" lon="5.9234">
        <ele>833.63</ele>
        <time>2024-06-09T08:50:18Z</time>
      </trkpt>
      <trkpt lat="46.64056" lon="5.92341">
        <ele>833.66</ele>
        <time>2024-06-09T08:50:19Z</time>
      </trkpt>
      <trkpt lat="46.64068" lon="5.92344">
        <ele>835.15</ele>
        <time>2024-06-09T08:50:26Z</time>
      </trkpt>
      <trkpt lat="46.64078" lon="5.92348">
        <ele>835.22</ele>
        <time>2024-06-09T08:50:32Z</time>
      </trkpt>
      <trkpt lat="46.64079" lon="5.92348">
        <ele>835.24</ele>
        <time>2024-06-09T08:50:33Z</time>
      </trkpt>
      <trkpt lat="46.64098" lon="5.92361">
        <ele>835.36</ele>
        <time>2024-06-09T08:50:45Z</time>
      </trkpt>
      <trkpt lat="46.64116" lon="5.92378">
        <ele>835.53</ele>
        <time>2024-06-09T08:50:59Z</time>
      </trkpt>
      <trkpt lat="46.64119" lon="5.92382">
        <ele>835.63</ele>
        <time>2024-06-09T08:51:02Z</time>
      </trkpt>
      <trkpt lat="46.64122" lon="5.92389">
        <ele>835.68</ele>
        <time>2024-06-09T08:51:09Z</time>
      </trkpt>
      <trkpt lat="46.64129" lon="5.92393">
        <ele>833.54</ele>
        <time>2024-06-09T08:51:14Z</time>
      </trkpt>
      <trkpt lat="46.6413" lon="5.92394">
        <ele>833.47</ele>
        <time>2024-06-09T08:51:15Z</time>
      </trkpt>
      <trkpt lat="46.64134" lon="5.92394">
        <ele>833.58</ele>
        <time>2024-06-09T08:51:16Z</time>
      </trkpt>
      <trkpt lat="46.64136" lon="5.92395">
        <ele>833.53</ele>
        <time>2024-06-09T08:51:17Z</time>
      </trkpt>
      <trkpt lat="46.6414" lon="5.92397">
        <ele>833.64</ele>
        <time>2024-06-09T08:51:19Z</time>
      </trkpt>
      <trkpt lat="46.64142" lon="5.92398">
        <ele>833.61</ele>
        <time>2024-06-09T08:51:20Z</time>
      </trkpt>
      <trkpt lat="46.64144" lon="5.92398">
        <ele>832.8</ele>
        <time>2024-06-09T08:51:21Z</time>
      </trkpt>
      <trkpt lat="46.64161" lon="5.92406">
        <ele>833.05</ele>
        <time>2024-06-09T08:51:30Z</time>
      </trkpt>
      <trkpt lat="46.64163" lon="5.92407">
        <ele>833.07</ele>
        <time>2024-06-09T08:51:31Z</time>
      </trkpt>
      <trkpt lat="46.64174" lon="5.9241">
        <ele>831.93</ele>
        <time>2024-06-09T08:51:37Z</time>
      </trkpt>
      <trkpt lat="46.6418" lon="5.92411">
        <ele>831.99</ele>
        <time>2024-06-09T08:51:40Z</time>
      </trkpt>
      <trkpt lat="46.64183" lon="5.92411">
        <ele>832.01</ele>
        <time>2024-06-09T08:51:41Z</time>
      </trkpt>
      <trkpt lat="46.64185" lon="5.92412">
        <ele>831.22</ele>
        <time>2024-06-09T08:51:42Z</time>
      </trkpt>
      <trkpt lat="46.64206" lon="5.92416">
        <ele>831.53</ele>
        <time>2024-06-09T08:51:55Z</time>
      </trkpt>
      <trkpt lat="46.64228" lon="5.92423">
        <ele>830.93</ele>
        <time>2024-06-09T08:52:08Z</time>
      </trkpt>
      <trkpt lat="46.64245" lon="5.9243">
        <ele>831.21</ele>
        <time>2024-06-09T08:52:20Z</time>
      </trkpt>
      <trkpt lat="46.64247" lon="5.92431">
        <ele>831.23</ele>
        <time>2024-06-09T08:52:21Z</time>
      </trkpt>
      <trkpt lat="46.6425" lon="5.92432">
        <ele>831.28</ele>
        <time>2024-06-09T08:52:23Z</time>
      </trkpt>
      <trkpt lat="46.64252" lon="5.92433">
        <ele>831.3</ele>
        <time>2024-06-09T08:52:24Z</time>
      </trkpt>
      <trkpt lat="46.64253" lon="5.92433">
        <ele>831.31</ele>
        <time>2024-06-09T08:52:25Z</time>
      </trkpt>
      <trkpt lat="46.64254" lon="5.92433">
        <ele>831.34</ele>
        <time>2024-06-09T08:52:26Z</time>
      </trkpt>
      <trkpt lat="46.64256" lon="5.92434">
        <ele>830.47</ele>
        <time>2024-06-09T08:52:27Z</time>
      </trkpt>
      <trkpt lat="46.64257" lon="5.92434">
        <ele>830.5</ele>
        <time>2024-06-09T08:52:28Z</time>
      </trkpt>
      <trkpt lat="46.64262" lon="5.92436">
        <ele>830.59</ele>
        <time>2024-06-09T08:52:32Z</time>
      </trkpt>
      <trkpt lat="46.64263" lon="5.92437">
        <ele>830.61</ele>
        <time>2024-06-09T08:52:33Z</time>
      </trkpt>
      <trkpt lat="46.64264" lon="5.92437">
        <ele>830.63</ele>
        <time>2024-06-09T08:52:34Z</time>
      </trkpt>
      <trkpt lat="46.64265" lon="5.92438">
        <ele>830.66</ele>
        <time>2024-06-09T08:52:35Z</time>
      </trkpt>
      <trkpt lat="46.64266" lon="5.92439">
        <ele>830.68</ele>
        <time>2024-06-09T08:52:36Z</time>
      </trkpt>
      <trkpt lat="46.64268" lon="5.9244">
        <ele>830.7</ele>
        <time>2024-06-09T08:52:37Z</time>
      </trkpt>
      <trkpt lat="46.64271" lon="5.92441">
        <ele>830.76</ele>
        <time>2024-06-09T08:52:39Z</time>
      </trkpt>
      <trkpt lat="46.64272" lon="5.92441">
        <ele>830.78</ele>
        <time>2024-06-09T08:52:40Z</time>
      </trkpt>
      <trkpt lat="46.64274" lon="5.92442">
        <ele>830.82</ele>
        <time>2024-06-09T08:52:41Z</time>
      </trkpt>
      <trkpt lat="46.64277" lon="5.92445">
        <ele>830.86</ele>
        <time>2024-06-09T08:52:43Z</time>
      </trkpt>
      <trkpt lat="46.64278" lon="5.92449">
        <ele>830.95</ele>
        <time>2024-06-09T08:52:46Z</time>
      </trkpt>
      <trkpt lat="46.64278" lon="5.92452">
        <ele>830.99</ele>
        <time>2024-06-09T08:52:48Z</time>
      </trkpt>
      <trkpt lat="46.64277" lon="5.92455">
        <ele>831.02</ele>
        <time>2024-06-09T08:52:49Z</time>
      </trkpt>
      <trkpt lat="46.64271" lon="5.9248">
        <ele>830.48</ele>
        <time>2024-06-09T08:52:59Z</time>
      </trkpt>
      <trkpt lat="46.64271" lon="5.92482">
        <ele>830.51</ele>
        <time>2024-06-09T08:53:00Z</time>
      </trkpt>
      <trkpt lat="46.6427" lon="5.92487">
        <ele>830.58</ele>
        <time>2024-06-09T08:53:03Z</time>
      </trkpt>
      <trkpt lat="46.6427" lon="5.92489">
        <ele>830.6</ele>
        <time>2024-06-09T08:53:04Z</time>
      </trkpt>
      <trkpt lat="46.6427" lon="5.92491">
        <ele>830.64</ele>
        <time>2024-06-09T08:53:05Z</time>
      </trkpt>
      <trkpt lat="46.64269" lon="5.92493">
        <ele>830.68</ele>
        <time>2024-06-09T08:53:06Z</time>
      </trkpt>
      <trkpt lat="46.64269" lon="5.92495">
        <ele>830.73</ele>
        <time>2024-06-09T08:53:07Z</time>
      </trkpt>
      <trkpt lat="46.64268" lon="5.92498">
        <ele>833.09</ele>
        <time>2024-06-09T08:53:09Z</time>
      </trkpt>
      <trkpt lat="46.64268" lon="5.92505">
        <ele>836.27</ele>
        <time>2024-06-09T08:53:16Z</time>
      </trkpt>
      <trkpt lat="46.64268" lon="5.92506">
        <ele>836.29</ele>
        <time>2024-06-09T08:53:17Z</time>
      </trkpt>
      <trkpt lat="46.64266" lon="5.92509">
        <ele>838.93</ele>
        <time>2024-06-09T08:53:27Z</time>
      </trkpt>
      <trkpt lat="46.64266" lon="5.92513">
        <ele>840.34</ele>
        <time>2024-06-09T08:53:33Z</time>
      </trkpt>
      <trkpt lat="46.64262" lon="5.92523">
        <ele>843.6</ele>
        <time>2024-06-09T08:53:47Z</time>
      </trkpt>
      <trkpt lat="46.64262" lon="5.92524">
        <ele>843.59</ele>
        <time>2024-06-09T08:53:48Z</time>
      </trkpt>
      <trkpt lat="46.64261" lon="5.92529">
        <ele>844.93</ele>
        <time>2024-06-09T08:53:55Z</time>
      </trkpt>
      <trkpt lat="46.64256" lon="5.92532">
        <ele>847.26</ele>
        <time>2024-06-09T08:54:05Z</time>
      </trkpt>
      <trkpt lat="46.64252" lon="5.92537">
        <ele>849.27</ele>
        <time>2024-06-09T08:54:18Z</time>
      </trkpt>
      <trkpt lat="46.64246" lon="5.92547">
        <ele>851.27</ele>
        <time>2024-06-09T08:54:30Z</time>
      </trkpt>
      <trkpt lat="46.64244" lon="5.92548">
        <ele>852.81</ele>
        <time>2024-06-09T08:54:32Z</time>
      </trkpt>
      <trkpt lat="46.64239" lon="5.92553">
        <ele>854.09</ele>
        <time>2024-06-09T08:54:43Z</time>
      </trkpt>
      <trkpt lat="46.64235" lon="5.92557">
        <ele>855.77</ele>
        <time>2024-06-09T08:54:47Z</time>
      </trkpt>
      <trkpt lat="46.64223" lon="5.92567">
        <ele>858.13</ele>
        <time>2024-06-09T08:55:01Z</time>
      </trkpt>
      <trkpt lat="46.64224" lon="5.92572">
        <ele>859.62</ele>
        <time>2024-06-09T08:55:11Z</time>
      </trkpt>
      <trkpt lat="46.64226" lon="5.92572">
        <ele>859.7</ele>
        <time>2024-06-09T08:55:14Z</time>
      </trkpt>
      <trkpt lat="46.6424" lon="5.92577">
        <ele>863.03</ele>
        <time>2024-06-09T08:55:31Z</time>
      </trkpt>
      <trkpt lat="46.64257" lon="5.92586">
        <ele>864.04</ele>
        <time>2024-06-09T08:55:44Z</time>
      </trkpt>
      <trkpt lat="46.64265" lon="5.92593">
        <ele>864.17</ele>
        <time>2024-06-09T08:55:53Z</time>
      </trkpt>
      <trkpt lat="46.64276" lon="5.92595">
        <ele>864.31</ele>
        <time>2024-06-09T08:56:02Z</time>
      </trkpt>
      <trkpt lat="46.64277" lon="5.92594">
        <ele>864.35</ele>
        <time>2024-06-09T08:56:04Z</time>
      </trkpt>
      <trkpt lat="46.64277" lon="5.92595">
        <ele>865.37</ele>
        <time>2024-06-09T08:56:05Z</time>
      </trkpt>
      <trkpt lat="46.64289" lon="5.926">
        <ele>865.54</ele>
        <time>2024-06-09T08:56:18Z</time>
      </trkpt>
      <trkpt lat="46.64291" lon="5.926">
        <ele>866.57</ele>
        <time>2024-06-09T08:56:19Z</time>
      </trkpt>
      <trkpt lat="46.64293" lon="5.92602">
        <ele>866.61</ele>
        <time>2024-06-09T08:56:23Z</time>
      </trkpt>
      <trkpt lat="46.64301" lon="5.92609">
        <ele>864.1</ele>
        <time>2024-06-09T08:56:37Z</time>
      </trkpt>
      <trkpt lat="46.64302" lon="5.9261">
        <ele>864.09</ele>
        <time>2024-06-09T08:56:38Z</time>
      </trkpt>
      <trkpt lat="46.64306" lon="5.92617">
        <ele>861.18</ele>
        <time>2024-06-09T08:56:50Z</time>
      </trkpt>
      <trkpt lat="46.64317" lon="5.92622">
        <ele>861.33</ele>
        <time>2024-06-09T08:56:57Z</time>
      </trkpt>
      <trkpt lat="46.64324" lon="5.92625">
        <ele>861.42</ele>
        <time>2024-06-09T08:57:03Z</time>
      </trkpt>
      <trkpt lat="46.64325" lon="5.92625">
        <ele>861.44</ele>
        <time>2024-06-09T08:57:04Z</time>
      </trkpt>
      <trkpt lat="46.64331" lon="5.92627">
        <ele>863.82</ele>
        <time>2024-06-09T08:57:10Z</time>
      </trkpt>
      <trkpt lat="46.64332" lon="5.92626">
        <ele>865.2</ele>
        <time>2024-06-09T08:57:12Z</time>
      </trkpt>
      <trkpt lat="46.64335" lon="5.92624">
        <ele>865.29</ele>
        <time>2024-06-09T08:57:19Z</time>
      </trkpt>
      <trkpt lat="46.64347" lon="5.92615">
        <ele>865.4</ele>
        <time>2024-06-09T08:57:29Z</time>
      </trkpt>
      <trkpt lat="46.64351" lon="5.92615">
        <ele>865.45</ele>
        <time>2024-06-09T08:57:32Z</time>
      </trkpt>
      <trkpt lat="46.64353" lon="5.92615">
        <ele>865.48</ele>
        <time>2024-06-09T08:57:35Z</time>
      </trkpt>
      <trkpt lat="46.64355" lon="5.9262">
        <ele>865.54</ele>
        <time>2024-06-09T08:57:39Z</time>
      </trkpt>
      <trkpt lat="46.64358" lon="5.92624">
        <ele>866.53</ele>
        <time>2024-06-09T08:57:42Z</time>
      </trkpt>
      <trkpt lat="46.64363" lon="5.92629">
        <ele>867.39</ele>
        <time>2024-06-09T08:57:48Z</time>
      </trkpt>
      <trkpt lat="46.64368" lon="5.92633">
        <ele>867.48</ele>
        <time>2024-06-09T08:57:53Z</time>
      </trkpt>
      <trkpt lat="46.64368" lon="5.92634">
        <ele>867.49</ele>
        <time>2024-06-09T08:57:54Z</time>
      </trkpt>
      <trkpt lat="46.64369" lon="5.92641">
        <ele>865.27</ele>
        <time>2024-06-09T08:57:59Z</time>
      </trkpt>
      <trkpt lat="46.64388" lon="5.92642">
        <ele>864.28</ele>
        <time>2024-06-09T08:58:08Z</time>
      </trkpt>
      <trkpt lat="46.64396" lon="5.92636">
        <ele>863.6</ele>
        <time>2024-06-09T08:58:15Z</time>
      </trkpt>
      <trkpt lat="46.64397" lon="5.92635">
        <ele>863.61</ele>
        <time>2024-06-09T08:58:16Z</time>
      </trkpt>
      <trkpt lat="46.64403" lon="5.9263">
        <ele>862.74</ele>
        <time>2024-06-09T08:58:23Z</time>
      </trkpt>
      <trkpt lat="46.64404" lon="5.9263">
        <ele>862.75</ele>
        <time>2024-06-09T08:58:24Z</time>
      </trkpt>
      <trkpt lat="46.64418" lon="5.92628">
        <ele>862.01</ele>
        <time>2024-06-09T08:58:31Z</time>
      </trkpt>
      <trkpt lat="46.64421" lon="5.92628">
        <ele>862.02</ele>
        <time>2024-06-09T08:58:32Z</time>
      </trkpt>
      <trkpt lat="46.64426" lon="5.92627">
        <ele>862.05</ele>
        <time>2024-06-09T08:58:35Z</time>
      </trkpt>
      <trkpt lat="46.64426" lon="5.9263">
        <ele>862.06</ele>
        <time>2024-06-09T08:58:36Z</time>
      </trkpt>
      <trkpt lat="46.64432" lon="5.92633">
        <ele>862.1</ele>
        <time>2024-06-09T08:58:39Z</time>
      </trkpt>
      <trkpt lat="46.6444" lon="5.92636">
        <ele>862.16</ele>
        <time>2024-06-09T08:58:44Z</time>
      </trkpt>
      <trkpt lat="46.64451" lon="5.92637">
        <ele>862.26</ele>
        <time>2024-06-09T08:58:51Z</time>
      </trkpt>
      <trkpt lat="46.64451" lon="5.92635">
        <ele>862.3</ele>
        <time>2024-06-09T08:58:53Z</time>
      </trkpt>
      <trkpt lat="46.64457" lon="5.92627">
        <ele>862.35</ele>
        <time>2024-06-09T08:58:58Z</time>
      </trkpt>
      <trkpt lat="46.64459" lon="5.92622">
        <ele>862.37</ele>
        <time>2024-06-09T08:59:00Z</time>
      </trkpt>
      <trkpt lat="46.64471" lon="5.92615">
        <ele>862.5</ele>
        <time>2024-06-09T08:59:10Z</time>
      </trkpt>
      <trkpt lat="46.64477" lon="5.92615">
        <ele>862.55</ele>
        <time>2024-06-09T08:59:15Z</time>
      </trkpt>
      <trkpt lat="46.6448" lon="5.92615">
        <ele>862.57</ele>
        <time>2024-06-09T08:59:16Z</time>
      </trkpt>
      <trkpt lat="46.64482" lon="5.92616">
        <ele>862.59</ele>
        <time>2024-06-09T08:59:17Z</time>
      </trkpt>
      <trkpt lat="46.64483" lon="5.92617">
        <ele>862.61</ele>
        <time>2024-06-09T08:59:18Z</time>
      </trkpt>
      <trkpt lat="46.64485" lon="5.92617">
        <ele>862.62</ele>
        <time>2024-06-09T08:59:19Z</time>
      </trkpt>
      <trkpt lat="46.64488" lon="5.92619">
        <ele>862.62</ele>
        <time>2024-06-09T08:59:21Z</time>
      </trkpt>
      <trkpt lat="46.64493" lon="5.9262">
        <ele>864.97</ele>
        <time>2024-06-09T08:59:24Z</time>
      </trkpt>
      <trkpt lat="46.64494" lon="5.92621">
        <ele>864.99</ele>
        <time>2024-06-09T08:59:25Z</time>
      </trkpt>
      <trkpt lat="46.64498" lon="5.92624">
        <ele>865.01</ele>
        <time>2024-06-09T08:59:28Z</time>
      </trkpt>
      <trkpt lat="46.64499" lon="5.92626">
        <ele>865.02</ele>
        <time>2024-06-09T08:59:29Z</time>
      </trkpt>
      <trkpt lat="46.64509" lon="5.92635">
        <ele>865.12</ele>
        <time>2024-06-09T08:59:39Z</time>
      </trkpt>
      <trkpt lat="46.6451" lon="5.92636">
        <ele>865.12</ele>
        <time>2024-06-09T08:59:40Z</time>
      </trkpt>
      <trkpt lat="46.64514" lon="5.92647">
        <ele>866.43</ele>
        <time>2024-06-09T08:59:48Z</time>
      </trkpt>
      <trkpt lat="46.64514" lon="5.92648">
        <ele>866.45</ele>
        <time>2024-06-09T08:59:49Z</time>
      </trkpt>
      <trkpt lat="46.64514" lon="5.92652">
        <ele>866.49</ele>
        <time>2024-06-09T08:59:52Z</time>
      </trkpt>
      <trkpt lat="46.64518" lon="5.92659">
        <ele>867.61</ele>
        <time>2024-06-09T08:59:59Z</time>
      </trkpt>
      <trkpt lat="46.64522" lon="5.92672">
        <ele>869.5</ele>
        <time>2024-06-09T09:00:09Z</time>
      </trkpt>
      <trkpt lat="46.64523" lon="5.92676">
        <ele>869.49</ele>
        <time>2024-06-09T09:00:12Z</time>
      </trkpt>
      <trkpt lat="46.64524" lon="5.92686">
        <ele>869.51</ele>
        <time>2024-06-09T09:00:16Z</time>
      </trkpt>
      <trkpt lat="46.64523" lon="5.92692">
        <ele>869.51</ele>
        <time>2024-06-09T09:00:19Z</time>
      </trkpt>
      <trkpt lat="46.64523" lon="5.92693">
        <ele>866.71</ele>
        <time>2024-06-09T09:00:21Z</time>
      </trkpt>
      <trkpt lat="46.64521" lon="5.92695">
        <ele>866.74</ele>
        <time>2024-06-09T09:00:23Z</time>
      </trkpt>
      <trkpt lat="46.64521" lon="5.92695">
        <ele>866.77</ele>
        <time>2024-06-09T09:00:24Z</time>
      </trkpt>
      <trkpt lat="46.64517" lon="5.92703">
        <ele>866.82</ele>
        <time>2024-06-09T09:00:33Z</time>
      </trkpt>
      <trkpt lat="46.64515" lon="5.92702">
        <ele>866.85</ele>
        <time>2024-06-09T09:00:35Z</time>
      </trkpt>
      <trkpt lat="46.64513" lon="5.92703">
        <ele>866.87</ele>
        <time>2024-06-09T09:00:36Z</time>
      </trkpt>
      <trkpt lat="46.64511" lon="5.92703">
        <ele>866.87</ele>
        <time>2024-06-09T09:00:37Z</time>
      </trkpt>
      <trkpt lat="46.64496" lon="5.92713">
        <ele>866.98</ele>
        <time>2024-06-09T09:00:49Z</time>
      </trkpt>
      <trkpt lat="46.64491" lon="5.92715">
        <ele>864.82</ele>
        <time>2024-06-09T09:00:54Z</time>
      </trkpt>
      <trkpt lat="46.64486" lon="5.92719">
        <ele>862.82</ele>
        <time>2024-06-09T09:01:07Z</time>
      </trkpt>
      <trkpt lat="46.64477" lon="5.92721">
        <ele>860.9</ele>
        <time>2024-06-09T09:01:14Z</time>
      </trkpt>
      <trkpt lat="46.64472" lon="5.92726">
        <ele>859.29</ele>
        <time>2024-06-09T09:01:21Z</time>
      </trkpt>
      <trkpt lat="46.6446" lon="5.92726">
        <ele>856.56</ele>
        <time>2024-06-09T09:01:34Z</time>
      </trkpt>
      <trkpt lat="46.64444" lon="5.92746">
        <ele>851.38</ele>
        <time>2024-06-09T09:01:53Z</time>
      </trkpt>
      <trkpt lat="46.64444" lon="5.92747">
        <ele>851.39</ele>
        <time>2024-06-09T09:01:54Z</time>
      </trkpt>
      <trkpt lat="46.64441" lon="5.92755">
        <ele>849.7</ele>
        <time>2024-06-09T09:02:14Z</time>
      </trkpt>
      <trkpt lat="46.64439" lon="5.92756">
        <ele>845</ele>
        <time>2024-06-09T09:02:23Z</time>
      </trkpt>
      <trkpt lat="46.64439" lon="5.92756">
        <ele>848.3</ele>
        <time>2024-06-09T09:02:24Z</time>
      </trkpt>
      <trkpt lat="46.64438" lon="5.9276">
        <ele>848.33</ele>
        <time>2024-06-09T09:02:27Z</time>
      </trkpt>
      <trkpt lat="46.64441" lon="5.92765">
        <ele>848.45</ele>
        <time>2024-06-09T09:02:32Z</time>
      </trkpt>
      <trkpt lat="46.64442" lon="5.92768">
        <ele>845.85</ele>
        <time>2024-06-09T09:02:35Z</time>
      </trkpt>
      <trkpt lat="46.64442" lon="5.92772">
        <ele>844.9</ele>
        <time>2024-06-09T09:02:38Z</time>
      </trkpt>
      <trkpt lat="46.64453" lon="5.92791">
        <ele>842.45</ele>
        <time>2024-06-09T09:02:57Z</time>
      </trkpt>
      <trkpt lat="46.64456" lon="5.92796">
        <ele>840.43</ele>
        <time>2024-06-09T09:03:05Z</time>
      </trkpt>
      <trkpt lat="46.64461" lon="5.92804">
        <ele>838.48</ele>
        <time>2024-06-09T09:03:21Z</time>
      </trkpt>
      <trkpt lat="46.64462" lon="5.92808">
        <ele>837.15</ele>
        <time>2024-06-09T09:03:26Z</time>
      </trkpt>
      <trkpt lat="46.64463" lon="5.92807">
        <ele>835.5</ele>
        <time>2024-06-09T09:03:36Z</time>
      </trkpt>
      <trkpt lat="46.64464" lon="5.92807">
        <ele>835.81</ele>
        <time>2024-06-09T09:03:37Z</time>
      </trkpt>
      <trkpt lat="46.64465" lon="5.92808">
        <ele>835.63</ele>
        <time>2024-06-09T09:03:38Z</time>
      </trkpt>
      <trkpt lat="46.64468" lon="5.92812">
        <ele>835.74</ele>
        <time>2024-06-09T09:03:43Z</time>
      </trkpt>
      <trkpt lat="46.64471" lon="5.92813">
        <ele>833.88</ele>
        <time>2024-06-09T09:03:48Z</time>
      </trkpt>
      <trkpt lat="46.64482" lon="5.92826">
        <ele>834.44</ele>
        <time>2024-06-09T09:04:04Z</time>
      </trkpt>
      <trkpt lat="46.64485" lon="5.92828">
        <ele>833.44</ele>
        <time>2024-06-09T09:04:08Z</time>
      </trkpt>
      <trkpt lat="46.64493" lon="5.92834">
        <ele>831.93</ele>
        <time>2024-06-09T09:04:15Z</time>
      </trkpt>
      <trkpt lat="46.64494" lon="5.92834">
        <ele>831.93</ele>
        <time>2024-06-09T09:04:16Z</time>
      </trkpt>
      <trkpt lat="46.64502" lon="5.9284">
        <ele>830.18</ele>
        <time>2024-06-09T09:04:26Z</time>
      </trkpt>
      <trkpt lat="46.64512" lon="5.92842">
        <ele>829.35</ele>
        <time>2024-06-09T09:04:35Z</time>
      </trkpt>
      <trkpt lat="46.64516" lon="5.92846">
        <ele>827.6</ele>
        <time>2024-06-09T09:04:39Z</time>
      </trkpt>
      <trkpt lat="46.64518" lon="5.92846">
        <ele>827.62</ele>
        <time>2024-06-09T09:04:40Z</time>
      </trkpt>
      <trkpt lat="46.64522" lon="5.92848">
        <ele>827.58</ele>
        <time>2024-06-09T09:04:43Z</time>
      </trkpt>
      <trkpt lat="46.64525" lon="5.92848">
        <ele>827.76</ele>
        <time>2024-06-09T09:04:45Z</time>
      </trkpt>
      <trkpt lat="46.64526" lon="5.92847">
        <ele>827.66</ele>
        <time>2024-06-09T09:04:46Z</time>
      </trkpt>
      <trkpt lat="46.6455" lon="5.92837">
        <ele>830.99</ele>
        <time>2024-06-09T09:05:03Z</time>
      </trkpt>
      <trkpt lat="46.64551" lon="5.92836">
        <ele>831</ele>
        <time>2024-06-09T09:05:04Z</time>
      </trkpt>
      <trkpt lat="46.6456" lon="5.92818">
        <ele>833.15</ele>
        <time>2024-06-09T09:05:17Z</time>
      </trkpt>
      <trkpt lat="46.64565" lon="5.92812">
        <ele>833.17</ele>
        <time>2024-06-09T09:05:22Z</time>
      </trkpt>
      <trkpt lat="46.64565" lon="5.92809">
        <ele>833.24</ele>
        <time>2024-06-09T09:05:23Z</time>
      </trkpt>
      <trkpt lat="46.64565" lon="5.92805">
        <ele>833.24</ele>
        <time>2024-06-09T09:05:25Z</time>
      </trkpt>
      <trkpt lat="46.64568" lon="5.92797">
        <ele>834.27</ele>
        <time>2024-06-09T09:05:30Z</time>
      </trkpt>
      <trkpt lat="46.64569" lon="5.92794">
        <ele>834.29</ele>
        <time>2024-06-09T09:05:32Z</time>
      </trkpt>
      <trkpt lat="46.6457" lon="5.92793">
        <ele>835.2</ele>
        <time>2024-06-09T09:05:33Z</time>
      </trkpt>
      <trkpt lat="46.64571" lon="5.92791">
        <ele>835.22</ele>
        <time>2024-06-09T09:05:34Z</time>
      </trkpt>
      <trkpt lat="46.64572" lon="5.92789">
        <ele>835.24</ele>
        <time>2024-06-09T09:05:35Z</time>
      </trkpt>
      <trkpt lat="46.64573" lon="5.92788">
        <ele>835.29</ele>
        <time>2024-06-09T09:05:36Z</time>
      </trkpt>
      <trkpt lat="46.64574" lon="5.92786">
        <ele>835.28</ele>
        <time>2024-06-09T09:05:37Z</time>
      </trkpt>
      <trkpt lat="46.64576" lon="5.9278">
        <ele>836.54</ele>
        <time>2024-06-09T09:05:40Z</time>
      </trkpt>
      <trkpt lat="46.64577" lon="5.92779">
        <ele>836.56</ele>
        <time>2024-06-09T09:05:41Z</time>
      </trkpt>
      <trkpt lat="46.64578" lon="5.92778">
        <ele>836.63</ele>
        <time>2024-06-09T09:05:42Z</time>
      </trkpt>
      <trkpt lat="46.6458" lon="5.92777">
        <ele>836.66</ele>
        <time>2024-06-09T09:05:44Z</time>
      </trkpt>
      <trkpt lat="46.64582" lon="5.92776">
        <ele>836.68</ele>
        <time>2024-06-09T09:05:45Z</time>
      </trkpt>
      <trkpt lat="46.64587" lon="5.9277">
        <ele>837.69</ele>
        <time>2024-06-09T09:05:50Z</time>
      </trkpt>
      <trkpt lat="46.64588" lon="5.92769">
        <ele>838.6</ele>
        <time>2024-06-09T09:05:51Z</time>
      </trkpt>
      <trkpt lat="46.64591" lon="5.92765">
        <ele>838.65</ele>
        <time>2024-06-09T09:05:53Z</time>
      </trkpt>
      <trkpt lat="46.64593" lon="5.92763">
        <ele>838.84</ele>
        <time>2024-06-09T09:05:56Z</time>
      </trkpt>
      <trkpt lat="46.646" lon="5.92759">
        <ele>839.91</ele>
        <time>2024-06-09T09:06:06Z</time>
      </trkpt>
      <trkpt lat="46.64602" lon="5.92757">
        <ele>840.75</ele>
        <time>2024-06-09T09:06:08Z</time>
      </trkpt>
      <trkpt lat="46.64611" lon="5.92754">
        <ele>840.77</ele>
        <time>2024-06-09T09:06:14Z</time>
      </trkpt>
      <trkpt lat="46.64615" lon="5.92753">
        <ele>841.71</ele>
        <time>2024-06-09T09:06:17Z</time>
      </trkpt>
      <trkpt lat="46.64623" lon="5.92753">
        <ele>843.38</ele>
        <time>2024-06-09T09:06:22Z</time>
      </trkpt>
      <trkpt lat="46.64633" lon="5.92761">
        <ele>843.37</ele>
        <time>2024-06-09T09:06:30Z</time>
      </trkpt>
      <trkpt lat="46.64634" lon="5.92762">
        <ele>843.56</ele>
        <time>2024-06-09T09:06:31Z</time>
      </trkpt>
      <trkpt lat="46.64641" lon="5.92771">
        <ele>845.18</ele>
        <time>2024-06-09T09:06:40Z</time>
      </trkpt>
      <trkpt lat="46.64643" lon="5.92772">
        <ele>845.35</ele>
        <time>2024-06-09T09:06:41Z</time>
      </trkpt>
      <trkpt lat="46.64649" lon="5.92773">
        <ele>846.71</ele>
        <time>2024-06-09T09:06:44Z</time>
      </trkpt>
      <trkpt lat="46.64657" lon="5.92773">
        <ele>846.8</ele>
        <time>2024-06-09T09:06:49Z</time>
      </trkpt>
      <trkpt lat="46.64663" lon="5.92773">
        <ele>848.21</ele>
        <time>2024-06-09T09:06:54Z</time>
      </trkpt>
      <trkpt lat="46.64677" lon="5.92773">
        <ele>849.38</ele>
        <time>2024-06-09T09:07:08Z</time>
      </trkpt>
      <trkpt lat="46.64681" lon="5.92773">
        <ele>850.62</ele>
        <time>2024-06-09T09:07:12Z</time>
      </trkpt>
      <trkpt lat="46.64693" lon="5.92776">
        <ele>851.52</ele>
        <time>2024-06-09T09:07:22Z</time>
      </trkpt>
      <trkpt lat="46.64694" lon="5.92776">
        <ele>851.65</ele>
        <time>2024-06-09T09:07:23Z</time>
      </trkpt>
      <trkpt lat="46.64707" lon="5.92777">
        <ele>852.55</ele>
        <time>2024-06-09T09:07:32Z</time>
      </trkpt>
      <trkpt lat="46.64708" lon="5.92777">
        <ele>852.68</ele>
        <time>2024-06-09T09:07:33Z</time>
      </trkpt>
      <trkpt lat="46.64716" lon="5.92778">
        <ele>852.72</ele>
        <time>2024-06-09T09:07:38Z</time>
      </trkpt>
      <trkpt lat="46.64718" lon="5.92778">
        <ele>852.73</ele>
        <time>2024-06-09T09:07:39Z</time>
      </trkpt>
      <trkpt lat="46.64731" lon="5.92773">
        <ele>852.85</ele>
        <time>2024-06-09T09:07:48Z</time>
      </trkpt>
      <trkpt lat="46.64732" lon="5.92772">
        <ele>852.93</ele>
        <time>2024-06-09T09:07:49Z</time>
      </trkpt>
      <trkpt lat="46.64739" lon="5.92751">
        <ele>853.09</ele>
        <time>2024-06-09T09:08:00Z</time>
      </trkpt>
      <trkpt lat="46.64739" lon="5.92749">
        <ele>853.03</ele>
        <time>2024-06-09T09:08:01Z</time>
      </trkpt>
      <trkpt lat="46.64739" lon="5.92747">
        <ele>853.06</ele>
        <time>2024-06-09T09:08:02Z</time>
      </trkpt>
      <trkpt lat="46.64737" lon="5.92742">
        <ele>853.1</ele>
        <time>2024-06-09T09:08:04Z</time>
      </trkpt>
      <trkpt lat="46.64736" lon="5.9274">
        <ele>853.11</ele>
        <time>2024-06-09T09:08:05Z</time>
      </trkpt>
      <trkpt lat="46.64735" lon="5.92737">
        <ele>853.13</ele>
        <time>2024-06-09T09:08:06Z</time>
      </trkpt>
      <trkpt lat="46.64735" lon="5.92735">
        <ele>853.17</ele>
        <time>2024-06-09T09:08:07Z</time>
      </trkpt>
      <trkpt lat="46.64734" lon="5.92733">
        <ele>853.19</ele>
        <time>2024-06-09T09:08:08Z</time>
      </trkpt>
      <trkpt lat="46.64733" lon="5.92731">
        <ele>853.2</ele>
        <time>2024-06-09T09:08:09Z</time>
      </trkpt>
      <trkpt lat="46.64732" lon="5.92729">
        <ele>850.74</ele>
        <time>2024-06-09T09:08:10Z</time>
      </trkpt>
      <trkpt lat="46.64731" lon="5.92727">
        <ele>850.77</ele>
        <time>2024-06-09T09:08:11Z</time>
      </trkpt>
      <trkpt lat="46.6473" lon="5.92725">
        <ele>850.79</ele>
        <time>2024-06-09T09:08:12Z</time>
      </trkpt>
      <trkpt lat="46.64729" lon="5.92723">
        <ele>850.84</ele>
        <time>2024-06-09T09:08:13Z</time>
      </trkpt>
      <trkpt lat="46.64715" lon="5.92697">
        <ele>848.3</ele>
        <time>2024-06-09T09:08:28Z</time>
      </trkpt>
      <trkpt lat="46.64713" lon="5.92691">
        <ele>848.37</ele>
        <time>2024-06-09T09:08:31Z</time>
      </trkpt>
      <trkpt lat="46.64712" lon="5.92689">
        <ele>848.3</ele>
        <time>2024-06-09T09:08:32Z</time>
      </trkpt>
      <trkpt lat="46.64709" lon="5.92685">
        <ele>847.25</ele>
        <time>2024-06-09T09:08:35Z</time>
      </trkpt>
      <trkpt lat="46.64708" lon="5.92683">
        <ele>847.14</ele>
        <time>2024-06-09T09:08:36Z</time>
      </trkpt>
      <trkpt lat="46.64704" lon="5.92678">
        <ele>847.35</ele>
        <time>2024-06-09T09:08:39Z</time>
      </trkpt>
      <trkpt lat="46.64697" lon="5.92671">
        <ele>845.42</ele>
        <time>2024-06-09T09:08:46Z</time>
      </trkpt>
      <trkpt lat="46.64691" lon="5.92661">
        <ele>844.73</ele>
        <time>2024-06-09T09:08:53Z</time>
      </trkpt>
      <trkpt lat="46.64684" lon="5.92647">
        <ele>844.12</ele>
        <time>2024-06-09T09:09:00Z</time>
      </trkpt>
      <trkpt lat="46.64682" lon="5.92645">
        <ele>844.07</ele>
        <time>2024-06-09T09:09:01Z</time>
      </trkpt>
      <trkpt lat="46.64681" lon="5.92641">
        <ele>843.09</ele>
        <time>2024-06-09T09:09:03Z</time>
      </trkpt>
      <trkpt lat="46.6468" lon="5.9264">
        <ele>843.06</ele>
        <time>2024-06-09T09:09:04Z</time>
      </trkpt>
      <trkpt lat="46.64679" lon="5.92638">
        <ele>843.11</ele>
        <time>2024-06-09T09:09:05Z</time>
      </trkpt>
      <trkpt lat="46.64678" lon="5.92637">
        <ele>843.12</ele>
        <time>2024-06-09T09:09:06Z</time>
      </trkpt>
      <trkpt lat="46.64677" lon="5.92635">
        <ele>842.11</ele>
        <time>2024-06-09T09:09:07Z</time>
      </trkpt>
      <trkpt lat="46.64676" lon="5.92633">
        <ele>842.17</ele>
        <time>2024-06-09T09:09:08Z</time>
      </trkpt>
      <trkpt lat="46.64674" lon="5.9263">
        <ele>842.29</ele>
        <time>2024-06-09T09:09:10Z</time>
      </trkpt>
      <trkpt lat="46.6467" lon="5.92621">
        <ele>840.25</ele>
        <time>2024-06-09T09:09:15Z</time>
      </trkpt>
      <trkpt lat="46.6467" lon="5.92619">
        <ele>840.34</ele>
        <time>2024-06-09T09:09:16Z</time>
      </trkpt>
      <trkpt lat="46.64666" lon="5.9261">
        <ele>839.76</ele>
        <time>2024-06-09T09:09:21Z</time>
      </trkpt>
      <trkpt lat="46.64665" lon="5.92608">
        <ele>839.65</ele>
        <time>2024-06-09T09:09:22Z</time>
      </trkpt>
      <trkpt lat="46.64665" lon="5.92605">
        <ele>838.41</ele>
        <time>2024-06-09T09:09:23Z</time>
      </trkpt>
      <trkpt lat="46.64665" lon="5.92603">
        <ele>838.44</ele>
        <time>2024-06-09T09:09:24Z</time>
      </trkpt>
      <trkpt lat="46.64665" lon="5.92602">
        <ele>838.64</ele>
        <time>2024-06-09T09:09:25Z</time>
      </trkpt>
      <trkpt lat="46.64665" lon="5.92599">
        <ele>838.52</ele>
        <time>2024-06-09T09:09:26Z</time>
      </trkpt>
      <trkpt lat="46.64664" lon="5.92588">
        <ele>837.46</ele>
        <time>2024-06-09T09:09:32Z</time>
      </trkpt>
      <trkpt lat="46.64664" lon="5.92586">
        <ele>837.51</ele>
        <time>2024-06-09T09:09:33Z</time>
      </trkpt>
      <trkpt lat="46.64662" lon="5.9257">
        <ele>835.92</ele>
        <time>2024-06-09T09:09:42Z</time>
      </trkpt>
      <trkpt lat="46.64662" lon="5.92563">
        <ele>835.16</ele>
        <time>2024-06-09T09:09:46Z</time>
      </trkpt>
      <trkpt lat="46.64662" lon="5.92561">
        <ele>834.96</ele>
        <time>2024-06-09T09:09:47Z</time>
      </trkpt>
      <trkpt lat="46.64662" lon="5.92559">
        <ele>835.04</ele>
        <time>2024-06-09T09:09:48Z</time>
      </trkpt>
      <trkpt lat="46.64663" lon="5.92557">
        <ele>834.17</ele>
        <time>2024-06-09T09:09:49Z</time>
      </trkpt>
      <trkpt lat="46.64663" lon="5.92555">
        <ele>834.15</ele>
        <time>2024-06-09T09:09:50Z</time>
      </trkpt>
      <trkpt lat="46.64663" lon="5.92552">
        <ele>834.18</ele>
        <time>2024-06-09T09:09:51Z</time>
      </trkpt>
      <trkpt lat="46.64663" lon="5.92549">
        <ele>834.21</ele>
        <time>2024-06-09T09:09:52Z</time>
      </trkpt>
      <trkpt lat="46.64663" lon="5.92547">
        <ele>834.27</ele>
        <time>2024-06-09T09:09:53Z</time>
      </trkpt>
      <trkpt lat="46.64663" lon="5.92541">
        <ele>832.86</ele>
        <time>2024-06-09T09:09:57Z</time>
      </trkpt>
      <trkpt lat="46.64665" lon="5.92517">
        <ele>833.34</ele>
        <time>2024-06-09T09:10:08Z</time>
      </trkpt>
      <trkpt lat="46.64664" lon="5.92513">
        <ele>832.65</ele>
        <time>2024-06-09T09:10:09Z</time>
      </trkpt>
      <trkpt lat="46.64664" lon="5.9251">
        <ele>832.66</ele>
        <time>2024-06-09T09:10:10Z</time>
      </trkpt>
      <trkpt lat="46.64663" lon="5.92507">
        <ele>832.69</ele>
        <time>2024-06-09T09:10:11Z</time>
      </trkpt>
      <trkpt lat="46.64663" lon="5.92505">
        <ele>831.87</ele>
        <time>2024-06-09T09:10:12Z</time>
      </trkpt>
      <trkpt lat="46.64661" lon="5.92499">
        <ele>831.97</ele>
        <time>2024-06-09T09:10:14Z</time>
      </trkpt>
      <trkpt lat="46.64659" lon="5.92494">
        <ele>832</ele>
        <time>2024-06-09T09:10:17Z</time>
      </trkpt>
      <trkpt lat="46.64659" lon="5.92485">
        <ele>830.22</ele>
        <time>2024-06-09T09:10:21Z</time>
      </trkpt>
      <trkpt lat="46.64658" lon="5.92481">
        <ele>830.34</ele>
        <time>2024-06-09T09:10:22Z</time>
      </trkpt>
      <trkpt lat="46.64659" lon="5.92479">
        <ele>830.21</ele>
        <time>2024-06-09T09:10:23Z</time>
      </trkpt>
      <trkpt lat="46.64658" lon="5.92476">
        <ele>830.32</ele>
        <time>2024-06-09T09:10:24Z</time>
      </trkpt>
      <trkpt lat="46.64657" lon="5.92474">
        <ele>830.28</ele>
        <time>2024-06-09T09:10:25Z</time>
      </trkpt>
      <trkpt lat="46.64657" lon="5.92472">
        <ele>829.36</ele>
        <time>2024-06-09T09:10:26Z</time>
      </trkpt>
      <trkpt lat="46.64657" lon="5.9247">
        <ele>828.44</ele>
        <time>2024-06-09T09:10:27Z</time>
      </trkpt>
      <trkpt lat="46.64656" lon="5.92468">
        <ele>828.48</ele>
        <time>2024-06-09T09:10:28Z</time>
      </trkpt>
      <trkpt lat="46.64653" lon="5.92463">
        <ele>828.83</ele>
        <time>2024-06-09T09:10:31Z</time>
      </trkpt>
      <trkpt lat="46.64651" lon="5.92457">
        <ele>827.63</ele>
        <time>2024-06-09T09:10:34Z</time>
      </trkpt>
      <trkpt lat="46.64649" lon="5.92448">
        <ele>826.89</ele>
        <time>2024-06-09T09:10:39Z</time>
      </trkpt>
      <trkpt lat="46.64647" lon="5.92445">
        <ele>827.08</ele>
        <time>2024-06-09T09:10:41Z</time>
      </trkpt>
      <trkpt lat="46.64647" lon="5.92443">
        <ele>827.03</ele>
        <time>2024-06-09T09:10:42Z</time>
      </trkpt>
      <trkpt lat="46.64634" lon="5.92426">
        <ele>825.49</ele>
        <time>2024-06-09T09:10:53Z</time>
      </trkpt>
      <trkpt lat="46.64628" lon="5.92402">
        <ele>825.24</ele>
        <time>2024-06-09T09:11:04Z</time>
      </trkpt>
      <trkpt lat="46.64628" lon="5.92401">
        <ele>825.18</ele>
        <time>2024-06-09T09:11:05Z</time>
      </trkpt>
      <trkpt lat="46.64628" lon="5.92399">
        <ele>825.22</ele>
        <time>2024-06-09T09:11:06Z</time>
      </trkpt>
      <trkpt lat="46.64627" lon="5.92397">
        <ele>825.26</ele>
        <time>2024-06-09T09:11:07Z</time>
      </trkpt>
      <trkpt lat="46.64627" lon="5.92395">
        <ele>825.3</ele>
        <time>2024-06-09T09:11:08Z</time>
      </trkpt>
      <trkpt lat="46.64627" lon="5.92393">
        <ele>825.34</ele>
        <time>2024-06-09T09:11:09Z</time>
      </trkpt>
      <trkpt lat="46.64627" lon="5.92391">
        <ele>825.4</ele>
        <time>2024-06-09T09:11:10Z</time>
      </trkpt>
      <trkpt lat="46.64626" lon="5.92389">
        <ele>825.47</ele>
        <time>2024-06-09T09:11:11Z</time>
      </trkpt>
      <trkpt lat="46.64626" lon="5.92386">
        <ele>825.55</ele>
        <time>2024-06-09T09:11:12Z</time>
      </trkpt>
      <trkpt lat="46.64626" lon="5.92384">
        <ele>825.55</ele>
        <time>2024-06-09T09:11:13Z</time>
      </trkpt>
      <trkpt lat="46.64624" lon="5.92381">
        <ele>825.71</ele>
        <time>2024-06-09T09:11:16Z</time>
      </trkpt>
      <trkpt lat="46.6462" lon="5.92376">
        <ele>825.85</ele>
        <time>2024-06-09T09:11:20Z</time>
      </trkpt>
      <trkpt lat="46.64619" lon="5.92376">
        <ele>825.93</ele>
        <time>2024-06-09T09:11:21Z</time>
      </trkpt>
      <trkpt lat="46.64611" lon="5.92369">
        <ele>826.26</ele>
        <time>2024-06-09T09:11:30Z</time>
      </trkpt>
      <trkpt lat="46.64606" lon="5.92364">
        <ele>826.36</ele>
        <time>2024-06-09T09:11:34Z</time>
      </trkpt>
      <trkpt lat="46.64605" lon="5.92362">
        <ele>826.44</ele>
        <time>2024-06-09T09:11:35Z</time>
      </trkpt>
      <trkpt lat="46.64604" lon="5.92359">
        <ele>826.47</ele>
        <time>2024-06-09T09:11:36Z</time>
      </trkpt>
      <trkpt lat="46.64598" lon="5.92352">
        <ele>826.7</ele>
        <time>2024-06-09T09:11:42Z</time>
      </trkpt>
      <trkpt lat="46.64597" lon="5.92349">
        <ele>826.72</ele>
        <time>2024-06-09T09:11:44Z</time>
      </trkpt>
      <trkpt lat="46.64597" lon="5.92342">
        <ele>826.9</ele>
        <time>2024-06-09T09:11:49Z</time>
      </trkpt>
      <trkpt lat="46.64593" lon="5.92322">
        <ele>827.29</ele>
        <time>2024-06-09T09:12:00Z</time>
      </trkpt>
      <trkpt lat="46.64589" lon="5.92312">
        <ele>827.43</ele>
        <time>2024-06-09T09:12:03Z</time>
      </trkpt>
      <trkpt lat="46.64588" lon="5.92309">
        <ele>827.44</ele>
        <time>2024-06-09T09:12:04Z</time>
      </trkpt>
      <trkpt lat="46.64581" lon="5.923">
        <ele>827.66</ele>
        <time>2024-06-09T09:12:10Z</time>
      </trkpt>
      <trkpt lat="46.6458" lon="5.92299">
        <ele>827.72</ele>
        <time>2024-06-09T09:12:11Z</time>
      </trkpt>
      <trkpt lat="46.64571" lon="5.92294">
        <ele>830.45</ele>
        <time>2024-06-09T09:12:21Z</time>
      </trkpt>
      <trkpt lat="46.64569" lon="5.92293">
        <ele>830.41</ele>
        <time>2024-06-09T09:12:22Z</time>
      </trkpt>
      <trkpt lat="46.64568" lon="5.92293">
        <ele>830.51</ele>
        <time>2024-06-09T09:12:23Z</time>
      </trkpt>
      <trkpt lat="46.64565" lon="5.9229">
        <ele>830.55</ele>
        <time>2024-06-09T09:12:26Z</time>
      </trkpt>
      <trkpt lat="46.64554" lon="5.92282">
        <ele>831.77</ele>
        <time>2024-06-09T09:12:34Z</time>
      </trkpt>
      <trkpt lat="46.64548" lon="5.92279">
        <ele>831.85</ele>
        <time>2024-06-09T09:12:39Z</time>
      </trkpt>
      <trkpt lat="46.64547" lon="5.92279">
        <ele>832.86</ele>
        <time>2024-06-09T09:12:40Z</time>
      </trkpt>
      <trkpt lat="46.64543" lon="5.92275">
        <ele>832.86</ele>
        <time>2024-06-09T09:12:44Z</time>
      </trkpt>
      <trkpt lat="46.6454" lon="5.92274">
        <ele>833.07</ele>
        <time>2024-06-09T09:12:47Z</time>
      </trkpt>
      <trkpt lat="46.64535" lon="5.92268">
        <ele>833.12</ele>
        <time>2024-06-09T09:12:50Z</time>
      </trkpt>
      <trkpt lat="46.64534" lon="5.92264">
        <ele>833.17</ele>
        <time>2024-06-09T09:12:51Z</time>
      </trkpt>
      <trkpt lat="46.64532" lon="5.92262">
        <ele>833.2</ele>
        <time>2024-06-09T09:12:52Z</time>
      </trkpt>
      <trkpt lat="46.64531" lon="5.92259">
        <ele>834.03</ele>
        <time>2024-06-09T09:12:53Z</time>
      </trkpt>
      <trkpt lat="46.6453" lon="5.92258">
        <ele>834.07</ele>
        <time>2024-06-09T09:12:54Z</time>
      </trkpt>
      <trkpt lat="46.64528" lon="5.92254">
        <ele>834.07</ele>
        <time>2024-06-09T09:12:56Z</time>
      </trkpt>
      <trkpt lat="46.64526" lon="5.92252">
        <ele>834.17</ele>
        <time>2024-06-09T09:12:57Z</time>
      </trkpt>
      <trkpt lat="46.64526" lon="5.92249">
        <ele>834.19</ele>
        <time>2024-06-09T09:12:58Z</time>
      </trkpt>
      <trkpt lat="46.64525" lon="5.92247">
        <ele>834.22</ele>
        <time>2024-06-09T09:12:59Z</time>
      </trkpt>
      <trkpt lat="46.64524" lon="5.92245">
        <ele>834.22</ele>
        <time>2024-06-09T09:13:00Z</time>
      </trkpt>
      <trkpt lat="46.64524" lon="5.92243">
        <ele>834.25</ele>
        <time>2024-06-09T09:13:01Z</time>
      </trkpt>
      <trkpt lat="46.64522" lon="5.92237">
        <ele>834.32</ele>
        <time>2024-06-09T09:13:04Z</time>
      </trkpt>
      <trkpt lat="46.64522" lon="5.92234">
        <ele>834.38</ele>
        <time>2024-06-09T09:13:05Z</time>
      </trkpt>
      <trkpt lat="46.64521" lon="5.92231">
        <ele>834.41</ele>
        <time>2024-06-09T09:13:06Z</time>
      </trkpt>
      <trkpt lat="46.6452" lon="5.92229">
        <ele>834.44</ele>
        <time>2024-06-09T09:13:07Z</time>
      </trkpt>
      <trkpt lat="46.6452" lon="5.92226">
        <ele>834.48</ele>
        <time>2024-06-09T09:13:08Z</time>
      </trkpt>
      <trkpt lat="46.64519" lon="5.92224">
        <ele>834.55</ele>
        <time>2024-06-09T09:13:09Z</time>
      </trkpt>
      <trkpt lat="46.64519" lon="5.92222">
        <ele>834.54</ele>
        <time>2024-06-09T09:13:10Z</time>
      </trkpt>
      <trkpt lat="46.64518" lon="5.92219">
        <ele>834.57</ele>
        <time>2024-06-09T09:13:11Z</time>
      </trkpt>
      <trkpt lat="46.64517" lon="5.92217">
        <ele>834.6</ele>
        <time>2024-06-09T09:13:12Z</time>
      </trkpt>
      <trkpt lat="46.64517" lon="5.92215">
        <ele>834.63</ele>
        <time>2024-06-09T09:13:13Z</time>
      </trkpt>
      <trkpt lat="46.64514" lon="5.92209">
        <ele>834.7</ele>
        <time>2024-06-09T09:13:16Z</time>
      </trkpt>
      <trkpt lat="46.64512" lon="5.922">
        <ele>834.86</ele>
        <time>2024-06-09T09:13:20Z</time>
      </trkpt>
      <trkpt lat="46.64512" lon="5.92198">
        <ele>834.83</ele>
        <time>2024-06-09T09:13:21Z</time>
      </trkpt>
      <trkpt lat="46.64511" lon="5.92196">
        <ele>835.74</ele>
        <time>2024-06-09T09:13:22Z</time>
      </trkpt>
      <trkpt lat="46.6451" lon="5.92192">
        <ele>835.77</ele>
        <time>2024-06-09T09:13:24Z</time>
      </trkpt>
      <trkpt lat="46.6451" lon="5.9219">
        <ele>835.82</ele>
        <time>2024-06-09T09:13:25Z</time>
      </trkpt>
      <trkpt lat="46.64509" lon="5.92188">
        <ele>835.86</ele>
        <time>2024-06-09T09:13:26Z</time>
      </trkpt>
      <trkpt lat="46.64509" lon="5.92187">
        <ele>835.89</ele>
        <time>2024-06-09T09:13:27Z</time>
      </trkpt>
      <trkpt lat="46.64508" lon="5.92185">
        <ele>835.91</ele>
        <time>2024-06-09T09:13:28Z</time>
      </trkpt>
      <trkpt lat="46.64507" lon="5.92184">
        <ele>835.95</ele>
        <time>2024-06-09T09:13:29Z</time>
      </trkpt>
      <trkpt lat="46.64507" lon="5.92183">
        <ele>836.97</ele>
        <time>2024-06-09T09:13:30Z</time>
      </trkpt>
      <trkpt lat="46.64507" lon="5.92182">
        <ele>836.97</ele>
        <time>2024-06-09T09:13:31Z</time>
      </trkpt>
      <trkpt lat="46.64506" lon="5.92181">
        <ele>837.03</ele>
        <time>2024-06-09T09:13:32Z</time>
      </trkpt>
      <trkpt lat="46.64505" lon="5.9218">
        <ele>837.06</ele>
        <time>2024-06-09T09:13:33Z</time>
      </trkpt>
      <trkpt lat="46.64504" lon="5.92179">
        <ele>837.09</ele>
        <time>2024-06-09T09:13:34Z</time>
      </trkpt>
      <trkpt lat="46.64499" lon="5.92177">
        <ele>838.03</ele>
        <time>2024-06-09T09:13:39Z</time>
      </trkpt>
      <trkpt lat="46.64492" lon="5.92175">
        <ele>839.08</ele>
        <time>2024-06-09T09:13:48Z</time>
      </trkpt>
      <trkpt lat="46.64487" lon="5.9217">
        <ele>836.84</ele>
        <time>2024-06-09T09:13:57Z</time>
      </trkpt>
      <trkpt lat="46.64473" lon="5.92164">
        <ele>835.26</ele>
        <time>2024-06-09T09:14:13Z</time>
      </trkpt>
      <trkpt lat="46.64469" lon="5.92161">
        <ele>835.27</ele>
        <time>2024-06-09T09:14:16Z</time>
      </trkpt>
      <trkpt lat="46.64463" lon="5.92154">
        <ele>834.52</ele>
        <time>2024-06-09T09:14:22Z</time>
      </trkpt>
      <trkpt lat="46.64461" lon="5.92154">
        <ele>834.52</ele>
        <time>2024-06-09T09:14:24Z</time>
      </trkpt>
      <trkpt lat="46.64459" lon="5.92155">
        <ele>834.65</ele>
        <time>2024-06-09T09:14:26Z</time>
      </trkpt>
      <trkpt lat="46.64452" lon="5.92156">
        <ele>835.17</ele>
        <time>2024-06-09T09:14:38Z</time>
      </trkpt>
      <trkpt lat="46.64445" lon="5.92159">
        <ele>833.57</ele>
        <time>2024-06-09T09:14:47Z</time>
      </trkpt>
      <trkpt lat="46.64444" lon="5.9216">
        <ele>833.58</ele>
        <time>2024-06-09T09:14:48Z</time>
      </trkpt>
      <trkpt lat="46.64436" lon="5.92161">
        <ele>833.86</ele>
        <time>2024-06-09T09:15:00Z</time>
      </trkpt>
      <trkpt lat="46.64428" lon="5.92156">
        <ele>832.44</ele>
        <time>2024-06-09T09:15:16Z</time>
      </trkpt>
      <trkpt lat="46.64426" lon="5.92155">
        <ele>831.52</ele>
        <time>2024-06-09T09:15:19Z</time>
      </trkpt>
      <trkpt lat="46.64421" lon="5.92153">
        <ele>830.07</ele>
        <time>2024-06-09T09:15:28Z</time>
      </trkpt>
      <trkpt lat="46.64409" lon="5.92151">
        <ele>833.17</ele>
        <time>2024-06-09T09:15:43Z</time>
      </trkpt>
      <trkpt lat="46.64408" lon="5.92151">
        <ele>833.21</ele>
        <time>2024-06-09T09:15:44Z</time>
      </trkpt>
      <trkpt lat="46.64403" lon="5.92146">
        <ele>833.53</ele>
        <time>2024-06-09T09:15:57Z</time>
      </trkpt>
      <trkpt lat="46.64401" lon="5.92145">
        <ele>830.87</ele>
        <time>2024-06-09T09:16:00Z</time>
      </trkpt>
      <trkpt lat="46.64399" lon="5.92142">
        <ele>830.98</ele>
        <time>2024-06-09T09:16:04Z</time>
      </trkpt>
      <trkpt lat="46.64395" lon="5.92135">
        <ele>829.53</ele>
        <time>2024-06-09T09:16:14Z</time>
      </trkpt>
      <trkpt lat="46.64394" lon="5.92132">
        <ele>827.8</ele>
        <time>2024-06-09T09:16:21Z</time>
      </trkpt>
      <trkpt lat="46.64385" lon="5.9212">
        <ele>827.28</ele>
        <time>2024-06-09T09:16:37Z</time>
      </trkpt>
      <trkpt lat="46.64378" lon="5.92112">
        <ele>827.46</ele>
        <time>2024-06-09T09:16:44Z</time>
      </trkpt>
      <trkpt lat="46.64369" lon="5.92093">
        <ele>824.92</ele>
        <time>2024-06-09T09:17:02Z</time>
      </trkpt>
      <trkpt lat="46.64365" lon="5.92075">
        <ele>823.63</ele>
        <time>2024-06-09T09:17:12Z</time>
      </trkpt>
      <trkpt lat="46.64358" lon="5.92068">
        <ele>822.92</ele>
        <time>2024-06-09T09:17:22Z</time>
      </trkpt>
      <trkpt lat="46.64357" lon="5.92067">
        <ele>822.94</ele>
        <time>2024-06-09T09:17:23Z</time>
      </trkpt>
      <trkpt lat="46.6435" lon="5.92056">
        <ele>821.68</ele>
        <time>2024-06-09T09:17:32Z</time>
      </trkpt>
      <trkpt lat="46.6435" lon="5.92055">
        <ele>821.64</ele>
        <time>2024-06-09T09:17:33Z</time>
      </trkpt>
      <trkpt lat="46.64347" lon="5.92052">
        <ele>820.43</ele>
        <time>2024-06-09T09:17:37Z</time>
      </trkpt>
      <trkpt lat="46.64341" lon="5.92045">
        <ele>819.27</ele>
        <time>2024-06-09T09:17:43Z</time>
      </trkpt>
      <trkpt lat="46.64332" lon="5.92039">
        <ele>819.58</ele>
        <time>2024-06-09T09:17:54Z</time>
      </trkpt>
      <trkpt lat="46.64321" lon="5.92032">
        <ele>818.01</ele>
        <time>2024-06-09T09:18:07Z</time>
      </trkpt>
      <trkpt lat="46.6432" lon="5.92024">
        <ele>817.48</ele>
        <time>2024-06-09T09:18:16Z</time>
      </trkpt>
      <trkpt lat="46.6432" lon="5.92023">
        <ele>816.63</ele>
        <time>2024-06-09T09:18:18Z</time>
      </trkpt>
      <trkpt lat="46.64323" lon="5.92018">
        <ele>816.23</ele>
        <time>2024-06-09T09:18:31Z</time>
      </trkpt>
      <trkpt lat="46.64329" lon="5.92013">
        <ele>815.44</ele>
        <time>2024-06-09T09:18:41Z</time>
      </trkpt>
      <trkpt lat="46.64332" lon="5.92006">
        <ele>811.87</ele>
        <time>2024-06-09T09:18:55Z</time>
      </trkpt>
      <trkpt lat="46.64333" lon="5.92006">
        <ele>811.87</ele>
        <time>2024-06-09T09:18:56Z</time>
      </trkpt>
      <trkpt lat="46.64335" lon="5.92003">
        <ele>810.68</ele>
        <time>2024-06-09T09:19:00Z</time>
      </trkpt>
      <trkpt lat="46.64336" lon="5.92">
        <ele>807.46</ele>
        <time>2024-06-09T09:19:11Z</time>
      </trkpt>
      <trkpt lat="46.64336" lon="5.91999">
        <ele>806.44</ele>
        <time>2024-06-09T09:19:13Z</time>
      </trkpt>
      <trkpt lat="46.64341" lon="5.91998">
        <ele>804.49</ele>
        <time>2024-06-09T09:19:23Z</time>
      </trkpt>
      <trkpt lat="46.64356" lon="5.91997">
        <ele>801.56</ele>
        <time>2024-06-09T09:19:41Z</time>
      </trkpt>
      <trkpt lat="46.64357" lon="5.91997">
        <ele>801.44</ele>
        <time>2024-06-09T09:19:42Z</time>
      </trkpt>
      <trkpt lat="46.64362" lon="5.91996">
        <ele>800.6</ele>
        <time>2024-06-09T09:19:47Z</time>
      </trkpt>
      <trkpt lat="46.64363" lon="5.91991">
        <ele>798.32</ele>
        <time>2024-06-09T09:19:54Z</time>
      </trkpt>
      <trkpt lat="46.64362" lon="5.91989">
        <ele>798.32</ele>
        <time>2024-06-09T09:19:56Z</time>
      </trkpt>
      <trkpt lat="46.64362" lon="5.91987">
        <ele>798.36</ele>
        <time>2024-06-09T09:19:57Z</time>
      </trkpt>
      <trkpt lat="46.6436" lon="5.91981">
        <ele>796.07</ele>
        <time>2024-06-09T09:20:11Z</time>
      </trkpt>
      <trkpt lat="46.64358" lon="5.91973">
        <ele>794.64</ele>
        <time>2024-06-09T09:20:32Z</time>
      </trkpt>
      <trkpt lat="46.64357" lon="5.91951">
        <ele>792.69</ele>
        <time>2024-06-09T09:20:53Z</time>
      </trkpt>
      <trkpt lat="46.64364" lon="5.91948">
        <ele>789.03</ele>
        <time>2024-06-09T09:21:07Z</time>
      </trkpt>
      <trkpt lat="46.64361" lon="5.91943">
        <ele>789.2</ele>
        <time>2024-06-09T09:21:15Z</time>
      </trkpt>
      <trkpt lat="46.6436" lon="5.91941">
        <ele>787.92</ele>
        <time>2024-06-09T09:21:18Z</time>
      </trkpt>
      <trkpt lat="46.64358" lon="5.91934">
        <ele>787.33</ele>
        <time>2024-06-09T09:21:26Z</time>
      </trkpt>
      <trkpt lat="46.64358" lon="5.91932">
        <ele>787.19</ele>
        <time>2024-06-09T09:21:27Z</time>
      </trkpt>
      <trkpt lat="46.64354" lon="5.91928">
        <ele>784.84</ele>
        <time>2024-06-09T09:21:33Z</time>
      </trkpt>
      <trkpt lat="46.64353" lon="5.91924">
        <ele>783.26</ele>
        <time>2024-06-09T09:21:39Z</time>
      </trkpt>
      <trkpt lat="46.64353" lon="5.91919">
        <ele>781.92</ele>
        <time>2024-06-09T09:21:47Z</time>
      </trkpt>
      <trkpt lat="46.64355" lon="5.91917">
        <ele>781.16</ele>
        <time>2024-06-09T09:21:51Z</time>
      </trkpt>
      <trkpt lat="46.64351" lon="5.91905">
        <ele>778.38</ele>
        <time>2024-06-09T09:22:11Z</time>
      </trkpt>
      <trkpt lat="46.64349" lon="5.91898">
        <ele>777.61</ele>
        <time>2024-06-09T09:22:15Z</time>
      </trkpt>
      <trkpt lat="46.64347" lon="5.91896">
        <ele>776.71</ele>
        <time>2024-06-09T09:22:18Z</time>
      </trkpt>
      <trkpt lat="46.6435" lon="5.91894">
        <ele>774.54</ele>
        <time>2024-06-09T09:22:30Z</time>
      </trkpt>
      <trkpt lat="46.64362" lon="5.91899">
        <ele>774.83</ele>
        <time>2024-06-09T09:22:38Z</time>
      </trkpt>
      <trkpt lat="46.64365" lon="5.91902">
        <ele>774.9</ele>
        <time>2024-06-09T09:22:40Z</time>
      </trkpt>
      <trkpt lat="46.64367" lon="5.91903">
        <ele>774.82</ele>
        <time>2024-06-09T09:22:41Z</time>
      </trkpt>
      <trkpt lat="46.6437" lon="5.91906">
        <ele>775.05</ele>
        <time>2024-06-09T09:22:45Z</time>
      </trkpt>
      <trkpt lat="46.64372" lon="5.91908">
        <ele>774.25</ele>
        <time>2024-06-09T09:22:47Z</time>
      </trkpt>
      <trkpt lat="46.64377" lon="5.91912">
        <ele>774.44</ele>
        <time>2024-06-09T09:22:52Z</time>
      </trkpt>
      <trkpt lat="46.64378" lon="5.91912">
        <ele>774.47</ele>
        <time>2024-06-09T09:22:53Z</time>
      </trkpt>
      <trkpt lat="46.64392" lon="5.91918">
        <ele>773.24</ele>
        <time>2024-06-09T09:23:03Z</time>
      </trkpt>
      <trkpt lat="46.64399" lon="5.91925">
        <ele>773.54</ele>
        <time>2024-06-09T09:23:11Z</time>
      </trkpt>
      <trkpt lat="46.64407" lon="5.91933">
        <ele>773.77</ele>
        <time>2024-06-09T09:23:18Z</time>
      </trkpt>
      <trkpt lat="46.64408" lon="5.91937">
        <ele>773.81</ele>
        <time>2024-06-09T09:23:20Z</time>
      </trkpt>
      <trkpt lat="46.64409" lon="5.91937">
        <ele>773.9</ele>
        <time>2024-06-09T09:23:21Z</time>
      </trkpt>
      <trkpt lat="46.64414" lon="5.91943">
        <ele>773.98</ele>
        <time>2024-06-09T09:23:26Z</time>
      </trkpt>
      <trkpt lat="46.64452" lon="5.91984">
        <ele>774.83</ele>
        <time>2024-06-09T09:23:57Z</time>
      </trkpt>
      <trkpt lat="46.64458" lon="5.91984">
        <ele>777.52</ele>
        <time>2024-06-09T09:24:00Z</time>
      </trkpt>
      <trkpt lat="46.64475" lon="5.91973">
        <ele>777.79</ele>
        <time>2024-06-09T09:24:11Z</time>
      </trkpt>
      <trkpt lat="46.64476" lon="5.91972">
        <ele>777.79</ele>
        <time>2024-06-09T09:24:12Z</time>
      </trkpt>
      <trkpt lat="46.64482" lon="5.91967">
        <ele>777.94</ele>
        <time>2024-06-09T09:24:17Z</time>
      </trkpt>
      <trkpt lat="46.64484" lon="5.91966">
        <ele>777.92</ele>
        <time>2024-06-09T09:24:18Z</time>
      </trkpt>
      <trkpt lat="46.64488" lon="5.91964">
        <ele>778.01</ele>
        <time>2024-06-09T09:24:20Z</time>
      </trkpt>
      <trkpt lat="46.64493" lon="5.91959">
        <ele>775.79</ele>
        <time>2024-06-09T09:24:25Z</time>
      </trkpt>
      <trkpt lat="46.64499" lon="5.91954">
        <ele>775.91</ele>
        <time>2024-06-09T09:24:30Z</time>
      </trkpt>
      <trkpt lat="46.64503" lon="5.9195">
        <ele>775.98</ele>
        <time>2024-06-09T09:24:33Z</time>
      </trkpt>
      <trkpt lat="46.64504" lon="5.91944">
        <ele>776.01</ele>
        <time>2024-06-09T09:24:34Z</time>
      </trkpt>
      <trkpt lat="46.64506" lon="5.91942">
        <ele>776.02</ele>
        <time>2024-06-09T09:24:35Z</time>
      </trkpt>
      <trkpt lat="46.64507" lon="5.9194">
        <ele>776.02</ele>
        <time>2024-06-09T09:24:36Z</time>
      </trkpt>
      <trkpt lat="46.64508" lon="5.91936">
        <ele>776.05</ele>
        <time>2024-06-09T09:24:37Z</time>
      </trkpt>
      <trkpt lat="46.64508" lon="5.91935">
        <ele>776.07</ele>
        <time>2024-06-09T09:24:38Z</time>
      </trkpt>
      <trkpt lat="46.6451" lon="5.91934">
        <ele>776.07</ele>
        <time>2024-06-09T09:24:39Z</time>
      </trkpt>
      <trkpt lat="46.64511" lon="5.91933">
        <ele>776.09</ele>
        <time>2024-06-09T09:24:40Z</time>
      </trkpt>
      <trkpt lat="46.64512" lon="5.91932">
        <ele>776.13</ele>
        <time>2024-06-09T09:24:41Z</time>
      </trkpt>
      <trkpt lat="46.64512" lon="5.91928">
        <ele>776.14</ele>
        <time>2024-06-09T09:24:42Z</time>
      </trkpt>
      <trkpt lat="46.64513" lon="5.91926">
        <ele>776.18</ele>
        <time>2024-06-09T09:24:43Z</time>
      </trkpt>
      <trkpt lat="46.64514" lon="5.91924">
        <ele>776.2</ele>
        <time>2024-06-09T09:24:44Z</time>
      </trkpt>
      <trkpt lat="46.64515" lon="5.91922">
        <ele>776.2</ele>
        <time>2024-06-09T09:24:45Z</time>
      </trkpt>
      <trkpt lat="46.64518" lon="5.91906">
        <ele>776.41</ele>
        <time>2024-06-09T09:24:53Z</time>
      </trkpt>
      <trkpt lat="46.64519" lon="5.91904">
        <ele>776.42</ele>
        <time>2024-06-09T09:24:54Z</time>
      </trkpt>
      <trkpt lat="46.6452" lon="5.91897">
        <ele>776.51</ele>
        <time>2024-06-09T09:24:58Z</time>
      </trkpt>
      <trkpt lat="46.64523" lon="5.91892">
        <ele>776.61</ele>
        <time>2024-06-09T09:25:03Z</time>
      </trkpt>
      <trkpt lat="46.64524" lon="5.9189">
        <ele>776.64</ele>
        <time>2024-06-09T09:25:05Z</time>
      </trkpt>
      <trkpt lat="46.64526" lon="5.91868">
        <ele>776.85</ele>
        <time>2024-06-09T09:25:18Z</time>
      </trkpt>
      <trkpt lat="46.64527" lon="5.91866">
        <ele>776.9</ele>
        <time>2024-06-09T09:25:20Z</time>
      </trkpt>
      <trkpt lat="46.64529" lon="5.9184">
        <ele>776.98</ele>
        <time>2024-06-09T09:25:27Z</time>
      </trkpt>
      <trkpt lat="46.64527" lon="5.91835">
        <ele>777</ele>
        <time>2024-06-09T09:25:30Z</time>
      </trkpt>
      <trkpt lat="46.64526" lon="5.91831">
        <ele>777.01</ele>
        <time>2024-06-09T09:25:35Z</time>
      </trkpt>
      <trkpt lat="46.64526" lon="5.91827">
        <ele>777.03</ele>
        <time>2024-06-09T09:25:38Z</time>
      </trkpt>
      <trkpt lat="46.64525" lon="5.91825">
        <ele>777.04</ele>
        <time>2024-06-09T09:25:43Z</time>
      </trkpt>
      <trkpt lat="46.64524" lon="5.9182">
        <ele>776.98</ele>
        <time>2024-06-09T09:26:15Z</time>
      </trkpt>
      <trkpt lat="46.64525" lon="5.91818">
        <ele>776.91</ele>
        <time>2024-06-09T09:26:42Z</time>
      </trkpt>
      <trkpt lat="46.64526" lon="5.9182">
        <ele>776.85</ele>
        <time>2024-06-09T09:27:12Z</time>
      </trkpt>
      <trkpt lat="46.64522" lon="5.91819">
        <ele>776.59</ele>
        <time>2024-06-09T09:28:02Z</time>
      </trkpt>
      <trkpt lat="46.64522" lon="5.9182">
        <ele>776.14</ele>
        <time>2024-06-09T09:29:10Z</time>
      </trkpt>
      <trkpt lat="46.64521" lon="5.91821">
        <ele>775.68</ele>
        <time>2024-06-09T09:30:08Z</time>
      </trkpt>
      <trkpt lat="46.64521" lon="5.9182">
        <ele>775.16</ele>
        <time>2024-06-09T09:31:06Z</time>
      </trkpt>
      <trkpt lat="46.6452" lon="5.9182">
        <ele>774.64</ele>
        <time>2024-06-09T09:32:02Z</time>
      </trkpt>
      <trkpt lat="46.64522" lon="5.91819">
        <ele>774.3</ele>
        <time>2024-06-09T09:32:38Z</time>
      </trkpt>
      <trkpt lat="46.64523" lon="5.9182">
        <ele>773.97</ele>
        <time>2024-06-09T09:33:14Z</time>
      </trkpt>
      <trkpt lat="46.64524" lon="5.91822">
        <ele>773.54</ele>
        <time>2024-06-09T09:34:01Z</time>
      </trkpt>
      <trkpt lat="46.64523" lon="5.91818">
        <ele>773.1</ele>
        <time>2024-06-09T09:34:53Z</time>
      </trkpt>
      <trkpt lat="46.64526" lon="5.91818">
        <ele>772.56</ele>
        <time>2024-06-09T09:35:59Z</time>
      </trkpt>
      <trkpt lat="46.64531" lon="5.91814">
        <ele>771.59</ele>
        <time>2024-06-09T09:36:18Z</time>
      </trkpt>
      <trkpt lat="46.64532" lon="5.91812">
        <ele>771.57</ele>
        <time>2024-06-09T09:36:20Z</time>
      </trkpt>
      <trkpt lat="46.64533" lon="5.91811">
        <ele>771.57</ele>
        <time>2024-06-09T09:36:21Z</time>
      </trkpt>
      <trkpt lat="46.64537" lon="5.91806">
        <ele>770.56</ele>
        <time>2024-06-09T09:36:26Z</time>
      </trkpt>
      <trkpt lat="46.6454" lon="5.91803">
        <ele>772.97</ele>
        <time>2024-06-09T09:36:29Z</time>
      </trkpt>
      <trkpt lat="46.64541" lon="5.918">
        <ele>772.95</ele>
        <time>2024-06-09T09:36:31Z</time>
      </trkpt>
      <trkpt lat="46.64545" lon="5.91794">
        <ele>770.04</ele>
        <time>2024-06-09T09:36:37Z</time>
      </trkpt>
      <trkpt lat="46.6455" lon="5.91783">
        <ele>769.97</ele>
        <time>2024-06-09T09:36:46Z</time>
      </trkpt>
      <trkpt lat="46.64556" lon="5.9177">
        <ele>767.53</ele>
        <time>2024-06-09T09:36:57Z</time>
      </trkpt>
      <trkpt lat="46.64568" lon="5.91756">
        <ele>767.5</ele>
        <time>2024-06-09T09:37:09Z</time>
      </trkpt>
      <trkpt lat="46.64569" lon="5.91755">
        <ele>767.48</ele>
        <time>2024-06-09T09:37:10Z</time>
      </trkpt>
      <trkpt lat="46.6457" lon="5.91753">
        <ele>767.48</ele>
        <time>2024-06-09T09:37:11Z</time>
      </trkpt>
      <trkpt lat="46.64571" lon="5.91752">
        <ele>767.49</ele>
        <time>2024-06-09T09:37:12Z</time>
      </trkpt>
      <trkpt lat="46.64573" lon="5.9175">
        <ele>767.48</ele>
        <time>2024-06-09T09:37:13Z</time>
      </trkpt>
      <trkpt lat="46.64583" lon="5.91737">
        <ele>767.43</ele>
        <time>2024-06-09T09:37:24Z</time>
      </trkpt>
      <trkpt lat="46.64585" lon="5.91734">
        <ele>767.42</ele>
        <time>2024-06-09T09:37:26Z</time>
      </trkpt>
      <trkpt lat="46.64586" lon="5.9173">
        <ele>767.41</ele>
        <time>2024-06-09T09:37:28Z</time>
      </trkpt>
      <trkpt lat="46.64588" lon="5.91729">
        <ele>767.4</ele>
        <time>2024-06-09T09:37:29Z</time>
      </trkpt>
      <trkpt lat="46.64589" lon="5.91727">
        <ele>767.39</ele>
        <time>2024-06-09T09:37:30Z</time>
      </trkpt>
      <trkpt lat="46.6459" lon="5.91725">
        <ele>766.61</ele>
        <time>2024-06-09T09:37:31Z</time>
      </trkpt>
      <trkpt lat="46.64591" lon="5.91724">
        <ele>766.6</ele>
        <time>2024-06-09T09:37:32Z</time>
      </trkpt>
      <trkpt lat="46.64592" lon="5.91723">
        <ele>766.59</ele>
        <time>2024-06-09T09:37:33Z</time>
      </trkpt>
      <trkpt lat="46.64594" lon="5.91721">
        <ele>766.59</ele>
        <time>2024-06-09T09:37:34Z</time>
      </trkpt>
      <trkpt lat="46.64594" lon="5.9172">
        <ele>766.58</ele>
        <time>2024-06-09T09:37:35Z</time>
      </trkpt>
      <trkpt lat="46.64595" lon="5.91718">
        <ele>766.58</ele>
        <time>2024-06-09T09:37:36Z</time>
      </trkpt>
      <trkpt lat="46.64596" lon="5.91717">
        <ele>766.57</ele>
        <time>2024-06-09T09:37:37Z</time>
      </trkpt>
      <trkpt lat="46.64597" lon="5.91715">
        <ele>766.56</ele>
        <time>2024-06-09T09:37:38Z</time>
      </trkpt>
      <trkpt lat="46.64598" lon="5.91713">
        <ele>765.66</ele>
        <time>2024-06-09T09:37:39Z</time>
      </trkpt>
      <trkpt lat="46.64599" lon="5.91712">
        <ele>765.66</ele>
        <time>2024-06-09T09:37:40Z</time>
      </trkpt>
      <trkpt lat="46.646" lon="5.9171">
        <ele>765.66</ele>
        <time>2024-06-09T09:37:41Z</time>
      </trkpt>
      <trkpt lat="46.64601" lon="5.91709">
        <ele>765.64</ele>
        <time>2024-06-09T09:37:42Z</time>
      </trkpt>
      <trkpt lat="46.64602" lon="5.91707">
        <ele>765.63</ele>
        <time>2024-06-09T09:37:43Z</time>
      </trkpt>
      <trkpt lat="46.64603" lon="5.91706">
        <ele>765.62</ele>
        <time>2024-06-09T09:37:44Z</time>
      </trkpt>
      <trkpt lat="46.64604" lon="5.91704">
        <ele>765.62</ele>
        <time>2024-06-09T09:37:45Z</time>
      </trkpt>
      <trkpt lat="46.64605" lon="5.91703">
        <ele>765.61</ele>
        <time>2024-06-09T09:37:46Z</time>
      </trkpt>
      <trkpt lat="46.64606" lon="5.91701">
        <ele>765.61</ele>
        <time>2024-06-09T09:37:47Z</time>
      </trkpt>
      <trkpt lat="46.64607" lon="5.917">
        <ele>765.6</ele>
        <time>2024-06-09T09:37:48Z</time>
      </trkpt>
      <trkpt lat="46.64608" lon="5.91698">
        <ele>765.6</ele>
        <time>2024-06-09T09:37:49Z</time>
      </trkpt>
      <trkpt lat="46.64609" lon="5.91697">
        <ele>761.43</ele>
        <time>2024-06-09T09:37:50Z</time>
      </trkpt>
      <trkpt lat="46.64609" lon="5.91696">
        <ele>758.85</ele>
        <time>2024-06-09T09:37:51Z</time>
      </trkpt>
      <trkpt lat="46.6461" lon="5.91694">
        <ele>763.51</ele>
        <time>2024-06-09T09:37:52Z</time>
      </trkpt>
      <trkpt lat="46.64613" lon="5.91691">
        <ele>768.67</ele>
        <time>2024-06-09T09:37:54Z</time>
      </trkpt>
      <trkpt lat="46.64616" lon="5.91688">
        <ele>766.22</ele>
        <time>2024-06-09T09:37:56Z</time>
      </trkpt>
      <trkpt lat="46.64616" lon="5.91687">
        <ele>766.22</ele>
        <time>2024-06-09T09:37:57Z</time>
      </trkpt>
      <trkpt lat="46.64617" lon="5.91685">
        <ele>766.21</ele>
        <time>2024-06-09T09:37:58Z</time>
      </trkpt>
      <trkpt lat="46.64618" lon="5.91684">
        <ele>764.96</ele>
        <time>2024-06-09T09:37:59Z</time>
      </trkpt>
      <trkpt lat="46.64619" lon="5.91682">
        <ele>764.95</ele>
        <time>2024-06-09T09:38:00Z</time>
      </trkpt>
      <trkpt lat="46.6462" lon="5.91682">
        <ele>764.95</ele>
        <time>2024-06-09T09:38:01Z</time>
      </trkpt>
      <trkpt lat="46.64631" lon="5.91668">
        <ele>763.16</ele>
        <time>2024-06-09T09:38:12Z</time>
      </trkpt>
      <trkpt lat="46.64633" lon="5.91665">
        <ele>765.61</ele>
        <time>2024-06-09T09:38:14Z</time>
      </trkpt>
      <trkpt lat="46.64641" lon="5.91641">
        <ele>766.76</ele>
        <time>2024-06-09T09:38:27Z</time>
      </trkpt>
      <trkpt lat="46.64648" lon="5.91612">
        <ele>766.63</ele>
        <time>2024-06-09T09:38:42Z</time>
      </trkpt>
      <trkpt lat="46.64648" lon="5.91605">
        <ele>766.08</ele>
        <time>2024-06-09T09:38:47Z</time>
      </trkpt>
      <trkpt lat="46.64648" lon="5.91603">
        <ele>766.09</ele>
        <time>2024-06-09T09:38:48Z</time>
      </trkpt>
      <trkpt lat="46.64648" lon="5.91601">
        <ele>766.07</ele>
        <time>2024-06-09T09:38:49Z</time>
      </trkpt>
      <trkpt lat="46.64648" lon="5.91599">
        <ele>764.69</ele>
        <time>2024-06-09T09:38:50Z</time>
      </trkpt>
      <trkpt lat="46.64648" lon="5.91596">
        <ele>764.68</ele>
        <time>2024-06-09T09:38:51Z</time>
      </trkpt>
      <trkpt lat="46.64647" lon="5.91595">
        <ele>761.62</ele>
        <time>2024-06-09T09:38:52Z</time>
      </trkpt>
      <trkpt lat="46.64648" lon="5.91593">
        <ele>761.66</ele>
        <time>2024-06-09T09:38:53Z</time>
      </trkpt>
      <trkpt lat="46.64648" lon="5.9159">
        <ele>764.69</ele>
        <time>2024-06-09T09:38:54Z</time>
      </trkpt>
      <trkpt lat="46.64648" lon="5.91588">
        <ele>768.5</ele>
        <time>2024-06-09T09:38:55Z</time>
      </trkpt>
      <trkpt lat="46.64648" lon="5.91587">
        <ele>768.49</ele>
        <time>2024-06-09T09:38:56Z</time>
      </trkpt>
      <trkpt lat="46.64648" lon="5.91582">
        <ele>764.48</ele>
        <time>2024-06-09T09:38:58Z</time>
      </trkpt>
      <trkpt lat="46.64648" lon="5.9158">
        <ele>764.41</ele>
        <time>2024-06-09T09:38:59Z</time>
      </trkpt>
      <trkpt lat="46.64647" lon="5.91567">
        <ele>760.8</ele>
        <time>2024-06-09T09:39:04Z</time>
      </trkpt>
      <trkpt lat="46.64647" lon="5.91564">
        <ele>755.78</ele>
        <time>2024-06-09T09:39:05Z</time>
      </trkpt>
      <trkpt lat="46.64647" lon="5.91562">
        <ele>761.21</ele>
        <time>2024-06-09T09:39:06Z</time>
      </trkpt>
      <trkpt lat="46.64647" lon="5.91557">
        <ele>767.35</ele>
        <time>2024-06-09T09:39:08Z</time>
      </trkpt>
      <trkpt lat="46.64648" lon="5.91552">
        <ele>771.41</ele>
        <time>2024-06-09T09:39:10Z</time>
      </trkpt>
      <trkpt lat="46.64648" lon="5.9155">
        <ele>766.33</ele>
        <time>2024-06-09T09:39:11Z</time>
      </trkpt>
      <trkpt lat="46.64648" lon="5.91548">
        <ele>766.16</ele>
        <time>2024-06-09T09:39:12Z</time>
      </trkpt>
      <trkpt lat="46.64648" lon="5.91539">
        <ele>762.99</ele>
        <time>2024-06-09T09:39:16Z</time>
      </trkpt>
      <trkpt lat="46.64648" lon="5.91536">
        <ele>763.03</ele>
        <time>2024-06-09T09:39:17Z</time>
      </trkpt>
      <trkpt lat="46.64648" lon="5.91529">
        <ele>765.3</ele>
        <time>2024-06-09T09:39:20Z</time>
      </trkpt>
      <trkpt lat="46.64648" lon="5.91522">
        <ele>767.03</ele>
        <time>2024-06-09T09:39:23Z</time>
      </trkpt>
      <trkpt lat="46.64648" lon="5.91515">
        <ele>763.83</ele>
        <time>2024-06-09T09:39:26Z</time>
      </trkpt>
      <trkpt lat="46.64647" lon="5.91511">
        <ele>762.71</ele>
        <time>2024-06-09T09:39:28Z</time>
      </trkpt>
      <trkpt lat="46.64647" lon="5.91506">
        <ele>765.84</ele>
        <time>2024-06-09T09:39:30Z</time>
      </trkpt>
      <trkpt lat="46.64647" lon="5.91504">
        <ele>765.82</ele>
        <time>2024-06-09T09:39:31Z</time>
      </trkpt>
      <trkpt lat="46.64647" lon="5.915">
        <ele>767.56</ele>
        <time>2024-06-09T09:39:33Z</time>
      </trkpt>
      <trkpt lat="46.64646" lon="5.91496">
        <ele>761.99</ele>
        <time>2024-06-09T09:39:35Z</time>
      </trkpt>
      <trkpt lat="46.64646" lon="5.91494">
        <ele>765.08</ele>
        <time>2024-06-09T09:39:36Z</time>
      </trkpt>
      <trkpt lat="46.64643" lon="5.91487">
        <ele>766.42</ele>
        <time>2024-06-09T09:39:40Z</time>
      </trkpt>
      <trkpt lat="46.64641" lon="5.91483">
        <ele>767.78</ele>
        <time>2024-06-09T09:39:42Z</time>
      </trkpt>
      <trkpt lat="46.6464" lon="5.91479">
        <ele>762.04</ele>
        <time>2024-06-09T09:39:44Z</time>
      </trkpt>
      <trkpt lat="46.64639" lon="5.91477">
        <ele>762.04</ele>
        <time>2024-06-09T09:39:45Z</time>
      </trkpt>
      <trkpt lat="46.64634" lon="5.91469">
        <ele>766.06</ele>
        <time>2024-06-09T09:39:49Z</time>
      </trkpt>
      <trkpt lat="46.64633" lon="5.91467">
        <ele>766.05</ele>
        <time>2024-06-09T09:39:50Z</time>
      </trkpt>
      <trkpt lat="46.6463" lon="5.91463">
        <ele>762.61</ele>
        <time>2024-06-09T09:39:52Z</time>
      </trkpt>
      <trkpt lat="46.64629" lon="5.91462">
        <ele>762.62</ele>
        <time>2024-06-09T09:39:53Z</time>
      </trkpt>
      <trkpt lat="46.64626" lon="5.91459">
        <ele>766.06</ele>
        <time>2024-06-09T09:39:55Z</time>
      </trkpt>
      <trkpt lat="46.64624" lon="5.91457">
        <ele>762.38</ele>
        <time>2024-06-09T09:39:56Z</time>
      </trkpt>
      <trkpt lat="46.6462" lon="5.91453">
        <ele>766.22</ele>
        <time>2024-06-09T09:39:59Z</time>
      </trkpt>
      <trkpt lat="46.64616" lon="5.91449">
        <ele>761.38</ele>
        <time>2024-06-09T09:40:02Z</time>
      </trkpt>
      <trkpt lat="46.64614" lon="5.91448">
        <ele>761.39</ele>
        <time>2024-06-09T09:40:03Z</time>
      </trkpt>
      <trkpt lat="46.6461" lon="5.91445">
        <ele>764.56</ele>
        <time>2024-06-09T09:40:06Z</time>
      </trkpt>
      <trkpt lat="46.64608" lon="5.91443">
        <ele>764.56</ele>
        <time>2024-06-09T09:40:07Z</time>
      </trkpt>
      <trkpt lat="46.64601" lon="5.91438">
        <ele>760.95</ele>
        <time>2024-06-09T09:40:12Z</time>
      </trkpt>
      <trkpt lat="46.646" lon="5.91437">
        <ele>763.41</ele>
        <time>2024-06-09T09:40:13Z</time>
      </trkpt>
      <trkpt lat="46.64591" lon="5.91431">
        <ele>765.8</ele>
        <time>2024-06-09T09:40:19Z</time>
      </trkpt>
      <trkpt lat="46.64588" lon="5.91429">
        <ele>760</ele>
        <time>2024-06-09T09:40:21Z</time>
      </trkpt>
      <trkpt lat="46.64582" lon="5.91425">
        <ele>764.45</ele>
        <time>2024-06-09T09:40:25Z</time>
      </trkpt>
      <trkpt lat="46.64581" lon="5.91424">
        <ele>764.44</ele>
        <time>2024-06-09T09:40:26Z</time>
      </trkpt>
      <trkpt lat="46.64577" lon="5.9142">
        <ele>761.28</ele>
        <time>2024-06-09T09:40:29Z</time>
      </trkpt>
      <trkpt lat="46.64575" lon="5.9142">
        <ele>761.3</ele>
        <time>2024-06-09T09:40:30Z</time>
      </trkpt>
      <trkpt lat="46.64571" lon="5.91416">
        <ele>762.81</ele>
        <time>2024-06-09T09:40:33Z</time>
      </trkpt>
      <trkpt lat="46.64568" lon="5.91413">
        <ele>764.21</ele>
        <time>2024-06-09T09:40:35Z</time>
      </trkpt>
      <trkpt lat="46.64564" lon="5.91409">
        <ele>762.45</ele>
        <time>2024-06-09T09:40:38Z</time>
      </trkpt>
      <trkpt lat="46.64554" lon="5.91396">
        <ele>765.13</ele>
        <time>2024-06-09T09:40:46Z</time>
      </trkpt>
      <trkpt lat="46.64551" lon="5.91392">
        <ele>759.75</ele>
        <time>2024-06-09T09:40:49Z</time>
      </trkpt>
      <trkpt lat="46.64544" lon="5.91385">
        <ele>765.05</ele>
        <time>2024-06-09T09:40:54Z</time>
      </trkpt>
      <trkpt lat="46.64543" lon="5.91383">
        <ele>765.02</ele>
        <time>2024-06-09T09:40:55Z</time>
      </trkpt>
      <trkpt lat="46.64541" lon="5.91381">
        <ele>761.99</ele>
        <time>2024-06-09T09:40:57Z</time>
      </trkpt>
      <trkpt lat="46.6454" lon="5.91379">
        <ele>761.98</ele>
        <time>2024-06-09T09:40:58Z</time>
      </trkpt>
      <trkpt lat="46.64531" lon="5.91369">
        <ele>764.2</ele>
        <time>2024-06-09T09:41:05Z</time>
      </trkpt>
      <trkpt lat="46.64529" lon="5.91366">
        <ele>761.54</ele>
        <time>2024-06-09T09:41:07Z</time>
      </trkpt>
      <trkpt lat="46.64523" lon="5.91359">
        <ele>765.08</ele>
        <time>2024-06-09T09:41:12Z</time>
      </trkpt>
      <trkpt lat="46.64522" lon="5.91358">
        <ele>765.05</ele>
        <time>2024-06-09T09:41:13Z</time>
      </trkpt>
      <trkpt lat="46.64517" lon="5.91352">
        <ele>762.11</ele>
        <time>2024-06-09T09:41:17Z</time>
      </trkpt>
      <trkpt lat="46.64509" lon="5.91343">
        <ele>765.29</ele>
        <time>2024-06-09T09:41:23Z</time>
      </trkpt>
      <trkpt lat="46.64506" lon="5.91338">
        <ele>759.92</ele>
        <time>2024-06-09T09:41:26Z</time>
      </trkpt>
      <trkpt lat="46.64505" lon="5.91337">
        <ele>759.9</ele>
        <time>2024-06-09T09:41:27Z</time>
      </trkpt>
      <trkpt lat="46.64503" lon="5.91333">
        <ele>763.34</ele>
        <time>2024-06-09T09:41:29Z</time>
      </trkpt>
      <trkpt lat="46.64502" lon="5.91331">
        <ele>763.34</ele>
        <time>2024-06-09T09:41:30Z</time>
      </trkpt>
      <trkpt lat="46.64499" lon="5.91319">
        <ele>764.69</ele>
        <time>2024-06-09T09:41:36Z</time>
      </trkpt>
      <trkpt lat="46.64499" lon="5.91315">
        <ele>759.92</ele>
        <time>2024-06-09T09:41:38Z</time>
      </trkpt>
      <trkpt lat="46.64499" lon="5.91312">
        <ele>759.94</ele>
        <time>2024-06-09T09:41:39Z</time>
      </trkpt>
      <trkpt lat="46.64498" lon="5.91308">
        <ele>763.72</ele>
        <time>2024-06-09T09:41:41Z</time>
      </trkpt>
      <trkpt lat="46.64498" lon="5.91306">
        <ele>760.03</ele>
        <time>2024-06-09T09:41:42Z</time>
      </trkpt>
      <trkpt lat="46.64499" lon="5.91299">
        <ele>764.98</ele>
        <time>2024-06-09T09:41:45Z</time>
      </trkpt>
      <trkpt lat="46.64499" lon="5.91297">
        <ele>764.93</ele>
        <time>2024-06-09T09:41:46Z</time>
      </trkpt>
      <trkpt lat="46.64499" lon="5.9129">
        <ele>761.68</ele>
        <time>2024-06-09T09:41:49Z</time>
      </trkpt>
      <trkpt lat="46.645" lon="5.91284">
        <ele>763.49</ele>
        <time>2024-06-09T09:41:52Z</time>
      </trkpt>
      <trkpt lat="46.64502" lon="5.91266">
        <ele>762.77</ele>
        <time>2024-06-09T09:42:00Z</time>
      </trkpt>
      <trkpt lat="46.64503" lon="5.91262">
        <ele>760.16</ele>
        <time>2024-06-09T09:42:02Z</time>
      </trkpt>
      <trkpt lat="46.64503" lon="5.91256">
        <ele>763.29</ele>
        <time>2024-06-09T09:42:05Z</time>
      </trkpt>
      <trkpt lat="46.64503" lon="5.91253">
        <ele>763.28</ele>
        <time>2024-06-09T09:42:06Z</time>
      </trkpt>
      <trkpt lat="46.64504" lon="5.91244">
        <ele>765.08</ele>
        <time>2024-06-09T09:42:10Z</time>
      </trkpt>
      <trkpt lat="46.64505" lon="5.9124">
        <ele>761.54</ele>
        <time>2024-06-09T09:42:12Z</time>
      </trkpt>
      <trkpt lat="46.64506" lon="5.91237">
        <ele>758.42</ele>
        <time>2024-06-09T09:42:13Z</time>
      </trkpt>
      <trkpt lat="46.64506" lon="5.91235">
        <ele>758.42</ele>
        <time>2024-06-09T09:42:14Z</time>
      </trkpt>
      <trkpt lat="46.64506" lon="5.91231">
        <ele>761.23</ele>
        <time>2024-06-09T09:42:16Z</time>
      </trkpt>
      <trkpt lat="46.64507" lon="5.91219">
        <ele>765.32</ele>
        <time>2024-06-09T09:42:22Z</time>
      </trkpt>
      <trkpt lat="46.64507" lon="5.91217">
        <ele>761.66</ele>
        <time>2024-06-09T09:42:23Z</time>
      </trkpt>
      <trkpt lat="46.64508" lon="5.91215">
        <ele>761.65</ele>
        <time>2024-06-09T09:42:24Z</time>
      </trkpt>
      <trkpt lat="46.64508" lon="5.9121">
        <ele>759.01</ele>
        <time>2024-06-09T09:42:26Z</time>
      </trkpt>
      <trkpt lat="46.64508" lon="5.91208">
        <ele>762.13</ele>
        <time>2024-06-09T09:42:27Z</time>
      </trkpt>
      <trkpt lat="46.64508" lon="5.91206">
        <ele>762.3</ele>
        <time>2024-06-09T09:42:28Z</time>
      </trkpt>
      <trkpt lat="46.64508" lon="5.91183">
        <ele>759.39</ele>
        <time>2024-06-09T09:42:38Z</time>
      </trkpt>
      <trkpt lat="46.64507" lon="5.91176">
        <ele>761.96</ele>
        <time>2024-06-09T09:42:41Z</time>
      </trkpt>
      <trkpt lat="46.64505" lon="5.91158">
        <ele>759.38</ele>
        <time>2024-06-09T09:42:49Z</time>
      </trkpt>
      <trkpt lat="46.64501" lon="5.9114">
        <ele>762.47</ele>
        <time>2024-06-09T09:42:57Z</time>
      </trkpt>
      <trkpt lat="46.645" lon="5.91135">
        <ele>764.06</ele>
        <time>2024-06-09T09:42:59Z</time>
      </trkpt>
      <trkpt lat="46.64499" lon="5.91131">
        <ele>760.14</ele>
        <time>2024-06-09T09:43:01Z</time>
      </trkpt>
      <trkpt lat="46.64496" lon="5.91113">
        <ele>763.16</ele>
        <time>2024-06-09T09:43:10Z</time>
      </trkpt>
      <trkpt lat="46.64494" lon="5.91104">
        <ele>760.37</ele>
        <time>2024-06-09T09:43:14Z</time>
      </trkpt>
      <trkpt lat="46.64493" lon="5.91096">
        <ele>762.65</ele>
        <time>2024-06-09T09:43:18Z</time>
      </trkpt>
      <trkpt lat="46.64493" lon="5.91092">
        <ele>760.33</ele>
        <time>2024-06-09T09:43:20Z</time>
      </trkpt>
      <trkpt lat="46.64492" lon="5.9109">
        <ele>763.65</ele>
        <time>2024-06-09T09:43:21Z</time>
      </trkpt>
      <trkpt lat="46.64492" lon="5.91088">
        <ele>763.74</ele>
        <time>2024-06-09T09:43:22Z</time>
      </trkpt>
      <trkpt lat="46.64491" lon="5.91084">
        <ele>760.61</ele>
        <time>2024-06-09T09:43:24Z</time>
      </trkpt>
      <trkpt lat="46.6449" lon="5.91082">
        <ele>760.55</ele>
        <time>2024-06-09T09:43:25Z</time>
      </trkpt>
      <trkpt lat="46.64486" lon="5.91065">
        <ele>763.22</ele>
        <time>2024-06-09T09:43:33Z</time>
      </trkpt>
      <trkpt lat="46.64485" lon="5.91058">
        <ele>761.6</ele>
        <time>2024-06-09T09:43:36Z</time>
      </trkpt>
      <trkpt lat="46.64484" lon="5.91054">
        <ele>759.69</ele>
        <time>2024-06-09T09:43:38Z</time>
      </trkpt>
      <trkpt lat="46.64482" lon="5.91048">
        <ele>762.13</ele>
        <time>2024-06-09T09:43:41Z</time>
      </trkpt>
      <trkpt lat="46.64479" lon="5.91036">
        <ele>763.58</ele>
        <time>2024-06-09T09:43:47Z</time>
      </trkpt>
      <trkpt lat="46.64477" lon="5.91031">
        <ele>759.73</ele>
        <time>2024-06-09T09:43:49Z</time>
      </trkpt>
      <trkpt lat="46.64477" lon="5.91029">
        <ele>759.94</ele>
        <time>2024-06-09T09:43:50Z</time>
      </trkpt>
      <trkpt lat="46.64471" lon="5.91013">
        <ele>764.28</ele>
        <time>2024-06-09T09:43:58Z</time>
      </trkpt>
      <trkpt lat="46.64471" lon="5.91011">
        <ele>763.8</ele>
        <time>2024-06-09T09:43:59Z</time>
      </trkpt>
      <trkpt lat="46.64469" lon="5.91008">
        <ele>760.22</ele>
        <time>2024-06-09T09:44:01Z</time>
      </trkpt>
      <trkpt lat="46.64469" lon="5.91006">
        <ele>760.42</ele>
        <time>2024-06-09T09:44:02Z</time>
      </trkpt>
      <trkpt lat="46.64466" lon="5.90998">
        <ele>762.94</ele>
        <time>2024-06-09T09:44:06Z</time>
      </trkpt>
      <trkpt lat="46.64462" lon="5.90984">
        <ele>759.16</ele>
        <time>2024-06-09T09:44:13Z</time>
      </trkpt>
      <trkpt lat="46.64462" lon="5.90982">
        <ele>759.44</ele>
        <time>2024-06-09T09:44:14Z</time>
      </trkpt>
      <trkpt lat="46.6446" lon="5.90973">
        <ele>761.82</ele>
        <time>2024-06-09T09:44:18Z</time>
      </trkpt>
      <trkpt lat="46.64456" lon="5.90955">
        <ele>759.54</ele>
        <time>2024-06-09T09:44:27Z</time>
      </trkpt>
      <trkpt lat="46.64453" lon="5.90943">
        <ele>763.48</ele>
        <time>2024-06-09T09:44:33Z</time>
      </trkpt>
      <trkpt lat="46.64452" lon="5.90941">
        <ele>763.45</ele>
        <time>2024-06-09T09:44:34Z</time>
      </trkpt>
      <trkpt lat="46.64451" lon="5.90937">
        <ele>759.92</ele>
        <time>2024-06-09T09:44:36Z</time>
      </trkpt>
      <trkpt lat="46.6445" lon="5.90933">
        <ele>759.12</ele>
        <time>2024-06-09T09:44:38Z</time>
      </trkpt>
      <trkpt lat="46.64448" lon="5.90926">
        <ele>761.39</ele>
        <time>2024-06-09T09:44:41Z</time>
      </trkpt>
      <trkpt lat="46.64446" lon="5.90917">
        <ele>763.35</ele>
        <time>2024-06-09T09:44:46Z</time>
      </trkpt>
      <trkpt lat="46.64445" lon="5.90911">
        <ele>760.05</ele>
        <time>2024-06-09T09:44:49Z</time>
      </trkpt>
      <trkpt lat="46.64444" lon="5.90906">
        <ele>758.78</ele>
        <time>2024-06-09T09:44:51Z</time>
      </trkpt>
      <trkpt lat="46.6444" lon="5.90891">
        <ele>762.52</ele>
        <time>2024-06-09T09:44:58Z</time>
      </trkpt>
      <trkpt lat="46.6444" lon="5.90889">
        <ele>762.58</ele>
        <time>2024-06-09T09:44:59Z</time>
      </trkpt>
      <trkpt lat="46.64438" lon="5.90883">
        <ele>759.21</ele>
        <time>2024-06-09T09:45:02Z</time>
      </trkpt>
      <trkpt lat="46.64438" lon="5.90881">
        <ele>759.21</ele>
        <time>2024-06-09T09:45:03Z</time>
      </trkpt>
      <trkpt lat="46.64435" lon="5.90867">
        <ele>763.44</ele>
        <time>2024-06-09T09:45:09Z</time>
      </trkpt>
      <trkpt lat="46.64435" lon="5.90865">
        <ele>763.44</ele>
        <time>2024-06-09T09:45:10Z</time>
      </trkpt>
      <trkpt lat="46.64434" lon="5.90861">
        <ele>757.64</ele>
        <time>2024-06-09T09:45:12Z</time>
      </trkpt>
      <trkpt lat="46.64433" lon="5.90856">
        <ele>761.85</ele>
        <time>2024-06-09T09:45:14Z</time>
      </trkpt>
      <trkpt lat="46.64433" lon="5.90854">
        <ele>761.79</ele>
        <time>2024-06-09T09:45:15Z</time>
      </trkpt>
      <trkpt lat="46.6443" lon="5.90838">
        <ele>759.83</ele>
        <time>2024-06-09T09:45:22Z</time>
      </trkpt>
      <trkpt lat="46.64427" lon="5.90818">
        <ele>762.94</ele>
        <time>2024-06-09T09:45:31Z</time>
      </trkpt>
      <trkpt lat="46.64426" lon="5.90816">
        <ele>762.94</ele>
        <time>2024-06-09T09:45:32Z</time>
      </trkpt>
      <trkpt lat="46.64425" lon="5.90814">
        <ele>759.71</ele>
        <time>2024-06-09T09:45:34Z</time>
      </trkpt>
      <trkpt lat="46.64424" lon="5.90809">
        <ele>762.32</ele>
        <time>2024-06-09T09:45:39Z</time>
      </trkpt>
      <trkpt lat="46.64425" lon="5.90805">
        <ele>758.68</ele>
        <time>2024-06-09T09:45:41Z</time>
      </trkpt>
      <trkpt lat="46.64426" lon="5.90802">
        <ele>758.98</ele>
        <time>2024-06-09T09:45:42Z</time>
      </trkpt>
      <trkpt lat="46.64425" lon="5.90791">
        <ele>761.5</ele>
        <time>2024-06-09T09:45:47Z</time>
      </trkpt>
      <trkpt lat="46.64425" lon="5.90782">
        <ele>757.41</ele>
        <time>2024-06-09T09:45:51Z</time>
      </trkpt>
      <trkpt lat="46.64425" lon="5.9078">
        <ele>757.41</ele>
        <time>2024-06-09T09:45:52Z</time>
      </trkpt>
      <trkpt lat="46.64424" lon="5.90775">
        <ele>761.18</ele>
        <time>2024-06-09T09:45:54Z</time>
      </trkpt>
      <trkpt lat="46.64424" lon="5.90773">
        <ele>761.15</ele>
        <time>2024-06-09T09:45:55Z</time>
      </trkpt>
      <trkpt lat="46.64424" lon="5.90769">
        <ele>758.78</ele>
        <time>2024-06-09T09:45:57Z</time>
      </trkpt>
      <trkpt lat="46.64424" lon="5.90767">
        <ele>762.81</ele>
        <time>2024-06-09T09:45:58Z</time>
      </trkpt>
      <trkpt lat="46.64424" lon="5.90764">
        <ele>762.92</ele>
        <time>2024-06-09T09:45:59Z</time>
      </trkpt>
      <trkpt lat="46.64424" lon="5.90757">
        <ele>758.77</ele>
        <time>2024-06-09T09:46:02Z</time>
      </trkpt>
      <trkpt lat="46.64424" lon="5.90755">
        <ele>758.76</ele>
        <time>2024-06-09T09:46:03Z</time>
      </trkpt>
      <trkpt lat="46.64424" lon="5.90753">
        <ele>761.89</ele>
        <time>2024-06-09T09:46:04Z</time>
      </trkpt>
      <trkpt lat="46.64423" lon="5.9075">
        <ele>758.79</ele>
        <time>2024-06-09T09:46:05Z</time>
      </trkpt>
      <trkpt lat="46.64423" lon="5.90741">
        <ele>763</ele>
        <time>2024-06-09T09:46:09Z</time>
      </trkpt>
      <trkpt lat="46.64423" lon="5.90739">
        <ele>763.05</ele>
        <time>2024-06-09T09:46:10Z</time>
      </trkpt>
      <trkpt lat="46.64422" lon="5.90735">
        <ele>759.5</ele>
        <time>2024-06-09T09:46:12Z</time>
      </trkpt>
      <trkpt lat="46.64422" lon="5.90733">
        <ele>759.4</ele>
        <time>2024-06-09T09:46:13Z</time>
      </trkpt>
      <trkpt lat="46.64421" lon="5.90721">
        <ele>762</ele>
        <time>2024-06-09T09:46:18Z</time>
      </trkpt>
      <trkpt lat="46.6442" lon="5.90713">
        <ele>763.74</ele>
        <time>2024-06-09T09:46:22Z</time>
      </trkpt>
      <trkpt lat="46.6442" lon="5.90706">
        <ele>758.57</ele>
        <time>2024-06-09T09:46:25Z</time>
      </trkpt>
      <trkpt lat="46.6442" lon="5.90704">
        <ele>758.7</ele>
        <time>2024-06-09T09:46:26Z</time>
      </trkpt>
      <trkpt lat="46.64418" lon="5.90692">
        <ele>762.46</ele>
        <time>2024-06-09T09:46:32Z</time>
      </trkpt>
      <trkpt lat="46.64417" lon="5.9069">
        <ele>762.45</ele>
        <time>2024-06-09T09:46:33Z</time>
      </trkpt>
      <trkpt lat="46.64414" lon="5.90668">
        <ele>759.63</ele>
        <time>2024-06-09T09:46:43Z</time>
      </trkpt>
      <trkpt lat="46.6441" lon="5.9065">
        <ele>762.67</ele>
        <time>2024-06-09T09:46:52Z</time>
      </trkpt>
      <trkpt lat="46.6441" lon="5.90648">
        <ele>762.59</ele>
        <time>2024-06-09T09:46:53Z</time>
      </trkpt>
      <trkpt lat="46.64407" lon="5.9064">
        <ele>757.43</ele>
        <time>2024-06-09T09:46:57Z</time>
      </trkpt>
      <trkpt lat="46.64407" lon="5.90638">
        <ele>759.94</ele>
        <time>2024-06-09T09:46:58Z</time>
      </trkpt>
      <trkpt lat="46.64402" lon="5.9062">
        <ele>763.44</ele>
        <time>2024-06-09T09:47:07Z</time>
      </trkpt>
      <trkpt lat="46.64402" lon="5.90618">
        <ele>763.33</ele>
        <time>2024-06-09T09:47:08Z</time>
      </trkpt>
      <trkpt lat="46.64401" lon="5.90616">
        <ele>759.88</ele>
        <time>2024-06-09T09:47:09Z</time>
      </trkpt>
      <trkpt lat="46.644" lon="5.90612">
        <ele>756.9</ele>
        <time>2024-06-09T09:47:11Z</time>
      </trkpt>
      <trkpt lat="46.644" lon="5.90607">
        <ele>761.48</ele>
        <time>2024-06-09T09:47:13Z</time>
      </trkpt>
      <trkpt lat="46.64399" lon="5.90605">
        <ele>761.48</ele>
        <time>2024-06-09T09:47:14Z</time>
      </trkpt>
      <trkpt lat="46.64397" lon="5.90589">
        <ele>758.69</ele>
        <time>2024-06-09T09:47:21Z</time>
      </trkpt>
      <trkpt lat="46.64396" lon="5.90585">
        <ele>761.2</ele>
        <time>2024-06-09T09:47:23Z</time>
      </trkpt>
      <trkpt lat="46.64397" lon="5.90577">
        <ele>763.14</ele>
        <time>2024-06-09T09:47:27Z</time>
      </trkpt>
      <trkpt lat="46.64397" lon="5.90572">
        <ele>757.74</ele>
        <time>2024-06-09T09:47:29Z</time>
      </trkpt>
      <trkpt lat="46.64397" lon="5.9057">
        <ele>757.74</ele>
        <time>2024-06-09T09:47:30Z</time>
      </trkpt>
      <trkpt lat="46.64396" lon="5.90565">
        <ele>761</ele>
        <time>2024-06-09T09:47:32Z</time>
      </trkpt>
      <trkpt lat="46.64397" lon="5.90563">
        <ele>760.98</ele>
        <time>2024-06-09T09:47:33Z</time>
      </trkpt>
      <trkpt lat="46.64397" lon="5.90553">
        <ele>762.62</ele>
        <time>2024-06-09T09:47:38Z</time>
      </trkpt>
      <trkpt lat="46.64399" lon="5.90547">
        <ele>758.51</ele>
        <time>2024-06-09T09:47:41Z</time>
      </trkpt>
      <trkpt lat="46.64399" lon="5.90546">
        <ele>758.66</ele>
        <time>2024-06-09T09:47:42Z</time>
      </trkpt>
      <trkpt lat="46.64399" lon="5.90542">
        <ele>761.91</ele>
        <time>2024-06-09T09:47:44Z</time>
      </trkpt>
      <trkpt lat="46.64399" lon="5.9054">
        <ele>761.73</ele>
        <time>2024-06-09T09:47:45Z</time>
      </trkpt>
      <trkpt lat="46.64399" lon="5.9052">
        <ele>759.01</ele>
        <time>2024-06-09T09:47:54Z</time>
      </trkpt>
      <trkpt lat="46.64399" lon="5.90515">
        <ele>761.15</ele>
        <time>2024-06-09T09:47:56Z</time>
      </trkpt>
      <trkpt lat="46.64398" lon="5.90504">
        <ele>759.62</ele>
        <time>2024-06-09T09:48:01Z</time>
      </trkpt>
      <trkpt lat="46.64398" lon="5.90493">
        <ele>763.51</ele>
        <time>2024-06-09T09:48:06Z</time>
      </trkpt>
      <trkpt lat="46.64398" lon="5.90491">
        <ele>759.5</ele>
        <time>2024-06-09T09:48:07Z</time>
      </trkpt>
      <trkpt lat="46.64397" lon="5.90482">
        <ele>761.6</ele>
        <time>2024-06-09T09:48:11Z</time>
      </trkpt>
      <trkpt lat="46.64395" lon="5.90471">
        <ele>764.14</ele>
        <time>2024-06-09T09:48:16Z</time>
      </trkpt>
      <trkpt lat="46.64394" lon="5.90467">
        <ele>758.86</ele>
        <time>2024-06-09T09:48:18Z</time>
      </trkpt>
      <trkpt lat="46.64394" lon="5.90465">
        <ele>761.76</ele>
        <time>2024-06-09T09:48:19Z</time>
      </trkpt>
      <trkpt lat="46.64392" lon="5.90454">
        <ele>762.99</ele>
        <time>2024-06-09T09:48:24Z</time>
      </trkpt>
      <trkpt lat="46.64389" lon="5.90441">
        <ele>759.93</ele>
        <time>2024-06-09T09:48:31Z</time>
      </trkpt>
      <trkpt lat="46.64388" lon="5.90439">
        <ele>759.93</ele>
        <time>2024-06-09T09:48:32Z</time>
      </trkpt>
      <trkpt lat="46.64386" lon="5.90433">
        <ele>763.18</ele>
        <time>2024-06-09T09:48:36Z</time>
      </trkpt>
      <trkpt lat="46.64385" lon="5.90428">
        <ele>763.25</ele>
        <time>2024-06-09T09:48:39Z</time>
      </trkpt>
      <trkpt lat="46.64385" lon="5.90427">
        <ele>763.19</ele>
        <time>2024-06-09T09:48:40Z</time>
      </trkpt>
      <trkpt lat="46.64384" lon="5.90425">
        <ele>762</ele>
        <time>2024-06-09T09:48:41Z</time>
      </trkpt>
      <trkpt lat="46.64384" lon="5.90424">
        <ele>761.99</ele>
        <time>2024-06-09T09:48:42Z</time>
      </trkpt>
      <trkpt lat="46.64383" lon="5.90416">
        <ele>765.19</ele>
        <time>2024-06-09T09:48:47Z</time>
      </trkpt>
      <trkpt lat="46.64383" lon="5.90414">
        <ele>765.18</ele>
        <time>2024-06-09T09:48:48Z</time>
      </trkpt>
      <trkpt lat="46.6438" lon="5.90406">
        <ele>766.8</ele>
        <time>2024-06-09T09:48:52Z</time>
      </trkpt>
      <trkpt lat="46.64379" lon="5.90402">
        <ele>761.79</ele>
        <time>2024-06-09T09:48:54Z</time>
      </trkpt>
      <trkpt lat="46.64378" lon="5.904">
        <ele>761.78</ele>
        <time>2024-06-09T09:48:55Z</time>
      </trkpt>
      <trkpt lat="46.64373" lon="5.90394">
        <ele>765.16</ele>
        <time>2024-06-09T09:48:59Z</time>
      </trkpt>
      <trkpt lat="46.64359" lon="5.9039">
        <ele>766.18</ele>
        <time>2024-06-09T09:49:10Z</time>
      </trkpt>
      <trkpt lat="46.64353" lon="5.90389">
        <ele>762.2</ele>
        <time>2024-06-09T09:49:15Z</time>
      </trkpt>
      <trkpt lat="46.64352" lon="5.90388">
        <ele>762.19</ele>
        <time>2024-06-09T09:49:16Z</time>
      </trkpt>
      <trkpt lat="46.64345" lon="5.90386">
        <ele>766</ele>
        <time>2024-06-09T09:49:21Z</time>
      </trkpt>
      <trkpt lat="46.64339" lon="5.90382">
        <ele>762.7</ele>
        <time>2024-06-09T09:49:25Z</time>
      </trkpt>
      <trkpt lat="46.64338" lon="5.90381">
        <ele>762.51</ele>
        <time>2024-06-09T09:49:26Z</time>
      </trkpt>
      <trkpt lat="46.64332" lon="5.90381">
        <ele>765.23</ele>
        <time>2024-06-09T09:49:30Z</time>
      </trkpt>
      <trkpt lat="46.64325" lon="5.9038">
        <ele>763.9</ele>
        <time>2024-06-09T09:49:35Z</time>
      </trkpt>
      <trkpt lat="46.64323" lon="5.9038">
        <ele>762.22</ele>
        <time>2024-06-09T09:49:37Z</time>
      </trkpt>
      <trkpt lat="46.64316" lon="5.90381">
        <ele>766.56</ele>
        <time>2024-06-09T09:49:42Z</time>
      </trkpt>
      <trkpt lat="46.64315" lon="5.9038">
        <ele>766.31</ele>
        <time>2024-06-09T09:49:43Z</time>
      </trkpt>
      <trkpt lat="46.64311" lon="5.9038">
        <ele>764.34</ele>
        <time>2024-06-09T09:49:46Z</time>
      </trkpt>
      <trkpt lat="46.64308" lon="5.90381">
        <ele>767.29</ele>
        <time>2024-06-09T09:49:49Z</time>
      </trkpt>
      <trkpt lat="46.64298" lon="5.90384">
        <ele>765.39</ele>
        <time>2024-06-09T09:49:58Z</time>
      </trkpt>
      <trkpt lat="46.64292" lon="5.90389">
        <ele>766.54</ele>
        <time>2024-06-09T09:50:03Z</time>
      </trkpt>
      <trkpt lat="46.64284" lon="5.90397">
        <ele>765.92</ele>
        <time>2024-06-09T09:50:10Z</time>
      </trkpt>
      <trkpt lat="46.64279" lon="5.90403">
        <ele>768.79</ele>
        <time>2024-06-09T09:50:15Z</time>
      </trkpt>
      <trkpt lat="46.64273" lon="5.90408">
        <ele>770.77</ele>
        <time>2024-06-09T09:50:20Z</time>
      </trkpt>
      <trkpt lat="46.64259" lon="5.9042">
        <ele>771.68</ele>
        <time>2024-06-09T09:50:32Z</time>
      </trkpt>
      <trkpt lat="46.64258" lon="5.9042">
        <ele>771.4</ele>
        <time>2024-06-09T09:50:33Z</time>
      </trkpt>
      <trkpt lat="46.64255" lon="5.90419">
        <ele>768.99</ele>
        <time>2024-06-09T09:50:36Z</time>
      </trkpt>
      <trkpt lat="46.6425" lon="5.90418">
        <ele>770.7</ele>
        <time>2024-06-09T09:50:41Z</time>
      </trkpt>
      <trkpt lat="46.64248" lon="5.90416">
        <ele>767.64</ele>
        <time>2024-06-09T09:50:43Z</time>
      </trkpt>
      <trkpt lat="46.64244" lon="5.90409">
        <ele>771.31</ele>
        <time>2024-06-09T09:50:48Z</time>
      </trkpt>
      <trkpt lat="46.64243" lon="5.90408">
        <ele>767.97</ele>
        <time>2024-06-09T09:50:49Z</time>
      </trkpt>
      <trkpt lat="46.64243" lon="5.90407">
        <ele>770.99</ele>
        <time>2024-06-09T09:50:50Z</time>
      </trkpt>
      <trkpt lat="46.64234" lon="5.90383">
        <ele>774.47</ele>
        <time>2024-06-09T09:51:04Z</time>
      </trkpt>
      <trkpt lat="46.64232" lon="5.90367">
        <ele>776.41</ele>
        <time>2024-06-09T09:51:12Z</time>
      </trkpt>
      <trkpt lat="46.64232" lon="5.90364">
        <ele>774.01</ele>
        <time>2024-06-09T09:51:14Z</time>
      </trkpt>
      <trkpt lat="46.64229" lon="5.90354">
        <ele>776.44</ele>
        <time>2024-06-09T09:51:20Z</time>
      </trkpt>
      <trkpt lat="46.64219" lon="5.90342">
        <ele>778.54</ele>
        <time>2024-06-09T09:51:31Z</time>
      </trkpt>
      <trkpt lat="46.64212" lon="5.90339">
        <ele>774.96</ele>
        <time>2024-06-09T09:51:36Z</time>
      </trkpt>
      <trkpt lat="46.64211" lon="5.90338">
        <ele>774.95</ele>
        <time>2024-06-09T09:51:37Z</time>
      </trkpt>
      <trkpt lat="46.64209" lon="5.90336">
        <ele>773.38</ele>
        <time>2024-06-09T09:51:39Z</time>
      </trkpt>
      <trkpt lat="46.64192" lon="5.9032">
        <ele>775.44</ele>
        <time>2024-06-09T09:51:55Z</time>
      </trkpt>
      <trkpt lat="46.6418" lon="5.90316">
        <ele>777.4</ele>
        <time>2024-06-09T09:52:04Z</time>
      </trkpt>
      <trkpt lat="46.64167" lon="5.90309">
        <ele>780.66</ele>
        <time>2024-06-09T09:52:15Z</time>
      </trkpt>
      <trkpt lat="46.64166" lon="5.90309">
        <ele>780.62</ele>
        <time>2024-06-09T09:52:16Z</time>
      </trkpt>
      <trkpt lat="46.64159" lon="5.90304">
        <ele>777.44</ele>
        <time>2024-06-09T09:52:23Z</time>
      </trkpt>
      <trkpt lat="46.64158" lon="5.90304">
        <ele>779.77</ele>
        <time>2024-06-09T09:52:24Z</time>
      </trkpt>
      <trkpt lat="46.64155" lon="5.90302">
        <ele>782.19</ele>
        <time>2024-06-09T09:52:29Z</time>
      </trkpt>
      <trkpt lat="46.64153" lon="5.903">
        <ele>778.98</ele>
        <time>2024-06-09T09:52:31Z</time>
      </trkpt>
      <trkpt lat="46.64152" lon="5.90299">
        <ele>778.98</ele>
        <time>2024-06-09T09:52:32Z</time>
      </trkpt>
      <trkpt lat="46.6415" lon="5.90297">
        <ele>782.72</ele>
        <time>2024-06-09T09:52:35Z</time>
      </trkpt>
      <trkpt lat="46.64149" lon="5.90296">
        <ele>782.69</ele>
        <time>2024-06-09T09:52:36Z</time>
      </trkpt>
      <trkpt lat="46.64147" lon="5.90294">
        <ele>783.99</ele>
        <time>2024-06-09T09:52:38Z</time>
      </trkpt>
      <trkpt lat="46.6414" lon="5.90286">
        <ele>785.25</ele>
        <time>2024-06-09T09:52:48Z</time>
      </trkpt>
      <trkpt lat="46.64135" lon="5.90281">
        <ele>788.8</ele>
        <time>2024-06-09T09:52:55Z</time>
      </trkpt>
      <trkpt lat="46.64134" lon="5.9028">
        <ele>788.64</ele>
        <time>2024-06-09T09:52:56Z</time>
      </trkpt>
      <trkpt lat="46.64133" lon="5.90279">
        <ele>785.44</ele>
        <time>2024-06-09T09:52:58Z</time>
      </trkpt>
      <trkpt lat="46.6413" lon="5.90274">
        <ele>789.4</ele>
        <time>2024-06-09T09:53:04Z</time>
      </trkpt>
      <trkpt lat="46.64126" lon="5.9027">
        <ele>785.09</ele>
        <time>2024-06-09T09:53:09Z</time>
      </trkpt>
      <trkpt lat="46.64125" lon="5.90269">
        <ele>788.89</ele>
        <time>2024-06-09T09:53:10Z</time>
      </trkpt>
      <trkpt lat="46.6412" lon="5.90262">
        <ele>791.19</ele>
        <time>2024-06-09T09:53:17Z</time>
      </trkpt>
      <trkpt lat="46.64118" lon="5.90261">
        <ele>792.61</ele>
        <time>2024-06-09T09:53:19Z</time>
      </trkpt>
      <trkpt lat="46.64117" lon="5.90258">
        <ele>789.17</ele>
        <time>2024-06-09T09:53:21Z</time>
      </trkpt>
      <trkpt lat="46.64116" lon="5.90257">
        <ele>789.22</ele>
        <time>2024-06-09T09:53:22Z</time>
      </trkpt>
      <trkpt lat="46.64111" lon="5.90249">
        <ele>794.18</ele>
        <time>2024-06-09T09:53:29Z</time>
      </trkpt>
      <trkpt lat="46.64111" lon="5.90249">
        <ele>794.03</ele>
        <time>2024-06-09T09:53:30Z</time>
      </trkpt>
      <trkpt lat="46.64108" lon="5.90243">
        <ele>791.73</ele>
        <time>2024-06-09T09:53:35Z</time>
      </trkpt>
      <trkpt lat="46.64105" lon="5.90238">
        <ele>794.47</ele>
        <time>2024-06-09T09:53:39Z</time>
      </trkpt>
      <trkpt lat="46.64101" lon="5.90231">
        <ele>797.25</ele>
        <time>2024-06-09T09:53:45Z</time>
      </trkpt>
      <trkpt lat="46.641" lon="5.90229">
        <ele>793.97</ele>
        <time>2024-06-09T09:53:47Z</time>
      </trkpt>
      <trkpt lat="46.64099" lon="5.90228">
        <ele>793.95</ele>
        <time>2024-06-09T09:53:48Z</time>
      </trkpt>
      <trkpt lat="46.64095" lon="5.90224">
        <ele>798.61</ele>
        <time>2024-06-09T09:53:53Z</time>
      </trkpt>
      <trkpt lat="46.64094" lon="5.90224">
        <ele>798.28</ele>
        <time>2024-06-09T09:53:54Z</time>
      </trkpt>
      <trkpt lat="46.64091" lon="5.90221">
        <ele>794.74</ele>
        <time>2024-06-09T09:53:57Z</time>
      </trkpt>
      <trkpt lat="46.64091" lon="5.9022">
        <ele>797.75</ele>
        <time>2024-06-09T09:53:58Z</time>
      </trkpt>
      <trkpt lat="46.64088" lon="5.90218">
        <ele>799.18</ele>
        <time>2024-06-09T09:54:01Z</time>
      </trkpt>
      <trkpt lat="46.64079" lon="5.90208">
        <ele>797.58</ele>
        <time>2024-06-09T09:54:11Z</time>
      </trkpt>
      <trkpt lat="46.64076" lon="5.90204">
        <ele>799.71</ele>
        <time>2024-06-09T09:54:14Z</time>
      </trkpt>
      <trkpt lat="46.64072" lon="5.90198">
        <ele>803.34</ele>
        <time>2024-06-09T09:54:18Z</time>
      </trkpt>
      <trkpt lat="46.64071" lon="5.90196">
        <ele>803.24</ele>
        <time>2024-06-09T09:54:19Z</time>
      </trkpt>
      <trkpt lat="46.64067" lon="5.90182">
        <ele>799.59</ele>
        <time>2024-06-09T09:54:27Z</time>
      </trkpt>
      <trkpt lat="46.64067" lon="5.9018">
        <ele>802.72</ele>
        <time>2024-06-09T09:54:28Z</time>
      </trkpt>
      <trkpt lat="46.64067" lon="5.90174">
        <ele>798.96</ele>
        <time>2024-06-09T09:54:32Z</time>
      </trkpt>
      <trkpt lat="46.64066" lon="5.90172">
        <ele>802.64</ele>
        <time>2024-06-09T09:54:33Z</time>
      </trkpt>
      <trkpt lat="46.64064" lon="5.90155">
        <ele>804.02</ele>
        <time>2024-06-09T09:54:43Z</time>
      </trkpt>
      <trkpt lat="46.64063" lon="5.9013">
        <ele>807.2</ele>
        <time>2024-06-09T09:54:56Z</time>
      </trkpt>
      <trkpt lat="46.64063" lon="5.90128">
        <ele>803.56</ele>
        <time>2024-06-09T09:54:57Z</time>
      </trkpt>
      <trkpt lat="46.64063" lon="5.90125">
        <ele>803.4</ele>
        <time>2024-06-09T09:54:58Z</time>
      </trkpt>
      <trkpt lat="46.64063" lon="5.90121">
        <ele>801.72</ele>
        <time>2024-06-09T09:55:00Z</time>
      </trkpt>
      <trkpt lat="46.64061" lon="5.90098">
        <ele>800.23</ele>
        <time>2024-06-09T09:55:11Z</time>
      </trkpt>
      <trkpt lat="46.64058" lon="5.9008">
        <ele>802.9</ele>
        <time>2024-06-09T09:55:20Z</time>
      </trkpt>
      <trkpt lat="46.64057" lon="5.90075">
        <ele>796.24</ele>
        <time>2024-06-09T09:55:23Z</time>
      </trkpt>
      <trkpt lat="46.64057" lon="5.90073">
        <ele>796.4</ele>
        <time>2024-06-09T09:55:24Z</time>
      </trkpt>
      <trkpt lat="46.64056" lon="5.90071">
        <ele>799.76</ele>
        <time>2024-06-09T09:55:25Z</time>
      </trkpt>
      <trkpt lat="46.64056" lon="5.90069">
        <ele>795.46</ele>
        <time>2024-06-09T09:55:26Z</time>
      </trkpt>
      <trkpt lat="46.64055" lon="5.90067">
        <ele>798.47</ele>
        <time>2024-06-09T09:55:27Z</time>
      </trkpt>
      <trkpt lat="46.64052" lon="5.90051">
        <ele>792.68</ele>
        <time>2024-06-09T09:55:35Z</time>
      </trkpt>
      <trkpt lat="46.64052" lon="5.90049">
        <ele>795.69</ele>
        <time>2024-06-09T09:55:36Z</time>
      </trkpt>
      <trkpt lat="46.64049" lon="5.90033">
        <ele>798.32</ele>
        <time>2024-06-09T09:55:43Z</time>
      </trkpt>
      <trkpt lat="46.64048" lon="5.90029">
        <ele>794.85</ele>
        <time>2024-06-09T09:55:45Z</time>
      </trkpt>
      <trkpt lat="46.64047" lon="5.90027">
        <ele>794.64</ele>
        <time>2024-06-09T09:55:46Z</time>
      </trkpt>
      <trkpt lat="46.64042" lon="5.90018">
        <ele>796.24</ele>
        <time>2024-06-09T09:55:51Z</time>
      </trkpt>
      <trkpt lat="46.64038" lon="5.90011">
        <ele>797.91</ele>
        <time>2024-06-09T09:55:55Z</time>
      </trkpt>
      <trkpt lat="46.64034" lon="5.90002">
        <ele>796.08</ele>
        <time>2024-06-09T09:56:00Z</time>
      </trkpt>
      <trkpt lat="46.64028" lon="5.89994">
        <ele>797.94</ele>
        <time>2024-06-09T09:56:05Z</time>
      </trkpt>
      <trkpt lat="46.64015" lon="5.89973">
        <ele>796.83</ele>
        <time>2024-06-09T09:56:18Z</time>
      </trkpt>
      <trkpt lat="46.64014" lon="5.89971">
        <ele>792.7</ele>
        <time>2024-06-09T09:56:19Z</time>
      </trkpt>
      <trkpt lat="46.64014" lon="5.89969">
        <ele>798.93</ele>
        <time>2024-06-09T09:56:20Z</time>
      </trkpt>
      <trkpt lat="46.64012" lon="5.89966">
        <ele>800.76</ele>
        <time>2024-06-09T09:56:22Z</time>
      </trkpt>
      <trkpt lat="46.64008" lon="5.89961">
        <ele>798.47</ele>
        <time>2024-06-09T09:56:26Z</time>
      </trkpt>
      <trkpt lat="46.64004" lon="5.89955">
        <ele>802.01</ele>
        <time>2024-06-09T09:56:30Z</time>
      </trkpt>
      <trkpt lat="46.64003" lon="5.89953">
        <ele>801.93</ele>
        <time>2024-06-09T09:56:31Z</time>
      </trkpt>
      <trkpt lat="46.63996" lon="5.89946">
        <ele>798.32</ele>
        <time>2024-06-09T09:56:37Z</time>
      </trkpt>
      <trkpt lat="46.63995" lon="5.89944">
        <ele>798.38</ele>
        <time>2024-06-09T09:56:38Z</time>
      </trkpt>
      <trkpt lat="46.63988" lon="5.89938">
        <ele>801.52</ele>
        <time>2024-06-09T09:56:44Z</time>
      </trkpt>
      <trkpt lat="46.63987" lon="5.89936">
        <ele>801.36</ele>
        <time>2024-06-09T09:56:45Z</time>
      </trkpt>
      <trkpt lat="46.63975" lon="5.89924">
        <ele>803.65</ele>
        <time>2024-06-09T09:56:55Z</time>
      </trkpt>
      <trkpt lat="46.63971" lon="5.89919">
        <ele>799.85</ele>
        <time>2024-06-09T09:56:59Z</time>
      </trkpt>
      <trkpt lat="46.6397" lon="5.89917">
        <ele>800.26</ele>
        <time>2024-06-09T09:57:00Z</time>
      </trkpt>
      <trkpt lat="46.63962" lon="5.89906">
        <ele>802.95</ele>
        <time>2024-06-09T09:57:08Z</time>
      </trkpt>
      <trkpt lat="46.63958" lon="5.899">
        <ele>800.82</ele>
        <time>2024-06-09T09:57:12Z</time>
      </trkpt>
      <trkpt lat="46.63955" lon="5.89896">
        <ele>802.95</ele>
        <time>2024-06-09T09:57:15Z</time>
      </trkpt>
      <trkpt lat="46.63944" lon="5.89881">
        <ele>801.56</ele>
        <time>2024-06-09T09:57:26Z</time>
      </trkpt>
      <trkpt lat="46.63938" lon="5.89872">
        <ele>802.99</ele>
        <time>2024-06-09T09:57:33Z</time>
      </trkpt>
      <trkpt lat="46.63934" lon="5.89868">
        <ele>806.02</ele>
        <time>2024-06-09T09:57:36Z</time>
      </trkpt>
      <trkpt lat="46.63933" lon="5.89867">
        <ele>802.38</ele>
        <time>2024-06-09T09:57:37Z</time>
      </trkpt>
      <trkpt lat="46.63926" lon="5.89861">
        <ele>805.81</ele>
        <time>2024-06-09T09:57:43Z</time>
      </trkpt>
      <trkpt lat="46.63924" lon="5.89861">
        <ele>805.9</ele>
        <time>2024-06-09T09:57:44Z</time>
      </trkpt>
      <trkpt lat="46.63917" lon="5.89858">
        <ele>805.35</ele>
        <time>2024-06-09T09:57:49Z</time>
      </trkpt>
      <trkpt lat="46.63914" lon="5.89858">
        <ele>802.58</ele>
        <time>2024-06-09T09:57:51Z</time>
      </trkpt>
      <trkpt lat="46.63912" lon="5.89858">
        <ele>805.9</ele>
        <time>2024-06-09T09:57:53Z</time>
      </trkpt>
      <trkpt lat="46.63901" lon="5.89852">
        <ele>807.18</ele>
        <time>2024-06-09T09:58:00Z</time>
      </trkpt>
      <trkpt lat="46.639" lon="5.89851">
        <ele>803.03</ele>
        <time>2024-06-09T09:58:01Z</time>
      </trkpt>
      <trkpt lat="46.63897" lon="5.8985">
        <ele>801.39</ele>
        <time>2024-06-09T09:58:03Z</time>
      </trkpt>
      <trkpt lat="46.63891" lon="5.89846">
        <ele>805.28</ele>
        <time>2024-06-09T09:58:07Z</time>
      </trkpt>
      <trkpt lat="46.6389" lon="5.89846">
        <ele>805.1</ele>
        <time>2024-06-09T09:58:08Z</time>
      </trkpt>
      <trkpt lat="46.63882" lon="5.89841">
        <ele>801.39</ele>
        <time>2024-06-09T09:58:14Z</time>
      </trkpt>
      <trkpt lat="46.63881" lon="5.8984">
        <ele>801.61</ele>
        <time>2024-06-09T09:58:15Z</time>
      </trkpt>
      <trkpt lat="46.63873" lon="5.89835">
        <ele>804.15</ele>
        <time>2024-06-09T09:58:21Z</time>
      </trkpt>
      <trkpt lat="46.63863" lon="5.89834">
        <ele>807.52</ele>
        <time>2024-06-09T09:58:28Z</time>
      </trkpt>
      <trkpt lat="46.63862" lon="5.89834">
        <ele>807.39</ele>
        <time>2024-06-09T09:58:29Z</time>
      </trkpt>
      <trkpt lat="46.63859" lon="5.89834">
        <ele>804.36</ele>
        <time>2024-06-09T09:58:31Z</time>
      </trkpt>
      <trkpt lat="46.63857" lon="5.89834">
        <ele>804.54</ele>
        <time>2024-06-09T09:58:32Z</time>
      </trkpt>
      <trkpt lat="46.6384" lon="5.89831">
        <ele>807.68</ele>
        <time>2024-06-09T09:58:44Z</time>
      </trkpt>
      <trkpt lat="46.63835" lon="5.8983">
        <ele>803.63</ele>
        <time>2024-06-09T09:58:47Z</time>
      </trkpt>
      <trkpt lat="46.63832" lon="5.8983">
        <ele>801.94</ele>
        <time>2024-06-09T09:58:49Z</time>
      </trkpt>
      <trkpt lat="46.63827" lon="5.89829">
        <ele>804.47</ele>
        <time>2024-06-09T09:58:52Z</time>
      </trkpt>
      <trkpt lat="46.63824" lon="5.89828">
        <ele>806.07</ele>
        <time>2024-06-09T09:58:54Z</time>
      </trkpt>
      <trkpt lat="46.63818" lon="5.89826">
        <ele>801.2</ele>
        <time>2024-06-09T09:58:58Z</time>
      </trkpt>
      <trkpt lat="46.63813" lon="5.89824">
        <ele>804.43</ele>
        <time>2024-06-09T09:59:01Z</time>
      </trkpt>
      <trkpt lat="46.63812" lon="5.89824">
        <ele>804.26</ele>
        <time>2024-06-09T09:59:02Z</time>
      </trkpt>
      <trkpt lat="46.63804" lon="5.89822">
        <ele>805.6</ele>
        <time>2024-06-09T09:59:07Z</time>
      </trkpt>
      <trkpt lat="46.63801" lon="5.89821">
        <ele>801.24</ele>
        <time>2024-06-09T09:59:09Z</time>
      </trkpt>
      <trkpt lat="46.63799" lon="5.8982">
        <ele>801.28</ele>
        <time>2024-06-09T09:59:10Z</time>
      </trkpt>
      <trkpt lat="46.63796" lon="5.8982">
        <ele>799.71</ele>
        <time>2024-06-09T09:59:12Z</time>
      </trkpt>
      <trkpt lat="46.63787" lon="5.89819">
        <ele>802.98</ele>
        <time>2024-06-09T09:59:18Z</time>
      </trkpt>
      <trkpt lat="46.63784" lon="5.89819">
        <ele>804.38</ele>
        <time>2024-06-09T09:59:20Z</time>
      </trkpt>
      <trkpt lat="46.63781" lon="5.89818">
        <ele>801.06</ele>
        <time>2024-06-09T09:59:22Z</time>
      </trkpt>
      <trkpt lat="46.63779" lon="5.89818">
        <ele>801.12</ele>
        <time>2024-06-09T09:59:23Z</time>
      </trkpt>
      <trkpt lat="46.63777" lon="5.89816">
        <ele>799.74</ele>
        <time>2024-06-09T09:59:25Z</time>
      </trkpt>
      <trkpt lat="46.63771" lon="5.89812">
        <ele>802.2</ele>
        <time>2024-06-09T09:59:30Z</time>
      </trkpt>
      <trkpt lat="46.63762" lon="5.89802">
        <ele>804.48</ele>
        <time>2024-06-09T09:59:37Z</time>
      </trkpt>
      <trkpt lat="46.6376" lon="5.89799">
        <ele>799.42</ele>
        <time>2024-06-09T09:59:39Z</time>
      </trkpt>
      <trkpt lat="46.63759" lon="5.89797">
        <ele>799.51</ele>
        <time>2024-06-09T09:59:40Z</time>
      </trkpt>
      <trkpt lat="46.63754" lon="5.89792">
        <ele>802.16</ele>
        <time>2024-06-09T09:59:44Z</time>
      </trkpt>
      <trkpt lat="46.63747" lon="5.89785">
        <ele>800.44</ele>
        <time>2024-06-09T09:59:50Z</time>
      </trkpt>
      <trkpt lat="46.63743" lon="5.89779">
        <ele>798.9</ele>
        <time>2024-06-09T09:59:53Z</time>
      </trkpt>
      <trkpt lat="46.63738" lon="5.89773">
        <ele>802.83</ele>
        <time>2024-06-09T09:59:56Z</time>
      </trkpt>
      <trkpt lat="46.63737" lon="5.89771">
        <ele>802.82</ele>
        <time>2024-06-09T09:59:57Z</time>
      </trkpt>
      <trkpt lat="46.63732" lon="5.89766">
        <ele>800.51</ele>
        <time>2024-06-09T10:00:01Z</time>
      </trkpt>
      <trkpt lat="46.63722" lon="5.89752">
        <ele>802.97</ele>
        <time>2024-06-09T10:00:11Z</time>
      </trkpt>
      <trkpt lat="46.63719" lon="5.89748">
        <ele>805.4</ele>
        <time>2024-06-09T10:00:13Z</time>
      </trkpt>
      <trkpt lat="46.63716" lon="5.89743">
        <ele>802.67</ele>
        <time>2024-06-09T10:00:16Z</time>
      </trkpt>
      <trkpt lat="46.63713" lon="5.89739">
        <ele>800.83</ele>
        <time>2024-06-09T10:00:19Z</time>
      </trkpt>
      <trkpt lat="46.63708" lon="5.89735">
        <ele>804.02</ele>
        <time>2024-06-09T10:00:23Z</time>
      </trkpt>
      <trkpt lat="46.63707" lon="5.89734">
        <ele>803.96</ele>
        <time>2024-06-09T10:00:24Z</time>
      </trkpt>
      <trkpt lat="46.63706" lon="5.89734">
        <ele>800.02</ele>
        <time>2024-06-09T10:00:25Z</time>
      </trkpt>
      <trkpt lat="46.63705" lon="5.89734">
        <ele>799.97</ele>
        <time>2024-06-09T10:00:26Z</time>
      </trkpt>
      <trkpt lat="46.63703" lon="5.89734">
        <ele>801.84</ele>
        <time>2024-06-09T10:00:29Z</time>
      </trkpt>
      <trkpt lat="46.63703" lon="5.89734">
        <ele>798.24</ele>
        <time>2024-06-09T10:00:30Z</time>
      </trkpt>
      <trkpt lat="46.63702" lon="5.89734">
        <ele>800.55</ele>
        <time>2024-06-09T10:00:31Z</time>
      </trkpt>
      <trkpt lat="46.637" lon="5.89735">
        <ele>800.6</ele>
        <time>2024-06-09T10:00:32Z</time>
      </trkpt>
      <trkpt lat="46.63699" lon="5.89735">
        <ele>800.56</ele>
        <time>2024-06-09T10:00:33Z</time>
      </trkpt>
      <trkpt lat="46.63687" lon="5.89732">
        <ele>797.54</ele>
        <time>2024-06-09T10:00:42Z</time>
      </trkpt>
      <trkpt lat="46.63685" lon="5.89731">
        <ele>801.12</ele>
        <time>2024-06-09T10:00:43Z</time>
      </trkpt>
      <trkpt lat="46.63669" lon="5.8972">
        <ele>800.25</ele>
        <time>2024-06-09T10:00:54Z</time>
      </trkpt>
      <trkpt lat="46.63642" lon="5.89703">
        <ele>799.02</ele>
        <time>2024-06-09T10:01:13Z</time>
      </trkpt>
      <trkpt lat="46.63636" lon="5.89701">
        <ele>802.31</ele>
        <time>2024-06-09T10:01:17Z</time>
      </trkpt>
      <trkpt lat="46.63635" lon="5.89701">
        <ele>802.3</ele>
        <time>2024-06-09T10:01:18Z</time>
      </trkpt>
      <trkpt lat="46.63628" lon="5.89701">
        <ele>798.91</ele>
        <time>2024-06-09T10:01:22Z</time>
      </trkpt>
      <trkpt lat="46.63626" lon="5.89701">
        <ele>798.91</ele>
        <time>2024-06-09T10:01:23Z</time>
      </trkpt>
      <trkpt lat="46.63623" lon="5.89701">
        <ele>802.71</ele>
        <time>2024-06-09T10:01:25Z</time>
      </trkpt>
      <trkpt lat="46.63622" lon="5.89702">
        <ele>802.74</ele>
        <time>2024-06-09T10:01:26Z</time>
      </trkpt>
      <trkpt lat="46.6362" lon="5.89702">
        <ele>802.59</ele>
        <time>2024-06-09T10:01:27Z</time>
      </trkpt>
      <trkpt lat="46.63619" lon="5.89701">
        <ele>796.92</ele>
        <time>2024-06-09T10:01:28Z</time>
      </trkpt>
      <trkpt lat="46.63618" lon="5.89701">
        <ele>796.97</ele>
        <time>2024-06-09T10:01:29Z</time>
      </trkpt>
      <trkpt lat="46.63616" lon="5.89701">
        <ele>796.9</ele>
        <time>2024-06-09T10:01:30Z</time>
      </trkpt>
      <trkpt lat="46.63615" lon="5.897">
        <ele>796.83</ele>
        <time>2024-06-09T10:01:31Z</time>
      </trkpt>
      <trkpt lat="46.63612" lon="5.897">
        <ele>802.66</ele>
        <time>2024-06-09T10:01:33Z</time>
      </trkpt>
      <trkpt lat="46.63611" lon="5.89699">
        <ele>802.59</ele>
        <time>2024-06-09T10:01:34Z</time>
      </trkpt>
      <trkpt lat="46.63609" lon="5.89699">
        <ele>798.85</ele>
        <time>2024-06-09T10:01:35Z</time>
      </trkpt>
      <trkpt lat="46.63596" lon="5.89699">
        <ele>795.79</ele>
        <time>2024-06-09T10:01:43Z</time>
      </trkpt>
      <trkpt lat="46.63594" lon="5.89698">
        <ele>795.77</ele>
        <time>2024-06-09T10:01:44Z</time>
      </trkpt>
      <trkpt lat="46.63587" lon="5.89698">
        <ele>799.03</ele>
        <time>2024-06-09T10:01:48Z</time>
      </trkpt>
      <trkpt lat="46.63586" lon="5.89698">
        <ele>799.2</ele>
        <time>2024-06-09T10:01:49Z</time>
      </trkpt>
      <trkpt lat="46.63581" lon="5.89698">
        <ele>795.61</ele>
        <time>2024-06-09T10:01:52Z</time>
      </trkpt>
      <trkpt lat="46.63579" lon="5.89697">
        <ele>795.8</ele>
        <time>2024-06-09T10:01:53Z</time>
      </trkpt>
      <trkpt lat="46.6357" lon="5.89697">
        <ele>798.7</ele>
        <time>2024-06-09T10:01:58Z</time>
      </trkpt>
      <trkpt lat="46.63564" lon="5.89697">
        <ele>795.34</ele>
        <time>2024-06-09T10:02:01Z</time>
      </trkpt>
      <trkpt lat="46.63563" lon="5.89698">
        <ele>795.35</ele>
        <time>2024-06-09T10:02:02Z</time>
      </trkpt>
      <trkpt lat="46.63552" lon="5.89698">
        <ele>798.1</ele>
        <time>2024-06-09T10:02:08Z</time>
      </trkpt>
      <trkpt lat="46.63549" lon="5.89699">
        <ele>794.84</ele>
        <time>2024-06-09T10:02:10Z</time>
      </trkpt>
      <trkpt lat="46.63546" lon="5.89699">
        <ele>793.14</ele>
        <time>2024-06-09T10:02:12Z</time>
      </trkpt>
      <trkpt lat="46.63516" lon="5.89701">
        <ele>794.81</ele>
        <time>2024-06-09T10:02:31Z</time>
      </trkpt>
      <trkpt lat="46.63515" lon="5.89701">
        <ele>794.81</ele>
        <time>2024-06-09T10:02:32Z</time>
      </trkpt>
      <trkpt lat="46.6351" lon="5.89703">
        <ele>791.64</ele>
        <time>2024-06-09T10:02:35Z</time>
      </trkpt>
      <trkpt lat="46.63502" lon="5.89705">
        <ele>789.97</ele>
        <time>2024-06-09T10:02:40Z</time>
      </trkpt>
      <trkpt lat="46.63498" lon="5.89707">
        <ele>793.2</ele>
        <time>2024-06-09T10:02:43Z</time>
      </trkpt>
      <trkpt lat="46.63496" lon="5.89708">
        <ele>793.12</ele>
        <time>2024-06-09T10:02:44Z</time>
      </trkpt>
      <trkpt lat="46.63491" lon="5.89711">
        <ele>788.58</ele>
        <time>2024-06-09T10:02:48Z</time>
      </trkpt>
      <trkpt lat="46.63489" lon="5.89711">
        <ele>788.66</ele>
        <time>2024-06-09T10:02:49Z</time>
      </trkpt>
      <trkpt lat="46.63479" lon="5.89714">
        <ele>791.73</ele>
        <time>2024-06-09T10:02:56Z</time>
      </trkpt>
      <trkpt lat="46.63477" lon="5.89714">
        <ele>791.81</ele>
        <time>2024-06-09T10:02:57Z</time>
      </trkpt>
      <trkpt lat="46.63471" lon="5.89716">
        <ele>786.5</ele>
        <time>2024-06-09T10:03:01Z</time>
      </trkpt>
      <trkpt lat="46.6347" lon="5.89716">
        <ele>786.5</ele>
        <time>2024-06-09T10:03:02Z</time>
      </trkpt>
      <trkpt lat="46.63466" lon="5.89717">
        <ele>790.2</ele>
        <time>2024-06-09T10:03:04Z</time>
      </trkpt>
      <trkpt lat="46.63465" lon="5.89717">
        <ele>790.2</ele>
        <time>2024-06-09T10:03:05Z</time>
      </trkpt>
      <trkpt lat="46.63455" lon="5.89718">
        <ele>788.04</ele>
        <time>2024-06-09T10:03:11Z</time>
      </trkpt>
      <trkpt lat="46.63452" lon="5.89717">
        <ele>785.65</ele>
        <time>2024-06-09T10:03:13Z</time>
      </trkpt>
      <trkpt lat="46.63449" lon="5.89714">
        <ele>789.69</ele>
        <time>2024-06-09T10:03:15Z</time>
      </trkpt>
      <trkpt lat="46.63448" lon="5.89712">
        <ele>789.64</ele>
        <time>2024-06-09T10:03:16Z</time>
      </trkpt>
      <trkpt lat="46.63437" lon="5.89694">
        <ele>787.6</ele>
        <time>2024-06-09T10:03:26Z</time>
      </trkpt>
      <trkpt lat="46.63428" lon="5.89678">
        <ele>790.1</ele>
        <time>2024-06-09T10:03:35Z</time>
      </trkpt>
      <trkpt lat="46.63427" lon="5.89676">
        <ele>787.04</ele>
        <time>2024-06-09T10:03:36Z</time>
      </trkpt>
      <trkpt lat="46.63426" lon="5.89675">
        <ele>787.18</ele>
        <time>2024-06-09T10:03:37Z</time>
      </trkpt>
      <trkpt lat="46.63424" lon="5.89672">
        <ele>785.55</ele>
        <time>2024-06-09T10:03:39Z</time>
      </trkpt>
      <trkpt lat="46.63422" lon="5.89668">
        <ele>788.25</ele>
        <time>2024-06-09T10:03:41Z</time>
      </trkpt>
      <trkpt lat="46.63418" lon="5.89661">
        <ele>790.23</ele>
        <time>2024-06-09T10:03:45Z</time>
      </trkpt>
      <trkpt lat="46.63416" lon="5.89657">
        <ele>786.57</ele>
        <time>2024-06-09T10:03:47Z</time>
      </trkpt>
      <trkpt lat="46.63415" lon="5.89654">
        <ele>785.18</ele>
        <time>2024-06-09T10:03:49Z</time>
      </trkpt>
      <trkpt lat="46.63413" lon="5.89651">
        <ele>788.44</ele>
        <time>2024-06-09T10:03:51Z</time>
      </trkpt>
      <trkpt lat="46.63412" lon="5.89649">
        <ele>788.48</ele>
        <time>2024-06-09T10:03:52Z</time>
      </trkpt>
      <trkpt lat="46.63407" lon="5.89637">
        <ele>785</ele>
        <time>2024-06-09T10:03:58Z</time>
      </trkpt>
      <trkpt lat="46.63407" lon="5.89635">
        <ele>785.13</ele>
        <time>2024-06-09T10:03:59Z</time>
      </trkpt>
      <trkpt lat="46.63405" lon="5.89626">
        <ele>788.16</ele>
        <time>2024-06-09T10:04:03Z</time>
      </trkpt>
      <trkpt lat="46.63404" lon="5.89622">
        <ele>788.94</ele>
        <time>2024-06-09T10:04:05Z</time>
      </trkpt>
      <trkpt lat="46.63404" lon="5.8962">
        <ele>785.17</ele>
        <time>2024-06-09T10:04:06Z</time>
      </trkpt>
      <trkpt lat="46.63404" lon="5.89618">
        <ele>785.18</ele>
        <time>2024-06-09T10:04:07Z</time>
      </trkpt>
      <trkpt lat="46.63403" lon="5.89613">
        <ele>783.95</ele>
        <time>2024-06-09T10:04:10Z</time>
      </trkpt>
      <trkpt lat="46.63401" lon="5.89606">
        <ele>788.34</ele>
        <time>2024-06-09T10:04:13Z</time>
      </trkpt>
      <trkpt lat="46.63401" lon="5.89604">
        <ele>788.19</ele>
        <time>2024-06-09T10:04:14Z</time>
      </trkpt>
      <trkpt lat="46.63401" lon="5.89602">
        <ele>783.05</ele>
        <time>2024-06-09T10:04:15Z</time>
      </trkpt>
      <trkpt lat="46.63401" lon="5.896">
        <ele>783.13</ele>
        <time>2024-06-09T10:04:16Z</time>
      </trkpt>
      <trkpt lat="46.634" lon="5.89591">
        <ele>786.2</ele>
        <time>2024-06-09T10:04:20Z</time>
      </trkpt>
      <trkpt lat="46.634" lon="5.89587">
        <ele>787.63</ele>
        <time>2024-06-09T10:04:22Z</time>
      </trkpt>
      <trkpt lat="46.634" lon="5.89584">
        <ele>780.16</ele>
        <time>2024-06-09T10:04:23Z</time>
      </trkpt>
      <trkpt lat="46.63401" lon="5.89582">
        <ele>780.26</ele>
        <time>2024-06-09T10:04:24Z</time>
      </trkpt>
      <trkpt lat="46.63401" lon="5.8958">
        <ele>785.83</ele>
        <time>2024-06-09T10:04:25Z</time>
      </trkpt>
      <trkpt lat="46.63401" lon="5.89578">
        <ele>785.83</ele>
        <time>2024-06-09T10:04:26Z</time>
      </trkpt>
      <trkpt lat="46.63401" lon="5.89564">
        <ele>781.9</ele>
        <time>2024-06-09T10:04:32Z</time>
      </trkpt>
      <trkpt lat="46.63401" lon="5.89562">
        <ele>781.98</ele>
        <time>2024-06-09T10:04:33Z</time>
      </trkpt>
      <trkpt lat="46.63402" lon="5.89555">
        <ele>784.31</ele>
        <time>2024-06-09T10:04:36Z</time>
      </trkpt>
      <trkpt lat="46.63403" lon="5.89549">
        <ele>786.19</ele>
        <time>2024-06-09T10:04:39Z</time>
      </trkpt>
      <trkpt lat="46.63403" lon="5.89544">
        <ele>781.22</ele>
        <time>2024-06-09T10:04:41Z</time>
      </trkpt>
      <trkpt lat="46.63403" lon="5.89542">
        <ele>781.38</ele>
        <time>2024-06-09T10:04:42Z</time>
      </trkpt>
      <trkpt lat="46.63404" lon="5.8953">
        <ele>783.92</ele>
        <time>2024-06-09T10:04:47Z</time>
      </trkpt>
      <trkpt lat="46.63405" lon="5.89525">
        <ele>780.55</ele>
        <time>2024-06-09T10:04:49Z</time>
      </trkpt>
      <trkpt lat="46.63405" lon="5.89522">
        <ele>780.6</ele>
        <time>2024-06-09T10:04:50Z</time>
      </trkpt>
      <trkpt lat="46.63407" lon="5.89511">
        <ele>783.75</ele>
        <time>2024-06-09T10:04:55Z</time>
      </trkpt>
      <trkpt lat="46.63408" lon="5.89509">
        <ele>783.74</ele>
        <time>2024-06-09T10:04:56Z</time>
      </trkpt>
      <trkpt lat="46.63408" lon="5.89504">
        <ele>778.88</ele>
        <time>2024-06-09T10:04:58Z</time>
      </trkpt>
      <trkpt lat="46.63409" lon="5.89502">
        <ele>778.96</ele>
        <time>2024-06-09T10:04:59Z</time>
      </trkpt>
      <trkpt lat="46.63409" lon="5.89496">
        <ele>783.58</ele>
        <time>2024-06-09T10:05:01Z</time>
      </trkpt>
      <trkpt lat="46.63409" lon="5.89494">
        <ele>781.32</ele>
        <time>2024-06-09T10:05:02Z</time>
      </trkpt>
      <trkpt lat="46.63406" lon="5.89481">
        <ele>779.17</ele>
        <time>2024-06-09T10:05:07Z</time>
      </trkpt>
      <trkpt lat="46.63402" lon="5.89467">
        <ele>781.78</ele>
        <time>2024-06-09T10:05:13Z</time>
      </trkpt>
      <trkpt lat="46.634" lon="5.89462">
        <ele>779.09</ele>
        <time>2024-06-09T10:05:15Z</time>
      </trkpt>
      <trkpt lat="46.63397" lon="5.89453">
        <ele>782.22</ele>
        <time>2024-06-09T10:05:19Z</time>
      </trkpt>
      <trkpt lat="46.63396" lon="5.89451">
        <ele>782.18</ele>
        <time>2024-06-09T10:05:20Z</time>
      </trkpt>
      <trkpt lat="46.63395" lon="5.89446">
        <ele>778.77</ele>
        <time>2024-06-09T10:05:22Z</time>
      </trkpt>
      <trkpt lat="46.63394" lon="5.89444">
        <ele>778.76</ele>
        <time>2024-06-09T10:05:23Z</time>
      </trkpt>
      <trkpt lat="46.63389" lon="5.89427">
        <ele>777.15</ele>
        <time>2024-06-09T10:05:31Z</time>
      </trkpt>
      <trkpt lat="46.63388" lon="5.89425">
        <ele>781.2</ele>
        <time>2024-06-09T10:05:32Z</time>
      </trkpt>
      <trkpt lat="46.63387" lon="5.89423">
        <ele>781.22</ele>
        <time>2024-06-09T10:05:33Z</time>
      </trkpt>
      <trkpt lat="46.63377" lon="5.89394">
        <ele>776.97</ele>
        <time>2024-06-09T10:05:47Z</time>
      </trkpt>
      <trkpt lat="46.63376" lon="5.89392">
        <ele>779.54</ele>
        <time>2024-06-09T10:05:48Z</time>
      </trkpt>
      <trkpt lat="46.63371" lon="5.89379">
        <ele>782.15</ele>
        <time>2024-06-09T10:05:54Z</time>
      </trkpt>
      <trkpt lat="46.63369" lon="5.89375">
        <ele>779.79</ele>
        <time>2024-06-09T10:05:56Z</time>
      </trkpt>
      <trkpt lat="46.63354" lon="5.89334">
        <ele>781.93</ele>
        <time>2024-06-09T10:06:16Z</time>
      </trkpt>
      <trkpt lat="46.63352" lon="5.89328">
        <ele>779.41</ele>
        <time>2024-06-09T10:06:19Z</time>
      </trkpt>
      <trkpt lat="46.63348" lon="5.89321">
        <ele>781.84</ele>
        <time>2024-06-09T10:06:23Z</time>
      </trkpt>
      <trkpt lat="46.63345" lon="5.89316">
        <ele>780.03</ele>
        <time>2024-06-09T10:06:26Z</time>
      </trkpt>
      <trkpt lat="46.6334" lon="5.89314">
        <ele>781.67</ele>
        <time>2024-06-09T10:06:29Z</time>
      </trkpt>
      <trkpt lat="46.63333" lon="5.8931">
        <ele>779.93</ele>
        <time>2024-06-09T10:06:34Z</time>
      </trkpt>
      <trkpt lat="46.63323" lon="5.89307">
        <ele>782.19</ele>
        <time>2024-06-09T10:06:41Z</time>
      </trkpt>
      <trkpt lat="46.63321" lon="5.89307">
        <ele>778.89</ele>
        <time>2024-06-09T10:06:42Z</time>
      </trkpt>
      <trkpt lat="46.6332" lon="5.89306">
        <ele>778.89</ele>
        <time>2024-06-09T10:06:43Z</time>
      </trkpt>
      <trkpt lat="46.63314" lon="5.89303">
        <ele>782.83</ele>
        <time>2024-06-09T10:06:47Z</time>
      </trkpt>
      <trkpt lat="46.63312" lon="5.89303">
        <ele>782.76</ele>
        <time>2024-06-09T10:06:48Z</time>
      </trkpt>
      <trkpt lat="46.63309" lon="5.89301">
        <ele>778.26</ele>
        <time>2024-06-09T10:06:50Z</time>
      </trkpt>
      <trkpt lat="46.63308" lon="5.893">
        <ele>780.61</ele>
        <time>2024-06-09T10:06:51Z</time>
      </trkpt>
      <trkpt lat="46.633" lon="5.89295">
        <ele>783.31</ele>
        <time>2024-06-09T10:06:56Z</time>
      </trkpt>
      <trkpt lat="46.63296" lon="5.89291">
        <ele>780.64</ele>
        <time>2024-06-09T10:06:59Z</time>
      </trkpt>
      <trkpt lat="46.63292" lon="5.89287">
        <ele>782.67</ele>
        <time>2024-06-09T10:07:02Z</time>
      </trkpt>
      <trkpt lat="46.63283" lon="5.89275">
        <ele>779.77</ele>
        <time>2024-06-09T10:07:10Z</time>
      </trkpt>
      <trkpt lat="46.6328" lon="5.8927">
        <ele>782.51</ele>
        <time>2024-06-09T10:07:13Z</time>
      </trkpt>
      <trkpt lat="46.63276" lon="5.89265">
        <ele>784.03</ele>
        <time>2024-06-09T10:07:16Z</time>
      </trkpt>
      <trkpt lat="46.63273" lon="5.89259">
        <ele>780.16</ele>
        <time>2024-06-09T10:07:19Z</time>
      </trkpt>
      <trkpt lat="46.63272" lon="5.89258">
        <ele>780.16</ele>
        <time>2024-06-09T10:07:20Z</time>
      </trkpt>
      <trkpt lat="46.63269" lon="5.89254">
        <ele>783.81</ele>
        <time>2024-06-09T10:07:22Z</time>
      </trkpt>
      <trkpt lat="46.63268" lon="5.89252">
        <ele>783.81</ele>
        <time>2024-06-09T10:07:23Z</time>
      </trkpt>
      <trkpt lat="46.63265" lon="5.89246">
        <ele>781.38</ele>
        <time>2024-06-09T10:07:26Z</time>
      </trkpt>
      <trkpt lat="46.63261" lon="5.89235">
        <ele>784</ele>
        <time>2024-06-09T10:07:31Z</time>
      </trkpt>
      <trkpt lat="46.63259" lon="5.89229">
        <ele>781.54</ele>
        <time>2024-06-09T10:07:34Z</time>
      </trkpt>
      <trkpt lat="46.63254" lon="5.8921">
        <ele>781.24</ele>
        <time>2024-06-09T10:07:42Z</time>
      </trkpt>
      <trkpt lat="46.63253" lon="5.89201">
        <ele>784.34</ele>
        <time>2024-06-09T10:07:46Z</time>
      </trkpt>
      <trkpt lat="46.63253" lon="5.89199">
        <ele>784.32</ele>
        <time>2024-06-09T10:07:47Z</time>
      </trkpt>
      <trkpt lat="46.63252" lon="5.89192">
        <ele>781.94</ele>
        <time>2024-06-09T10:07:50Z</time>
      </trkpt>
      <trkpt lat="46.6325" lon="5.89178">
        <ele>784.88</ele>
        <time>2024-06-09T10:07:56Z</time>
      </trkpt>
      <trkpt lat="46.63248" lon="5.89174">
        <ele>781.94</ele>
        <time>2024-06-09T10:07:58Z</time>
      </trkpt>
      <trkpt lat="46.63241" lon="5.89168">
        <ele>785.07</ele>
        <time>2024-06-09T10:08:03Z</time>
      </trkpt>
      <trkpt lat="46.63239" lon="5.89167">
        <ele>785.04</ele>
        <time>2024-06-09T10:08:04Z</time>
      </trkpt>
      <trkpt lat="46.63236" lon="5.89165">
        <ele>780.98</ele>
        <time>2024-06-09T10:08:06Z</time>
      </trkpt>
      <trkpt lat="46.63232" lon="5.89162">
        <ele>784.27</ele>
        <time>2024-06-09T10:08:09Z</time>
      </trkpt>
      <trkpt lat="46.63228" lon="5.89159">
        <ele>780.73</ele>
        <time>2024-06-09T10:08:12Z</time>
      </trkpt>
      <trkpt lat="46.63226" lon="5.89158">
        <ele>780.91</ele>
        <time>2024-06-09T10:08:13Z</time>
      </trkpt>
      <trkpt lat="46.63222" lon="5.89155">
        <ele>783.22</ele>
        <time>2024-06-09T10:08:16Z</time>
      </trkpt>
      <trkpt lat="46.63219" lon="5.89152">
        <ele>784.73</ele>
        <time>2024-06-09T10:08:18Z</time>
      </trkpt>
      <trkpt lat="46.63217" lon="5.89151">
        <ele>780.37</ele>
        <time>2024-06-09T10:08:19Z</time>
      </trkpt>
      <trkpt lat="46.63216" lon="5.8915">
        <ele>780.46</ele>
        <time>2024-06-09T10:08:20Z</time>
      </trkpt>
      <trkpt lat="46.63213" lon="5.89147">
        <ele>783.12</ele>
        <time>2024-06-09T10:08:22Z</time>
      </trkpt>
      <trkpt lat="46.63209" lon="5.89144">
        <ele>784.5</ele>
        <time>2024-06-09T10:08:25Z</time>
      </trkpt>
      <trkpt lat="46.63196" lon="5.89128">
        <ele>781.7</ele>
        <time>2024-06-09T10:08:35Z</time>
      </trkpt>
      <trkpt lat="46.63192" lon="5.89121">
        <ele>784.46</ele>
        <time>2024-06-09T10:08:39Z</time>
      </trkpt>
      <trkpt lat="46.63189" lon="5.89118">
        <ele>782.14</ele>
        <time>2024-06-09T10:08:41Z</time>
      </trkpt>
      <trkpt lat="46.63184" lon="5.8911">
        <ele>784.87</ele>
        <time>2024-06-09T10:08:46Z</time>
      </trkpt>
      <trkpt lat="46.63181" lon="5.89104">
        <ele>781.96</ele>
        <time>2024-06-09T10:08:49Z</time>
      </trkpt>
      <trkpt lat="46.63176" lon="5.89096">
        <ele>784.78</ele>
        <time>2024-06-09T10:08:53Z</time>
      </trkpt>
      <trkpt lat="46.63173" lon="5.89091">
        <ele>781.81</ele>
        <time>2024-06-09T10:08:56Z</time>
      </trkpt>
      <trkpt lat="46.63169" lon="5.89084">
        <ele>786.05</ele>
        <time>2024-06-09T10:09:00Z</time>
      </trkpt>
      <trkpt lat="46.63168" lon="5.89082">
        <ele>783.52</ele>
        <time>2024-06-09T10:09:01Z</time>
      </trkpt>
      <trkpt lat="46.63161" lon="5.89071">
        <ele>785.85</ele>
        <time>2024-06-09T10:09:07Z</time>
      </trkpt>
      <trkpt lat="46.63157" lon="5.89063">
        <ele>783.42</ele>
        <time>2024-06-09T10:09:11Z</time>
      </trkpt>
      <trkpt lat="46.6315" lon="5.89048">
        <ele>782.98</ele>
        <time>2024-06-09T10:09:19Z</time>
      </trkpt>
      <trkpt lat="46.63146" lon="5.89043">
        <ele>784.95</ele>
        <time>2024-06-09T10:09:22Z</time>
      </trkpt>
      <trkpt lat="46.63142" lon="5.89035">
        <ele>782.15</ele>
        <time>2024-06-09T10:09:26Z</time>
      </trkpt>
      <trkpt lat="46.63139" lon="5.89029">
        <ele>785.59</ele>
        <time>2024-06-09T10:09:29Z</time>
      </trkpt>
      <trkpt lat="46.63137" lon="5.89026">
        <ele>787.16</ele>
        <time>2024-06-09T10:09:31Z</time>
      </trkpt>
      <trkpt lat="46.63136" lon="5.89024">
        <ele>783.41</ele>
        <time>2024-06-09T10:09:32Z</time>
      </trkpt>
      <trkpt lat="46.63135" lon="5.89023">
        <ele>783.53</ele>
        <time>2024-06-09T10:09:33Z</time>
      </trkpt>
      <trkpt lat="46.63133" lon="5.89019">
        <ele>780.4</ele>
        <time>2024-06-09T10:09:35Z</time>
      </trkpt>
      <trkpt lat="46.63132" lon="5.89018">
        <ele>784.75</ele>
        <time>2024-06-09T10:09:36Z</time>
      </trkpt>
      <trkpt lat="46.63129" lon="5.8901">
        <ele>787.99</ele>
        <time>2024-06-09T10:09:40Z</time>
      </trkpt>
      <trkpt lat="46.63128" lon="5.89008">
        <ele>788.04</ele>
        <time>2024-06-09T10:09:41Z</time>
      </trkpt>
      <trkpt lat="46.63127" lon="5.89006">
        <ele>784.02</ele>
        <time>2024-06-09T10:09:42Z</time>
      </trkpt>
      <trkpt lat="46.63126" lon="5.89005">
        <ele>783.98</ele>
        <time>2024-06-09T10:09:43Z</time>
      </trkpt>
      <trkpt lat="46.63122" lon="5.88994">
        <ele>786.75</ele>
        <time>2024-06-09T10:09:49Z</time>
      </trkpt>
      <trkpt lat="46.63122" lon="5.88992">
        <ele>782.53</ele>
        <time>2024-06-09T10:09:50Z</time>
      </trkpt>
      <trkpt lat="46.63121" lon="5.8899">
        <ele>786.4</ele>
        <time>2024-06-09T10:09:51Z</time>
      </trkpt>
      <trkpt lat="46.6312" lon="5.88986">
        <ele>787.6</ele>
        <time>2024-06-09T10:09:53Z</time>
      </trkpt>
      <trkpt lat="46.63119" lon="5.88985">
        <ele>784.85</ele>
        <time>2024-06-09T10:09:54Z</time>
      </trkpt>
      <trkpt lat="46.63118" lon="5.88983">
        <ele>788.82</ele>
        <time>2024-06-09T10:09:55Z</time>
      </trkpt>
      <trkpt lat="46.63115" lon="5.8898">
        <ele>785.45</ele>
        <time>2024-06-09T10:09:57Z</time>
      </trkpt>
      <trkpt lat="46.63114" lon="5.88979">
        <ele>785.48</ele>
        <time>2024-06-09T10:09:58Z</time>
      </trkpt>
      <trkpt lat="46.63108" lon="5.88969">
        <ele>784.28</ele>
        <time>2024-06-09T10:10:04Z</time>
      </trkpt>
      <trkpt lat="46.63106" lon="5.88968">
        <ele>789.4</ele>
        <time>2024-06-09T10:10:05Z</time>
      </trkpt>
      <trkpt lat="46.63105" lon="5.88967">
        <ele>789.08</ele>
        <time>2024-06-09T10:10:06Z</time>
      </trkpt>
      <trkpt lat="46.63104" lon="5.88966">
        <ele>784.5</ele>
        <time>2024-06-09T10:10:07Z</time>
      </trkpt>
      <trkpt lat="46.63102" lon="5.88965">
        <ele>784.63</ele>
        <time>2024-06-09T10:10:08Z</time>
      </trkpt>
      <trkpt lat="46.63097" lon="5.8896">
        <ele>787.06</ele>
        <time>2024-06-09T10:10:12Z</time>
      </trkpt>
      <trkpt lat="46.63092" lon="5.88954">
        <ele>784.54</ele>
        <time>2024-06-09T10:10:16Z</time>
      </trkpt>
      <trkpt lat="46.6309" lon="5.88952">
        <ele>786.82</ele>
        <time>2024-06-09T10:10:18Z</time>
      </trkpt>
      <trkpt lat="46.63089" lon="5.8895">
        <ele>786.76</ele>
        <time>2024-06-09T10:10:19Z</time>
      </trkpt>
      <trkpt lat="46.63087" lon="5.88945">
        <ele>788.72</ele>
        <time>2024-06-09T10:10:22Z</time>
      </trkpt>
      <trkpt lat="46.63085" lon="5.88942">
        <ele>784.68</ele>
        <time>2024-06-09T10:10:24Z</time>
      </trkpt>
      <trkpt lat="46.63084" lon="5.8894">
        <ele>784.68</ele>
        <time>2024-06-09T10:10:25Z</time>
      </trkpt>
      <trkpt lat="46.63083" lon="5.88939">
        <ele>787.82</ele>
        <time>2024-06-09T10:10:26Z</time>
      </trkpt>
      <trkpt lat="46.63081" lon="5.88937">
        <ele>787.76</ele>
        <time>2024-06-09T10:10:27Z</time>
      </trkpt>
      <trkpt lat="46.6308" lon="5.88936">
        <ele>784.11</ele>
        <time>2024-06-09T10:10:28Z</time>
      </trkpt>
      <trkpt lat="46.63079" lon="5.88934">
        <ele>787.8</ele>
        <time>2024-06-09T10:10:29Z</time>
      </trkpt>
      <trkpt lat="46.63073" lon="5.88926">
        <ele>786.22</ele>
        <time>2024-06-09T10:10:34Z</time>
      </trkpt>
      <trkpt lat="46.63069" lon="5.8892">
        <ele>787.44</ele>
        <time>2024-06-09T10:10:38Z</time>
      </trkpt>
      <trkpt lat="46.63066" lon="5.88915">
        <ele>788.84</ele>
        <time>2024-06-09T10:10:41Z</time>
      </trkpt>
      <trkpt lat="46.63064" lon="5.88912">
        <ele>788.75</ele>
        <time>2024-06-09T10:10:43Z</time>
      </trkpt>
      <trkpt lat="46.63062" lon="5.88911">
        <ele>782.56</ele>
        <time>2024-06-09T10:10:44Z</time>
      </trkpt>
      <trkpt lat="46.63061" lon="5.88911">
        <ele>787.29</ele>
        <time>2024-06-09T10:10:45Z</time>
      </trkpt>
      <trkpt lat="46.63059" lon="5.8891">
        <ele>788.29</ele>
        <time>2024-06-09T10:10:46Z</time>
      </trkpt>
      <trkpt lat="46.63058" lon="5.88909">
        <ele>785.24</ele>
        <time>2024-06-09T10:10:47Z</time>
      </trkpt>
      <trkpt lat="46.63058" lon="5.88907">
        <ele>788.47</ele>
        <time>2024-06-09T10:10:48Z</time>
      </trkpt>
      <trkpt lat="46.63057" lon="5.88905">
        <ele>790.28</ele>
        <time>2024-06-09T10:10:49Z</time>
      </trkpt>
      <trkpt lat="46.63056" lon="5.88903">
        <ele>787.87</ele>
        <time>2024-06-09T10:10:50Z</time>
      </trkpt>
      <trkpt lat="46.63056" lon="5.88901">
        <ele>785.9</ele>
        <time>2024-06-09T10:10:51Z</time>
      </trkpt>
      <trkpt lat="46.63055" lon="5.88899">
        <ele>784.07</ele>
        <time>2024-06-09T10:10:52Z</time>
      </trkpt>
      <trkpt lat="46.63054" lon="5.88897">
        <ele>788.21</ele>
        <time>2024-06-09T10:10:53Z</time>
      </trkpt>
      <trkpt lat="46.63053" lon="5.88896">
        <ele>788.12</ele>
        <time>2024-06-09T10:10:54Z</time>
      </trkpt>
      <trkpt lat="46.63052" lon="5.88895">
        <ele>788.12</ele>
        <time>2024-06-09T10:10:55Z</time>
      </trkpt>
      <trkpt lat="46.6305" lon="5.88893">
        <ele>788.99</ele>
        <time>2024-06-09T10:10:56Z</time>
      </trkpt>
      <trkpt lat="46.63049" lon="5.88891">
        <ele>788.96</ele>
        <time>2024-06-09T10:10:57Z</time>
      </trkpt>
      <trkpt lat="46.63044" lon="5.88884">
        <ele>785.9</ele>
        <time>2024-06-09T10:11:02Z</time>
      </trkpt>
      <trkpt lat="46.63043" lon="5.88883">
        <ele>789.85</ele>
        <time>2024-06-09T10:11:03Z</time>
      </trkpt>
      <trkpt lat="46.63042" lon="5.88881">
        <ele>787.38</ele>
        <time>2024-06-09T10:11:04Z</time>
      </trkpt>
      <trkpt lat="46.6304" lon="5.8888">
        <ele>787.37</ele>
        <time>2024-06-09T10:11:05Z</time>
      </trkpt>
      <trkpt lat="46.63039" lon="5.88878">
        <ele>787.47</ele>
        <time>2024-06-09T10:11:06Z</time>
      </trkpt>
      <trkpt lat="46.63038" lon="5.88877">
        <ele>786.14</ele>
        <time>2024-06-09T10:11:07Z</time>
      </trkpt>
      <trkpt lat="46.63037" lon="5.88875">
        <ele>788.64</ele>
        <time>2024-06-09T10:11:08Z</time>
      </trkpt>
      <trkpt lat="46.63036" lon="5.88874">
        <ele>788.75</ele>
        <time>2024-06-09T10:11:09Z</time>
      </trkpt>
      <trkpt lat="46.63024" lon="5.88857">
        <ele>786.39</ele>
        <time>2024-06-09T10:11:21Z</time>
      </trkpt>
      <trkpt lat="46.63022" lon="5.88853">
        <ele>790.88</ele>
        <time>2024-06-09T10:11:23Z</time>
      </trkpt>
      <trkpt lat="46.6302" lon="5.88852">
        <ele>790.78</ele>
        <time>2024-06-09T10:11:24Z</time>
      </trkpt>
      <trkpt lat="46.63018" lon="5.8885">
        <ele>787.62</ele>
        <time>2024-06-09T10:11:25Z</time>
      </trkpt>
      <trkpt lat="46.63017" lon="5.88848">
        <ele>787.74</ele>
        <time>2024-06-09T10:11:26Z</time>
      </trkpt>
      <trkpt lat="46.63013" lon="5.88843">
        <ele>786.87</ele>
        <time>2024-06-09T10:11:29Z</time>
      </trkpt>
      <trkpt lat="46.63013" lon="5.88842">
        <ele>790.74</ele>
        <time>2024-06-09T10:11:30Z</time>
      </trkpt>
      <trkpt lat="46.63012" lon="5.88841">
        <ele>790.75</ele>
        <time>2024-06-09T10:11:31Z</time>
      </trkpt>
      <trkpt lat="46.63007" lon="5.88838">
        <ele>788.97</ele>
        <time>2024-06-09T10:11:35Z</time>
      </trkpt>
      <trkpt lat="46.6299" lon="5.88824">
        <ele>791.53</ele>
        <time>2024-06-09T10:11:46Z</time>
      </trkpt>
      <trkpt lat="46.62989" lon="5.88823">
        <ele>787.89</ele>
        <time>2024-06-09T10:11:47Z</time>
      </trkpt>
      <trkpt lat="46.62987" lon="5.88821">
        <ele>787.88</ele>
        <time>2024-06-09T10:11:48Z</time>
      </trkpt>
      <trkpt lat="46.62985" lon="5.88819">
        <ele>786.61</ele>
        <time>2024-06-09T10:11:49Z</time>
      </trkpt>
      <trkpt lat="46.62984" lon="5.88818">
        <ele>790.53</ele>
        <time>2024-06-09T10:11:50Z</time>
      </trkpt>
      <trkpt lat="46.62982" lon="5.88817">
        <ele>787.12</ele>
        <time>2024-06-09T10:11:51Z</time>
      </trkpt>
      <trkpt lat="46.6298" lon="5.88815">
        <ele>791.26</ele>
        <time>2024-06-09T10:11:53Z</time>
      </trkpt>
      <trkpt lat="46.62979" lon="5.88814">
        <ele>791.31</ele>
        <time>2024-06-09T10:11:54Z</time>
      </trkpt>
      <trkpt lat="46.62978" lon="5.88812">
        <ele>791.3</ele>
        <time>2024-06-09T10:11:55Z</time>
      </trkpt>
      <trkpt lat="46.62976" lon="5.88811">
        <ele>791.26</ele>
        <time>2024-06-09T10:11:56Z</time>
      </trkpt>
      <trkpt lat="46.62975" lon="5.88811">
        <ele>791.23</ele>
        <time>2024-06-09T10:11:57Z</time>
      </trkpt>
      <trkpt lat="46.62972" lon="5.88811">
        <ele>791.15</ele>
        <time>2024-06-09T10:11:59Z</time>
      </trkpt>
      <trkpt lat="46.6297" lon="5.88809">
        <ele>788.68</ele>
        <time>2024-06-09T10:12:01Z</time>
      </trkpt>
      <trkpt lat="46.62967" lon="5.88807">
        <ele>791.01</ele>
        <time>2024-06-09T10:12:03Z</time>
      </trkpt>
      <trkpt lat="46.6295" lon="5.88789">
        <ele>791.84</ele>
        <time>2024-06-09T10:12:15Z</time>
      </trkpt>
      <trkpt lat="46.62933" lon="5.88774">
        <ele>789.83</ele>
        <time>2024-06-09T10:12:28Z</time>
      </trkpt>
      <trkpt lat="46.62932" lon="5.88771">
        <ele>792.4</ele>
        <time>2024-06-09T10:12:30Z</time>
      </trkpt>
      <trkpt lat="46.62925" lon="5.88765">
        <ele>790.26</ele>
        <time>2024-06-09T10:12:34Z</time>
      </trkpt>
      <trkpt lat="46.62924" lon="5.88764">
        <ele>793.39</ele>
        <time>2024-06-09T10:12:35Z</time>
      </trkpt>
      <trkpt lat="46.62921" lon="5.88761">
        <ele>793.28</ele>
        <time>2024-06-09T10:12:37Z</time>
      </trkpt>
      <trkpt lat="46.62919" lon="5.8876">
        <ele>793.26</ele>
        <time>2024-06-09T10:12:38Z</time>
      </trkpt>
      <trkpt lat="46.62918" lon="5.88759">
        <ele>790.13</ele>
        <time>2024-06-09T10:12:39Z</time>
      </trkpt>
      <trkpt lat="46.62917" lon="5.88758">
        <ele>790.2</ele>
        <time>2024-06-09T10:12:40Z</time>
      </trkpt>
      <trkpt lat="46.62915" lon="5.88757">
        <ele>793.64</ele>
        <time>2024-06-09T10:12:41Z</time>
      </trkpt>
      <trkpt lat="46.62914" lon="5.88756">
        <ele>793.64</ele>
        <time>2024-06-09T10:12:42Z</time>
      </trkpt>
      <trkpt lat="46.62913" lon="5.88755">
        <ele>794.83</ele>
        <time>2024-06-09T10:12:43Z</time>
      </trkpt>
      <trkpt lat="46.62911" lon="5.88753">
        <ele>791.58</ele>
        <time>2024-06-09T10:12:44Z</time>
      </trkpt>
      <trkpt lat="46.62899" lon="5.88741">
        <ele>790.98</ele>
        <time>2024-06-09T10:12:54Z</time>
      </trkpt>
      <trkpt lat="46.62898" lon="5.8874">
        <ele>794.09</ele>
        <time>2024-06-09T10:12:55Z</time>
      </trkpt>
      <trkpt lat="46.62897" lon="5.88739">
        <ele>793.99</ele>
        <time>2024-06-09T10:12:56Z</time>
      </trkpt>
      <trkpt lat="46.62878" lon="5.88723">
        <ele>790.72</ele>
        <time>2024-06-09T10:13:09Z</time>
      </trkpt>
      <trkpt lat="46.62877" lon="5.88722">
        <ele>794.98</ele>
        <time>2024-06-09T10:13:10Z</time>
      </trkpt>
      <trkpt lat="46.6287" lon="5.88716">
        <ele>792.17</ele>
        <time>2024-06-09T10:13:14Z</time>
      </trkpt>
      <trkpt lat="46.62867" lon="5.88714">
        <ele>795.28</ele>
        <time>2024-06-09T10:13:16Z</time>
      </trkpt>
      <trkpt lat="46.62865" lon="5.88712">
        <ele>795.27</ele>
        <time>2024-06-09T10:13:17Z</time>
      </trkpt>
      <trkpt lat="46.62858" lon="5.88706">
        <ele>792.77</ele>
        <time>2024-06-09T10:13:22Z</time>
      </trkpt>
      <trkpt lat="46.62853" lon="5.88703">
        <ele>795.05</ele>
        <time>2024-06-09T10:13:26Z</time>
      </trkpt>
      <trkpt lat="46.62851" lon="5.88702">
        <ele>795.06</ele>
        <time>2024-06-09T10:13:27Z</time>
      </trkpt>
      <trkpt lat="46.6285" lon="5.88701">
        <ele>795.04</ele>
        <time>2024-06-09T10:13:28Z</time>
      </trkpt>
      <trkpt lat="46.62836" lon="5.88684">
        <ele>792.46</ele>
        <time>2024-06-09T10:13:40Z</time>
      </trkpt>
      <trkpt lat="46.62834" lon="5.88679">
        <ele>796.43</ele>
        <time>2024-06-09T10:13:42Z</time>
      </trkpt>
      <trkpt lat="46.62833" lon="5.88677">
        <ele>796.43</ele>
        <time>2024-06-09T10:13:43Z</time>
      </trkpt>
      <trkpt lat="46.6283" lon="5.88673">
        <ele>794.08</ele>
        <time>2024-06-09T10:13:45Z</time>
      </trkpt>
      <trkpt lat="46.62825" lon="5.88663">
        <ele>794</ele>
        <time>2024-06-09T10:13:50Z</time>
      </trkpt>
      <trkpt lat="46.62824" lon="5.88661">
        <ele>797.55</ele>
        <time>2024-06-09T10:13:51Z</time>
      </trkpt>
      <trkpt lat="46.62822" lon="5.8866">
        <ele>797.47</ele>
        <time>2024-06-09T10:13:52Z</time>
      </trkpt>
      <trkpt lat="46.6282" lon="5.88659">
        <ele>797.52</ele>
        <time>2024-06-09T10:13:53Z</time>
      </trkpt>
      <trkpt lat="46.62819" lon="5.88657">
        <ele>797.44</ele>
        <time>2024-06-09T10:13:54Z</time>
      </trkpt>
      <trkpt lat="46.62818" lon="5.88657">
        <ele>794.53</ele>
        <time>2024-06-09T10:13:55Z</time>
      </trkpt>
      <trkpt lat="46.62817" lon="5.88656">
        <ele>793.28</ele>
        <time>2024-06-09T10:13:56Z</time>
      </trkpt>
      <trkpt lat="46.62816" lon="5.88655">
        <ele>793.28</ele>
        <time>2024-06-09T10:13:57Z</time>
      </trkpt>
      <trkpt lat="46.62814" lon="5.88654">
        <ele>797.69</ele>
        <time>2024-06-09T10:13:58Z</time>
      </trkpt>
      <trkpt lat="46.62813" lon="5.88653">
        <ele>793.83</ele>
        <time>2024-06-09T10:13:59Z</time>
      </trkpt>
      <trkpt lat="46.62812" lon="5.88652">
        <ele>793.97</ele>
        <time>2024-06-09T10:14:00Z</time>
      </trkpt>
      <trkpt lat="46.62808" lon="5.88647">
        <ele>793.93</ele>
        <time>2024-06-09T10:14:03Z</time>
      </trkpt>
      <trkpt lat="46.62805" lon="5.88643">
        <ele>798</ele>
        <time>2024-06-09T10:14:07Z</time>
      </trkpt>
      <trkpt lat="46.62804" lon="5.88642">
        <ele>794.08</ele>
        <time>2024-06-09T10:14:08Z</time>
      </trkpt>
      <trkpt lat="46.628" lon="5.88637">
        <ele>797.15</ele>
        <time>2024-06-09T10:14:12Z</time>
      </trkpt>
      <trkpt lat="46.62798" lon="5.88636">
        <ele>797.21</ele>
        <time>2024-06-09T10:14:13Z</time>
      </trkpt>
      <trkpt lat="46.62796" lon="5.88634">
        <ele>794.18</ele>
        <time>2024-06-09T10:14:15Z</time>
      </trkpt>
      <trkpt lat="46.62794" lon="5.88633">
        <ele>794.17</ele>
        <time>2024-06-09T10:14:16Z</time>
      </trkpt>
      <trkpt lat="46.62793" lon="5.8863">
        <ele>797.57</ele>
        <time>2024-06-09T10:14:18Z</time>
      </trkpt>
      <trkpt lat="46.62792" lon="5.88628">
        <ele>793.64</ele>
        <time>2024-06-09T10:14:19Z</time>
      </trkpt>
      <trkpt lat="46.62791" lon="5.88626">
        <ele>797.1</ele>
        <time>2024-06-09T10:14:20Z</time>
      </trkpt>
      <trkpt lat="46.62785" lon="5.88619">
        <ele>794.71</ele>
        <time>2024-06-09T10:14:25Z</time>
      </trkpt>
      <trkpt lat="46.6278" lon="5.88613">
        <ele>797.83</ele>
        <time>2024-06-09T10:14:29Z</time>
      </trkpt>
      <trkpt lat="46.62779" lon="5.88612">
        <ele>797.84</ele>
        <time>2024-06-09T10:14:30Z</time>
      </trkpt>
      <trkpt lat="46.62773" lon="5.88604">
        <ele>795.11</ele>
        <time>2024-06-09T10:14:34Z</time>
      </trkpt>
      <trkpt lat="46.62765" lon="5.88591">
        <ele>799.36</ele>
        <time>2024-06-09T10:14:41Z</time>
      </trkpt>
      <trkpt lat="46.62761" lon="5.88586">
        <ele>793.82</ele>
        <time>2024-06-09T10:14:44Z</time>
      </trkpt>
      <trkpt lat="46.6276" lon="5.88585">
        <ele>793.89</ele>
        <time>2024-06-09T10:14:45Z</time>
      </trkpt>
      <trkpt lat="46.62758" lon="5.88582">
        <ele>798.12</ele>
        <time>2024-06-09T10:14:47Z</time>
      </trkpt>
      <trkpt lat="46.62757" lon="5.8858">
        <ele>798.13</ele>
        <time>2024-06-09T10:14:48Z</time>
      </trkpt>
      <trkpt lat="46.62753" lon="5.88573">
        <ele>798.11</ele>
        <time>2024-06-09T10:14:52Z</time>
      </trkpt>
      <trkpt lat="46.62752" lon="5.88571">
        <ele>798.11</ele>
        <time>2024-06-09T10:14:53Z</time>
      </trkpt>
      <trkpt lat="46.62751" lon="5.8857">
        <ele>798.11</ele>
        <time>2024-06-09T10:14:54Z</time>
      </trkpt>
      <trkpt lat="46.6275" lon="5.88569">
        <ele>798.11</ele>
        <time>2024-06-09T10:14:55Z</time>
      </trkpt>
      <trkpt lat="46.62749" lon="5.88568">
        <ele>798.1</ele>
        <time>2024-06-09T10:14:56Z</time>
      </trkpt>
      <trkpt lat="46.62747" lon="5.88567">
        <ele>798.14</ele>
        <time>2024-06-09T10:14:57Z</time>
      </trkpt>
      <trkpt lat="46.62743" lon="5.88564">
        <ele>794.58</ele>
        <time>2024-06-09T10:15:00Z</time>
      </trkpt>
      <trkpt lat="46.62741" lon="5.88563">
        <ele>797.69</ele>
        <time>2024-06-09T10:15:01Z</time>
      </trkpt>
      <trkpt lat="46.62733" lon="5.88554">
        <ele>794.86</ele>
        <time>2024-06-09T10:15:08Z</time>
      </trkpt>
      <trkpt lat="46.62731" lon="5.88552">
        <ele>797.68</ele>
        <time>2024-06-09T10:15:10Z</time>
      </trkpt>
      <trkpt lat="46.62722" lon="5.88543">
        <ele>795.39</ele>
        <time>2024-06-09T10:15:17Z</time>
      </trkpt>
      <trkpt lat="46.62719" lon="5.8854">
        <ele>797.97</ele>
        <time>2024-06-09T10:15:19Z</time>
      </trkpt>
      <trkpt lat="46.62706" lon="5.88523">
        <ele>800.41</ele>
        <time>2024-06-09T10:15:31Z</time>
      </trkpt>
      <trkpt lat="46.62701" lon="5.88518">
        <ele>796.15</ele>
        <time>2024-06-09T10:15:35Z</time>
      </trkpt>
      <trkpt lat="46.62699" lon="5.88516">
        <ele>798.69</ele>
        <time>2024-06-09T10:15:36Z</time>
      </trkpt>
      <trkpt lat="46.62694" lon="5.88508">
        <ele>799.96</ele>
        <time>2024-06-09T10:15:41Z</time>
      </trkpt>
      <trkpt lat="46.62689" lon="5.88505">
        <ele>797.61</ele>
        <time>2024-06-09T10:15:44Z</time>
      </trkpt>
      <trkpt lat="46.62682" lon="5.88496">
        <ele>800.19</ele>
        <time>2024-06-09T10:15:50Z</time>
      </trkpt>
      <trkpt lat="46.6268" lon="5.88492">
        <ele>796.36</ele>
        <time>2024-06-09T10:15:52Z</time>
      </trkpt>
      <trkpt lat="46.62679" lon="5.88491">
        <ele>796.36</ele>
        <time>2024-06-09T10:15:53Z</time>
      </trkpt>
      <trkpt lat="46.62674" lon="5.88484">
        <ele>799.62</ele>
        <time>2024-06-09T10:15:58Z</time>
      </trkpt>
      <trkpt lat="46.62673" lon="5.88483">
        <ele>799.61</ele>
        <time>2024-06-09T10:15:59Z</time>
      </trkpt>
      <trkpt lat="46.6267" lon="5.8848">
        <ele>797.13</ele>
        <time>2024-06-09T10:16:02Z</time>
      </trkpt>
      <trkpt lat="46.62668" lon="5.88478">
        <ele>799.84</ele>
        <time>2024-06-09T10:16:04Z</time>
      </trkpt>
      <trkpt lat="46.62668" lon="5.88476">
        <ele>797.04</ele>
        <time>2024-06-09T10:16:06Z</time>
      </trkpt>
      <trkpt lat="46.62664" lon="5.88474">
        <ele>800.4</ele>
        <time>2024-06-09T10:16:09Z</time>
      </trkpt>
      <trkpt lat="46.6266" lon="5.8847">
        <ele>796.65</ele>
        <time>2024-06-09T10:16:12Z</time>
      </trkpt>
      <trkpt lat="46.62657" lon="5.88465">
        <ele>800.39</ele>
        <time>2024-06-09T10:16:15Z</time>
      </trkpt>
      <trkpt lat="46.62656" lon="5.88463">
        <ele>800.36</ele>
        <time>2024-06-09T10:16:16Z</time>
      </trkpt>
      <trkpt lat="46.62652" lon="5.88457">
        <ele>796.7</ele>
        <time>2024-06-09T10:16:20Z</time>
      </trkpt>
      <trkpt lat="46.62647" lon="5.88451">
        <ele>801.17</ele>
        <time>2024-06-09T10:16:24Z</time>
      </trkpt>
      <trkpt lat="46.62646" lon="5.88449">
        <ele>801.12</ele>
        <time>2024-06-09T10:16:25Z</time>
      </trkpt>
      <trkpt lat="46.62642" lon="5.88445">
        <ele>798.34</ele>
        <time>2024-06-09T10:16:28Z</time>
      </trkpt>
      <trkpt lat="46.62628" lon="5.88437">
        <ele>800.32</ele>
        <time>2024-06-09T10:16:40Z</time>
      </trkpt>
      <trkpt lat="46.62627" lon="5.88436">
        <ele>800.39</ele>
        <time>2024-06-09T10:16:41Z</time>
      </trkpt>
      <trkpt lat="46.62626" lon="5.88434">
        <ele>800.38</ele>
        <time>2024-06-09T10:16:42Z</time>
      </trkpt>
      <trkpt lat="46.62622" lon="5.88431">
        <ele>797.93</ele>
        <time>2024-06-09T10:16:45Z</time>
      </trkpt>
      <trkpt lat="46.62614" lon="5.88426">
        <ele>800.77</ele>
        <time>2024-06-09T10:16:51Z</time>
      </trkpt>
      <trkpt lat="46.62609" lon="5.88422">
        <ele>798.41</ele>
        <time>2024-06-09T10:16:54Z</time>
      </trkpt>
      <trkpt lat="46.62596" lon="5.88402">
        <ele>801.37</ele>
        <time>2024-06-09T10:17:07Z</time>
      </trkpt>
      <trkpt lat="46.62593" lon="5.88396">
        <ele>798.49</ele>
        <time>2024-06-09T10:17:10Z</time>
      </trkpt>
      <trkpt lat="46.62591" lon="5.88393">
        <ele>798.5</ele>
        <time>2024-06-09T10:17:12Z</time>
      </trkpt>
      <trkpt lat="46.6259" lon="5.88392">
        <ele>798.49</ele>
        <time>2024-06-09T10:17:13Z</time>
      </trkpt>
      <trkpt lat="46.62588" lon="5.88391">
        <ele>801.39</ele>
        <time>2024-06-09T10:17:14Z</time>
      </trkpt>
      <trkpt lat="46.62587" lon="5.8839">
        <ele>801.38</ele>
        <time>2024-06-09T10:17:15Z</time>
      </trkpt>
      <trkpt lat="46.62586" lon="5.88389">
        <ele>801.34</ele>
        <time>2024-06-09T10:17:16Z</time>
      </trkpt>
      <trkpt lat="46.62584" lon="5.88387">
        <ele>801.4</ele>
        <time>2024-06-09T10:17:17Z</time>
      </trkpt>
      <trkpt lat="46.62583" lon="5.88386">
        <ele>801.82</ele>
        <time>2024-06-09T10:17:18Z</time>
      </trkpt>
      <trkpt lat="46.62581" lon="5.88383">
        <ele>798.76</ele>
        <time>2024-06-09T10:17:20Z</time>
      </trkpt>
      <trkpt lat="46.62572" lon="5.8837">
        <ele>802.52</ele>
        <time>2024-06-09T10:17:29Z</time>
      </trkpt>
      <trkpt lat="46.62571" lon="5.88369">
        <ele>802.56</ele>
        <time>2024-06-09T10:17:30Z</time>
      </trkpt>
      <trkpt lat="46.62568" lon="5.88366">
        <ele>798.13</ele>
        <time>2024-06-09T10:17:32Z</time>
      </trkpt>
      <trkpt lat="46.62567" lon="5.88364">
        <ele>798.14</ele>
        <time>2024-06-09T10:17:33Z</time>
      </trkpt>
      <trkpt lat="46.62565" lon="5.88362">
        <ele>801.41</ele>
        <time>2024-06-09T10:17:35Z</time>
      </trkpt>
      <trkpt lat="46.62564" lon="5.88361">
        <ele>801.4</ele>
        <time>2024-06-09T10:17:36Z</time>
      </trkpt>
      <trkpt lat="46.62557" lon="5.88355">
        <ele>799</ele>
        <time>2024-06-09T10:17:41Z</time>
      </trkpt>
      <trkpt lat="46.62552" lon="5.88351">
        <ele>797.61</ele>
        <time>2024-06-09T10:17:45Z</time>
      </trkpt>
      <trkpt lat="46.62551" lon="5.8835">
        <ele>801.24</ele>
        <time>2024-06-09T10:17:46Z</time>
      </trkpt>
      <trkpt lat="46.62549" lon="5.88349">
        <ele>801.18</ele>
        <time>2024-06-09T10:17:47Z</time>
      </trkpt>
      <trkpt lat="46.6254" lon="5.88345">
        <ele>802.95</ele>
        <time>2024-06-09T10:17:54Z</time>
      </trkpt>
      <trkpt lat="46.6253" lon="5.8833">
        <ele>800.7</ele>
        <time>2024-06-09T10:18:04Z</time>
      </trkpt>
      <trkpt lat="46.62517" lon="5.88316">
        <ele>803.15</ele>
        <time>2024-06-09T10:18:16Z</time>
      </trkpt>
      <trkpt lat="46.62509" lon="5.88308">
        <ele>800.38</ele>
        <time>2024-06-09T10:18:23Z</time>
      </trkpt>
      <trkpt lat="46.62507" lon="5.88305">
        <ele>803.39</ele>
        <time>2024-06-09T10:18:25Z</time>
      </trkpt>
      <trkpt lat="46.62506" lon="5.88304">
        <ele>803.39</ele>
        <time>2024-06-09T10:18:26Z</time>
      </trkpt>
      <trkpt lat="46.62495" lon="5.88291">
        <ele>805.87</ele>
        <time>2024-06-09T10:18:36Z</time>
      </trkpt>
      <trkpt lat="46.62493" lon="5.88289">
        <ele>803.22</ele>
        <time>2024-06-09T10:18:38Z</time>
      </trkpt>
      <trkpt lat="46.62482" lon="5.88278">
        <ele>805.06</ele>
        <time>2024-06-09T10:18:47Z</time>
      </trkpt>
      <trkpt lat="46.62478" lon="5.88275">
        <ele>802.33</ele>
        <time>2024-06-09T10:18:50Z</time>
      </trkpt>
      <trkpt lat="46.62473" lon="5.8827">
        <ele>804.14</ele>
        <time>2024-06-09T10:18:54Z</time>
      </trkpt>
      <trkpt lat="46.62469" lon="5.88266">
        <ele>801.94</ele>
        <time>2024-06-09T10:18:57Z</time>
      </trkpt>
      <trkpt lat="46.62468" lon="5.88265">
        <ele>805.11</ele>
        <time>2024-06-09T10:18:58Z</time>
      </trkpt>
      <trkpt lat="46.62466" lon="5.88263">
        <ele>806.69</ele>
        <time>2024-06-09T10:19:00Z</time>
      </trkpt>
      <trkpt lat="46.62464" lon="5.8826">
        <ele>802.38</ele>
        <time>2024-06-09T10:19:02Z</time>
      </trkpt>
      <trkpt lat="46.62463" lon="5.88258">
        <ele>802.36</ele>
        <time>2024-06-09T10:19:03Z</time>
      </trkpt>
      <trkpt lat="46.6246" lon="5.88254">
        <ele>805.28</ele>
        <time>2024-06-09T10:19:06Z</time>
      </trkpt>
      <trkpt lat="46.62455" lon="5.88246">
        <ele>806.77</ele>
        <time>2024-06-09T10:19:12Z</time>
      </trkpt>
      <trkpt lat="46.62449" lon="5.88237">
        <ele>808.49</ele>
        <time>2024-06-09T10:19:18Z</time>
      </trkpt>
      <trkpt lat="46.62447" lon="5.88233">
        <ele>805.52</ele>
        <time>2024-06-09T10:19:20Z</time>
      </trkpt>
      <trkpt lat="46.62441" lon="5.88226">
        <ele>804.05</ele>
        <time>2024-06-09T10:19:26Z</time>
      </trkpt>
      <trkpt lat="46.62439" lon="5.88223">
        <ele>806.6</ele>
        <time>2024-06-09T10:19:28Z</time>
      </trkpt>
      <trkpt lat="46.62436" lon="5.88216">
        <ele>808.15</ele>
        <time>2024-06-09T10:19:32Z</time>
      </trkpt>
      <trkpt lat="46.62432" lon="5.88208">
        <ele>803.88</ele>
        <time>2024-06-09T10:19:37Z</time>
      </trkpt>
      <trkpt lat="46.62431" lon="5.88207">
        <ele>803.87</ele>
        <time>2024-06-09T10:19:38Z</time>
      </trkpt>
      <trkpt lat="46.62429" lon="5.88204">
        <ele>806.61</ele>
        <time>2024-06-09T10:19:40Z</time>
      </trkpt>
      <trkpt lat="46.62423" lon="5.88199">
        <ele>807.88</ele>
        <time>2024-06-09T10:19:45Z</time>
      </trkpt>
      <trkpt lat="46.6241" lon="5.88188">
        <ele>805.45</ele>
        <time>2024-06-09T10:19:56Z</time>
      </trkpt>
      <trkpt lat="46.62407" lon="5.88184">
        <ele>807.68</ele>
        <time>2024-06-09T10:19:59Z</time>
      </trkpt>
      <trkpt lat="46.62397" lon="5.88176">
        <ele>804.84</ele>
        <time>2024-06-09T10:20:07Z</time>
      </trkpt>
      <trkpt lat="46.62394" lon="5.88172">
        <ele>807.61</ele>
        <time>2024-06-09T10:20:10Z</time>
      </trkpt>
      <trkpt lat="46.62381" lon="5.88165">
        <ele>805.57</ele>
        <time>2024-06-09T10:20:19Z</time>
      </trkpt>
      <trkpt lat="46.62379" lon="5.88164">
        <ele>808.56</ele>
        <time>2024-06-09T10:20:21Z</time>
      </trkpt>
      <trkpt lat="46.6237" lon="5.88157">
        <ele>805.62</ele>
        <time>2024-06-09T10:20:29Z</time>
      </trkpt>
      <trkpt lat="46.62364" lon="5.88153">
        <ele>808.28</ele>
        <time>2024-06-09T10:20:33Z</time>
      </trkpt>
      <trkpt lat="46.62354" lon="5.88147">
        <ele>808.78</ele>
        <time>2024-06-09T10:20:40Z</time>
      </trkpt>
      <trkpt lat="46.62353" lon="5.88147">
        <ele>806.26</ele>
        <time>2024-06-09T10:20:41Z</time>
      </trkpt>
      <trkpt lat="46.62352" lon="5.88146">
        <ele>806.14</ele>
        <time>2024-06-09T10:20:42Z</time>
      </trkpt>
      <trkpt lat="46.62344" lon="5.88145">
        <ele>807.77</ele>
        <time>2024-06-09T10:20:47Z</time>
      </trkpt>
      <trkpt lat="46.62334" lon="5.88146">
        <ele>804</ele>
        <time>2024-06-09T10:20:53Z</time>
      </trkpt>
      <trkpt lat="46.62332" lon="5.88146">
        <ele>803.99</ele>
        <time>2024-06-09T10:20:54Z</time>
      </trkpt>
      <trkpt lat="46.62327" lon="5.88147">
        <ele>806.55</ele>
        <time>2024-06-09T10:20:58Z</time>
      </trkpt>
      <trkpt lat="46.62324" lon="5.88146">
        <ele>804.32</ele>
        <time>2024-06-09T10:21:00Z</time>
      </trkpt>
      <trkpt lat="46.62323" lon="5.88145">
        <ele>804.12</ele>
        <time>2024-06-09T10:21:01Z</time>
      </trkpt>
      <trkpt lat="46.62321" lon="5.88145">
        <ele>807.62</ele>
        <time>2024-06-09T10:21:02Z</time>
      </trkpt>
      <trkpt lat="46.6232" lon="5.88144">
        <ele>807.52</ele>
        <time>2024-06-09T10:21:03Z</time>
      </trkpt>
      <trkpt lat="46.62315" lon="5.88139">
        <ele>803.28</ele>
        <time>2024-06-09T10:21:07Z</time>
      </trkpt>
      <trkpt lat="46.62313" lon="5.88138">
        <ele>805.69</ele>
        <time>2024-06-09T10:21:08Z</time>
      </trkpt>
      <trkpt lat="46.62312" lon="5.88137">
        <ele>807.78</ele>
        <time>2024-06-09T10:21:09Z</time>
      </trkpt>
      <trkpt lat="46.62311" lon="5.88136">
        <ele>803.01</ele>
        <time>2024-06-09T10:21:10Z</time>
      </trkpt>
      <trkpt lat="46.62309" lon="5.88136">
        <ele>805.54</ele>
        <time>2024-06-09T10:21:11Z</time>
      </trkpt>
      <trkpt lat="46.62308" lon="5.88136">
        <ele>805.56</ele>
        <time>2024-06-09T10:21:12Z</time>
      </trkpt>
      <trkpt lat="46.62305" lon="5.88136">
        <ele>807.56</ele>
        <time>2024-06-09T10:21:14Z</time>
      </trkpt>
      <trkpt lat="46.62301" lon="5.88137">
        <ele>804.36</ele>
        <time>2024-06-09T10:21:16Z</time>
      </trkpt>
      <trkpt lat="46.62295" lon="5.8814">
        <ele>802.89</ele>
        <time>2024-06-09T10:21:20Z</time>
      </trkpt>
      <trkpt lat="46.62289" lon="5.88142">
        <ele>805.98</ele>
        <time>2024-06-09T10:21:24Z</time>
      </trkpt>
      <trkpt lat="46.62288" lon="5.88143">
        <ele>805.98</ele>
        <time>2024-06-09T10:21:25Z</time>
      </trkpt>
      <trkpt lat="46.62285" lon="5.88143">
        <ele>802.69</ele>
        <time>2024-06-09T10:21:27Z</time>
      </trkpt>
      <trkpt lat="46.62283" lon="5.88143">
        <ele>802.68</ele>
        <time>2024-06-09T10:21:28Z</time>
      </trkpt>
      <trkpt lat="46.62277" lon="5.88146">
        <ele>800.37</ele>
        <time>2024-06-09T10:21:32Z</time>
      </trkpt>
      <trkpt lat="46.62274" lon="5.88146">
        <ele>802.95</ele>
        <time>2024-06-09T10:21:34Z</time>
      </trkpt>
      <trkpt lat="46.62268" lon="5.88145">
        <ele>799.57</ele>
        <time>2024-06-09T10:21:38Z</time>
      </trkpt>
      <trkpt lat="46.62266" lon="5.88145">
        <ele>799.55</ele>
        <time>2024-06-09T10:21:39Z</time>
      </trkpt>
      <trkpt lat="46.62263" lon="5.88145">
        <ele>804.02</ele>
        <time>2024-06-09T10:21:41Z</time>
      </trkpt>
      <trkpt lat="46.62262" lon="5.88144">
        <ele>800.71</ele>
        <time>2024-06-09T10:21:42Z</time>
      </trkpt>
      <trkpt lat="46.62253" lon="5.88145">
        <ele>800.79</ele>
        <time>2024-06-09T10:21:47Z</time>
      </trkpt>
      <trkpt lat="46.62248" lon="5.88145">
        <ele>799.81</ele>
        <time>2024-06-09T10:21:51Z</time>
      </trkpt>
      <trkpt lat="46.62245" lon="5.88146">
        <ele>797.98</ele>
        <time>2024-06-09T10:21:53Z</time>
      </trkpt>
      <trkpt lat="46.62242" lon="5.88148">
        <ele>800.38</ele>
        <time>2024-06-09T10:21:55Z</time>
      </trkpt>
      <trkpt lat="46.62238" lon="5.8815">
        <ele>802.87</ele>
        <time>2024-06-09T10:21:57Z</time>
      </trkpt>
      <trkpt lat="46.62234" lon="5.88151">
        <ele>800.33</ele>
        <time>2024-06-09T10:22:00Z</time>
      </trkpt>
      <trkpt lat="46.62231" lon="5.88151">
        <ele>798.19</ele>
        <time>2024-06-09T10:22:02Z</time>
      </trkpt>
      <trkpt lat="46.62225" lon="5.88151">
        <ele>797.02</ele>
        <time>2024-06-09T10:22:06Z</time>
      </trkpt>
      <trkpt lat="46.62222" lon="5.88151">
        <ele>799.5</ele>
        <time>2024-06-09T10:22:08Z</time>
      </trkpt>
      <trkpt lat="46.62214" lon="5.88153">
        <ele>797.02</ele>
        <time>2024-06-09T10:22:13Z</time>
      </trkpt>
      <trkpt lat="46.62209" lon="5.88153">
        <ele>794.91</ele>
        <time>2024-06-09T10:22:16Z</time>
      </trkpt>
      <trkpt lat="46.62208" lon="5.88153">
        <ele>798.25</ele>
        <time>2024-06-09T10:22:17Z</time>
      </trkpt>
      <trkpt lat="46.62206" lon="5.88153">
        <ele>798.22</ele>
        <time>2024-06-09T10:22:18Z</time>
      </trkpt>
      <trkpt lat="46.62202" lon="5.88152">
        <ele>795.06</ele>
        <time>2024-06-09T10:22:21Z</time>
      </trkpt>
      <trkpt lat="46.622" lon="5.88153">
        <ele>795.02</ele>
        <time>2024-06-09T10:22:22Z</time>
      </trkpt>
      <trkpt lat="46.62194" lon="5.88153">
        <ele>798.05</ele>
        <time>2024-06-09T10:22:26Z</time>
      </trkpt>
      <trkpt lat="46.62192" lon="5.88153">
        <ele>797.92</ele>
        <time>2024-06-09T10:22:27Z</time>
      </trkpt>
      <trkpt lat="46.62189" lon="5.88154">
        <ele>795.16</ele>
        <time>2024-06-09T10:22:29Z</time>
      </trkpt>
      <trkpt lat="46.62188" lon="5.88154">
        <ele>794.49</ele>
        <time>2024-06-09T10:22:30Z</time>
      </trkpt>
      <trkpt lat="46.62186" lon="5.88154">
        <ele>794.5</ele>
        <time>2024-06-09T10:22:31Z</time>
      </trkpt>
      <trkpt lat="46.62185" lon="5.88155">
        <ele>794.48</ele>
        <time>2024-06-09T10:22:32Z</time>
      </trkpt>
      <trkpt lat="46.62184" lon="5.88155">
        <ele>794.35</ele>
        <time>2024-06-09T10:22:33Z</time>
      </trkpt>
      <trkpt lat="46.62182" lon="5.88155">
        <ele>794.29</ele>
        <time>2024-06-09T10:22:34Z</time>
      </trkpt>
      <trkpt lat="46.62181" lon="5.88156">
        <ele>796.72</ele>
        <time>2024-06-09T10:22:35Z</time>
      </trkpt>
      <trkpt lat="46.6218" lon="5.88156">
        <ele>796.55</ele>
        <time>2024-06-09T10:22:36Z</time>
      </trkpt>
      <trkpt lat="46.62177" lon="5.88158">
        <ele>793.03</ele>
        <time>2024-06-09T10:22:38Z</time>
      </trkpt>
      <trkpt lat="46.62175" lon="5.88159">
        <ele>793.38</ele>
        <time>2024-06-09T10:22:39Z</time>
      </trkpt>
      <trkpt lat="46.6217" lon="5.8816">
        <ele>796.77</ele>
        <time>2024-06-09T10:22:42Z</time>
      </trkpt>
      <trkpt lat="46.62168" lon="5.8816">
        <ele>796.75</ele>
        <time>2024-06-09T10:22:43Z</time>
      </trkpt>
      <trkpt lat="46.62161" lon="5.88159">
        <ele>792.23</ele>
        <time>2024-06-09T10:22:48Z</time>
      </trkpt>
      <trkpt lat="46.62159" lon="5.8816">
        <ele>792.36</ele>
        <time>2024-06-09T10:22:49Z</time>
      </trkpt>
      <trkpt lat="46.6215" lon="5.88162">
        <ele>795.42</ele>
        <time>2024-06-09T10:22:55Z</time>
      </trkpt>
      <trkpt lat="46.62149" lon="5.88162">
        <ele>795.48</ele>
        <time>2024-06-09T10:22:56Z</time>
      </trkpt>
      <trkpt lat="46.62146" lon="5.88163">
        <ele>792.66</ele>
        <time>2024-06-09T10:22:58Z</time>
      </trkpt>
      <trkpt lat="46.62135" lon="5.88158">
        <ele>794.24</ele>
        <time>2024-06-09T10:23:06Z</time>
      </trkpt>
      <trkpt lat="46.62133" lon="5.88158">
        <ele>791.21</ele>
        <time>2024-06-09T10:23:07Z</time>
      </trkpt>
      <trkpt lat="46.62132" lon="5.88156">
        <ele>791.09</ele>
        <time>2024-06-09T10:23:08Z</time>
      </trkpt>
      <trkpt lat="46.62108" lon="5.88148">
        <ele>792.41</ele>
        <time>2024-06-09T10:23:22Z</time>
      </trkpt>
      <trkpt lat="46.62106" lon="5.88149">
        <ele>788.82</ele>
        <time>2024-06-09T10:23:23Z</time>
      </trkpt>
      <trkpt lat="46.62104" lon="5.88149">
        <ele>788.85</ele>
        <time>2024-06-09T10:23:24Z</time>
      </trkpt>
      <trkpt lat="46.62099" lon="5.8815">
        <ele>792.3</ele>
        <time>2024-06-09T10:23:27Z</time>
      </trkpt>
      <trkpt lat="46.62097" lon="5.8815">
        <ele>792.29</ele>
        <time>2024-06-09T10:23:28Z</time>
      </trkpt>
      <trkpt lat="46.62087" lon="5.88152">
        <ele>787.87</ele>
        <time>2024-06-09T10:23:34Z</time>
      </trkpt>
      <trkpt lat="46.62086" lon="5.88152">
        <ele>787.93</ele>
        <time>2024-06-09T10:23:35Z</time>
      </trkpt>
      <trkpt lat="46.62078" lon="5.88154">
        <ele>790.18</ele>
        <time>2024-06-09T10:23:40Z</time>
      </trkpt>
      <trkpt lat="46.62069" lon="5.88155">
        <ele>786.84</ele>
        <time>2024-06-09T10:23:45Z</time>
      </trkpt>
      <trkpt lat="46.62067" lon="5.88155">
        <ele>786.75</ele>
        <time>2024-06-09T10:23:46Z</time>
      </trkpt>
      <trkpt lat="46.62057" lon="5.88153">
        <ele>789.35</ele>
        <time>2024-06-09T10:23:52Z</time>
      </trkpt>
      <trkpt lat="46.62052" lon="5.8815">
        <ele>785.68</ele>
        <time>2024-06-09T10:23:56Z</time>
      </trkpt>
      <trkpt lat="46.62051" lon="5.88149">
        <ele>785.74</ele>
        <time>2024-06-09T10:23:57Z</time>
      </trkpt>
      <trkpt lat="46.62047" lon="5.88147">
        <ele>788.51</ele>
        <time>2024-06-09T10:24:00Z</time>
      </trkpt>
      <trkpt lat="46.62033" lon="5.88146">
        <ele>785.86</ele>
        <time>2024-06-09T10:24:08Z</time>
      </trkpt>
      <trkpt lat="46.62015" lon="5.88143">
        <ele>782.77</ele>
        <time>2024-06-09T10:24:19Z</time>
      </trkpt>
      <trkpt lat="46.62013" lon="5.88143">
        <ele>782.77</ele>
        <time>2024-06-09T10:24:20Z</time>
      </trkpt>
      <trkpt lat="46.6201" lon="5.88142">
        <ele>785.13</ele>
        <time>2024-06-09T10:24:22Z</time>
      </trkpt>
      <trkpt lat="46.62001" lon="5.8814">
        <ele>782.95</ele>
        <time>2024-06-09T10:24:28Z</time>
      </trkpt>
      <trkpt lat="46.61992" lon="5.88135">
        <ele>786.33</ele>
        <time>2024-06-09T10:24:33Z</time>
      </trkpt>
      <trkpt lat="46.61991" lon="5.88133">
        <ele>786.53</ele>
        <time>2024-06-09T10:24:34Z</time>
      </trkpt>
      <trkpt lat="46.61987" lon="5.88129">
        <ele>782.25</ele>
        <time>2024-06-09T10:24:37Z</time>
      </trkpt>
      <trkpt lat="46.61986" lon="5.88128">
        <ele>782.32</ele>
        <time>2024-06-09T10:24:38Z</time>
      </trkpt>
      <trkpt lat="46.61985" lon="5.88127">
        <ele>782.28</ele>
        <time>2024-06-09T10:24:39Z</time>
      </trkpt>
      <trkpt lat="46.61984" lon="5.88126">
        <ele>782.24</ele>
        <time>2024-06-09T10:24:40Z</time>
      </trkpt>
      <trkpt lat="46.61982" lon="5.88126">
        <ele>782.26</ele>
        <time>2024-06-09T10:24:41Z</time>
      </trkpt>
      <trkpt lat="46.61981" lon="5.88125">
        <ele>782.26</ele>
        <time>2024-06-09T10:24:42Z</time>
      </trkpt>
      <trkpt lat="46.61979" lon="5.88124">
        <ele>785.47</ele>
        <time>2024-06-09T10:24:43Z</time>
      </trkpt>
      <trkpt lat="46.61978" lon="5.88124">
        <ele>786.29</ele>
        <time>2024-06-09T10:24:44Z</time>
      </trkpt>
      <trkpt lat="46.61977" lon="5.88123">
        <ele>783.81</ele>
        <time>2024-06-09T10:24:45Z</time>
      </trkpt>
      <trkpt lat="46.61975" lon="5.88122">
        <ele>783.91</ele>
        <time>2024-06-09T10:24:46Z</time>
      </trkpt>
      <trkpt lat="46.61968" lon="5.88121">
        <ele>785.22</ele>
        <time>2024-06-09T10:24:51Z</time>
      </trkpt>
      <trkpt lat="46.61964" lon="5.88121">
        <ele>785.09</ele>
        <time>2024-06-09T10:24:54Z</time>
      </trkpt>
      <trkpt lat="46.61959" lon="5.8812">
        <ele>781.88</ele>
        <time>2024-06-09T10:24:57Z</time>
      </trkpt>
      <trkpt lat="46.61956" lon="5.88119">
        <ele>780.84</ele>
        <time>2024-06-09T10:24:59Z</time>
      </trkpt>
      <trkpt lat="46.61946" lon="5.88119">
        <ele>784.5</ele>
        <time>2024-06-09T10:25:06Z</time>
      </trkpt>
      <trkpt lat="46.61945" lon="5.88119">
        <ele>784.41</ele>
        <time>2024-06-09T10:25:07Z</time>
      </trkpt>
      <trkpt lat="46.61942" lon="5.88118">
        <ele>781.04</ele>
        <time>2024-06-09T10:25:09Z</time>
      </trkpt>
      <trkpt lat="46.61941" lon="5.88117">
        <ele>781.04</ele>
        <time>2024-06-09T10:25:10Z</time>
      </trkpt>
      <trkpt lat="46.61939" lon="5.88116">
        <ele>778.27</ele>
        <time>2024-06-09T10:25:12Z</time>
      </trkpt>
      <trkpt lat="46.61936" lon="5.88115">
        <ele>780.87</ele>
        <time>2024-06-09T10:25:15Z</time>
      </trkpt>
      <trkpt lat="46.61927" lon="5.88115">
        <ele>784.15</ele>
        <time>2024-06-09T10:25:21Z</time>
      </trkpt>
      <trkpt lat="46.61925" lon="5.88115">
        <ele>784.03</ele>
        <time>2024-06-09T10:25:22Z</time>
      </trkpt>
      <trkpt lat="46.61923" lon="5.88115">
        <ele>780.8</ele>
        <time>2024-06-09T10:25:23Z</time>
      </trkpt>
      <trkpt lat="46.6192" lon="5.88115">
        <ele>779.41</ele>
        <time>2024-06-09T10:25:25Z</time>
      </trkpt>
      <trkpt lat="46.61909" lon="5.88112">
        <ele>782.46</ele>
        <time>2024-06-09T10:25:32Z</time>
      </trkpt>
      <trkpt lat="46.61906" lon="5.88112">
        <ele>783.6</ele>
        <time>2024-06-09T10:25:34Z</time>
      </trkpt>
      <trkpt lat="46.61903" lon="5.88111">
        <ele>778.41</ele>
        <time>2024-06-09T10:25:36Z</time>
      </trkpt>
      <trkpt lat="46.61902" lon="5.88111">
        <ele>778.45</ele>
        <time>2024-06-09T10:25:37Z</time>
      </trkpt>
      <trkpt lat="46.61897" lon="5.88112">
        <ele>780.45</ele>
        <time>2024-06-09T10:25:40Z</time>
      </trkpt>
      <trkpt lat="46.61887" lon="5.88109">
        <ele>782.57</ele>
        <time>2024-06-09T10:25:47Z</time>
      </trkpt>
      <trkpt lat="46.61885" lon="5.88108">
        <ele>778.49</ele>
        <time>2024-06-09T10:25:49Z</time>
      </trkpt>
      <trkpt lat="46.61883" lon="5.88107">
        <ele>778.54</ele>
        <time>2024-06-09T10:25:50Z</time>
      </trkpt>
      <trkpt lat="46.61877" lon="5.88104">
        <ele>780.51</ele>
        <time>2024-06-09T10:25:55Z</time>
      </trkpt>
      <trkpt lat="46.61868" lon="5.88106">
        <ele>782.77</ele>
        <time>2024-06-09T10:26:04Z</time>
      </trkpt>
      <trkpt lat="46.61864" lon="5.88109">
        <ele>779.04</ele>
        <time>2024-06-09T10:26:08Z</time>
      </trkpt>
      <trkpt lat="46.61863" lon="5.88109">
        <ele>778.88</ele>
        <time>2024-06-09T10:26:09Z</time>
      </trkpt>
      <trkpt lat="46.61862" lon="5.88109">
        <ele>775.6</ele>
        <time>2024-06-09T10:26:10Z</time>
      </trkpt>
      <trkpt lat="46.6186" lon="5.8811">
        <ele>775.59</ele>
        <time>2024-06-09T10:26:11Z</time>
      </trkpt>
      <trkpt lat="46.6186" lon="5.88115">
        <ele>777.72</ele>
        <time>2024-06-09T10:26:14Z</time>
      </trkpt>
      <trkpt lat="46.61864" lon="5.88122">
        <ele>777.66</ele>
        <time>2024-06-09T10:26:20Z</time>
      </trkpt>
      <trkpt lat="46.61882" lon="5.88145">
        <ele>779.39</ele>
        <time>2024-06-09T10:26:38Z</time>
      </trkpt>
      <trkpt lat="46.61883" lon="5.88146">
        <ele>779.38</ele>
        <time>2024-06-09T10:26:39Z</time>
      </trkpt>
      <trkpt lat="46.61889" lon="5.88152">
        <ele>779.32</ele>
        <time>2024-06-09T10:26:44Z</time>
      </trkpt>
      <trkpt lat="46.6189" lon="5.88154">
        <ele>775.25</ele>
        <time>2024-06-09T10:26:45Z</time>
      </trkpt>
      <trkpt lat="46.61891" lon="5.88155">
        <ele>775.24</ele>
        <time>2024-06-09T10:26:46Z</time>
      </trkpt>
      <trkpt lat="46.61899" lon="5.88161">
        <ele>777.55</ele>
        <time>2024-06-09T10:26:54Z</time>
      </trkpt>
      <trkpt lat="46.61906" lon="5.88183">
        <ele>774.61</ele>
        <time>2024-06-09T10:27:08Z</time>
      </trkpt>
      <trkpt lat="46.61907" lon="5.88187">
        <ele>777.79</ele>
        <time>2024-06-09T10:27:10Z</time>
      </trkpt>
      <trkpt lat="46.61907" lon="5.88189">
        <ele>777.77</ele>
        <time>2024-06-09T10:27:11Z</time>
      </trkpt>
      <trkpt lat="46.61907" lon="5.88191">
        <ele>777.76</ele>
        <time>2024-06-09T10:27:12Z</time>
      </trkpt>
      <trkpt lat="46.61907" lon="5.88193">
        <ele>777.79</ele>
        <time>2024-06-09T10:27:13Z</time>
      </trkpt>
      <trkpt lat="46.61907" lon="5.88195">
        <ele>777.6</ele>
        <time>2024-06-09T10:27:14Z</time>
      </trkpt>
      <trkpt lat="46.61908" lon="5.88197">
        <ele>777.59</ele>
        <time>2024-06-09T10:27:15Z</time>
      </trkpt>
      <trkpt lat="46.61909" lon="5.88203">
        <ele>774.77</ele>
        <time>2024-06-09T10:27:18Z</time>
      </trkpt>
      <trkpt lat="46.61907" lon="5.88219">
        <ele>776.12</ele>
        <time>2024-06-09T10:27:26Z</time>
      </trkpt>
      <trkpt lat="46.61898" lon="5.88243">
        <ele>776.09</ele>
        <time>2024-06-09T10:27:41Z</time>
      </trkpt>
      <trkpt lat="46.61897" lon="5.88251">
        <ele>778.7</ele>
        <time>2024-06-09T10:27:46Z</time>
      </trkpt>
      <trkpt lat="46.61896" lon="5.8826">
        <ele>775.24</ele>
        <time>2024-06-09T10:27:50Z</time>
      </trkpt>
      <trkpt lat="46.61895" lon="5.88263">
        <ele>775.27</ele>
        <time>2024-06-09T10:27:51Z</time>
      </trkpt>
      <trkpt lat="46.6189" lon="5.8828">
        <ele>778.94</ele>
        <time>2024-06-09T10:28:00Z</time>
      </trkpt>
      <trkpt lat="46.6189" lon="5.88282">
        <ele>778.73</ele>
        <time>2024-06-09T10:28:01Z</time>
      </trkpt>
      <trkpt lat="46.61883" lon="5.88299">
        <ele>781.48</ele>
        <time>2024-06-09T10:28:11Z</time>
      </trkpt>
      <trkpt lat="46.61876" lon="5.88317">
        <ele>781.27</ele>
        <time>2024-06-09T10:28:24Z</time>
      </trkpt>
      <trkpt lat="46.61875" lon="5.88318">
        <ele>781.11</ele>
        <time>2024-06-09T10:28:25Z</time>
      </trkpt>
      <trkpt lat="46.61875" lon="5.8832">
        <ele>784.01</ele>
        <time>2024-06-09T10:28:26Z</time>
      </trkpt>
      <trkpt lat="46.61874" lon="5.88322">
        <ele>783.84</ele>
        <time>2024-06-09T10:28:27Z</time>
      </trkpt>
      <trkpt lat="46.61871" lon="5.88329">
        <ele>782.47</ele>
        <time>2024-06-09T10:28:31Z</time>
      </trkpt>
      <trkpt lat="46.61867" lon="5.88336">
        <ele>783.81</ele>
        <time>2024-06-09T10:28:38Z</time>
      </trkpt>
      <trkpt lat="46.61852" lon="5.88351">
        <ele>785.93</ele>
        <time>2024-06-09T10:28:54Z</time>
      </trkpt>
      <trkpt lat="46.61849" lon="5.88355">
        <ele>787.89</ele>
        <time>2024-06-09T10:28:57Z</time>
      </trkpt>
      <trkpt lat="46.61844" lon="5.8836">
        <ele>789.02</ele>
        <time>2024-06-09T10:29:01Z</time>
      </trkpt>
      <trkpt lat="46.61842" lon="5.8836">
        <ele>785.23</ele>
        <time>2024-06-09T10:29:02Z</time>
      </trkpt>
      <trkpt lat="46.61837" lon="5.88363">
        <ele>789.31</ele>
        <time>2024-06-09T10:29:06Z</time>
      </trkpt>
      <trkpt lat="46.61834" lon="5.88365">
        <ele>786.73</ele>
        <time>2024-06-09T10:29:08Z</time>
      </trkpt>
      <trkpt lat="46.6183" lon="5.88368">
        <ele>789.17</ele>
        <time>2024-06-09T10:29:13Z</time>
      </trkpt>
      <trkpt lat="46.61827" lon="5.8837">
        <ele>791.5</ele>
        <time>2024-06-09T10:29:17Z</time>
      </trkpt>
      <trkpt lat="46.61826" lon="5.88371">
        <ele>788.89</ele>
        <time>2024-06-09T10:29:19Z</time>
      </trkpt>
      <trkpt lat="46.61823" lon="5.88375">
        <ele>791.96</ele>
        <time>2024-06-09T10:29:23Z</time>
      </trkpt>
      <trkpt lat="46.61822" lon="5.88377">
        <ele>791.76</ele>
        <time>2024-06-09T10:29:24Z</time>
      </trkpt>
      <trkpt lat="46.6182" lon="5.88379">
        <ele>791.57</ele>
        <time>2024-06-09T10:29:26Z</time>
      </trkpt>
      <trkpt lat="46.61819" lon="5.88381">
        <ele>791.45</ele>
        <time>2024-06-09T10:29:27Z</time>
      </trkpt>
      <trkpt lat="46.61818" lon="5.88383">
        <ele>791.44</ele>
        <time>2024-06-09T10:29:28Z</time>
      </trkpt>
      <trkpt lat="46.61818" lon="5.88385">
        <ele>788.3</ele>
        <time>2024-06-09T10:29:29Z</time>
      </trkpt>
      <trkpt lat="46.61817" lon="5.88386">
        <ele>788.33</ele>
        <time>2024-06-09T10:29:30Z</time>
      </trkpt>
      <trkpt lat="46.61816" lon="5.88392">
        <ele>790.84</ele>
        <time>2024-06-09T10:29:33Z</time>
      </trkpt>
      <trkpt lat="46.61814" lon="5.88404">
        <ele>787.49</ele>
        <time>2024-06-09T10:29:41Z</time>
      </trkpt>
      <trkpt lat="46.61814" lon="5.88406">
        <ele>790.04</ele>
        <time>2024-06-09T10:29:42Z</time>
      </trkpt>
      <trkpt lat="46.61813" lon="5.8841">
        <ele>785.29</ele>
        <time>2024-06-09T10:29:44Z</time>
      </trkpt>
      <trkpt lat="46.61813" lon="5.88412">
        <ele>788.28</ele>
        <time>2024-06-09T10:29:45Z</time>
      </trkpt>
      <trkpt lat="46.61813" lon="5.88414">
        <ele>788.09</ele>
        <time>2024-06-09T10:29:46Z</time>
      </trkpt>
      <trkpt lat="46.61812" lon="5.88416">
        <ele>788.15</ele>
        <time>2024-06-09T10:29:47Z</time>
      </trkpt>
      <trkpt lat="46.61812" lon="5.88419">
        <ele>788.22</ele>
        <time>2024-06-09T10:29:48Z</time>
      </trkpt>
      <trkpt lat="46.61812" lon="5.88421">
        <ele>788</ele>
        <time>2024-06-09T10:29:49Z</time>
      </trkpt>
      <trkpt lat="46.61811" lon="5.88431">
        <ele>786.86</ele>
        <time>2024-06-09T10:29:55Z</time>
      </trkpt>
      <trkpt lat="46.6181" lon="5.88434">
        <ele>784.69</ele>
        <time>2024-06-09T10:29:57Z</time>
      </trkpt>
      <trkpt lat="46.6181" lon="5.88435">
        <ele>788.3</ele>
        <time>2024-06-09T10:29:58Z</time>
      </trkpt>
      <trkpt lat="46.61809" lon="5.88437">
        <ele>787.93</ele>
        <time>2024-06-09T10:29:59Z</time>
      </trkpt>
      <trkpt lat="46.61809" lon="5.88447">
        <ele>784.14</ele>
        <time>2024-06-09T10:30:05Z</time>
      </trkpt>
      <trkpt lat="46.61809" lon="5.88449">
        <ele>784.17</ele>
        <time>2024-06-09T10:30:06Z</time>
      </trkpt>
      <trkpt lat="46.6181" lon="5.88451">
        <ele>786.95</ele>
        <time>2024-06-09T10:30:08Z</time>
      </trkpt>
      <trkpt lat="46.61808" lon="5.88468">
        <ele>784.46</ele>
        <time>2024-06-09T10:30:20Z</time>
      </trkpt>
      <trkpt lat="46.61807" lon="5.8847">
        <ele>788.98</ele>
        <time>2024-06-09T10:30:22Z</time>
      </trkpt>
      <trkpt lat="46.61807" lon="5.88472">
        <ele>786.47</ele>
        <time>2024-06-09T10:30:23Z</time>
      </trkpt>
      <trkpt lat="46.61806" lon="5.88477">
        <ele>783.23</ele>
        <time>2024-06-09T10:30:27Z</time>
      </trkpt>
      <trkpt lat="46.61809" lon="5.88501">
        <ele>785.54</ele>
        <time>2024-06-09T10:30:40Z</time>
      </trkpt>
      <trkpt lat="46.61808" lon="5.88505">
        <ele>787.76</ele>
        <time>2024-06-09T10:30:42Z</time>
      </trkpt>
      <trkpt lat="46.61808" lon="5.88507">
        <ele>781.93</ele>
        <time>2024-06-09T10:30:43Z</time>
      </trkpt>
      <trkpt lat="46.61808" lon="5.88508">
        <ele>785</ele>
        <time>2024-06-09T10:30:44Z</time>
      </trkpt>
      <trkpt lat="46.61808" lon="5.88512">
        <ele>784.99</ele>
        <time>2024-06-09T10:30:46Z</time>
      </trkpt>
      <trkpt lat="46.61808" lon="5.88514">
        <ele>786.09</ele>
        <time>2024-06-09T10:30:47Z</time>
      </trkpt>
      <trkpt lat="46.61808" lon="5.88524">
        <ele>786.05</ele>
        <time>2024-06-09T10:30:52Z</time>
      </trkpt>
      <trkpt lat="46.6181" lon="5.8853">
        <ele>783.44</ele>
        <time>2024-06-09T10:30:56Z</time>
      </trkpt>
      <trkpt lat="46.61808" lon="5.88567">
        <ele>783.29</ele>
        <time>2024-06-09T10:31:11Z</time>
      </trkpt>
      <trkpt lat="46.61807" lon="5.88587">
        <ele>781.48</ele>
        <time>2024-06-09T10:31:18Z</time>
      </trkpt>
      <trkpt lat="46.61807" lon="5.88599">
        <ele>784.12</ele>
        <time>2024-06-09T10:31:22Z</time>
      </trkpt>
      <trkpt lat="46.6181" lon="5.8863">
        <ele>780.98</ele>
        <time>2024-06-09T10:31:34Z</time>
      </trkpt>
      <trkpt lat="46.61813" lon="5.88634">
        <ele>780.31</ele>
        <time>2024-06-09T10:31:36Z</time>
      </trkpt>
      <trkpt lat="46.61815" lon="5.88638">
        <ele>780.13</ele>
        <time>2024-06-09T10:31:38Z</time>
      </trkpt>
      <trkpt lat="46.61817" lon="5.88639">
        <ele>780.28</ele>
        <time>2024-06-09T10:31:39Z</time>
      </trkpt>
      <trkpt lat="46.61818" lon="5.88642">
        <ele>780.1</ele>
        <time>2024-06-09T10:31:40Z</time>
      </trkpt>
      <trkpt lat="46.61824" lon="5.88657">
        <ele>783.14</ele>
        <time>2024-06-09T10:31:47Z</time>
      </trkpt>
      <trkpt lat="46.61825" lon="5.8866">
        <ele>783.05</ele>
        <time>2024-06-09T10:31:48Z</time>
      </trkpt>
      <trkpt lat="46.61826" lon="5.88665">
        <ele>780.03</ele>
        <time>2024-06-09T10:31:50Z</time>
      </trkpt>
      <trkpt lat="46.61827" lon="5.88667">
        <ele>780.01</ele>
        <time>2024-06-09T10:31:51Z</time>
      </trkpt>
      <trkpt lat="46.61828" lon="5.88688">
        <ele>778.77</ele>
        <time>2024-06-09T10:32:00Z</time>
      </trkpt>
      <trkpt lat="46.61831" lon="5.88699">
        <ele>781.62</ele>
        <time>2024-06-09T10:32:05Z</time>
      </trkpt>
      <trkpt lat="46.61832" lon="5.88703">
        <ele>777.98</ele>
        <time>2024-06-09T10:32:07Z</time>
      </trkpt>
      <trkpt lat="46.61833" lon="5.88705">
        <ele>778.05</ele>
        <time>2024-06-09T10:32:08Z</time>
      </trkpt>
      <trkpt lat="46.61837" lon="5.88716">
        <ele>780.8</ele>
        <time>2024-06-09T10:32:13Z</time>
      </trkpt>
      <trkpt lat="46.61838" lon="5.8872">
        <ele>776.58</ele>
        <time>2024-06-09T10:32:15Z</time>
      </trkpt>
      <trkpt lat="46.61838" lon="5.88723">
        <ele>776.63</ele>
        <time>2024-06-09T10:32:16Z</time>
      </trkpt>
      <trkpt lat="46.61839" lon="5.88729">
        <ele>779.14</ele>
        <time>2024-06-09T10:32:19Z</time>
      </trkpt>
      <trkpt lat="46.61837" lon="5.88738">
        <ele>780.91</ele>
        <time>2024-06-09T10:32:24Z</time>
      </trkpt>
      <trkpt lat="46.61836" lon="5.88745">
        <ele>776.6</ele>
        <time>2024-06-09T10:32:27Z</time>
      </trkpt>
      <trkpt lat="46.61837" lon="5.88749">
        <ele>775.71</ele>
        <time>2024-06-09T10:32:29Z</time>
      </trkpt>
      <trkpt lat="46.61839" lon="5.88765">
        <ele>779.14</ele>
        <time>2024-06-09T10:32:37Z</time>
      </trkpt>
      <trkpt lat="46.61839" lon="5.88767">
        <ele>779.16</ele>
        <time>2024-06-09T10:32:38Z</time>
      </trkpt>
      <trkpt lat="46.61839" lon="5.88773">
        <ele>774.41</ele>
        <time>2024-06-09T10:32:41Z</time>
      </trkpt>
      <trkpt lat="46.61839" lon="5.88775">
        <ele>774.43</ele>
        <time>2024-06-09T10:32:42Z</time>
      </trkpt>
      <trkpt lat="46.61841" lon="5.88788">
        <ele>777.24</ele>
        <time>2024-06-09T10:32:48Z</time>
      </trkpt>
      <trkpt lat="46.61841" lon="5.88794">
        <ele>773.49</ele>
        <time>2024-06-09T10:32:51Z</time>
      </trkpt>
      <trkpt lat="46.61841" lon="5.88796">
        <ele>773.6</ele>
        <time>2024-06-09T10:32:52Z</time>
      </trkpt>
      <trkpt lat="46.61842" lon="5.888">
        <ele>772.52</ele>
        <time>2024-06-09T10:32:54Z</time>
      </trkpt>
      <trkpt lat="46.61842" lon="5.88802">
        <ele>777.11</ele>
        <time>2024-06-09T10:32:55Z</time>
      </trkpt>
      <trkpt lat="46.61842" lon="5.88804">
        <ele>777.1</ele>
        <time>2024-06-09T10:32:56Z</time>
      </trkpt>
      <trkpt lat="46.61842" lon="5.88807">
        <ele>777.08</ele>
        <time>2024-06-09T10:32:57Z</time>
      </trkpt>
      <trkpt lat="46.61841" lon="5.88809">
        <ele>776.9</ele>
        <time>2024-06-09T10:32:58Z</time>
      </trkpt>
      <trkpt lat="46.6184" lon="5.88813">
        <ele>772.93</ele>
        <time>2024-06-09T10:33:00Z</time>
      </trkpt>
      <trkpt lat="46.6184" lon="5.88815">
        <ele>776.13</ele>
        <time>2024-06-09T10:33:01Z</time>
      </trkpt>
      <trkpt lat="46.61839" lon="5.88818">
        <ele>776.99</ele>
        <time>2024-06-09T10:33:03Z</time>
      </trkpt>
      <trkpt lat="46.61839" lon="5.8882">
        <ele>774.67</ele>
        <time>2024-06-09T10:33:10Z</time>
      </trkpt>
      <trkpt lat="46.61832" lon="5.88845">
        <ele>774.66</ele>
        <time>2024-06-09T10:33:24Z</time>
      </trkpt>
      <trkpt lat="46.61828" lon="5.88866">
        <ele>776.13</ele>
        <time>2024-06-09T10:33:40Z</time>
      </trkpt>
      <trkpt lat="46.61828" lon="5.88866">
        <ele>773.2</ele>
        <time>2024-06-09T10:33:44Z</time>
      </trkpt>
      <trkpt lat="46.61828" lon="5.88865">
        <ele>777.31</ele>
        <time>2024-06-09T10:33:45Z</time>
      </trkpt>
      <trkpt lat="46.61828" lon="5.88865">
        <ele>777.3</ele>
        <time>2024-06-09T10:33:46Z</time>
      </trkpt>
      <trkpt lat="46.61827" lon="5.88865">
        <ele>774.57</ele>
        <time>2024-06-09T10:33:50Z</time>
      </trkpt>
      <trkpt lat="46.61828" lon="5.88868">
        <ele>772.89</ele>
        <time>2024-06-09T10:34:06Z</time>
      </trkpt>
      <trkpt lat="46.61827" lon="5.8887">
        <ele>772.8</ele>
        <time>2024-06-09T10:34:40Z</time>
      </trkpt>
      <trkpt lat="46.61827" lon="5.88869">
        <ele>772.69</ele>
        <time>2024-06-09T10:35:19Z</time>
      </trkpt>
      <trkpt lat="46.61828" lon="5.88867">
        <ele>772.63</ele>
        <time>2024-06-09T10:35:50Z</time>
      </trkpt>
      <trkpt lat="46.6183" lon="5.88863">
        <ele>772.57</ele>
        <time>2024-06-09T10:36:23Z</time>
      </trkpt>
      <trkpt lat="46.61829" lon="5.88863">
        <ele>772.53</ele>
        <time>2024-06-09T10:37:01Z</time>
      </trkpt>
      <trkpt lat="46.61831" lon="5.88863">
        <ele>772.5</ele>
        <time>2024-06-09T10:37:31Z</time>
      </trkpt>
      <trkpt lat="46.6183" lon="5.88864">
        <ele>772.43</ele>
        <time>2024-06-09T10:38:09Z</time>
      </trkpt>
      <trkpt lat="46.61829" lon="5.88864">
        <ele>772.34</ele>
        <time>2024-06-09T10:38:46Z</time>
      </trkpt>
      <trkpt lat="46.61829" lon="5.88865">
        <ele>774.9</ele>
        <time>2024-06-09T10:38:54Z</time>
      </trkpt>
      <trkpt lat="46.61829" lon="5.88865">
        <ele>771.59</ele>
        <time>2024-06-09T10:38:57Z</time>
      </trkpt>
      <trkpt lat="46.61829" lon="5.88865">
        <ele>770.71</ele>
        <time>2024-06-09T10:38:59Z</time>
      </trkpt>
      <trkpt lat="46.61829" lon="5.88864">
        <ele>773.17</ele>
        <time>2024-06-09T10:39:02Z</time>
      </trkpt>
      <trkpt lat="46.61829" lon="5.88864">
        <ele>777.09</ele>
        <time>2024-06-09T10:39:06Z</time>
      </trkpt>
      <trkpt lat="46.61829" lon="5.88863">
        <ele>777.09</ele>
        <time>2024-06-09T10:39:07Z</time>
      </trkpt>
      <trkpt lat="46.6183" lon="5.88863">
        <ele>773.75</ele>
        <time>2024-06-09T10:39:09Z</time>
      </trkpt>
      <trkpt lat="46.6183" lon="5.88863">
        <ele>772.61</ele>
        <time>2024-06-09T10:39:11Z</time>
      </trkpt>
      <trkpt lat="46.61831" lon="5.88863">
        <ele>775.98</ele>
        <time>2024-06-09T10:39:15Z</time>
      </trkpt>
      <trkpt lat="46.61831" lon="5.88863">
        <ele>775.98</ele>
        <time>2024-06-09T10:39:16Z</time>
      </trkpt>
      <trkpt lat="46.61831" lon="5.88863">
        <ele>773.69</ele>
        <time>2024-06-09T10:39:19Z</time>
      </trkpt>
      <trkpt lat="46.61831" lon="5.88865">
        <ele>773.62</ele>
        <time>2024-06-09T10:39:34Z</time>
      </trkpt>
      <trkpt lat="46.61829" lon="5.88868">
        <ele>773.61</ele>
        <time>2024-06-09T10:39:58Z</time>
      </trkpt>
      <trkpt lat="46.6183" lon="5.88883">
        <ele>774.33</ele>
        <time>2024-06-09T10:40:15Z</time>
      </trkpt>
      <trkpt lat="46.61827" lon="5.88909">
        <ele>774.31</ele>
        <time>2024-06-09T10:40:32Z</time>
      </trkpt>
      <trkpt lat="46.61821" lon="5.88935">
        <ele>774.32</ele>
        <time>2024-06-09T10:40:45Z</time>
      </trkpt>
      <trkpt lat="46.6182" lon="5.8894">
        <ele>771.8</ele>
        <time>2024-06-09T10:40:47Z</time>
      </trkpt>
      <trkpt lat="46.61818" lon="5.88946">
        <ele>774.48</ele>
        <time>2024-06-09T10:40:50Z</time>
      </trkpt>
      <trkpt lat="46.61815" lon="5.88953">
        <ele>771.2</ele>
        <time>2024-06-09T10:40:54Z</time>
      </trkpt>
      <trkpt lat="46.6181" lon="5.88961">
        <ele>775.3</ele>
        <time>2024-06-09T10:40:59Z</time>
      </trkpt>
      <trkpt lat="46.61803" lon="5.88969">
        <ele>773.9</ele>
        <time>2024-06-09T10:41:05Z</time>
      </trkpt>
      <trkpt lat="46.61782" lon="5.88993">
        <ele>775.81</ele>
        <time>2024-06-09T10:41:22Z</time>
      </trkpt>
      <trkpt lat="46.61779" lon="5.88995">
        <ele>772.49</ele>
        <time>2024-06-09T10:41:24Z</time>
      </trkpt>
      <trkpt lat="46.61768" lon="5.88998">
        <ele>774.72</ele>
        <time>2024-06-09T10:41:32Z</time>
      </trkpt>
      <trkpt lat="46.61767" lon="5.88997">
        <ele>774.73</ele>
        <time>2024-06-09T10:41:33Z</time>
      </trkpt>
      <trkpt lat="46.61766" lon="5.88996">
        <ele>774.83</ele>
        <time>2024-06-09T10:41:34Z</time>
      </trkpt>
      <trkpt lat="46.61765" lon="5.88995">
        <ele>774.81</ele>
        <time>2024-06-09T10:41:35Z</time>
      </trkpt>
      <trkpt lat="46.61764" lon="5.88994">
        <ele>776.02</ele>
        <time>2024-06-09T10:41:36Z</time>
      </trkpt>
      <trkpt lat="46.61763" lon="5.88992">
        <ele>775.96</ele>
        <time>2024-06-09T10:41:37Z</time>
      </trkpt>
      <trkpt lat="46.61762" lon="5.88991">
        <ele>772.93</ele>
        <time>2024-06-09T10:41:38Z</time>
      </trkpt>
      <trkpt lat="46.6176" lon="5.8899">
        <ele>772.12</ele>
        <time>2024-06-09T10:41:39Z</time>
      </trkpt>
      <trkpt lat="46.61759" lon="5.88989">
        <ele>772.12</ele>
        <time>2024-06-09T10:41:40Z</time>
      </trkpt>
      <trkpt lat="46.61754" lon="5.88988">
        <ele>775.79</ele>
        <time>2024-06-09T10:41:43Z</time>
      </trkpt>
      <trkpt lat="46.61753" lon="5.88987">
        <ele>775.7</ele>
        <time>2024-06-09T10:41:44Z</time>
      </trkpt>
      <trkpt lat="46.61751" lon="5.88985">
        <ele>775.66</ele>
        <time>2024-06-09T10:41:46Z</time>
      </trkpt>
      <trkpt lat="46.6175" lon="5.88985">
        <ele>773.22</ele>
        <time>2024-06-09T10:41:47Z</time>
      </trkpt>
      <trkpt lat="46.61748" lon="5.88985">
        <ele>773.21</ele>
        <time>2024-06-09T10:41:48Z</time>
      </trkpt>
      <trkpt lat="46.61747" lon="5.88984">
        <ele>773.23</ele>
        <time>2024-06-09T10:41:49Z</time>
      </trkpt>
      <trkpt lat="46.61731" lon="5.88973">
        <ele>773.04</ele>
        <time>2024-06-09T10:42:00Z</time>
      </trkpt>
      <trkpt lat="46.61718" lon="5.88967">
        <ele>775.27</ele>
        <time>2024-06-09T10:42:08Z</time>
      </trkpt>
      <trkpt lat="46.61711" lon="5.88967">
        <ele>775.27</ele>
        <time>2024-06-09T10:42:12Z</time>
      </trkpt>
      <trkpt lat="46.61694" lon="5.88968">
        <ele>775.18</ele>
        <time>2024-06-09T10:42:22Z</time>
      </trkpt>
      <trkpt lat="46.61693" lon="5.88969">
        <ele>775.17</ele>
        <time>2024-06-09T10:42:23Z</time>
      </trkpt>
      <trkpt lat="46.61691" lon="5.88969">
        <ele>772.16</ele>
        <time>2024-06-09T10:42:24Z</time>
      </trkpt>
      <trkpt lat="46.61689" lon="5.8897">
        <ele>772.15</ele>
        <time>2024-06-09T10:42:25Z</time>
      </trkpt>
      <trkpt lat="46.61687" lon="5.88971">
        <ele>772.17</ele>
        <time>2024-06-09T10:42:26Z</time>
      </trkpt>
      <trkpt lat="46.61685" lon="5.88971">
        <ele>772.17</ele>
        <time>2024-06-09T10:42:27Z</time>
      </trkpt>
      <trkpt lat="46.61684" lon="5.88971">
        <ele>775.13</ele>
        <time>2024-06-09T10:42:28Z</time>
      </trkpt>
      <trkpt lat="46.61682" lon="5.88971">
        <ele>775.11</ele>
        <time>2024-06-09T10:42:29Z</time>
      </trkpt>
      <trkpt lat="46.61681" lon="5.88972">
        <ele>774.97</ele>
        <time>2024-06-09T10:42:30Z</time>
      </trkpt>
      <trkpt lat="46.61679" lon="5.88973">
        <ele>775.06</ele>
        <time>2024-06-09T10:42:31Z</time>
      </trkpt>
      <trkpt lat="46.61677" lon="5.88973">
        <ele>775.05</ele>
        <time>2024-06-09T10:42:32Z</time>
      </trkpt>
      <trkpt lat="46.61675" lon="5.88974">
        <ele>775.03</ele>
        <time>2024-06-09T10:42:33Z</time>
      </trkpt>
      <trkpt lat="46.61673" lon="5.88974">
        <ele>775.01</ele>
        <time>2024-06-09T10:42:34Z</time>
      </trkpt>
      <trkpt lat="46.61671" lon="5.88975">
        <ele>774.99</ele>
        <time>2024-06-09T10:42:35Z</time>
      </trkpt>
      <trkpt lat="46.6167" lon="5.88975">
        <ele>775.06</ele>
        <time>2024-06-09T10:42:36Z</time>
      </trkpt>
      <trkpt lat="46.61665" lon="5.88978">
        <ele>772.69</ele>
        <time>2024-06-09T10:42:39Z</time>
      </trkpt>
      <trkpt lat="46.61645" lon="5.88996">
        <ele>771.13</ele>
        <time>2024-06-09T10:42:53Z</time>
      </trkpt>
      <trkpt lat="46.61644" lon="5.88997">
        <ele>771.12</ele>
        <time>2024-06-09T10:42:54Z</time>
      </trkpt>
      <trkpt lat="46.61643" lon="5.88999">
        <ele>774.12</ele>
        <time>2024-06-09T10:42:55Z</time>
      </trkpt>
      <trkpt lat="46.61641" lon="5.89004">
        <ele>775.05</ele>
        <time>2024-06-09T10:42:57Z</time>
      </trkpt>
      <trkpt lat="46.6164" lon="5.89008">
        <ele>770.29</ele>
        <time>2024-06-09T10:42:59Z</time>
      </trkpt>
      <trkpt lat="46.61639" lon="5.8901">
        <ele>770.3</ele>
        <time>2024-06-09T10:43:00Z</time>
      </trkpt>
      <trkpt lat="46.61637" lon="5.89016">
        <ele>772.97</ele>
        <time>2024-06-09T10:43:03Z</time>
      </trkpt>
      <trkpt lat="46.61636" lon="5.89026">
        <ele>774.42</ele>
        <time>2024-06-09T10:43:07Z</time>
      </trkpt>
      <trkpt lat="46.61636" lon="5.89034">
        <ele>770.51</ele>
        <time>2024-06-09T10:43:10Z</time>
      </trkpt>
      <trkpt lat="46.61636" lon="5.89037">
        <ele>772.79</ele>
        <time>2024-06-09T10:43:11Z</time>
      </trkpt>
      <trkpt lat="46.61634" lon="5.89055">
        <ele>772.8</ele>
        <time>2024-06-09T10:43:20Z</time>
      </trkpt>
      <trkpt lat="46.61634" lon="5.89057">
        <ele>772.76</ele>
        <time>2024-06-09T10:43:21Z</time>
      </trkpt>
      <trkpt lat="46.61632" lon="5.89071">
        <ele>771.49</ele>
        <time>2024-06-09T10:43:28Z</time>
      </trkpt>
      <trkpt lat="46.61629" lon="5.89084">
        <ele>773.79</ele>
        <time>2024-06-09T10:43:33Z</time>
      </trkpt>
      <trkpt lat="46.61617" lon="5.89109">
        <ele>772.07</ele>
        <time>2024-06-09T10:43:48Z</time>
      </trkpt>
      <trkpt lat="46.61605" lon="5.89107">
        <ele>774.55</ele>
        <time>2024-06-09T10:43:55Z</time>
      </trkpt>
      <trkpt lat="46.61594" lon="5.89104">
        <ele>775.87</ele>
        <time>2024-06-09T10:44:01Z</time>
      </trkpt>
      <trkpt lat="46.6157" lon="5.89102">
        <ele>775.8</ele>
        <time>2024-06-09T10:44:17Z</time>
      </trkpt>
      <trkpt lat="46.61549" lon="5.8911">
        <ele>776.4</ele>
        <time>2024-06-09T10:44:32Z</time>
      </trkpt>
      <trkpt lat="46.61543" lon="5.8911">
        <ele>778.28</ele>
        <time>2024-06-09T10:44:37Z</time>
      </trkpt>
      <trkpt lat="46.61541" lon="5.8911">
        <ele>775.02</ele>
        <time>2024-06-09T10:44:38Z</time>
      </trkpt>
      <trkpt lat="46.6154" lon="5.8911">
        <ele>775.03</ele>
        <time>2024-06-09T10:44:39Z</time>
      </trkpt>
      <trkpt lat="46.61537" lon="5.8911">
        <ele>773.79</ele>
        <time>2024-06-09T10:44:41Z</time>
      </trkpt>
      <trkpt lat="46.61529" lon="5.89112">
        <ele>776.7</ele>
        <time>2024-06-09T10:44:46Z</time>
      </trkpt>
      <trkpt lat="46.61528" lon="5.89113">
        <ele>773.96</ele>
        <time>2024-06-09T10:44:47Z</time>
      </trkpt>
      <trkpt lat="46.61526" lon="5.89115">
        <ele>773.95</ele>
        <time>2024-06-09T10:44:48Z</time>
      </trkpt>
      <trkpt lat="46.61514" lon="5.89129">
        <ele>776.73</ele>
        <time>2024-06-09T10:44:58Z</time>
      </trkpt>
      <trkpt lat="46.61512" lon="5.89132">
        <ele>773.28</ele>
        <time>2024-06-09T10:45:01Z</time>
      </trkpt>
      <trkpt lat="46.61511" lon="5.89133">
        <ele>773.41</ele>
        <time>2024-06-09T10:45:02Z</time>
      </trkpt>
      <trkpt lat="46.61503" lon="5.8914">
        <ele>776.7</ele>
        <time>2024-06-09T10:45:09Z</time>
      </trkpt>
      <trkpt lat="46.61502" lon="5.89141">
        <ele>776.56</ele>
        <time>2024-06-09T10:45:10Z</time>
      </trkpt>
      <trkpt lat="46.61484" lon="5.89146">
        <ele>776.56</ele>
        <time>2024-06-09T10:45:26Z</time>
      </trkpt>
      <trkpt lat="46.61464" lon="5.89157">
        <ele>778.33</ele>
        <time>2024-06-09T10:45:43Z</time>
      </trkpt>
      <trkpt lat="46.61441" lon="5.89158">
        <ele>779.29</ele>
        <time>2024-06-09T10:45:59Z</time>
      </trkpt>
      <trkpt lat="46.61432" lon="5.89159">
        <ele>777.54</ele>
        <time>2024-06-09T10:46:06Z</time>
      </trkpt>
      <trkpt lat="46.61427" lon="5.8916">
        <ele>778.89</ele>
        <time>2024-06-09T10:46:11Z</time>
      </trkpt>
      <trkpt lat="46.61423" lon="5.89161">
        <ele>780.32</ele>
        <time>2024-06-09T10:46:15Z</time>
      </trkpt>
      <trkpt lat="46.61415" lon="5.89165">
        <ele>778.27</ele>
        <time>2024-06-09T10:46:25Z</time>
      </trkpt>
      <trkpt lat="46.61415" lon="5.89165">
        <ele>781.57</ele>
        <time>2024-06-09T10:46:26Z</time>
      </trkpt>
      <trkpt lat="46.61414" lon="5.89165">
        <ele>781.58</ele>
        <time>2024-06-09T10:46:27Z</time>
      </trkpt>
      <trkpt lat="46.61401" lon="5.89176">
        <ele>784.25</ele>
        <time>2024-06-09T10:46:42Z</time>
      </trkpt>
      <trkpt lat="46.614" lon="5.89177">
        <ele>784.24</ele>
        <time>2024-06-09T10:46:43Z</time>
      </trkpt>
      <trkpt lat="46.61396" lon="5.89182">
        <ele>784.1</ele>
        <time>2024-06-09T10:46:48Z</time>
      </trkpt>
      <trkpt lat="46.6138" lon="5.89199">
        <ele>785.8</ele>
        <time>2024-06-09T10:47:04Z</time>
      </trkpt>
      <trkpt lat="46.61379" lon="5.892">
        <ele>785.8</ele>
        <time>2024-06-09T10:47:05Z</time>
      </trkpt>
      <trkpt lat="46.61377" lon="5.89203">
        <ele>783.2</ele>
        <time>2024-06-09T10:47:08Z</time>
      </trkpt>
      <trkpt lat="46.61375" lon="5.89204">
        <ele>785.87</ele>
        <time>2024-06-09T10:47:10Z</time>
      </trkpt>
      <trkpt lat="46.61366" lon="5.89212">
        <ele>787.43</ele>
        <time>2024-06-09T10:47:17Z</time>
      </trkpt>
      <trkpt lat="46.61364" lon="5.89214">
        <ele>784.97</ele>
        <time>2024-06-09T10:47:19Z</time>
      </trkpt>
      <trkpt lat="46.61357" lon="5.8922">
        <ele>787.82</ele>
        <time>2024-06-09T10:47:25Z</time>
      </trkpt>
      <trkpt lat="46.61344" lon="5.89237">
        <ele>786.63</ele>
        <time>2024-06-09T10:47:38Z</time>
      </trkpt>
      <trkpt lat="46.61342" lon="5.8924">
        <ele>784.65</ele>
        <time>2024-06-09T10:47:43Z</time>
      </trkpt>
      <trkpt lat="46.61342" lon="5.8924">
        <ele>788.01</ele>
        <time>2024-06-09T10:47:45Z</time>
      </trkpt>
      <trkpt lat="46.61342" lon="5.8924">
        <ele>788.01</ele>
        <time>2024-06-09T10:47:46Z</time>
      </trkpt>
      <trkpt lat="46.61341" lon="5.89242">
        <ele>791.79</ele>
        <time>2024-06-09T10:47:48Z</time>
      </trkpt>
      <trkpt lat="46.6134" lon="5.89243">
        <ele>791.77</ele>
        <time>2024-06-09T10:47:49Z</time>
      </trkpt>
      <trkpt lat="46.61335" lon="5.89249">
        <ele>788.59</ele>
        <time>2024-06-09T10:47:54Z</time>
      </trkpt>
      <trkpt lat="46.61335" lon="5.8925">
        <ele>788.61</ele>
        <time>2024-06-09T10:47:55Z</time>
      </trkpt>
      <trkpt lat="46.61333" lon="5.89255">
        <ele>791.09</ele>
        <time>2024-06-09T10:47:58Z</time>
      </trkpt>
      <trkpt lat="46.61327" lon="5.89266">
        <ele>788.56</ele>
        <time>2024-06-09T10:48:06Z</time>
      </trkpt>
      <trkpt lat="46.61323" lon="5.89278">
        <ele>791.04</ele>
        <time>2024-06-09T10:48:14Z</time>
      </trkpt>
      <trkpt lat="46.61315" lon="5.89292">
        <ele>795.39</ele>
        <time>2024-06-09T10:48:25Z</time>
      </trkpt>
      <trkpt lat="46.61315" lon="5.89294">
        <ele>795.38</ele>
        <time>2024-06-09T10:48:26Z</time>
      </trkpt>
      <trkpt lat="46.61309" lon="5.89307">
        <ele>793.47</ele>
        <time>2024-06-09T10:48:35Z</time>
      </trkpt>
      <trkpt lat="46.61306" lon="5.89316">
        <ele>793.4</ele>
        <time>2024-06-09T10:48:41Z</time>
      </trkpt>
      <trkpt lat="46.61306" lon="5.89321">
        <ele>795.81</ele>
        <time>2024-06-09T10:48:44Z</time>
      </trkpt>
      <trkpt lat="46.61305" lon="5.89336">
        <ele>795.88</ele>
        <time>2024-06-09T10:48:52Z</time>
      </trkpt>
      <trkpt lat="46.61306" lon="5.89338">
        <ele>795.87</ele>
        <time>2024-06-09T10:48:53Z</time>
      </trkpt>
      <trkpt lat="46.61308" lon="5.8934">
        <ele>792.77</ele>
        <time>2024-06-09T10:48:55Z</time>
      </trkpt>
      <trkpt lat="46.61309" lon="5.89341">
        <ele>792.84</ele>
        <time>2024-06-09T10:48:56Z</time>
      </trkpt>
      <trkpt lat="46.61315" lon="5.89351">
        <ele>794.06</ele>
        <time>2024-06-09T10:49:03Z</time>
      </trkpt>
      <trkpt lat="46.61318" lon="5.89354">
        <ele>793.99</ele>
        <time>2024-06-09T10:49:06Z</time>
      </trkpt>
      <trkpt lat="46.61324" lon="5.89358">
        <ele>793.85</ele>
        <time>2024-06-09T10:49:11Z</time>
      </trkpt>
      <trkpt lat="46.61325" lon="5.89359">
        <ele>793.84</ele>
        <time>2024-06-09T10:49:12Z</time>
      </trkpt>
      <trkpt lat="46.61326" lon="5.8936">
        <ele>789.93</ele>
        <time>2024-06-09T10:49:13Z</time>
      </trkpt>
      <trkpt lat="46.61325" lon="5.89361">
        <ele>792.93</ele>
        <time>2024-06-09T10:49:14Z</time>
      </trkpt>
      <trkpt lat="46.61325" lon="5.89366">
        <ele>794.17</ele>
        <time>2024-06-09T10:49:16Z</time>
      </trkpt>
      <trkpt lat="46.61325" lon="5.89369">
        <ele>794.1</ele>
        <time>2024-06-09T10:49:17Z</time>
      </trkpt>
      <trkpt lat="46.61324" lon="5.89372">
        <ele>794.09</ele>
        <time>2024-06-09T10:49:18Z</time>
      </trkpt>
      <trkpt lat="46.61324" lon="5.89374">
        <ele>794.02</ele>
        <time>2024-06-09T10:49:19Z</time>
      </trkpt>
      <trkpt lat="46.61323" lon="5.89377">
        <ele>790.82</ele>
        <time>2024-06-09T10:49:20Z</time>
      </trkpt>
      <trkpt lat="46.61324" lon="5.89379">
        <ele>790.81</ele>
        <time>2024-06-09T10:49:21Z</time>
      </trkpt>
      <trkpt lat="46.61323" lon="5.89383">
        <ele>793.89</ele>
        <time>2024-06-09T10:49:23Z</time>
      </trkpt>
      <trkpt lat="46.61323" lon="5.89384">
        <ele>790.13</ele>
        <time>2024-06-09T10:49:24Z</time>
      </trkpt>
      <trkpt lat="46.61323" lon="5.89392">
        <ele>792.84</ele>
        <time>2024-06-09T10:49:28Z</time>
      </trkpt>
      <trkpt lat="46.61323" lon="5.89398">
        <ele>792.81</ele>
        <time>2024-06-09T10:49:31Z</time>
      </trkpt>
      <trkpt lat="46.61324" lon="5.894">
        <ele>794.99</ele>
        <time>2024-06-09T10:49:33Z</time>
      </trkpt>
      <trkpt lat="46.61324" lon="5.89402">
        <ele>794.91</ele>
        <time>2024-06-09T10:49:34Z</time>
      </trkpt>
      <trkpt lat="46.61324" lon="5.89404">
        <ele>794.9</ele>
        <time>2024-06-09T10:49:35Z</time>
      </trkpt>
      <trkpt lat="46.61324" lon="5.89406">
        <ele>794.86</ele>
        <time>2024-06-09T10:49:36Z</time>
      </trkpt>
      <trkpt lat="46.61324" lon="5.89408">
        <ele>794.85</ele>
        <time>2024-06-09T10:49:37Z</time>
      </trkpt>
      <trkpt lat="46.61324" lon="5.89409">
        <ele>794.87</ele>
        <time>2024-06-09T10:49:38Z</time>
      </trkpt>
      <trkpt lat="46.61324" lon="5.89411">
        <ele>794.85</ele>
        <time>2024-06-09T10:49:39Z</time>
      </trkpt>
      <trkpt lat="46.61324" lon="5.89413">
        <ele>794.79</ele>
        <time>2024-06-09T10:49:40Z</time>
      </trkpt>
      <trkpt lat="46.61325" lon="5.89415">
        <ele>794.8</ele>
        <time>2024-06-09T10:49:41Z</time>
      </trkpt>
      <trkpt lat="46.61325" lon="5.89417">
        <ele>794.73</ele>
        <time>2024-06-09T10:49:42Z</time>
      </trkpt>
      <trkpt lat="46.61325" lon="5.8942">
        <ele>792.22</ele>
        <time>2024-06-09T10:49:43Z</time>
      </trkpt>
      <trkpt lat="46.61325" lon="5.89421">
        <ele>792.19</ele>
        <time>2024-06-09T10:49:44Z</time>
      </trkpt>
      <trkpt lat="46.61324" lon="5.89442">
        <ele>794.26</ele>
        <time>2024-06-09T10:49:56Z</time>
      </trkpt>
      <trkpt lat="46.61323" lon="5.89445">
        <ele>795.85</ele>
        <time>2024-06-09T10:49:58Z</time>
      </trkpt>
      <trkpt lat="46.61315" lon="5.89453">
        <ele>796.65</ele>
        <time>2024-06-09T10:50:14Z</time>
      </trkpt>
      <trkpt lat="46.61304" lon="5.89456">
        <ele>800</ele>
        <time>2024-06-09T10:50:27Z</time>
      </trkpt>
      <trkpt lat="46.61304" lon="5.89458">
        <ele>799.98</ele>
        <time>2024-06-09T10:50:28Z</time>
      </trkpt>
      <trkpt lat="46.61284" lon="5.89472">
        <ele>802.37</ele>
        <time>2024-06-09T10:50:44Z</time>
      </trkpt>
      <trkpt lat="46.6128" lon="5.89478">
        <ele>799.9</ele>
        <time>2024-06-09T10:50:48Z</time>
      </trkpt>
      <trkpt lat="46.61275" lon="5.89483">
        <ele>802.83</ele>
        <time>2024-06-09T10:50:54Z</time>
      </trkpt>
      <trkpt lat="46.61274" lon="5.89486">
        <ele>802.81</ele>
        <time>2024-06-09T10:50:57Z</time>
      </trkpt>
      <trkpt lat="46.61274" lon="5.89488">
        <ele>802.78</ele>
        <time>2024-06-09T10:50:58Z</time>
      </trkpt>
      <trkpt lat="46.61283" lon="5.89524">
        <ele>804.91</ele>
        <time>2024-06-09T10:51:17Z</time>
      </trkpt>
      <trkpt lat="46.61284" lon="5.89526">
        <ele>804.78</ele>
        <time>2024-06-09T10:51:18Z</time>
      </trkpt>
      <trkpt lat="46.61295" lon="5.8955">
        <ele>802.7</ele>
        <time>2024-06-09T10:51:32Z</time>
      </trkpt>
      <trkpt lat="46.61299" lon="5.89554">
        <ele>801.32</ele>
        <time>2024-06-09T10:51:34Z</time>
      </trkpt>
      <trkpt lat="46.61302" lon="5.89558">
        <ele>805.03</ele>
        <time>2024-06-09T10:51:37Z</time>
      </trkpt>
      <trkpt lat="46.61303" lon="5.8956">
        <ele>804.84</ele>
        <time>2024-06-09T10:51:38Z</time>
      </trkpt>
      <trkpt lat="46.61306" lon="5.89565">
        <ele>804.93</ele>
        <time>2024-06-09T10:51:41Z</time>
      </trkpt>
      <trkpt lat="46.61307" lon="5.89566">
        <ele>804.91</ele>
        <time>2024-06-09T10:51:42Z</time>
      </trkpt>
      <trkpt lat="46.61308" lon="5.89567">
        <ele>804.87</ele>
        <time>2024-06-09T10:51:43Z</time>
      </trkpt>
      <trkpt lat="46.61309" lon="5.89569">
        <ele>801.56</ele>
        <time>2024-06-09T10:51:44Z</time>
      </trkpt>
      <trkpt lat="46.6131" lon="5.8957">
        <ele>801.54</ele>
        <time>2024-06-09T10:51:45Z</time>
      </trkpt>
      <trkpt lat="46.61316" lon="5.89582">
        <ele>803.22</ele>
        <time>2024-06-09T10:51:53Z</time>
      </trkpt>
      <trkpt lat="46.61321" lon="5.89592">
        <ele>799.02</ele>
        <time>2024-06-09T10:51:59Z</time>
      </trkpt>
      <trkpt lat="46.61321" lon="5.89593">
        <ele>799.05</ele>
        <time>2024-06-09T10:52:00Z</time>
      </trkpt>
      <trkpt lat="46.61322" lon="5.89596">
        <ele>799.04</ele>
        <time>2024-06-09T10:52:01Z</time>
      </trkpt>
      <trkpt lat="46.61323" lon="5.89598">
        <ele>799.04</ele>
        <time>2024-06-09T10:52:02Z</time>
      </trkpt>
      <trkpt lat="46.61324" lon="5.896">
        <ele>799</ele>
        <time>2024-06-09T10:52:03Z</time>
      </trkpt>
      <trkpt lat="46.61325" lon="5.89601">
        <ele>799.02</ele>
        <time>2024-06-09T10:52:04Z</time>
      </trkpt>
      <trkpt lat="46.61325" lon="5.89603">
        <ele>799.05</ele>
        <time>2024-06-09T10:52:05Z</time>
      </trkpt>
      <trkpt lat="46.61328" lon="5.8961">
        <ele>802.13</ele>
        <time>2024-06-09T10:52:08Z</time>
      </trkpt>
      <trkpt lat="46.61329" lon="5.89612">
        <ele>802.11</ele>
        <time>2024-06-09T10:52:09Z</time>
      </trkpt>
      <trkpt lat="46.61329" lon="5.89615">
        <ele>798.92</ele>
        <time>2024-06-09T10:52:11Z</time>
      </trkpt>
      <trkpt lat="46.6133" lon="5.89617">
        <ele>798.87</ele>
        <time>2024-06-09T10:52:12Z</time>
      </trkpt>
      <trkpt lat="46.61333" lon="5.89621">
        <ele>797.32</ele>
        <time>2024-06-09T10:52:14Z</time>
      </trkpt>
      <trkpt lat="46.61337" lon="5.89631">
        <ele>800.78</ele>
        <time>2024-06-09T10:52:19Z</time>
      </trkpt>
      <trkpt lat="46.61337" lon="5.89633">
        <ele>800.78</ele>
        <time>2024-06-09T10:52:20Z</time>
      </trkpt>
      <trkpt lat="46.61338" lon="5.89638">
        <ele>797.3</ele>
        <time>2024-06-09T10:52:23Z</time>
      </trkpt>
      <trkpt lat="46.61339" lon="5.89646">
        <ele>799.2</ele>
        <time>2024-06-09T10:52:27Z</time>
      </trkpt>
      <trkpt lat="46.61342" lon="5.89666">
        <ele>800.14</ele>
        <time>2024-06-09T10:52:35Z</time>
      </trkpt>
      <trkpt lat="46.61343" lon="5.89668">
        <ele>795.71</ele>
        <time>2024-06-09T10:52:36Z</time>
      </trkpt>
      <trkpt lat="46.61344" lon="5.8967">
        <ele>795.7</ele>
        <time>2024-06-09T10:52:37Z</time>
      </trkpt>
      <trkpt lat="46.61344" lon="5.89672">
        <ele>798.58</ele>
        <time>2024-06-09T10:52:38Z</time>
      </trkpt>
      <trkpt lat="46.61344" lon="5.89674">
        <ele>798.55</ele>
        <time>2024-06-09T10:52:39Z</time>
      </trkpt>
      <trkpt lat="46.61339" lon="5.89684">
        <ele>800.15</ele>
        <time>2024-06-09T10:52:45Z</time>
      </trkpt>
      <trkpt lat="46.61336" lon="5.8969">
        <ele>800.14</ele>
        <time>2024-06-09T10:52:48Z</time>
      </trkpt>
      <trkpt lat="46.61334" lon="5.89693">
        <ele>796.83</ele>
        <time>2024-06-09T10:52:50Z</time>
      </trkpt>
      <trkpt lat="46.61333" lon="5.89694">
        <ele>796.81</ele>
        <time>2024-06-09T10:52:51Z</time>
      </trkpt>
      <trkpt lat="46.61328" lon="5.89712">
        <ele>800.32</ele>
        <time>2024-06-09T10:53:01Z</time>
      </trkpt>
      <trkpt lat="46.61328" lon="5.89714">
        <ele>800.3</ele>
        <time>2024-06-09T10:53:02Z</time>
      </trkpt>
      <trkpt lat="46.61326" lon="5.8972">
        <ele>800.23</ele>
        <time>2024-06-09T10:53:05Z</time>
      </trkpt>
      <trkpt lat="46.61326" lon="5.89722">
        <ele>800.21</ele>
        <time>2024-06-09T10:53:06Z</time>
      </trkpt>
      <trkpt lat="46.61324" lon="5.89724">
        <ele>797.02</ele>
        <time>2024-06-09T10:53:07Z</time>
      </trkpt>
      <trkpt lat="46.61323" lon="5.89726">
        <ele>797.07</ele>
        <time>2024-06-09T10:53:08Z</time>
      </trkpt>
      <trkpt lat="46.6132" lon="5.89738">
        <ele>799.3</ele>
        <time>2024-06-09T10:53:15Z</time>
      </trkpt>
      <trkpt lat="46.61315" lon="5.89748">
        <ele>801.58</ele>
        <time>2024-06-09T10:53:24Z</time>
      </trkpt>
      <trkpt lat="46.61313" lon="5.89749">
        <ele>798.58</ele>
        <time>2024-06-09T10:53:26Z</time>
      </trkpt>
      <trkpt lat="46.61308" lon="5.89754">
        <ele>798.86</ele>
        <time>2024-06-09T10:53:31Z</time>
      </trkpt>
      <trkpt lat="46.61306" lon="5.89756">
        <ele>801.63</ele>
        <time>2024-06-09T10:53:33Z</time>
      </trkpt>
      <trkpt lat="46.61294" lon="5.89767">
        <ele>801.04</ele>
        <time>2024-06-09T10:53:47Z</time>
      </trkpt>
      <trkpt lat="46.61292" lon="5.89769">
        <ele>805.32</ele>
        <time>2024-06-09T10:53:49Z</time>
      </trkpt>
      <trkpt lat="46.61292" lon="5.89769">
        <ele>805.23</ele>
        <time>2024-06-09T10:53:50Z</time>
      </trkpt>
      <trkpt lat="46.61274" lon="5.89791">
        <ele>804.94</ele>
        <time>2024-06-09T10:54:09Z</time>
      </trkpt>
      <trkpt lat="46.61267" lon="5.89804">
        <ele>808.06</ele>
        <time>2024-06-09T10:54:19Z</time>
      </trkpt>
      <trkpt lat="46.61266" lon="5.89805">
        <ele>808</ele>
        <time>2024-06-09T10:54:20Z</time>
      </trkpt>
      <trkpt lat="46.61258" lon="5.89817">
        <ele>805.66</ele>
        <time>2024-06-09T10:54:30Z</time>
      </trkpt>
      <trkpt lat="46.61253" lon="5.89822">
        <ele>807.98</ele>
        <time>2024-06-09T10:54:35Z</time>
      </trkpt>
      <trkpt lat="46.61251" lon="5.89826">
        <ele>805.42</ele>
        <time>2024-06-09T10:54:38Z</time>
      </trkpt>
      <trkpt lat="46.61247" lon="5.89833">
        <ele>807.5</ele>
        <time>2024-06-09T10:54:43Z</time>
      </trkpt>
      <trkpt lat="46.61245" lon="5.89836">
        <ele>809.35</ele>
        <time>2024-06-09T10:54:45Z</time>
      </trkpt>
      <trkpt lat="46.6124" lon="5.89842">
        <ele>807.72</ele>
        <time>2024-06-09T10:54:52Z</time>
      </trkpt>
      <trkpt lat="46.61233" lon="5.89853">
        <ele>809.8</ele>
        <time>2024-06-09T10:55:02Z</time>
      </trkpt>
      <trkpt lat="46.61231" lon="5.89856">
        <ele>811.1</ele>
        <time>2024-06-09T10:55:04Z</time>
      </trkpt>
      <trkpt lat="46.61229" lon="5.89859">
        <ele>812.41</ele>
        <time>2024-06-09T10:55:07Z</time>
      </trkpt>
      <trkpt lat="46.61223" lon="5.89867">
        <ele>808.88</ele>
        <time>2024-06-09T10:55:13Z</time>
      </trkpt>
      <trkpt lat="46.61222" lon="5.89868">
        <ele>808.88</ele>
        <time>2024-06-09T10:55:14Z</time>
      </trkpt>
      <trkpt lat="46.61221" lon="5.8987">
        <ele>811.92</ele>
        <time>2024-06-09T10:55:15Z</time>
      </trkpt>
      <trkpt lat="46.6122" lon="5.8987">
        <ele>811.73</ele>
        <time>2024-06-09T10:55:16Z</time>
      </trkpt>
      <trkpt lat="46.61218" lon="5.89873">
        <ele>811.71</ele>
        <time>2024-06-09T10:55:18Z</time>
      </trkpt>
      <trkpt lat="46.61209" lon="5.89882">
        <ele>814.48</ele>
        <time>2024-06-09T10:55:30Z</time>
      </trkpt>
      <trkpt lat="46.61206" lon="5.89883">
        <ele>811.91</ele>
        <time>2024-06-09T10:55:33Z</time>
      </trkpt>
      <trkpt lat="46.61201" lon="5.8989">
        <ele>814.05</ele>
        <time>2024-06-09T10:55:44Z</time>
      </trkpt>
      <trkpt lat="46.61197" lon="5.89895">
        <ele>815.45</ele>
        <time>2024-06-09T10:55:48Z</time>
      </trkpt>
      <trkpt lat="46.61192" lon="5.89903">
        <ele>813.9</ele>
        <time>2024-06-09T10:55:53Z</time>
      </trkpt>
      <trkpt lat="46.61188" lon="5.8991">
        <ele>815.41</ele>
        <time>2024-06-09T10:55:57Z</time>
      </trkpt>
      <trkpt lat="46.61184" lon="5.89919">
        <ele>816.87</ele>
        <time>2024-06-09T10:56:02Z</time>
      </trkpt>
      <trkpt lat="46.61182" lon="5.89921">
        <ele>818.77</ele>
        <time>2024-06-09T10:56:04Z</time>
      </trkpt>
      <trkpt lat="46.61181" lon="5.89925">
        <ele>816.03</ele>
        <time>2024-06-09T10:56:06Z</time>
      </trkpt>
      <trkpt lat="46.61181" lon="5.89929">
        <ele>815.94</ele>
        <time>2024-06-09T10:56:09Z</time>
      </trkpt>
      <trkpt lat="46.61181" lon="5.89931">
        <ele>815.9</ele>
        <time>2024-06-09T10:56:10Z</time>
      </trkpt>
      <trkpt lat="46.61181" lon="5.89932">
        <ele>815.09</ele>
        <time>2024-06-09T10:56:11Z</time>
      </trkpt>
      <trkpt lat="46.61179" lon="5.89938">
        <ele>817.86</ele>
        <time>2024-06-09T10:56:14Z</time>
      </trkpt>
      <trkpt lat="46.61177" lon="5.8995">
        <ele>818.05</ele>
        <time>2024-06-09T10:56:21Z</time>
      </trkpt>
      <trkpt lat="46.61174" lon="5.89956">
        <ele>817.89</ele>
        <time>2024-06-09T10:56:25Z</time>
      </trkpt>
      <trkpt lat="46.61167" lon="5.89963">
        <ele>814.19</ele>
        <time>2024-06-09T10:56:29Z</time>
      </trkpt>
      <trkpt lat="46.61168" lon="5.89965">
        <ele>814.18</ele>
        <time>2024-06-09T10:56:30Z</time>
      </trkpt>
      <trkpt lat="46.61167" lon="5.89969">
        <ele>817.3</ele>
        <time>2024-06-09T10:56:32Z</time>
      </trkpt>
      <trkpt lat="46.61166" lon="5.89971">
        <ele>817.25</ele>
        <time>2024-06-09T10:56:33Z</time>
      </trkpt>
      <trkpt lat="46.61165" lon="5.89973">
        <ele>817.23</ele>
        <time>2024-06-09T10:56:34Z</time>
      </trkpt>
      <trkpt lat="46.61165" lon="5.89975">
        <ele>814.92</ele>
        <time>2024-06-09T10:56:35Z</time>
      </trkpt>
      <trkpt lat="46.61157" lon="5.89994">
        <ele>819.07</ele>
        <time>2024-06-09T10:56:46Z</time>
      </trkpt>
      <trkpt lat="46.61156" lon="5.89996">
        <ele>818.89</ele>
        <time>2024-06-09T10:56:47Z</time>
      </trkpt>
      <trkpt lat="46.61155" lon="5.89999">
        <ele>816.29</ele>
        <time>2024-06-09T10:56:49Z</time>
      </trkpt>
      <trkpt lat="46.61154" lon="5.90002">
        <ele>814.85</ele>
        <time>2024-06-09T10:56:51Z</time>
      </trkpt>
      <trkpt lat="46.6115" lon="5.90006">
        <ele>816.76</ele>
        <time>2024-06-09T10:56:54Z</time>
      </trkpt>
      <trkpt lat="46.61139" lon="5.90022">
        <ele>815.26</ele>
        <time>2024-06-09T10:57:02Z</time>
      </trkpt>
      <trkpt lat="46.6113" lon="5.90027">
        <ele>817.97</ele>
        <time>2024-06-09T10:57:06Z</time>
      </trkpt>
      <trkpt lat="46.61129" lon="5.90031">
        <ele>819.4</ele>
        <time>2024-06-09T10:57:08Z</time>
      </trkpt>
      <trkpt lat="46.6113" lon="5.90033">
        <ele>816.42</ele>
        <time>2024-06-09T10:57:09Z</time>
      </trkpt>
      <trkpt lat="46.61127" lon="5.90034">
        <ele>816.39</ele>
        <time>2024-06-09T10:57:10Z</time>
      </trkpt>
      <trkpt lat="46.61123" lon="5.90035">
        <ele>816.36</ele>
        <time>2024-06-09T10:57:11Z</time>
      </trkpt>
      <trkpt lat="46.6112" lon="5.90036">
        <ele>816.33</ele>
        <time>2024-06-09T10:57:12Z</time>
      </trkpt>
      <trkpt lat="46.61119" lon="5.90037">
        <ele>816.31</ele>
        <time>2024-06-09T10:57:13Z</time>
      </trkpt>
      <trkpt lat="46.61115" lon="5.90038">
        <ele>816.28</ele>
        <time>2024-06-09T10:57:14Z</time>
      </trkpt>
      <trkpt lat="46.61113" lon="5.90039">
        <ele>816.26</ele>
        <time>2024-06-09T10:57:15Z</time>
      </trkpt>
      <trkpt lat="46.61111" lon="5.90041">
        <ele>820.04</ele>
        <time>2024-06-09T10:57:16Z</time>
      </trkpt>
      <trkpt lat="46.61109" lon="5.90043">
        <ele>820</ele>
        <time>2024-06-09T10:57:17Z</time>
      </trkpt>
      <trkpt lat="46.61107" lon="5.90044">
        <ele>819.98</ele>
        <time>2024-06-09T10:57:18Z</time>
      </trkpt>
      <trkpt lat="46.61104" lon="5.90046">
        <ele>817.05</ele>
        <time>2024-06-09T10:57:20Z</time>
      </trkpt>
      <trkpt lat="46.61104" lon="5.90056">
        <ele>820.58</ele>
        <time>2024-06-09T10:57:26Z</time>
      </trkpt>
      <trkpt lat="46.61102" lon="5.90061">
        <ele>815.96</ele>
        <time>2024-06-09T10:57:30Z</time>
      </trkpt>
      <trkpt lat="46.61102" lon="5.90062">
        <ele>816.27</ele>
        <time>2024-06-09T10:57:31Z</time>
      </trkpt>
      <trkpt lat="46.61101" lon="5.90064">
        <ele>819.22</ele>
        <time>2024-06-09T10:57:35Z</time>
      </trkpt>
      <trkpt lat="46.61098" lon="5.90072">
        <ele>816.71</ele>
        <time>2024-06-09T10:57:38Z</time>
      </trkpt>
      <trkpt lat="46.61095" lon="5.90083">
        <ele>819.63</ele>
        <time>2024-06-09T10:57:42Z</time>
      </trkpt>
      <trkpt lat="46.61088" lon="5.90098">
        <ele>820.5</ele>
        <time>2024-06-09T10:57:51Z</time>
      </trkpt>
      <trkpt lat="46.61087" lon="5.90102">
        <ele>817.61</ele>
        <time>2024-06-09T10:57:53Z</time>
      </trkpt>
      <trkpt lat="46.61086" lon="5.90104">
        <ele>817.63</ele>
        <time>2024-06-09T10:57:54Z</time>
      </trkpt>
      <trkpt lat="46.61083" lon="5.90108">
        <ele>817.61</ele>
        <time>2024-06-09T10:57:56Z</time>
      </trkpt>
      <trkpt lat="46.6108" lon="5.90113">
        <ele>820.47</ele>
        <time>2024-06-09T10:58:00Z</time>
      </trkpt>
      <trkpt lat="46.61075" lon="5.90118">
        <ele>819.17</ele>
        <time>2024-06-09T10:58:04Z</time>
      </trkpt>
      <trkpt lat="46.61074" lon="5.9012">
        <ele>819.17</ele>
        <time>2024-06-09T10:58:05Z</time>
      </trkpt>
      <trkpt lat="46.61073" lon="5.90122">
        <ele>819.14</ele>
        <time>2024-06-09T10:58:06Z</time>
      </trkpt>
      <trkpt lat="46.61072" lon="5.90123">
        <ele>819.13</ele>
        <time>2024-06-09T10:58:07Z</time>
      </trkpt>
      <trkpt lat="46.61071" lon="5.90125">
        <ele>819.12</ele>
        <time>2024-06-09T10:58:08Z</time>
      </trkpt>
      <trkpt lat="46.61068" lon="5.90129">
        <ele>821.54</ele>
        <time>2024-06-09T10:58:11Z</time>
      </trkpt>
      <trkpt lat="46.61066" lon="5.90132">
        <ele>817.95</ele>
        <time>2024-06-09T10:58:14Z</time>
      </trkpt>
      <trkpt lat="46.61065" lon="5.90134">
        <ele>817.96</ele>
        <time>2024-06-09T10:58:15Z</time>
      </trkpt>
      <trkpt lat="46.61062" lon="5.90136">
        <ele>820.84</ele>
        <time>2024-06-09T10:58:17Z</time>
      </trkpt>
      <trkpt lat="46.61057" lon="5.90142">
        <ele>822.28</ele>
        <time>2024-06-09T10:58:22Z</time>
      </trkpt>
      <trkpt lat="46.61052" lon="5.90147">
        <ele>818.74</ele>
        <time>2024-06-09T10:58:26Z</time>
      </trkpt>
      <trkpt lat="46.61051" lon="5.90149">
        <ele>818.74</ele>
        <time>2024-06-09T10:58:27Z</time>
      </trkpt>
      <trkpt lat="46.61047" lon="5.90153">
        <ele>821.05</ele>
        <time>2024-06-09T10:58:29Z</time>
      </trkpt>
      <trkpt lat="46.61046" lon="5.90154">
        <ele>820.99</ele>
        <time>2024-06-09T10:58:30Z</time>
      </trkpt>
      <trkpt lat="46.61044" lon="5.90156">
        <ele>822.1</ele>
        <time>2024-06-09T10:58:31Z</time>
      </trkpt>
      <trkpt lat="46.61043" lon="5.90158">
        <ele>823.24</ele>
        <time>2024-06-09T10:58:33Z</time>
      </trkpt>
      <trkpt lat="46.61031" lon="5.90168">
        <ele>820.29</ele>
        <time>2024-06-09T10:58:41Z</time>
      </trkpt>
      <trkpt lat="46.61023" lon="5.90173">
        <ele>821.59</ele>
        <time>2024-06-09T10:58:47Z</time>
      </trkpt>
      <trkpt lat="46.61012" lon="5.90181">
        <ele>823.36</ele>
        <time>2024-06-09T10:58:58Z</time>
      </trkpt>
      <trkpt lat="46.61004" lon="5.90187">
        <ele>820.88</ele>
        <time>2024-06-09T10:59:07Z</time>
      </trkpt>
      <trkpt lat="46.60997" lon="5.90193">
        <ele>823.41</ele>
        <time>2024-06-09T10:59:17Z</time>
      </trkpt>
      <trkpt lat="46.60992" lon="5.90195">
        <ele>820.91</ele>
        <time>2024-06-09T10:59:18Z</time>
      </trkpt>
      <trkpt lat="46.60992" lon="5.90195">
        <ele>823.44</ele>
        <time>2024-06-09T10:59:46Z</time>
      </trkpt>
      <trkpt lat="46.60992" lon="5.90195">
        <ele>824.94</ele>
        <time>2024-06-09T10:59:54Z</time>
      </trkpt>
      <trkpt lat="46.60992" lon="5.90195">
        <ele>823.29</ele>
        <time>2024-06-09T10:59:59Z</time>
      </trkpt>
      <trkpt lat="46.60992" lon="5.90195">
        <ele>825.89</ele>
        <time>2024-06-09T11:00:04Z</time>
      </trkpt>
      <trkpt lat="46.60992" lon="5.90195">
        <ele>825.47</ele>
        <time>2024-06-09T11:00:49Z</time>
      </trkpt>
      <trkpt lat="46.60992" lon="5.90195">
        <ele>826.82</ele>
        <time>2024-06-09T11:00:58Z</time>
      </trkpt>
      <trkpt lat="46.60992" lon="5.90195">
        <ele>826.16</ele>
        <time>2024-06-09T11:01:24Z</time>
      </trkpt>
      <trkpt lat="46.60992" lon="5.90195">
        <ele>829.31</ele>
        <time>2024-06-09T11:01:30Z</time>
      </trkpt>
      <trkpt lat="46.60992" lon="5.90195">
        <ele>829.31</ele>
        <time>2024-06-09T11:01:31Z</time>
      </trkpt>
      <trkpt lat="46.60992" lon="5.90195">
        <ele>827.76</ele>
        <time>2024-06-09T11:01:33Z</time>
      </trkpt>
      <trkpt lat="46.60992" lon="5.90195">
        <ele>826.25</ele>
        <time>2024-06-09T11:01:44Z</time>
      </trkpt>
      <trkpt lat="46.60992" lon="5.90195">
        <ele>829.03</ele>
        <time>2024-06-09T11:01:47Z</time>
      </trkpt>
      <trkpt lat="46.60992" lon="5.90195">
        <ele>831.41</ele>
        <time>2024-06-09T11:01:53Z</time>
      </trkpt>
      <trkpt lat="46.60992" lon="5.90195">
        <ele>828.69</ele>
        <time>2024-06-09T11:01:54Z</time>
      </trkpt>
      <trkpt lat="46.60992" lon="5.90195">
        <ele>830.3</ele>
        <time>2024-06-09T11:02:02Z</time>
      </trkpt>
      <trkpt lat="46.60992" lon="5.90195">
        <ele>828.01</ele>
        <time>2024-06-09T11:02:04Z</time>
      </trkpt>
      <trkpt lat="46.60992" lon="5.90195">
        <ele>826.61</ele>
        <time>2024-06-09T11:02:05Z</time>
      </trkpt>
      <trkpt lat="46.60992" lon="5.90195">
        <ele>829.76</ele>
        <time>2024-06-09T11:02:09Z</time>
      </trkpt>
      <trkpt lat="46.60992" lon="5.90195">
        <ele>829.76</ele>
        <time>2024-06-09T11:02:10Z</time>
      </trkpt>
      <trkpt lat="46.60992" lon="5.90195">
        <ele>831.78</ele>
        <time>2024-06-09T11:02:14Z</time>
      </trkpt>
      <trkpt lat="46.60992" lon="5.90195">
        <ele>829.52</ele>
        <time>2024-06-09T11:02:15Z</time>
      </trkpt>
      <trkpt lat="46.60992" lon="5.90195">
        <ele>828.22</ele>
        <time>2024-06-09T11:02:23Z</time>
      </trkpt>
      <trkpt lat="46.60992" lon="5.90195">
        <ele>830.05</ele>
        <time>2024-06-09T11:02:26Z</time>
      </trkpt>
      <trkpt lat="46.60992" lon="5.90195">
        <ele>832.11</ele>
        <time>2024-06-09T11:02:31Z</time>
      </trkpt>
      <trkpt lat="46.60992" lon="5.90195">
        <ele>829.93</ele>
        <time>2024-06-09T11:02:33Z</time>
      </trkpt>
      <trkpt lat="46.60992" lon="5.90195">
        <ele>831.99</ele>
        <time>2024-06-09T11:02:46Z</time>
      </trkpt>
      <trkpt lat="46.60992" lon="5.90195">
        <ele>833.24</ele>
        <time>2024-06-09T11:02:47Z</time>
      </trkpt>
      <trkpt lat="46.60992" lon="5.90195">
        <ele>830.49</ele>
        <time>2024-06-09T11:02:54Z</time>
      </trkpt>
      <trkpt lat="46.60992" lon="5.90195">
        <ele>829.17</ele>
        <time>2024-06-09T11:02:55Z</time>
      </trkpt>
      <trkpt lat="46.60992" lon="5.90195">
        <ele>831.66</ele>
        <time>2024-06-09T11:03:03Z</time>
      </trkpt>
      <trkpt lat="46.60992" lon="5.90195">
        <ele>833.49</ele>
        <time>2024-06-09T11:03:05Z</time>
      </trkpt>
      <trkpt lat="46.60992" lon="5.90195">
        <ele>830.41</ele>
        <time>2024-06-09T11:03:06Z</time>
      </trkpt>
      <trkpt lat="46.60992" lon="5.90195">
        <ele>833.12</ele>
        <time>2024-06-09T11:03:13Z</time>
      </trkpt>
      <trkpt lat="46.60992" lon="5.90195">
        <ele>834.61</ele>
        <time>2024-06-09T11:03:30Z</time>
      </trkpt>
      <trkpt lat="46.60992" lon="5.90195">
        <ele>833.2</ele>
        <time>2024-06-09T11:03:39Z</time>
      </trkpt>
      <trkpt lat="46.60992" lon="5.90195">
        <ele>835.38</ele>
        <time>2024-06-09T11:03:49Z</time>
      </trkpt>
      <trkpt lat="46.60992" lon="5.90195">
        <ele>832.22</ele>
        <time>2024-06-09T11:03:52Z</time>
      </trkpt>
      <trkpt lat="46.60992" lon="5.90195">
        <ele>835.16</ele>
        <time>2024-06-09T11:03:55Z</time>
      </trkpt>
      <trkpt lat="46.60992" lon="5.90195">
        <ele>833.57</ele>
        <time>2024-06-09T11:04:04Z</time>
      </trkpt>
      <trkpt lat="46.60992" lon="5.90195">
        <ele>835.99</ele>
        <time>2024-06-09T11:04:05Z</time>
      </trkpt>
      <trkpt lat="46.60992" lon="5.90195">
        <ele>833.48</ele>
        <time>2024-06-09T11:04:40Z</time>
      </trkpt>
      <trkpt lat="46.60992" lon="5.90195">
        <ele>835.84</ele>
        <time>2024-06-09T11:04:48Z</time>
      </trkpt>
      <trkpt lat="46.60992" lon="5.90195">
        <ele>837.76</ele>
        <time>2024-06-09T11:04:53Z</time>
      </trkpt>
      <trkpt lat="46.60992" lon="5.90195">
        <ele>834.75</ele>
        <time>2024-06-09T11:04:56Z</time>
      </trkpt>
      <trkpt lat="46.60992" lon="5.90195">
        <ele>838.29</ele>
        <time>2024-06-09T11:04:57Z</time>
      </trkpt>
      <trkpt lat="46.60992" lon="5.90195">
        <ele>834.88</ele>
        <time>2024-06-09T11:05:04Z</time>
      </trkpt>
      <trkpt lat="46.60992" lon="5.90195">
        <ele>837.67</ele>
        <time>2024-06-09T11:05:10Z</time>
      </trkpt>
      <trkpt lat="46.60992" lon="5.90195">
        <ele>836.68</ele>
        <time>2024-06-09T11:05:26Z</time>
      </trkpt>
      <trkpt lat="46.60992" lon="5.90195">
        <ele>838.96</ele>
        <time>2024-06-09T11:05:31Z</time>
      </trkpt>
      <trkpt lat="46.60748" lon="5.90689">
        <ele>840.06</ele>
        <time>2024-06-09T11:05:42Z</time>
      </trkpt>
      <trkpt lat="46.60745" lon="5.90687">
        <ele>837.33</ele>
        <time>2024-06-09T11:05:46Z</time>
      </trkpt>
      <trkpt lat="46.60741" lon="5.90686">
        <ele>841.13</ele>
        <time>2024-06-09T11:05:49Z</time>
      </trkpt>
      <trkpt lat="46.6074" lon="5.90685">
        <ele>841.13</ele>
        <time>2024-06-09T11:05:50Z</time>
      </trkpt>
      <trkpt lat="46.60739" lon="5.90685">
        <ele>838.02</ele>
        <time>2024-06-09T11:05:51Z</time>
      </trkpt>
      <trkpt lat="46.60738" lon="5.90686">
        <ele>838.2</ele>
        <time>2024-06-09T11:05:52Z</time>
      </trkpt>
      <trkpt lat="46.60734" lon="5.90684">
        <ele>840.7</ele>
        <time>2024-06-09T11:05:55Z</time>
      </trkpt>
      <trkpt lat="46.60726" lon="5.9068">
        <ele>837.7</ele>
        <time>2024-06-09T11:06:01Z</time>
      </trkpt>
      <trkpt lat="46.60724" lon="5.90679">
        <ele>837.79</ele>
        <time>2024-06-09T11:06:02Z</time>
      </trkpt>
      <trkpt lat="46.6072" lon="5.90676">
        <ele>840.62</ele>
        <time>2024-06-09T11:06:05Z</time>
      </trkpt>
      <trkpt lat="46.60714" lon="5.9067">
        <ele>842.21</ele>
        <time>2024-06-09T11:06:10Z</time>
      </trkpt>
      <trkpt lat="46.60711" lon="5.90668">
        <ele>837.58</ele>
        <time>2024-06-09T11:06:12Z</time>
      </trkpt>
      <trkpt lat="46.6071" lon="5.90667">
        <ele>837.58</ele>
        <time>2024-06-09T11:06:13Z</time>
      </trkpt>
      <trkpt lat="46.60705" lon="5.90663">
        <ele>840.26</ele>
        <time>2024-06-09T11:06:17Z</time>
      </trkpt>
      <trkpt lat="46.60696" lon="5.90657">
        <ele>841.98</ele>
        <time>2024-06-09T11:06:24Z</time>
      </trkpt>
      <trkpt lat="46.60691" lon="5.90653">
        <ele>839.45</ele>
        <time>2024-06-09T11:06:28Z</time>
      </trkpt>
      <trkpt lat="46.60684" lon="5.90649">
        <ele>840.8</ele>
        <time>2024-06-09T11:06:33Z</time>
      </trkpt>
      <trkpt lat="46.60677" lon="5.90645">
        <ele>843.52</ele>
        <time>2024-06-09T11:06:38Z</time>
      </trkpt>
      <trkpt lat="46.60671" lon="5.9064">
        <ele>840.73</ele>
        <time>2024-06-09T11:06:43Z</time>
      </trkpt>
      <trkpt lat="46.60665" lon="5.90636">
        <ele>840.75</ele>
        <time>2024-06-09T11:06:48Z</time>
      </trkpt>
      <trkpt lat="46.60656" lon="5.90631">
        <ele>843.67</ele>
        <time>2024-06-09T11:06:54Z</time>
      </trkpt>
      <trkpt lat="46.6065" lon="5.90625">
        <ele>839.44</ele>
        <time>2024-06-09T11:06:59Z</time>
      </trkpt>
      <trkpt lat="46.60649" lon="5.90624">
        <ele>842.52</ele>
        <time>2024-06-09T11:07:00Z</time>
      </trkpt>
      <trkpt lat="46.60636" lon="5.90619">
        <ele>845.55</ele>
        <time>2024-06-09T11:07:09Z</time>
      </trkpt>
      <trkpt lat="46.60635" lon="5.90618">
        <ele>845.49</ele>
        <time>2024-06-09T11:07:10Z</time>
      </trkpt>
      <trkpt lat="46.60631" lon="5.90617">
        <ele>840.31</ele>
        <time>2024-06-09T11:07:13Z</time>
      </trkpt>
      <trkpt lat="46.6063" lon="5.90616">
        <ele>840.36</ele>
        <time>2024-06-09T11:07:14Z</time>
      </trkpt>
      <trkpt lat="46.60627" lon="5.90615">
        <ele>843.4</ele>
        <time>2024-06-09T11:07:16Z</time>
      </trkpt>
      <trkpt lat="46.60626" lon="5.90615">
        <ele>843.45</ele>
        <time>2024-06-09T11:07:17Z</time>
      </trkpt>
      <trkpt lat="46.60616" lon="5.90614">
        <ele>844.85</ele>
        <time>2024-06-09T11:07:24Z</time>
      </trkpt>
      <trkpt lat="46.60595" lon="5.90605">
        <ele>846.8</ele>
        <time>2024-06-09T11:07:44Z</time>
      </trkpt>
      <trkpt lat="46.60585" lon="5.90595">
        <ele>849.98</ele>
        <time>2024-06-09T11:07:54Z</time>
      </trkpt>
      <trkpt lat="46.60577" lon="5.90568">
        <ele>851.99</ele>
        <time>2024-06-09T11:08:13Z</time>
      </trkpt>
      <trkpt lat="46.60576" lon="5.90561">
        <ele>849.59</ele>
        <time>2024-06-09T11:08:18Z</time>
      </trkpt>
      <trkpt lat="46.60573" lon="5.90552">
        <ele>852.62</ele>
        <time>2024-06-09T11:08:24Z</time>
      </trkpt>
      <trkpt lat="46.60572" lon="5.90551">
        <ele>852.64</ele>
        <time>2024-06-09T11:08:25Z</time>
      </trkpt>
      <trkpt lat="46.60571" lon="5.90548">
        <ele>854.19</ele>
        <time>2024-06-09T11:08:27Z</time>
      </trkpt>
      <trkpt lat="46.60562" lon="5.90529">
        <ele>855.91</ele>
        <time>2024-06-09T11:08:41Z</time>
      </trkpt>
      <trkpt lat="46.60561" lon="5.90525">
        <ele>853.68</ele>
        <time>2024-06-09T11:08:44Z</time>
      </trkpt>
      <trkpt lat="46.60558" lon="5.90518">
        <ele>856.81</ele>
        <time>2024-06-09T11:08:49Z</time>
      </trkpt>
      <trkpt lat="46.60558" lon="5.90517">
        <ele>856.84</ele>
        <time>2024-06-09T11:08:50Z</time>
      </trkpt>
      <trkpt lat="46.60553" lon="5.90508">
        <ele>856.73</ele>
        <time>2024-06-09T11:09:01Z</time>
      </trkpt>
      <trkpt lat="46.60552" lon="5.90501">
        <ele>859.85</ele>
        <time>2024-06-09T11:09:06Z</time>
      </trkpt>
      <trkpt lat="46.60553" lon="5.905">
        <ele>859.86</ele>
        <time>2024-06-09T11:09:07Z</time>
      </trkpt>
      <trkpt lat="46.60553" lon="5.90497">
        <ele>855.13</ele>
        <time>2024-06-09T11:09:09Z</time>
      </trkpt>
      <trkpt lat="46.60553" lon="5.90495">
        <ele>855.15</ele>
        <time>2024-06-09T11:09:10Z</time>
      </trkpt>
      <trkpt lat="46.60554" lon="5.90489">
        <ele>857.97</ele>
        <time>2024-06-09T11:09:14Z</time>
      </trkpt>
      <trkpt lat="46.60558" lon="5.90472">
        <ele>860.2</ele>
        <time>2024-06-09T11:09:26Z</time>
      </trkpt>
      <trkpt lat="46.60557" lon="5.90467">
        <ele>858.53</ele>
        <time>2024-06-09T11:09:29Z</time>
      </trkpt>
      <trkpt lat="46.60556" lon="5.90457">
        <ele>859.78</ele>
        <time>2024-06-09T11:09:35Z</time>
      </trkpt>
      <trkpt lat="46.60555" lon="5.90453">
        <ele>859.8</ele>
        <time>2024-06-09T11:09:37Z</time>
      </trkpt>
      <trkpt lat="46.6055" lon="5.90447">
        <ele>859.72</ele>
        <time>2024-06-09T11:09:41Z</time>
      </trkpt>
      <trkpt lat="46.60531" lon="5.90432">
        <ele>862.05</ele>
        <time>2024-06-09T11:09:57Z</time>
      </trkpt>
      <trkpt lat="46.60533" lon="5.90422">
        <ele>862.77</ele>
        <time>2024-06-09T11:10:03Z</time>
      </trkpt>
      <trkpt lat="46.60546" lon="5.90401">
        <ele>865.86</ele>
        <time>2024-06-09T11:10:17Z</time>
      </trkpt>
      <trkpt lat="46.60547" lon="5.904">
        <ele>865.83</ele>
        <time>2024-06-09T11:10:18Z</time>
      </trkpt>
      <trkpt lat="46.60561" lon="5.90391">
        <ele>867.45</ele>
        <time>2024-06-09T11:10:28Z</time>
      </trkpt>
      <trkpt lat="46.60564" lon="5.90391">
        <ele>865.21</ele>
        <time>2024-06-09T11:10:31Z</time>
      </trkpt>
      <trkpt lat="46.60572" lon="5.90388">
        <ele>865.37</ele>
        <time>2024-06-09T11:10:41Z</time>
      </trkpt>
      <trkpt lat="46.60544" lon="5.90402">
        <ele>862.62</ele>
        <time>2024-06-09T11:11:03Z</time>
      </trkpt>
      <trkpt lat="46.60542" lon="5.90405">
        <ele>865.48</ele>
        <time>2024-06-09T11:11:05Z</time>
      </trkpt>
      <trkpt lat="46.60536" lon="5.90415">
        <ele>867.14</ele>
        <time>2024-06-09T11:11:11Z</time>
      </trkpt>
      <trkpt lat="46.60533" lon="5.90421">
        <ele>863.13</ele>
        <time>2024-06-09T11:11:15Z</time>
      </trkpt>
      <trkpt lat="46.60532" lon="5.90423">
        <ele>863.11</ele>
        <time>2024-06-09T11:11:16Z</time>
      </trkpt>
      <trkpt lat="46.60528" lon="5.90429">
        <ele>862.32</ele>
        <time>2024-06-09T11:11:21Z</time>
      </trkpt>
      <trkpt lat="46.60522" lon="5.90427">
        <ele>862.39</ele>
        <time>2024-06-09T11:11:26Z</time>
      </trkpt>
      <trkpt lat="46.60514" lon="5.90423">
        <ele>866</ele>
        <time>2024-06-09T11:11:32Z</time>
      </trkpt>
      <trkpt lat="46.60513" lon="5.90422">
        <ele>866</ele>
        <time>2024-06-09T11:11:33Z</time>
      </trkpt>
      <trkpt lat="46.60498" lon="5.90416">
        <ele>868.61</ele>
        <time>2024-06-09T11:11:45Z</time>
      </trkpt>
      <trkpt lat="46.60494" lon="5.9042">
        <ele>865.44</ele>
        <time>2024-06-09T11:11:48Z</time>
      </trkpt>
      <trkpt lat="46.60493" lon="5.9042">
        <ele>865.43</ele>
        <time>2024-06-09T11:11:49Z</time>
      </trkpt>
      <trkpt lat="46.60491" lon="5.90422">
        <ele>863</ele>
        <time>2024-06-09T11:11:51Z</time>
      </trkpt>
      <trkpt lat="46.60477" lon="5.90431">
        <ele>866.47</ele>
        <time>2024-06-09T11:12:02Z</time>
      </trkpt>
      <trkpt lat="46.60476" lon="5.90432">
        <ele>866.4</ele>
        <time>2024-06-09T11:12:03Z</time>
      </trkpt>
      <trkpt lat="46.60468" lon="5.9043">
        <ele>862.8</ele>
        <time>2024-06-09T11:12:15Z</time>
      </trkpt>
      <trkpt lat="46.60467" lon="5.9043">
        <ele>866.41</ele>
        <time>2024-06-09T11:12:16Z</time>
      </trkpt>
      <trkpt lat="46.60467" lon="5.90429">
        <ele>862.51</ele>
        <time>2024-06-09T11:12:19Z</time>
      </trkpt>
      <trkpt lat="46.60466" lon="5.90429">
        <ele>865.35</ele>
        <time>2024-06-09T11:12:22Z</time>
      </trkpt>
      <trkpt lat="46.60465" lon="5.90429">
        <ele>868.35</ele>
        <time>2024-06-09T11:12:24Z</time>
      </trkpt>
      <trkpt lat="46.60464" lon="5.90428">
        <ele>868.4</ele>
        <time>2024-06-09T11:12:25Z</time>
      </trkpt>
      <trkpt lat="46.60464" lon="5.90427">
        <ele>865.22</ele>
        <time>2024-06-09T11:12:27Z</time>
      </trkpt>
      <trkpt lat="46.60464" lon="5.90427">
        <ele>865.32</ele>
        <time>2024-06-09T11:12:28Z</time>
      </trkpt>
      <trkpt lat="46.60463" lon="5.90423">
        <ele>864.44</ele>
        <time>2024-06-09T11:12:47Z</time>
      </trkpt>
      <trkpt lat="46.60461" lon="5.90422">
        <ele>864.14</ele>
        <time>2024-06-09T11:13:31Z</time>
      </trkpt>
      <trkpt lat="46.60462" lon="5.90424">
        <ele>859.71</ele>
        <time>2024-06-09T11:13:41Z</time>
      </trkpt>
      <trkpt lat="46.60461" lon="5.90424">
        <ele>866</ele>
        <time>2024-06-09T11:13:42Z</time>
      </trkpt>
      <trkpt lat="46.60462" lon="5.90425">
        <ele>866.02</ele>
        <time>2024-06-09T11:13:43Z</time>
      </trkpt>
      <trkpt lat="46.60462" lon="5.90424">
        <ele>862.88</ele>
        <time>2024-06-09T11:13:45Z</time>
      </trkpt>
      <trkpt lat="46.60462" lon="5.90424">
        <ele>862.89</ele>
        <time>2024-06-09T11:13:46Z</time>
      </trkpt>
      <trkpt lat="46.60461" lon="5.90425">
        <ele>865.34</ele>
        <time>2024-06-09T11:13:49Z</time>
      </trkpt>
      <trkpt lat="46.60461" lon="5.90425">
        <ele>843.75</ele>
        <time>2024-06-09T11:13:55Z</time>
      </trkpt>
    </trkseg>
  </trk>
</gpx>